<gpx xmlns="http://www.topografix.com/GPX/1/1" xmlns:xsi="http://www.w3.org/2001/XMLSchema-instance" version="1.1" xsi:schemaLocation="http://www.topografix.com/GPX/1/1 http://www.topografix.com/GPX/1/1/gpx.xsd" creator="MotionXGPSFull 24.1 Build 5049R64">
<trk>
<name>Marno 1st Feb 17</name>
<desc>1 Feb 2017  7:32 am</desc>
<trkseg>
<trkpt lat="-27.3581809" lon="152.9694700">
<ele>18.546</ele>
<time>2017-01-31T21:32:06.000Z</time>
</trkpt>
<trkpt lat="-27.3581809" lon="152.9694700">
<ele>18.683</ele>
<time>2017-01-31T21:32:06.999Z</time>
</trkpt>
<trkpt lat="-27.3581809" lon="152.9694700">
<ele>19.046</ele>
<time>2017-01-31T21:32:07.999Z</time>
</trkpt>
<trkpt lat="-27.3581809" lon="152.9694700">
<ele>19.347</ele>
<time>2017-01-31T21:34:37.106Z</time>
</trkpt>
<trkpt lat="-27.3580261" lon="152.9694502">
<ele>19.334</ele>
<time>2017-01-31T21:34:46.575Z</time>
</trkpt>
<trkpt lat="-27.3579439" lon="152.9694959">
<ele>20.015</ele>
<time>2017-01-31T21:34:49.459Z</time>
</trkpt>
<trkpt lat="-27.3578799" lon="152.9695844">
<ele>22.104</ele>
<time>2017-01-31T21:34:52.486Z</time>
</trkpt>
<trkpt lat="-27.3577828" lon="152.9696293">
<ele>24.262</ele>
<time>2017-01-31T21:34:54.264Z</time>
</trkpt>
<trkpt lat="-27.3575672" lon="152.9695542">
<ele>25.161</ele>
<time>2017-01-31T21:34:56.632Z</time>
</trkpt>
<trkpt lat="-27.3570977" lon="152.9694526">
<ele>25.202</ele>
<time>2017-01-31T21:35:00.554Z</time>
</trkpt>
<trkpt lat="-27.3567451" lon="152.9694110">
<ele>25.084</ele>
<time>2017-01-31T21:35:02.949Z</time>
</trkpt>
<trkpt lat="-27.3562158" lon="152.9693949">
<ele>25.088</ele>
<time>2017-01-31T21:35:06.022Z</time>
</trkpt>
<trkpt lat="-27.3558687" lon="152.9693871">
<ele>25.518</ele>
<time>2017-01-31T21:35:07.977Z</time>
</trkpt>
<trkpt lat="-27.3555808" lon="152.9693420">
<ele>26.609</ele>
<time>2017-01-31T21:35:09.617Z</time>
</trkpt>
<trkpt lat="-27.3550132" lon="152.9691800">
<ele>28.094</ele>
<time>2017-01-31T21:35:12.886Z</time>
</trkpt>
<trkpt lat="-27.3545433" lon="152.9688914">
<ele>29.437</ele>
<time>2017-01-31T21:35:15.846Z</time>
</trkpt>
<trkpt lat="-27.3542642" lon="152.9686487">
<ele>30.256</ele>
<time>2017-01-31T21:35:17.790Z</time>
</trkpt>
<trkpt lat="-27.3538785" lon="152.9682216">
<ele>30.350</ele>
<time>2017-01-31T21:35:20.796Z</time>
</trkpt>
<trkpt lat="-27.3536492" lon="152.9679429">
<ele>29.700</ele>
<time>2017-01-31T21:35:22.692Z</time>
</trkpt>
<trkpt lat="-27.3533041" lon="152.9675145">
<ele>28.640</ele>
<time>2017-01-31T21:35:25.601Z</time>
</trkpt>
<trkpt lat="-27.3529190" lon="152.9671255">
<ele>27.803</ele>
<time>2017-01-31T21:35:28.543Z</time>
</trkpt>
<trkpt lat="-27.3526418" lon="152.9669006">
<ele>27.619</ele>
<time>2017-01-31T21:35:30.472Z</time>
</trkpt>
<trkpt lat="-27.3521802" lon="152.9666541">
<ele>28.154</ele>
<time>2017-01-31T21:35:33.335Z</time>
</trkpt>
<trkpt lat="-27.3516725" lon="152.9664807">
<ele>29.544</ele>
<time>2017-01-31T21:35:36.314Z</time>
</trkpt>
<trkpt lat="-27.3513264" lon="152.9664177">
<ele>31.687</ele>
<time>2017-01-31T21:35:38.279Z</time>
</trkpt>
<trkpt lat="-27.3509775" lon="152.9664194">
<ele>33.740</ele>
<time>2017-01-31T21:35:40.218Z</time>
</trkpt>
<trkpt lat="-27.3506186" lon="152.9664290">
<ele>34.887</ele>
<time>2017-01-31T21:35:42.201Z</time>
</trkpt>
<trkpt lat="-27.3500736" lon="152.9664248">
<ele>34.913</ele>
<time>2017-01-31T21:35:45.222Z</time>
</trkpt>
<trkpt lat="-27.3495528" lon="152.9663595">
<ele>33.633</ele>
<time>2017-01-31T21:35:48.138Z</time>
</trkpt>
<trkpt lat="-27.3490314" lon="152.9662058">
<ele>31.106</ele>
<time>2017-01-31T21:35:51.152Z</time>
</trkpt>
<trkpt lat="-27.3485324" lon="152.9660307">
<ele>27.685</ele>
<time>2017-01-31T21:35:54.086Z</time>
</trkpt>
<trkpt lat="-27.3481941" lon="152.9659241">
<ele>24.028</ele>
<time>2017-01-31T21:35:56.063Z</time>
</trkpt>
<trkpt lat="-27.3477073" lon="152.9657026">
<ele>21.125</ele>
<time>2017-01-31T21:35:59.021Z</time>
</trkpt>
<trkpt lat="-27.3472456" lon="152.9654027">
<ele>19.550</ele>
<time>2017-01-31T21:36:02.021Z</time>
</trkpt>
<trkpt lat="-27.3469687" lon="152.9651569">
<ele>18.980</ele>
<time>2017-01-31T21:36:04.003Z</time>
</trkpt>
<trkpt lat="-27.3466066" lon="152.9647356">
<ele>18.807</ele>
<time>2017-01-31T21:36:06.938Z</time>
</trkpt>
<trkpt lat="-27.3463960" lon="152.9644313">
<ele>18.554</ele>
<time>2017-01-31T21:36:08.875Z</time>
</trkpt>
<trkpt lat="-27.3461983" lon="152.9641100">
<ele>18.122</ele>
<time>2017-01-31T21:36:10.833Z</time>
</trkpt>
<trkpt lat="-27.3459112" lon="152.9636220">
<ele>17.820</ele>
<time>2017-01-31T21:36:13.757Z</time>
</trkpt>
<trkpt lat="-27.3456032" lon="152.9631393">
<ele>18.026</ele>
<time>2017-01-31T21:36:16.718Z</time>
</trkpt>
<trkpt lat="-27.3454002" lon="152.9628308">
<ele>18.747</ele>
<time>2017-01-31T21:36:18.643Z</time>
</trkpt>
<trkpt lat="-27.3451950" lon="152.9625292">
<ele>19.589</ele>
<time>2017-01-31T21:36:20.563Z</time>
</trkpt>
<trkpt lat="-27.3448265" lon="152.9621218">
<ele>19.954</ele>
<time>2017-01-31T21:36:23.488Z</time>
</trkpt>
<trkpt lat="-27.3444102" lon="152.9617779">
<ele>19.591</ele>
<time>2017-01-31T21:36:26.380Z</time>
</trkpt>
<trkpt lat="-27.3440918" lon="152.9615783">
<ele>18.557</ele>
<time>2017-01-31T21:36:28.406Z</time>
</trkpt>
<trkpt lat="-27.3435868" lon="152.9613514">
<ele>16.999</ele>
<time>2017-01-31T21:36:31.422Z</time>
</trkpt>
<trkpt lat="-27.3432407" lon="152.9612626">
<ele>15.078</ele>
<time>2017-01-31T21:36:33.383Z</time>
</trkpt>
<trkpt lat="-27.3428859" lon="152.9612106">
<ele>13.028</ele>
<time>2017-01-31T21:36:35.373Z</time>
</trkpt>
<trkpt lat="-27.3425358" lon="152.9611645">
<ele>11.145</ele>
<time>2017-01-31T21:36:37.355Z</time>
</trkpt>
<trkpt lat="-27.3421877" lon="152.9611398">
<ele>9.696</ele>
<time>2017-01-31T21:36:39.323Z</time>
</trkpt>
<trkpt lat="-27.3418439" lon="152.9611043">
<ele>8.787</ele>
<time>2017-01-31T21:36:41.272Z</time>
</trkpt>
<trkpt lat="-27.3413304" lon="152.9610500">
<ele>8.644</ele>
<time>2017-01-31T21:36:44.205Z</time>
</trkpt>
<trkpt lat="-27.3409842" lon="152.9610284">
<ele>9.319</ele>
<time>2017-01-31T21:36:46.249Z</time>
</trkpt>
<trkpt lat="-27.3406637" lon="152.9609984">
<ele>10.341</ele>
<time>2017-01-31T21:36:48.256Z</time>
</trkpt>
<trkpt lat="-27.3403752" lon="152.9609673">
<ele>11.213</ele>
<time>2017-01-31T21:36:50.217Z</time>
</trkpt>
<trkpt lat="-27.3399736" lon="152.9609289">
<ele>11.991</ele>
<time>2017-01-31T21:36:53.139Z</time>
</trkpt>
<trkpt lat="-27.3397374" lon="152.9608847">
<ele>13.036</ele>
<time>2017-01-31T21:36:55.058Z</time>
</trkpt>
<trkpt lat="-27.3394043" lon="152.9607801">
<ele>14.455</ele>
<time>2017-01-31T21:36:58.093Z</time>
</trkpt>
<trkpt lat="-27.3391609" lon="152.9606762">
<ele>16.052</ele>
<time>2017-01-31T21:37:00.812Z</time>
</trkpt>
<trkpt lat="-27.3389701" lon="152.9606117">
<ele>17.479</ele>
<time>2017-01-31T21:37:03.621Z</time>
</trkpt>
<trkpt lat="-27.3388685" lon="152.9605795">
<ele>18.434</ele>
<time>2017-01-31T21:37:05.999Z</time>
</trkpt>
<trkpt lat="-27.3388685" lon="152.9605795">
<ele>18.860</ele>
<time>2017-01-31T21:37:07.999Z</time>
</trkpt>
<trkpt lat="-27.3388685" lon="152.9605795">
<ele>18.959</ele>
<time>2017-01-31T21:37:11.727Z</time>
</trkpt>
<trkpt lat="-27.3386781" lon="152.9605384">
<ele>18.919</ele>
<time>2017-01-31T21:37:16.142Z</time>
</trkpt>
<trkpt lat="-27.3384841" lon="152.9605114">
<ele>19.119</ele>
<time>2017-01-31T21:37:18.151Z</time>
</trkpt>
<trkpt lat="-27.3381172" lon="152.9605078">
<ele>20.001</ele>
<time>2017-01-31T21:37:21.186Z</time>
</trkpt>
<trkpt lat="-27.3377319" lon="152.9605294">
<ele>21.546</ele>
<time>2017-01-31T21:37:23.953Z</time>
</trkpt>
<trkpt lat="-27.3373061" lon="152.9605979">
<ele>23.118</ele>
<time>2017-01-31T21:37:26.889Z</time>
</trkpt>
<trkpt lat="-27.3368830" lon="152.9606345">
<ele>24.067</ele>
<time>2017-01-31T21:37:30.023Z</time>
</trkpt>
<trkpt lat="-27.3366126" lon="152.9606575">
<ele>24.052</ele>
<time>2017-01-31T21:37:32.679Z</time>
</trkpt>
<trkpt lat="-27.3364518" lon="152.9606906">
<ele>22.864</ele>
<time>2017-01-31T21:37:34.999Z</time>
</trkpt>
<trkpt lat="-27.3364518" lon="152.9606906">
<ele>20.943</ele>
<time>2017-01-31T21:37:39.999Z</time>
</trkpt>
<trkpt lat="-27.3364518" lon="152.9606906">
<ele>19.668</ele>
<time>2017-01-31T21:38:56.927Z</time>
</trkpt>
<trkpt lat="-27.3362055" lon="152.9607782">
<ele>19.986</ele>
<time>2017-01-31T21:39:02.679Z</time>
</trkpt>
<trkpt lat="-27.3360222" lon="152.9608129">
<ele>21.927</ele>
<time>2017-01-31T21:39:04.610Z</time>
</trkpt>
<trkpt lat="-27.3357213" lon="152.9608860">
<ele>24.776</ele>
<time>2017-01-31T21:39:07.369Z</time>
</trkpt>
<trkpt lat="-27.3353280" lon="152.9609735">
<ele>27.396</ele>
<time>2017-01-31T21:39:10.428Z</time>
</trkpt>
<trkpt lat="-27.3348922" lon="152.9610603">
<ele>29.404</ele>
<time>2017-01-31T21:39:13.533Z</time>
</trkpt>
<trkpt lat="-27.3346071" lon="152.9611054">
<ele>31.022</ele>
<time>2017-01-31T21:39:15.509Z</time>
</trkpt>
<trkpt lat="-27.3343139" lon="152.9611536">
<ele>32.067</ele>
<time>2017-01-31T21:39:17.519Z</time>
</trkpt>
<trkpt lat="-27.3340176" lon="152.9611985">
<ele>32.291</ele>
<time>2017-01-31T21:39:19.509Z</time>
</trkpt>
<trkpt lat="-27.3337139" lon="152.9612382">
<ele>31.782</ele>
<time>2017-01-31T21:39:21.467Z</time>
</trkpt>
<trkpt lat="-27.3332333" lon="152.9612834">
<ele>30.839</ele>
<time>2017-01-31T21:39:24.438Z</time>
</trkpt>
<trkpt lat="-27.3327269" lon="152.9613168">
<ele>29.510</ele>
<time>2017-01-31T21:39:27.432Z</time>
</trkpt>
<trkpt lat="-27.3322144" lon="152.9613717">
<ele>27.439</ele>
<time>2017-01-31T21:39:30.420Z</time>
</trkpt>
<trkpt lat="-27.3318746" lon="152.9614185">
<ele>24.906</ele>
<time>2017-01-31T21:39:32.392Z</time>
</trkpt>
<trkpt lat="-27.3315255" lon="152.9614757">
<ele>22.880</ele>
<time>2017-01-31T21:39:34.416Z</time>
</trkpt>
<trkpt lat="-27.3311850" lon="152.9615402">
<ele>21.914</ele>
<time>2017-01-31T21:39:36.410Z</time>
</trkpt>
<trkpt lat="-27.3308431" lon="152.9616084">
<ele>21.821</ele>
<time>2017-01-31T21:39:38.428Z</time>
</trkpt>
<trkpt lat="-27.3303375" lon="152.9617104">
<ele>22.392</ele>
<time>2017-01-31T21:39:41.430Z</time>
</trkpt>
<trkpt lat="-27.3298432" lon="152.9617997">
<ele>23.644</ele>
<time>2017-01-31T21:39:44.375Z</time>
</trkpt>
<trkpt lat="-27.3293413" lon="152.9618913">
<ele>25.214</ele>
<time>2017-01-31T21:39:47.352Z</time>
</trkpt>
<trkpt lat="-27.3290028" lon="152.9619671">
<ele>26.224</ele>
<time>2017-01-31T21:39:49.367Z</time>
</trkpt>
<trkpt lat="-27.3286794" lon="152.9620249">
<ele>26.120</ele>
<time>2017-01-31T21:39:51.281Z</time>
</trkpt>
<trkpt lat="-27.3281789" lon="152.9621449">
<ele>25.105</ele>
<time>2017-01-31T21:39:54.261Z</time>
</trkpt>
<trkpt lat="-27.3278455" lon="152.9622358">
<ele>23.865</ele>
<time>2017-01-31T21:39:56.273Z</time>
</trkpt>
<trkpt lat="-27.3275255" lon="152.9623048">
<ele>22.988</ele>
<time>2017-01-31T21:39:58.211Z</time>
</trkpt>
<trkpt lat="-27.3270307" lon="152.9623996">
<ele>22.827</ele>
<time>2017-01-31T21:40:01.214Z</time>
</trkpt>
<trkpt lat="-27.3267040" lon="152.9624601">
<ele>23.967</ele>
<time>2017-01-31T21:40:03.205Z</time>
</trkpt>
<trkpt lat="-27.3262117" lon="152.9625503">
<ele>26.605</ele>
<time>2017-01-31T21:40:06.193Z</time>
</trkpt>
<trkpt lat="-27.3258644" lon="152.9626236">
<ele>30.220</ele>
<time>2017-01-31T21:40:08.272Z</time>
</trkpt>
<trkpt lat="-27.3253988" lon="152.9628129">
<ele>33.915</ele>
<time>2017-01-31T21:40:11.222Z</time>
</trkpt>
<trkpt lat="-27.3252028" lon="152.9629548">
<ele>36.659</ele>
<time>2017-01-31T21:40:12.751Z</time>
</trkpt>
<trkpt lat="-27.3249942" lon="152.9631455">
<ele>37.882</ele>
<time>2017-01-31T21:40:14.747Z</time>
</trkpt>
<trkpt lat="-27.3243238" lon="152.9634212">
<ele>37.673</ele>
<time>2017-01-31T21:40:20.469Z</time>
</trkpt>
<trkpt lat="-27.3238894" lon="152.9634683">
<ele>36.711</ele>
<time>2017-01-31T21:40:23.579Z</time>
</trkpt>
<trkpt lat="-27.3233909" lon="152.9634712">
<ele>35.229</ele>
<time>2017-01-31T21:40:26.615Z</time>
</trkpt>
<trkpt lat="-27.3228430" lon="152.9635184">
<ele>33.648</ele>
<time>2017-01-31T21:40:29.694Z</time>
</trkpt>
<trkpt lat="-27.3224960" lon="152.9635457">
<ele>32.043</ele>
<time>2017-01-31T21:40:31.625Z</time>
</trkpt>
<trkpt lat="-27.3219610" lon="152.9635678">
<ele>30.068</ele>
<time>2017-01-31T21:40:34.645Z</time>
</trkpt>
<trkpt lat="-27.3216164" lon="152.9635837">
<ele>27.575</ele>
<time>2017-01-31T21:40:36.604Z</time>
</trkpt>
<trkpt lat="-27.3212948" lon="152.9635877">
<ele>24.988</ele>
<time>2017-01-31T21:40:38.435Z</time>
</trkpt>
<trkpt lat="-27.3207461" lon="152.9635909">
<ele>23.026</ele>
<time>2017-01-31T21:40:41.552Z</time>
</trkpt>
<trkpt lat="-27.3203893" lon="152.9636046">
<ele>22.068</ele>
<time>2017-01-31T21:40:43.568Z</time>
</trkpt>
<trkpt lat="-27.3198659" lon="152.9636230">
<ele>21.892</ele>
<time>2017-01-31T21:40:46.529Z</time>
</trkpt>
<trkpt lat="-27.3193388" lon="152.9636430">
<ele>22.324</ele>
<time>2017-01-31T21:40:49.518Z</time>
</trkpt>
<trkpt lat="-27.3189859" lon="152.9636589">
<ele>23.792</ele>
<time>2017-01-31T21:40:51.516Z</time>
</trkpt>
<trkpt lat="-27.3184509" lon="152.9636668">
<ele>26.550</ele>
<time>2017-01-31T21:40:54.535Z</time>
</trkpt>
<trkpt lat="-27.3179073" lon="152.9636831">
<ele>30.180</ele>
<time>2017-01-31T21:40:57.601Z</time>
</trkpt>
<trkpt lat="-27.3175607" lon="152.9636858">
<ele>34.187</ele>
<time>2017-01-31T21:40:59.569Z</time>
</trkpt>
<trkpt lat="-27.3170337" lon="152.9637052">
<ele>38.006</ele>
<time>2017-01-31T21:41:02.584Z</time>
</trkpt>
<trkpt lat="-27.3165082" lon="152.9637246">
<ele>40.892</ele>
<time>2017-01-31T21:41:05.591Z</time>
</trkpt>
<trkpt lat="-27.3161665" lon="152.9637316">
<ele>42.482</ele>
<time>2017-01-31T21:41:07.595Z</time>
</trkpt>
<trkpt lat="-27.3157042" lon="152.9637530">
<ele>42.980</ele>
<time>2017-01-31T21:41:10.599Z</time>
</trkpt>
<trkpt lat="-27.3154512" lon="152.9636318">
<ele>42.439</ele>
<time>2017-01-31T21:41:12.796Z</time>
</trkpt>
<trkpt lat="-27.3152777" lon="152.9635316">
<ele>40.590</ele>
<time>2017-01-31T21:41:15.068Z</time>
</trkpt>
<trkpt lat="-27.3151701" lon="152.9634180">
<ele>37.787</ele>
<time>2017-01-31T21:41:17.479Z</time>
</trkpt>
<trkpt lat="-27.3151101" lon="152.9635310">
<ele>35.176</ele>
<time>2017-01-31T21:41:21.000Z</time>
</trkpt>
<trkpt lat="-27.3151101" lon="152.9635310">
<ele>33.578</ele>
<time>2017-01-31T21:41:23.000Z</time>
</trkpt>
<trkpt lat="-27.3151101" lon="152.9635310">
<ele>33.037</ele>
<time>2017-01-31T21:42:24.020Z</time>
</trkpt>
<trkpt lat="-27.3149280" lon="152.9634424">
<ele>33.349</ele>
<time>2017-01-31T21:42:28.122Z</time>
</trkpt>
<trkpt lat="-27.3147103" lon="152.9633913">
<ele>34.274</ele>
<time>2017-01-31T21:42:30.278Z</time>
</trkpt>
<trkpt lat="-27.3144408" lon="152.9633185">
<ele>35.480</ele>
<time>2017-01-31T21:42:32.530Z</time>
</trkpt>
<trkpt lat="-27.3141182" lon="152.9632119">
<ele>36.594</ele>
<time>2017-01-31T21:42:34.941Z</time>
</trkpt>
<trkpt lat="-27.3135909" lon="152.9631020">
<ele>37.543</ele>
<time>2017-01-31T21:42:38.322Z</time>
</trkpt>
<trkpt lat="-27.3132422" lon="152.9630481">
<ele>38.375</ele>
<time>2017-01-31T21:42:40.300Z</time>
</trkpt>
<trkpt lat="-27.3127091" lon="152.9630065">
<ele>38.759</ele>
<time>2017-01-31T21:42:43.279Z</time>
</trkpt>
<trkpt lat="-27.3121703" lon="152.9629958">
<ele>38.461</ele>
<time>2017-01-31T21:42:46.274Z</time>
</trkpt>
<trkpt lat="-27.3118115" lon="152.9629904">
<ele>37.960</ele>
<time>2017-01-31T21:42:48.270Z</time>
</trkpt>
<trkpt lat="-27.3114526" lon="152.9630036">
<ele>37.936</ele>
<time>2017-01-31T21:42:50.262Z</time>
</trkpt>
<trkpt lat="-27.3111128" lon="152.9630269">
<ele>38.728</ele>
<time>2017-01-31T21:42:52.143Z</time>
</trkpt>
<trkpt lat="-27.3107445" lon="152.9630735">
<ele>40.028</ele>
<time>2017-01-31T21:42:54.182Z</time>
</trkpt>
<trkpt lat="-27.3101987" lon="152.9631586">
<ele>41.172</ele>
<time>2017-01-31T21:42:57.202Z</time>
</trkpt>
<trkpt lat="-27.3096594" lon="152.9632693">
<ele>41.845</ele>
<time>2017-01-31T21:43:00.196Z</time>
</trkpt>
<trkpt lat="-27.3091222" lon="152.9633759">
<ele>41.986</ele>
<time>2017-01-31T21:43:03.169Z</time>
</trkpt>
<trkpt lat="-27.3087827" lon="152.9634599">
<ele>41.474</ele>
<time>2017-01-31T21:43:05.066Z</time>
</trkpt>
<trkpt lat="-27.3082397" lon="152.9635604">
<ele>40.335</ele>
<time>2017-01-31T21:43:08.071Z</time>
</trkpt>
<trkpt lat="-27.3077069" lon="152.9636647">
<ele>38.718</ele>
<time>2017-01-31T21:43:11.024Z</time>
</trkpt>
<trkpt lat="-27.3073448" lon="152.9637138">
<ele>36.703</ele>
<time>2017-01-31T21:43:13.031Z</time>
</trkpt>
<trkpt lat="-27.3068034" lon="152.9637522">
<ele>34.504</ele>
<time>2017-01-31T21:43:16.103Z</time>
</trkpt>
<trkpt lat="-27.3064707" lon="152.9637467">
<ele>32.550</ele>
<time>2017-01-31T21:43:18.194Z</time>
</trkpt>
<trkpt lat="-27.3061682" lon="152.9637152">
<ele>30.873</ele>
<time>2017-01-31T21:43:20.541Z</time>
</trkpt>
<trkpt lat="-27.3059368" lon="152.9636711">
<ele>28.902</ele>
<time>2017-01-31T21:43:22.843Z</time>
</trkpt>
<trkpt lat="-27.3057766" lon="152.9636008">
<ele>26.299</ele>
<time>2017-01-31T21:43:24.664Z</time>
</trkpt>
<trkpt lat="-27.3055491" lon="152.9634310">
<ele>23.450</ele>
<time>2017-01-31T21:43:27.169Z</time>
</trkpt>
<trkpt lat="-27.3051844" lon="152.9633908">
<ele>21.133</ele>
<time>2017-01-31T21:43:29.996Z</time>
</trkpt>
<trkpt lat="-27.3048949" lon="152.9632805">
<ele>20.137</ele>
<time>2017-01-31T21:43:31.916Z</time>
</trkpt>
<trkpt lat="-27.3044512" lon="152.9629953">
<ele>20.758</ele>
<time>2017-01-31T21:43:34.957Z</time>
</trkpt>
<trkpt lat="-27.3040410" lon="152.9626424">
<ele>22.264</ele>
<time>2017-01-31T21:43:37.902Z</time>
</trkpt>
<trkpt lat="-27.3037771" lon="152.9623790">
<ele>23.538</ele>
<time>2017-01-31T21:43:39.865Z</time>
</trkpt>
<trkpt lat="-27.3033673" lon="152.9619827">
<ele>24.367</ele>
<time>2017-01-31T21:43:42.854Z</time>
</trkpt>
<trkpt lat="-27.3030713" lon="152.9617554">
<ele>25.199</ele>
<time>2017-01-31T21:43:44.837Z</time>
</trkpt>
<trkpt lat="-27.3025917" lon="152.9614938">
<ele>26.131</ele>
<time>2017-01-31T21:43:47.789Z</time>
</trkpt>
<trkpt lat="-27.3020758" lon="152.9613128">
<ele>26.935</ele>
<time>2017-01-31T21:43:50.779Z</time>
</trkpt>
<trkpt lat="-27.3017381" lon="152.9612023">
<ele>27.718</ele>
<time>2017-01-31T21:43:52.714Z</time>
</trkpt>
<trkpt lat="-27.3013936" lon="152.9610813">
<ele>28.918</ele>
<time>2017-01-31T21:43:54.693Z</time>
</trkpt>
<trkpt lat="-27.3008803" lon="152.9608905">
<ele>30.591</ele>
<time>2017-01-31T21:43:57.655Z</time>
</trkpt>
<trkpt lat="-27.3005373" lon="152.9607689">
<ele>32.264</ele>
<time>2017-01-31T21:43:59.626Z</time>
</trkpt>
<trkpt lat="-27.3000394" lon="152.9605275">
<ele>33.475</ele>
<time>2017-01-31T21:44:02.594Z</time>
</trkpt>
<trkpt lat="-27.2995895" lon="152.9601732">
<ele>34.000</ele>
<time>2017-01-31T21:44:05.597Z</time>
</trkpt>
<trkpt lat="-27.2991759" lon="152.9598051">
<ele>33.827</ele>
<time>2017-01-31T21:44:08.485Z</time>
</trkpt>
<trkpt lat="-27.2987624" lon="152.9594264">
<ele>33.235</ele>
<time>2017-01-31T21:44:11.417Z</time>
</trkpt>
<trkpt lat="-27.2984919" lon="152.9591763">
<ele>32.841</ele>
<time>2017-01-31T21:44:13.349Z</time>
</trkpt>
<trkpt lat="-27.2980934" lon="152.9588505">
<ele>33.078</ele>
<time>2017-01-31T21:44:16.062Z</time>
</trkpt>
<trkpt lat="-27.2977134" lon="152.9586100">
<ele>33.684</ele>
<time>2017-01-31T21:44:18.443Z</time>
</trkpt>
<trkpt lat="-27.2973735" lon="152.9584525">
<ele>33.962</ele>
<time>2017-01-31T21:44:20.442Z</time>
</trkpt>
<trkpt lat="-27.2968583" lon="152.9582447">
<ele>33.536</ele>
<time>2017-01-31T21:44:23.433Z</time>
</trkpt>
<trkpt lat="-27.2963554" lon="152.9580363">
<ele>32.461</ele>
<time>2017-01-31T21:44:26.404Z</time>
</trkpt>
<trkpt lat="-27.2958733" lon="152.9577921">
<ele>30.810</ele>
<time>2017-01-31T21:44:29.380Z</time>
</trkpt>
<trkpt lat="-27.2956021" lon="152.9575545">
<ele>28.672</ele>
<time>2017-01-31T21:44:31.326Z</time>
</trkpt>
<trkpt lat="-27.2953486" lon="152.9572728">
<ele>26.410</ele>
<time>2017-01-31T21:44:33.334Z</time>
</trkpt>
<trkpt lat="-27.2949688" lon="152.9568507">
<ele>24.239</ele>
<time>2017-01-31T21:44:36.344Z</time>
</trkpt>
<trkpt lat="-27.2946148" lon="152.9564288">
<ele>22.064</ele>
<time>2017-01-31T21:44:39.307Z</time>
</trkpt>
<trkpt lat="-27.2943883" lon="152.9561679">
<ele>19.968</ele>
<time>2017-01-31T21:44:41.273Z</time>
</trkpt>
<trkpt lat="-27.2941760" lon="152.9559191">
<ele>18.095</ele>
<time>2017-01-31T21:44:43.221Z</time>
</trkpt>
<trkpt lat="-27.2938794" lon="152.9555595">
<ele>16.264</ele>
<time>2017-01-31T21:44:46.055Z</time>
</trkpt>
<trkpt lat="-27.2936939" lon="152.9552997">
<ele>14.540</ele>
<time>2017-01-31T21:44:47.999Z</time>
</trkpt>
<trkpt lat="-27.2934173" lon="152.9549124">
<ele>13.289</ele>
<time>2017-01-31T21:44:50.885Z</time>
</trkpt>
<trkpt lat="-27.2930936" lon="152.9545354">
<ele>12.610</ele>
<time>2017-01-31T21:44:53.897Z</time>
</trkpt>
<trkpt lat="-27.2927206" lon="152.9542367">
<ele>12.336</ele>
<time>2017-01-31T21:44:56.846Z</time>
</trkpt>
<trkpt lat="-27.2924491" lon="152.9540918">
<ele>12.259</ele>
<time>2017-01-31T21:44:58.830Z</time>
</trkpt>
<trkpt lat="-27.2921909" lon="152.9539754">
<ele>11.982</ele>
<time>2017-01-31T21:45:00.934Z</time>
</trkpt>
<trkpt lat="-27.2919334" lon="152.9538656">
<ele>11.075</ele>
<time>2017-01-31T21:45:03.503Z</time>
</trkpt>
<trkpt lat="-27.2918203" lon="152.9538157">
<ele>9.600</ele>
<time>2017-01-31T21:45:05.107Z</time>
</trkpt>
<trkpt lat="-27.2917268" lon="152.9537801">
<ele>8.028</ele>
<time>2017-01-31T21:45:07.000Z</time>
</trkpt>
<trkpt lat="-27.2917268" lon="152.9537801">
<ele>6.805</ele>
<time>2017-01-31T21:45:11.000Z</time>
</trkpt>
<trkpt lat="-27.2917268" lon="152.9537801">
<ele>6.251</ele>
<time>2017-01-31T21:45:50.002Z</time>
</trkpt>
<trkpt lat="-27.2915051" lon="152.9536958">
<ele>6.483</ele>
<time>2017-01-31T21:45:55.535Z</time>
</trkpt>
<trkpt lat="-27.2912570" lon="152.9536016">
<ele>7.487</ele>
<time>2017-01-31T21:45:58.616Z</time>
</trkpt>
<trkpt lat="-27.2909794" lon="152.9535116">
<ele>9.005</ele>
<time>2017-01-31T21:46:01.565Z</time>
</trkpt>
<trkpt lat="-27.2906897" lon="152.9533947">
<ele>10.423</ele>
<time>2017-01-31T21:46:04.596Z</time>
</trkpt>
<trkpt lat="-27.2905031" lon="152.9533209">
<ele>11.287</ele>
<time>2017-01-31T21:46:06.579Z</time>
</trkpt>
<trkpt lat="-27.2903199" lon="152.9532538">
<ele>11.621</ele>
<time>2017-01-31T21:46:08.567Z</time>
</trkpt>
<trkpt lat="-27.2900606" lon="152.9531505">
<ele>11.543</ele>
<time>2017-01-31T21:46:11.425Z</time>
</trkpt>
<trkpt lat="-27.2897879" lon="152.9530428">
<ele>11.156</ele>
<time>2017-01-31T21:46:14.429Z</time>
</trkpt>
<trkpt lat="-27.2896118" lon="152.9529804">
<ele>10.707</ele>
<time>2017-01-31T21:46:16.397Z</time>
</trkpt>
<trkpt lat="-27.2894423" lon="152.9529157">
<ele>10.335</ele>
<time>2017-01-31T21:46:18.347Z</time>
</trkpt>
<trkpt lat="-27.2892700" lon="152.9528533">
<ele>9.999</ele>
<time>2017-01-31T21:46:20.284Z</time>
</trkpt>
<trkpt lat="-27.2889995" lon="152.9527625">
<ele>9.751</ele>
<time>2017-01-31T21:46:23.218Z</time>
</trkpt>
<trkpt lat="-27.2888070" lon="152.9526962">
<ele>9.657</ele>
<time>2017-01-31T21:46:25.221Z</time>
</trkpt>
<trkpt lat="-27.2886148" lon="152.9526275">
<ele>9.666</ele>
<time>2017-01-31T21:46:27.212Z</time>
</trkpt>
<trkpt lat="-27.2883293" lon="152.9525222">
<ele>9.717</ele>
<time>2017-01-31T21:46:30.211Z</time>
</trkpt>
<trkpt lat="-27.2881481" lon="152.9524553">
<ele>9.718</ele>
<time>2017-01-31T21:46:32.141Z</time>
</trkpt>
<trkpt lat="-27.2879557" lon="152.9523792">
<ele>9.558</ele>
<time>2017-01-31T21:46:34.189Z</time>
</trkpt>
<trkpt lat="-27.2877692" lon="152.9523166">
<ele>9.274</ele>
<time>2017-01-31T21:46:36.125Z</time>
</trkpt>
<trkpt lat="-27.2875809" lon="152.9522486">
<ele>9.000</ele>
<time>2017-01-31T21:46:38.078Z</time>
</trkpt>
<trkpt lat="-27.2872949" lon="152.9521352">
<ele>8.794</ele>
<time>2017-01-31T21:46:41.043Z</time>
</trkpt>
<trkpt lat="-27.2870995" lon="152.9520608">
<ele>8.675</ele>
<time>2017-01-31T21:46:43.053Z</time>
</trkpt>
<trkpt lat="-27.2869106" lon="152.9519889">
<ele>8.627</ele>
<time>2017-01-31T21:46:45.010Z</time>
</trkpt>
<trkpt lat="-27.2866221" lon="152.9518802">
<ele>8.594</ele>
<time>2017-01-31T21:46:47.990Z</time>
</trkpt>
<trkpt lat="-27.2863247" lon="152.9517738">
<ele>8.580</ele>
<time>2017-01-31T21:46:50.984Z</time>
</trkpt>
<trkpt lat="-27.2860135" lon="152.9516625">
<ele>8.673</ele>
<time>2017-01-31T21:46:54.020Z</time>
</trkpt>
<trkpt lat="-27.2858083" lon="152.9515882">
<ele>8.887</ele>
<time>2017-01-31T21:46:55.915Z</time>
</trkpt>
<trkpt lat="-27.2855698" lon="152.9514993">
<ele>9.117</ele>
<time>2017-01-31T21:46:57.914Z</time>
</trkpt>
<trkpt lat="-27.2852989" lon="152.9514000">
<ele>9.328</ele>
<time>2017-01-31T21:46:59.908Z</time>
</trkpt>
<trkpt lat="-27.2848537" lon="152.9512226">
<ele>9.694</ele>
<time>2017-01-31T21:47:02.933Z</time>
</trkpt>
<trkpt lat="-27.2844174" lon="152.9510462">
<ele>10.234</ele>
<time>2017-01-31T21:47:05.759Z</time>
</trkpt>
<trkpt lat="-27.2841156" lon="152.9509176">
<ele>10.727</ele>
<time>2017-01-31T21:47:07.704Z</time>
</trkpt>
<trkpt lat="-27.2837938" lon="152.9507827">
<ele>11.033</ele>
<time>2017-01-31T21:47:09.821Z</time>
</trkpt>
<trkpt lat="-27.2833690" lon="152.9505289">
<ele>11.171</ele>
<time>2017-01-31T21:47:13.494Z</time>
</trkpt>
<trkpt lat="-27.2832265" lon="152.9505542">
<ele>10.866</ele>
<time>2017-01-31T21:47:15.000Z</time>
</trkpt>
<trkpt lat="-27.2832265" lon="152.9505542">
<ele>10.000</ele>
<time>2017-01-31T21:47:19.000Z</time>
</trkpt>
<trkpt lat="-27.2832265" lon="152.9505542">
<ele>9.279</ele>
<time>2017-01-31T21:48:08.843Z</time>
</trkpt>
<trkpt lat="-27.2830222" lon="152.9504722">
<ele>9.287</ele>
<time>2017-01-31T21:48:14.136Z</time>
</trkpt>
<trkpt lat="-27.2826573" lon="152.9503343">
<ele>9.664</ele>
<time>2017-01-31T21:48:17.424Z</time>
</trkpt>
<trkpt lat="-27.2823578" lon="152.9502158">
<ele>10.083</ele>
<time>2017-01-31T21:48:19.467Z</time>
</trkpt>
<trkpt lat="-27.2818526" lon="152.9500127">
<ele>10.852</ele>
<time>2017-01-31T21:48:22.822Z</time>
</trkpt>
<trkpt lat="-27.2815193" lon="152.9498780">
<ele>12.086</ele>
<time>2017-01-31T21:48:24.909Z</time>
</trkpt>
<trkpt lat="-27.2810213" lon="152.9496855">
<ele>13.240</ele>
<time>2017-01-31T21:48:27.914Z</time>
</trkpt>
<trkpt lat="-27.2806888" lon="152.9495556">
<ele>13.806</ele>
<time>2017-01-31T21:48:29.889Z</time>
</trkpt>
<trkpt lat="-27.2803656" lon="152.9494396">
<ele>13.769</ele>
<time>2017-01-31T21:48:31.787Z</time>
</trkpt>
<trkpt lat="-27.2798593" lon="152.9492641">
<ele>13.342</ele>
<time>2017-01-31T21:48:34.746Z</time>
</trkpt>
<trkpt lat="-27.2795131" lon="152.9491976">
<ele>12.652</ele>
<time>2017-01-31T21:48:36.718Z</time>
</trkpt>
<trkpt lat="-27.2789768" lon="152.9491662">
<ele>11.710</ele>
<time>2017-01-31T21:48:39.732Z</time>
</trkpt>
<trkpt lat="-27.2786153" lon="152.9492059">
<ele>10.567</ele>
<time>2017-01-31T21:48:41.762Z</time>
</trkpt>
<trkpt lat="-27.2781147" lon="152.9493608">
<ele>9.470</ele>
<time>2017-01-31T21:48:44.643Z</time>
</trkpt>
<trkpt lat="-27.2777564" lon="152.9495279">
<ele>8.747</ele>
<time>2017-01-31T21:48:46.758Z</time>
</trkpt>
<trkpt lat="-27.2772561" lon="152.9497545">
<ele>8.469</ele>
<time>2017-01-31T21:48:49.718Z</time>
</trkpt>
<trkpt lat="-27.2767755" lon="152.9499907">
<ele>8.479</ele>
<time>2017-01-31T21:48:52.627Z</time>
</trkpt>
<trkpt lat="-27.2764502" lon="152.9501350">
<ele>8.736</ele>
<time>2017-01-31T21:48:54.566Z</time>
</trkpt>
<trkpt lat="-27.2759490" lon="152.9503524">
<ele>9.211</ele>
<time>2017-01-31T21:48:57.541Z</time>
</trkpt>
<trkpt lat="-27.2754433" lon="152.9505519">
<ele>9.712</ele>
<time>2017-01-31T21:49:00.497Z</time>
</trkpt>
<trkpt lat="-27.2750952" lon="152.9506828">
<ele>10.078</ele>
<time>2017-01-31T21:49:02.517Z</time>
</trkpt>
<trkpt lat="-27.2747613" lon="152.9508132">
<ele>10.347</ele>
<time>2017-01-31T21:49:04.477Z</time>
</trkpt>
<trkpt lat="-27.2742652" lon="152.9510133">
<ele>10.704</ele>
<time>2017-01-31T21:49:07.511Z</time>
</trkpt>
<trkpt lat="-27.2738208" lon="152.9512053">
<ele>11.177</ele>
<time>2017-01-31T21:49:10.588Z</time>
</trkpt>
<trkpt lat="-27.2735838" lon="152.9513060">
<ele>11.537</ele>
<time>2017-01-31T21:49:12.631Z</time>
</trkpt>
<trkpt lat="-27.2732701" lon="152.9513812">
<ele>11.317</ele>
<time>2017-01-31T21:49:15.350Z</time>
</trkpt>
<trkpt lat="-27.2730500" lon="152.9515024">
<ele>10.386</ele>
<time>2017-01-31T21:49:17.240Z</time>
</trkpt>
<trkpt lat="-27.2726728" lon="152.9517181">
<ele>9.337</ele>
<time>2017-01-31T21:49:20.150Z</time>
</trkpt>
<trkpt lat="-27.2721965" lon="152.9519109">
<ele>9.015</ele>
<time>2017-01-31T21:49:23.240Z</time>
</trkpt>
<trkpt lat="-27.2718683" lon="152.9520383">
<ele>9.723</ele>
<time>2017-01-31T21:49:25.248Z</time>
</trkpt>
<trkpt lat="-27.2715369" lon="152.9521653">
<ele>10.989</ele>
<time>2017-01-31T21:49:27.236Z</time>
</trkpt>
<trkpt lat="-27.2712072" lon="152.9522917">
<ele>12.230</ele>
<time>2017-01-31T21:49:29.187Z</time>
</trkpt>
<trkpt lat="-27.2706977" lon="152.9524873">
<ele>13.529</ele>
<time>2017-01-31T21:49:32.184Z</time>
</trkpt>
<trkpt lat="-27.2703694" lon="152.9526271">
<ele>14.880</ele>
<time>2017-01-31T21:49:34.136Z</time>
</trkpt>
<trkpt lat="-27.2698593" lon="152.9528360">
<ele>15.846</ele>
<time>2017-01-31T21:49:37.158Z</time>
</trkpt>
<trkpt lat="-27.2695216" lon="152.9529749">
<ele>16.213</ele>
<time>2017-01-31T21:49:39.251Z</time>
</trkpt>
<trkpt lat="-27.2690852" lon="152.9531443">
<ele>16.152</ele>
<time>2017-01-31T21:49:42.122Z</time>
</trkpt>
<trkpt lat="-27.2686658" lon="152.9533143">
<ele>15.939</ele>
<time>2017-01-31T21:49:45.076Z</time>
</trkpt>
<trkpt lat="-27.2682452" lon="152.9534751">
<ele>15.850</ele>
<time>2017-01-31T21:49:48.065Z</time>
</trkpt>
<trkpt lat="-27.2678658" lon="152.9537032">
<ele>16.081</ele>
<time>2017-01-31T21:49:51.046Z</time>
</trkpt>
<trkpt lat="-27.2676262" lon="152.9541007">
<ele>16.584</ele>
<time>2017-01-31T21:49:54.076Z</time>
</trkpt>
<trkpt lat="-27.2675580" lon="152.9544135">
<ele>16.902</ele>
<time>2017-01-31T21:49:56.067Z</time>
</trkpt>
<trkpt lat="-27.2675233" lon="152.9549065">
<ele>16.507</ele>
<time>2017-01-31T21:49:59.113Z</time>
</trkpt>
<trkpt lat="-27.2675342" lon="152.9552125">
<ele>14.927</ele>
<time>2017-01-31T21:50:01.167Z</time>
</trkpt>
<trkpt lat="-27.2675319" lon="152.9554656">
<ele>11.871</ele>
<time>2017-01-31T21:50:03.144Z</time>
</trkpt>
<trkpt lat="-27.2675241" lon="152.9556618">
<ele>7.800</ele>
<time>2017-01-31T21:50:04.942Z</time>
</trkpt>
<trkpt lat="-27.2675171" lon="152.9558574">
<ele>3.981</ele>
<time>2017-01-31T21:50:07.042Z</time>
</trkpt>
<trkpt lat="-27.2674740" lon="152.9560804">
<ele>1.170</ele>
<time>2017-01-31T21:50:09.906Z</time>
</trkpt>
<trkpt lat="-27.2674299" lon="152.9561938">
<ele>0.000</ele>
<time>2017-01-31T21:50:11.982Z</time>
</trkpt>
<trkpt lat="-27.2673903" lon="152.9563111">
<ele>0.000</ele>
<time>2017-01-31T21:50:14.603Z</time>
</trkpt>
<trkpt lat="-27.2673021" lon="152.9563986">
<ele>0.000</ele>
<time>2017-01-31T21:50:18.272Z</time>
</trkpt>
<trkpt lat="-27.2672034" lon="152.9564597">
<ele>0.000</ele>
<time>2017-01-31T21:50:22.587Z</time>
</trkpt>
<trkpt lat="-27.2670948" lon="152.9564878">
<ele>0.000</ele>
<time>2017-01-31T21:50:26.754Z</time>
</trkpt>
<trkpt lat="-27.2670039" lon="152.9565141">
<ele>0.000</ele>
<time>2017-01-31T21:50:30.372Z</time>
</trkpt>
<trkpt lat="-27.2669098" lon="152.9565031">
<ele>0.000</ele>
<time>2017-01-31T21:50:34.647Z</time>
</trkpt>
<trkpt lat="-27.2668019" lon="152.9565180">
<ele>0.000</ele>
<time>2017-01-31T21:50:39.323Z</time>
</trkpt>
<trkpt lat="-27.2666999" lon="152.9565004">
<ele>0.000</ele>
<time>2017-01-31T21:50:43.583Z</time>
</trkpt>
<trkpt lat="-27.2666110" lon="152.9564682">
<ele>0.000</ele>
<time>2017-01-31T21:50:48.102Z</time>
</trkpt>
<trkpt lat="-27.2665204" lon="152.9564238">
<ele>0.000</ele>
<time>2017-01-31T21:50:53.611Z</time>
</trkpt>
<trkpt lat="-27.2664287" lon="152.9563785">
<ele>0.000</ele>
<time>2017-01-31T21:50:59.000Z</time>
</trkpt>
<trkpt lat="-27.2664287" lon="152.9563785">
<ele>0.000</ele>
<time>2017-01-31T21:51:10.000Z</time>
</trkpt>
<trkpt lat="-27.2664287" lon="152.9563785">
<ele>0.000</ele>
<time>2017-01-31T21:51:28.882Z</time>
</trkpt>
<trkpt lat="-27.2662415" lon="152.9562921">
<ele>0.000</ele>
<time>2017-01-31T21:51:43.416Z</time>
</trkpt>
<trkpt lat="-27.2661373" lon="152.9562424">
<ele>0.000</ele>
<time>2017-01-31T21:51:49.104Z</time>
</trkpt>
<trkpt lat="-27.2660460" lon="152.9562058">
<ele>0.163</ele>
<time>2017-01-31T21:51:54.676Z</time>
</trkpt>
<trkpt lat="-27.2659531" lon="152.9561870">
<ele>0.455</ele>
<time>2017-01-31T21:52:00.289Z</time>
</trkpt>
<trkpt lat="-27.2658682" lon="152.9561516">
<ele>0.884</ele>
<time>2017-01-31T21:52:05.445Z</time>
</trkpt>
<trkpt lat="-27.2657690" lon="152.9561330">
<ele>1.452</ele>
<time>2017-01-31T21:52:11.860Z</time>
</trkpt>
<trkpt lat="-27.2656603" lon="152.9561404">
<ele>2.054</ele>
<time>2017-01-31T21:52:18.894Z</time>
</trkpt>
<trkpt lat="-27.2655648" lon="152.9561511">
<ele>2.575</ele>
<time>2017-01-31T21:52:25.534Z</time>
</trkpt>
<trkpt lat="-27.2654610" lon="152.9561872">
<ele>2.976</ele>
<time>2017-01-31T21:52:33.342Z</time>
</trkpt>
<trkpt lat="-27.2653550" lon="152.9562104">
<ele>3.272</ele>
<time>2017-01-31T21:52:41.019Z</time>
</trkpt>
<trkpt lat="-27.2652534" lon="152.9562498">
<ele>3.465</ele>
<time>2017-01-31T21:52:48.414Z</time>
</trkpt>
<trkpt lat="-27.2651545" lon="152.9562872">
<ele>3.561</ele>
<time>2017-01-31T21:52:55.498Z</time>
</trkpt>
<trkpt lat="-27.2650422" lon="152.9563321">
<ele>3.575</ele>
<time>2017-01-31T21:53:03.615Z</time>
</trkpt>
<trkpt lat="-27.2649468" lon="152.9563714">
<ele>3.521</ele>
<time>2017-01-31T21:53:09.451Z</time>
</trkpt>
<trkpt lat="-27.2648576" lon="152.9564050">
<ele>3.438</ele>
<time>2017-01-31T21:53:15.782Z</time>
</trkpt>
<trkpt lat="-27.2647699" lon="152.9564311">
<ele>3.389</ele>
<time>2017-01-31T21:53:22.901Z</time>
</trkpt>
<trkpt lat="-27.2646740" lon="152.9564707">
<ele>3.482</ele>
<time>2017-01-31T21:53:31.000Z</time>
</trkpt>
<trkpt lat="-27.2646740" lon="152.9564707">
<ele>3.734</ele>
<time>2017-01-31T21:53:43.000Z</time>
</trkpt>
<trkpt lat="-27.2646740" lon="152.9564707">
<ele>3.935</ele>
<time>2017-01-31T21:54:01.829Z</time>
</trkpt>
<trkpt lat="-27.2644492" lon="152.9565826">
<ele>3.929</ele>
<time>2017-01-31T21:54:18.547Z</time>
</trkpt>
<trkpt lat="-27.2643557" lon="152.9566243">
<ele>3.895</ele>
<time>2017-01-31T21:54:23.745Z</time>
</trkpt>
<trkpt lat="-27.2642560" lon="152.9566677">
<ele>4.006</ele>
<time>2017-01-31T21:54:29.713Z</time>
</trkpt>
<trkpt lat="-27.2641588" lon="152.9566979">
<ele>4.172</ele>
<time>2017-01-31T21:54:35.725Z</time>
</trkpt>
<trkpt lat="-27.2640635" lon="152.9567433">
<ele>4.291</ele>
<time>2017-01-31T21:54:42.392Z</time>
</trkpt>
<trkpt lat="-27.2639744" lon="152.9567947">
<ele>4.388</ele>
<time>2017-01-31T21:54:49.000Z</time>
</trkpt>
<trkpt lat="-27.2639744" lon="152.9567947">
<ele>4.461</ele>
<time>2017-01-31T21:55:01.000Z</time>
</trkpt>
<trkpt lat="-27.2639744" lon="152.9567947">
<ele>4.482</ele>
<time>2017-01-31T21:55:09.060Z</time>
</trkpt>
<trkpt lat="-27.2638207" lon="152.9568313">
<ele>4.472</ele>
<time>2017-01-31T21:55:15.611Z</time>
</trkpt>
<trkpt lat="-27.2636231" lon="152.9569150">
<ele>4.538</ele>
<time>2017-01-31T21:55:18.958Z</time>
</trkpt>
<trkpt lat="-27.2634747" lon="152.9569917">
<ele>4.851</ele>
<time>2017-01-31T21:55:20.677Z</time>
</trkpt>
<trkpt lat="-27.2631711" lon="152.9571433">
<ele>5.449</ele>
<time>2017-01-31T21:55:23.835Z</time>
</trkpt>
<trkpt lat="-27.2629042" lon="152.9573717">
<ele>6.569</ele>
<time>2017-01-31T21:55:27.087Z</time>
</trkpt>
<trkpt lat="-27.2627024" lon="152.9575517">
<ele>8.520</ele>
<time>2017-01-31T21:55:30.207Z</time>
</trkpt>
<trkpt lat="-27.2624822" lon="152.9575467">
<ele>10.726</ele>
<time>2017-01-31T21:55:32.678Z</time>
</trkpt>
<trkpt lat="-27.2622079" lon="152.9573155">
<ele>12.154</ele>
<time>2017-01-31T21:55:35.669Z</time>
</trkpt>
<trkpt lat="-27.2619946" lon="152.9571223">
<ele>12.608</ele>
<time>2017-01-31T21:55:37.585Z</time>
</trkpt>
<trkpt lat="-27.2616424" lon="152.9567984">
<ele>12.609</ele>
<time>2017-01-31T21:55:40.631Z</time>
</trkpt>
<trkpt lat="-27.2614079" lon="152.9565831">
<ele>12.605</ele>
<time>2017-01-31T21:55:42.621Z</time>
</trkpt>
<trkpt lat="-27.2611827" lon="152.9563635">
<ele>12.719</ele>
<time>2017-01-31T21:55:44.593Z</time>
</trkpt>
<trkpt lat="-27.2609795" lon="152.9561080">
<ele>12.901</ele>
<time>2017-01-31T21:55:46.617Z</time>
</trkpt>
<trkpt lat="-27.2607218" lon="152.9557033">
<ele>13.344</ele>
<time>2017-01-31T21:55:49.558Z</time>
</trkpt>
<trkpt lat="-27.2605624" lon="152.9554230">
<ele>14.531</ele>
<time>2017-01-31T21:55:51.512Z</time>
</trkpt>
<trkpt lat="-27.2604033" lon="152.9551291">
<ele>16.646</ele>
<time>2017-01-31T21:55:53.526Z</time>
</trkpt>
<trkpt lat="-27.2602733" lon="152.9548385">
<ele>18.977</ele>
<time>2017-01-31T21:55:55.418Z</time>
</trkpt>
<trkpt lat="-27.2600080" lon="152.9543972">
<ele>20.595</ele>
<time>2017-01-31T21:55:58.482Z</time>
</trkpt>
<trkpt lat="-27.2598520" lon="152.9540973">
<ele>21.281</ele>
<time>2017-01-31T21:56:00.459Z</time>
</trkpt>
<trkpt lat="-27.2596808" lon="152.9537960">
<ele>21.144</ele>
<time>2017-01-31T21:56:02.460Z</time>
</trkpt>
<trkpt lat="-27.2595105" lon="152.9534682">
<ele>20.354</ele>
<time>2017-01-31T21:56:04.493Z</time>
</trkpt>
<trkpt lat="-27.2593330" lon="152.9531283">
<ele>19.501</ele>
<time>2017-01-31T21:56:06.538Z</time>
</trkpt>
<trkpt lat="-27.2590688" lon="152.9526245">
<ele>19.313</ele>
<time>2017-01-31T21:56:09.548Z</time>
</trkpt>
<trkpt lat="-27.2588715" lon="152.9522826">
<ele>20.363</ele>
<time>2017-01-31T21:56:11.620Z</time>
</trkpt>
<trkpt lat="-27.2586053" lon="152.9517730">
<ele>22.436</ele>
<time>2017-01-31T21:56:14.604Z</time>
</trkpt>
<trkpt lat="-27.2583150" lon="152.9512763">
<ele>24.339</ele>
<time>2017-01-31T21:56:17.587Z</time>
</trkpt>
<trkpt lat="-27.2579628" lon="152.9508152">
<ele>25.097</ele>
<time>2017-01-31T21:56:20.637Z</time>
</trkpt>
<trkpt lat="-27.2577146" lon="152.9505355">
<ele>24.752</ele>
<time>2017-01-31T21:56:22.634Z</time>
</trkpt>
<trkpt lat="-27.2574460" lon="152.9502844">
<ele>23.999</ele>
<time>2017-01-31T21:56:24.630Z</time>
</trkpt>
<trkpt lat="-27.2571607" lon="152.9500584">
<ele>23.913</ele>
<time>2017-01-31T21:56:26.624Z</time>
</trkpt>
<trkpt lat="-27.2567035" lon="152.9497729">
<ele>25.309</ele>
<time>2017-01-31T21:56:29.601Z</time>
</trkpt>
<trkpt lat="-27.2563792" lon="152.9495773">
<ele>28.030</ele>
<time>2017-01-31T21:56:31.678Z</time>
</trkpt>
<trkpt lat="-27.2560881" lon="152.9493695">
<ele>31.133</ele>
<time>2017-01-31T21:56:33.619Z</time>
</trkpt>
<trkpt lat="-27.2558230" lon="152.9491035">
<ele>33.707</ele>
<time>2017-01-31T21:56:35.613Z</time>
</trkpt>
<trkpt lat="-27.2555046" lon="152.9486340">
<ele>35.501</ele>
<time>2017-01-31T21:56:38.555Z</time>
</trkpt>
<trkpt lat="-27.2553464" lon="152.9482801">
<ele>36.903</ele>
<time>2017-01-31T21:56:40.519Z</time>
</trkpt>
<trkpt lat="-27.2552535" lon="152.9478821">
<ele>38.047</ele>
<time>2017-01-31T21:56:42.547Z</time>
</trkpt>
<trkpt lat="-27.2552145" lon="152.9474692">
<ele>38.646</ele>
<time>2017-01-31T21:56:44.591Z</time>
</trkpt>
<trkpt lat="-27.2552013" lon="152.9468637">
<ele>38.637</ele>
<time>2017-01-31T21:56:47.579Z</time>
</trkpt>
<trkpt lat="-27.2551999" lon="152.9464595">
<ele>37.978</ele>
<time>2017-01-31T21:56:49.588Z</time>
</trkpt>
<trkpt lat="-27.2552170" lon="152.9460624">
<ele>36.670</ele>
<time>2017-01-31T21:56:51.573Z</time>
</trkpt>
<trkpt lat="-27.2552201" lon="152.9456565">
<ele>35.137</ele>
<time>2017-01-31T21:56:53.610Z</time>
</trkpt>
<trkpt lat="-27.2552244" lon="152.9452613">
<ele>33.934</ele>
<time>2017-01-31T21:56:55.611Z</time>
</trkpt>
<trkpt lat="-27.2551880" lon="152.9446747">
<ele>33.383</ele>
<time>2017-01-31T21:56:58.610Z</time>
</trkpt>
<trkpt lat="-27.2551487" lon="152.9443004">
<ele>33.723</ele>
<time>2017-01-31T21:57:00.535Z</time>
</trkpt>
<trkpt lat="-27.2549906" lon="152.9437269">
<ele>35.146</ele>
<time>2017-01-31T21:57:03.582Z</time>
</trkpt>
<trkpt lat="-27.2548976" lon="152.9433245">
<ele>38.059</ele>
<time>2017-01-31T21:57:05.673Z</time>
</trkpt>
<trkpt lat="-27.2547546" lon="152.9427429">
<ele>41.950</ele>
<time>2017-01-31T21:57:08.708Z</time>
</trkpt>
<trkpt lat="-27.2546183" lon="152.9421767">
<ele>45.322</ele>
<time>2017-01-31T21:57:11.664Z</time>
</trkpt>
<trkpt lat="-27.2544794" lon="152.9416025">
<ele>47.713</ele>
<time>2017-01-31T21:57:14.644Z</time>
</trkpt>
<trkpt lat="-27.2543125" lon="152.9410338">
<ele>49.917</ele>
<time>2017-01-31T21:57:17.621Z</time>
</trkpt>
<trkpt lat="-27.2541730" lon="152.9406603">
<ele>52.061</ele>
<time>2017-01-31T21:57:19.659Z</time>
</trkpt>
<trkpt lat="-27.2540248" lon="152.9403054">
<ele>53.554</ele>
<time>2017-01-31T21:57:21.658Z</time>
</trkpt>
<trkpt lat="-27.2537744" lon="152.9397856">
<ele>53.803</ele>
<time>2017-01-31T21:57:24.661Z</time>
</trkpt>
<trkpt lat="-27.2535912" lon="152.9394477">
<ele>52.378</ele>
<time>2017-01-31T21:57:26.674Z</time>
</trkpt>
<trkpt lat="-27.2534143" lon="152.9391308">
<ele>49.685</ele>
<time>2017-01-31T21:57:28.589Z</time>
</trkpt>
<trkpt lat="-27.2532077" lon="152.9388094">
<ele>47.137</ele>
<time>2017-01-31T21:57:30.595Z</time>
</trkpt>
<trkpt lat="-27.2528899" lon="152.9383455">
<ele>45.684</ele>
<time>2017-01-31T21:57:33.523Z</time>
</trkpt>
<trkpt lat="-27.2526586" lon="152.9380406">
<ele>45.224</ele>
<time>2017-01-31T21:57:35.515Z</time>
</trkpt>
<trkpt lat="-27.2522747" lon="152.9376196">
<ele>45.261</ele>
<time>2017-01-31T21:57:38.513Z</time>
</trkpt>
<trkpt lat="-27.2520317" lon="152.9373286">
<ele>45.263</ele>
<time>2017-01-31T21:57:40.504Z</time>
</trkpt>
<trkpt lat="-27.2516890" lon="152.9368740">
<ele>44.876</ele>
<time>2017-01-31T21:57:43.484Z</time>
</trkpt>
<trkpt lat="-27.2514140" lon="152.9363696">
<ele>44.189</ele>
<time>2017-01-31T21:57:46.440Z</time>
</trkpt>
<trkpt lat="-27.2512659" lon="152.9360195">
<ele>43.739</ele>
<time>2017-01-31T21:57:48.383Z</time>
</trkpt>
<trkpt lat="-27.2511012" lon="152.9356670">
<ele>43.949</ele>
<time>2017-01-31T21:57:50.370Z</time>
</trkpt>
<trkpt lat="-27.2508430" lon="152.9351433">
<ele>44.892</ele>
<time>2017-01-31T21:57:53.349Z</time>
</trkpt>
<trkpt lat="-27.2505354" lon="152.9346528">
<ele>46.537</ele>
<time>2017-01-31T21:57:56.353Z</time>
</trkpt>
<trkpt lat="-27.2503018" lon="152.9343500">
<ele>48.626</ele>
<time>2017-01-31T21:57:58.375Z</time>
</trkpt>
<trkpt lat="-27.2500501" lon="152.9340663">
<ele>50.805</ele>
<time>2017-01-31T21:58:00.387Z</time>
</trkpt>
<trkpt lat="-27.2497752" lon="152.9338038">
<ele>52.813</ele>
<time>2017-01-31T21:58:02.407Z</time>
</trkpt>
<trkpt lat="-27.2493640" lon="152.9334039">
<ele>54.530</ele>
<time>2017-01-31T21:58:05.439Z</time>
</trkpt>
<trkpt lat="-27.2489450" lon="152.9330227">
<ele>55.994</ele>
<time>2017-01-31T21:58:08.441Z</time>
</trkpt>
<trkpt lat="-27.2485626" lon="152.9326260">
<ele>57.110</ele>
<time>2017-01-31T21:58:11.348Z</time>
</trkpt>
<trkpt lat="-27.2483106" lon="152.9323453">
<ele>57.706</ele>
<time>2017-01-31T21:58:13.337Z</time>
</trkpt>
<trkpt lat="-27.2480012" lon="152.9318313">
<ele>57.823</ele>
<time>2017-01-31T21:58:16.448Z</time>
</trkpt>
<trkpt lat="-27.2478599" lon="152.9312752">
<ele>57.667</ele>
<time>2017-01-31T21:58:19.370Z</time>
</trkpt>
<trkpt lat="-27.2478780" lon="152.9306964">
<ele>57.532</ele>
<time>2017-01-31T21:58:22.308Z</time>
</trkpt>
<trkpt lat="-27.2479837" lon="152.9303174">
<ele>58.027</ele>
<time>2017-01-31T21:58:24.301Z</time>
</trkpt>
<trkpt lat="-27.2482077" lon="152.9297693">
<ele>59.678</ele>
<time>2017-01-31T21:58:27.293Z</time>
</trkpt>
<trkpt lat="-27.2483663" lon="152.9294082">
<ele>62.411</ele>
<time>2017-01-31T21:58:29.279Z</time>
</trkpt>
<trkpt lat="-27.2485266" lon="152.9290414">
<ele>65.400</ele>
<time>2017-01-31T21:58:31.298Z</time>
</trkpt>
<trkpt lat="-27.2486781" lon="152.9284648">
<ele>67.620</ele>
<time>2017-01-31T21:58:34.283Z</time>
</trkpt>
<trkpt lat="-27.2487215" lon="152.9280657">
<ele>68.636</ele>
<time>2017-01-31T21:58:36.314Z</time>
</trkpt>
<trkpt lat="-27.2487231" lon="152.9274836">
<ele>68.789</ele>
<time>2017-01-31T21:58:39.269Z</time>
</trkpt>
<trkpt lat="-27.2486449" lon="152.9270943">
<ele>68.536</ele>
<time>2017-01-31T21:58:41.263Z</time>
</trkpt>
<trkpt lat="-27.2484644" lon="152.9265225">
<ele>68.757</ele>
<time>2017-01-31T21:58:44.251Z</time>
</trkpt>
<trkpt lat="-27.2483020" lon="152.9261498">
<ele>70.560</ele>
<time>2017-01-31T21:58:46.265Z</time>
</trkpt>
<trkpt lat="-27.2480558" lon="152.9255942">
<ele>73.941</ele>
<time>2017-01-31T21:58:49.277Z</time>
</trkpt>
<trkpt lat="-27.2478182" lon="152.9250593">
<ele>78.075</ele>
<time>2017-01-31T21:58:52.189Z</time>
</trkpt>
<trkpt lat="-27.2476408" lon="152.9246945">
<ele>82.477</ele>
<time>2017-01-31T21:58:54.212Z</time>
</trkpt>
<trkpt lat="-27.2473549" lon="152.9241594">
<ele>86.490</ele>
<time>2017-01-31T21:58:57.248Z</time>
</trkpt>
<trkpt lat="-27.2471787" lon="152.9238322">
<ele>89.382</ele>
<time>2017-01-31T21:58:59.136Z</time>
</trkpt>
<trkpt lat="-27.2468618" lon="152.9233382">
<ele>91.207</ele>
<time>2017-01-31T21:59:02.208Z</time>
</trkpt>
<trkpt lat="-27.2466563" lon="152.9230369">
<ele>92.606</ele>
<time>2017-01-31T21:59:04.251Z</time>
</trkpt>
<trkpt lat="-27.2464746" lon="152.9227755">
<ele>94.186</ele>
<time>2017-01-31T21:59:06.127Z</time>
</trkpt>
<trkpt lat="-27.2461663" lon="152.9223871">
<ele>95.841</ele>
<time>2017-01-31T21:59:09.129Z</time>
</trkpt>
<trkpt lat="-27.2458321" lon="152.9220231">
<ele>97.340</ele>
<time>2017-01-31T21:59:12.245Z</time>
</trkpt>
<trkpt lat="-27.2456428" lon="152.9218170">
<ele>98.740</ele>
<time>2017-01-31T21:59:14.228Z</time>
</trkpt>
<trkpt lat="-27.2453759" lon="152.9215602">
<ele>99.683</ele>
<time>2017-01-31T21:59:17.070Z</time>
</trkpt>
<trkpt lat="-27.2450986" lon="152.9212978">
<ele>99.854</ele>
<time>2017-01-31T21:59:20.076Z</time>
</trkpt>
<trkpt lat="-27.2447980" lon="152.9210325">
<ele>99.800</ele>
<time>2017-01-31T21:59:23.105Z</time>
</trkpt>
<trkpt lat="-27.2445778" lon="152.9208498">
<ele>100.081</ele>
<time>2017-01-31T21:59:25.137Z</time>
</trkpt>
<trkpt lat="-27.2442262" lon="152.9205824">
<ele>100.710</ele>
<time>2017-01-31T21:59:28.134Z</time>
</trkpt>
<trkpt lat="-27.2438333" lon="152.9203025">
<ele>101.375</ele>
<time>2017-01-31T21:59:31.170Z</time>
</trkpt>
<trkpt lat="-27.2435362" lon="152.9201091">
<ele>101.759</ele>
<time>2017-01-31T21:59:33.078Z</time>
</trkpt>
<trkpt lat="-27.2429388" lon="152.9197922">
<ele>101.630</ele>
<time>2017-01-31T21:59:36.275Z</time>
</trkpt>
<trkpt lat="-27.2422063" lon="152.9194448">
<ele>101.113</ele>
<time>2017-01-31T21:59:39.664Z</time>
</trkpt>
<trkpt lat="-27.2416724" lon="152.9192023">
<ele>100.778</ele>
<time>2017-01-31T21:59:41.863Z</time>
</trkpt>
<trkpt lat="-27.2408821" lon="152.9188447">
<ele>100.970</ele>
<time>2017-01-31T21:59:45.004Z</time>
</trkpt>
<trkpt lat="-27.2403874" lon="152.9186003">
<ele>100.419</ele>
<time>2017-01-31T21:59:47.026Z</time>
</trkpt>
<trkpt lat="-27.2399117" lon="152.9183744">
<ele>97.573</ele>
<time>2017-01-31T21:59:49.021Z</time>
</trkpt>
<trkpt lat="-27.2392099" lon="152.9180203">
<ele>92.712</ele>
<time>2017-01-31T21:59:52.013Z</time>
</trkpt>
<trkpt lat="-27.2387511" lon="152.9177583">
<ele>86.691</ele>
<time>2017-01-31T21:59:54.011Z</time>
</trkpt>
<trkpt lat="-27.2380850" lon="152.9173164">
<ele>80.333</ele>
<time>2017-01-31T21:59:57.007Z</time>
</trkpt>
<trkpt lat="-27.2376574" lon="152.9169936">
<ele>75.155</ele>
<time>2017-01-31T21:59:58.999Z</time>
</trkpt>
<trkpt lat="-27.2372384" lon="152.9166493">
<ele>71.920</ele>
<time>2017-01-31T22:00:01.004Z</time>
</trkpt>
<trkpt lat="-27.2366451" lon="152.9160850">
<ele>70.246</ele>
<time>2017-01-31T22:00:04.005Z</time>
</trkpt>
<trkpt lat="-27.2362707" lon="152.9156781">
<ele>69.351</ele>
<time>2017-01-31T22:00:06.016Z</time>
</trkpt>
<trkpt lat="-27.2357447" lon="152.9150436">
<ele>68.393</ele>
<time>2017-01-31T22:00:09.017Z</time>
</trkpt>
<trkpt lat="-27.2352653" lon="152.9143751">
<ele>67.065</ele>
<time>2017-01-31T22:00:12.020Z</time>
</trkpt>
<trkpt lat="-27.2349696" lon="152.9139133">
<ele>65.729</ele>
<time>2017-01-31T22:00:14.039Z</time>
</trkpt>
<trkpt lat="-27.2345605" lon="152.9132126">
<ele>65.060</ele>
<time>2017-01-31T22:00:17.030Z</time>
</trkpt>
<trkpt lat="-27.2341659" lon="152.9125035">
<ele>65.968</ele>
<time>2017-01-31T22:00:20.019Z</time>
</trkpt>
<trkpt lat="-27.2339007" lon="152.9120288">
<ele>68.403</ele>
<time>2017-01-31T22:00:22.028Z</time>
</trkpt>
<trkpt lat="-27.2335067" lon="152.9113314">
<ele>71.227</ele>
<time>2017-01-31T22:00:25.004Z</time>
</trkpt>
<trkpt lat="-27.2332231" lon="152.9108783">
<ele>73.427</ele>
<time>2017-01-31T22:00:27.007Z</time>
</trkpt>
<trkpt lat="-27.2329234" lon="152.9104406">
<ele>74.647</ele>
<time>2017-01-31T22:00:29.006Z</time>
</trkpt>
<trkpt lat="-27.2326059" lon="152.9100165">
<ele>75.254</ele>
<time>2017-01-31T22:00:31.022Z</time>
</trkpt>
<trkpt lat="-27.2321092" lon="152.9094165">
<ele>75.952</ele>
<time>2017-01-31T22:00:34.005Z</time>
</trkpt>
<trkpt lat="-27.2317568" lon="152.9090414">
<ele>76.842</ele>
<time>2017-01-31T22:00:35.979Z</time>
</trkpt>
<trkpt lat="-27.2311967" lon="152.9085025">
<ele>77.678</ele>
<time>2017-01-31T22:00:38.969Z</time>
</trkpt>
<trkpt lat="-27.2308073" lon="152.9081554">
<ele>78.227</ele>
<time>2017-01-31T22:00:40.978Z</time>
</trkpt>
<trkpt lat="-27.2302092" lon="152.9076537">
<ele>78.404</ele>
<time>2017-01-31T22:00:43.992Z</time>
</trkpt>
<trkpt lat="-27.2296127" lon="152.9071662">
<ele>78.244</ele>
<time>2017-01-31T22:00:46.968Z</time>
</trkpt>
<trkpt lat="-27.2292240" lon="152.9068275">
<ele>77.797</ele>
<time>2017-01-31T22:00:48.945Z</time>
</trkpt>
<trkpt lat="-27.2288502" lon="152.9064587">
<ele>77.253</ele>
<time>2017-01-31T22:00:50.942Z</time>
</trkpt>
<trkpt lat="-27.2283096" lon="152.9058721">
<ele>76.800</ele>
<time>2017-01-31T22:00:53.969Z</time>
</trkpt>
<trkpt lat="-27.2278287" lon="152.9052730">
<ele>76.504</ele>
<time>2017-01-31T22:00:56.875Z</time>
</trkpt>
<trkpt lat="-27.2275047" lon="152.9048505">
<ele>76.293</ele>
<time>2017-01-31T22:00:58.886Z</time>
</trkpt>
<trkpt lat="-27.2270602" lon="152.9041829">
<ele>75.985</ele>
<time>2017-01-31T22:01:01.891Z</time>
</trkpt>
<trkpt lat="-27.2267719" lon="152.9037392">
<ele>75.486</ele>
<time>2017-01-31T22:01:03.873Z</time>
</trkpt>
<trkpt lat="-27.2263589" lon="152.9030501">
<ele>74.676</ele>
<time>2017-01-31T22:01:06.853Z</time>
</trkpt>
<trkpt lat="-27.2260671" lon="152.9025950">
<ele>73.587</ele>
<time>2017-01-31T22:01:08.845Z</time>
</trkpt>
<trkpt lat="-27.2256107" lon="152.9019273">
<ele>72.354</ele>
<time>2017-01-31T22:01:11.830Z</time>
</trkpt>
<trkpt lat="-27.2251049" lon="152.9012939">
<ele>70.342</ele>
<time>2017-01-31T22:01:14.830Z</time>
</trkpt>
<trkpt lat="-27.2247410" lon="152.9008981">
<ele>66.396</ele>
<time>2017-01-31T22:01:16.830Z</time>
</trkpt>
<trkpt lat="-27.2241444" lon="152.9003332">
<ele>60.827</ele>
<time>2017-01-31T22:01:19.920Z</time>
</trkpt>
<trkpt lat="-27.2235489" lon="152.8997927">
<ele>55.130</ele>
<time>2017-01-31T22:01:22.956Z</time>
</trkpt>
<trkpt lat="-27.2231470" lon="152.8994515">
<ele>50.627</ele>
<time>2017-01-31T22:01:24.941Z</time>
</trkpt>
<trkpt lat="-27.2225563" lon="152.8989226">
<ele>48.163</ele>
<time>2017-01-31T22:01:27.915Z</time>
</trkpt>
<trkpt lat="-27.2221577" lon="152.8985610">
<ele>47.686</ele>
<time>2017-01-31T22:01:29.939Z</time>
</trkpt>
<trkpt lat="-27.2216002" lon="152.8979969">
<ele>48.556</ele>
<time>2017-01-31T22:01:32.911Z</time>
</trkpt>
<trkpt lat="-27.2212383" lon="152.8976065">
<ele>50.507</ele>
<time>2017-01-31T22:01:34.902Z</time>
</trkpt>
<trkpt lat="-27.2207224" lon="152.8969961">
<ele>53.692</ele>
<time>2017-01-31T22:01:37.879Z</time>
</trkpt>
<trkpt lat="-27.2203926" lon="152.8965646">
<ele>58.168</ele>
<time>2017-01-31T22:01:39.876Z</time>
</trkpt>
<trkpt lat="-27.2199162" lon="152.8958840">
<ele>62.943</ele>
<time>2017-01-31T22:01:42.902Z</time>
</trkpt>
<trkpt lat="-27.2196206" lon="152.8954234">
<ele>66.997</ele>
<time>2017-01-31T22:01:44.928Z</time>
</trkpt>
<trkpt lat="-27.2192105" lon="152.8947513">
<ele>70.374</ele>
<time>2017-01-31T22:01:47.939Z</time>
</trkpt>
<trkpt lat="-27.2188718" lon="152.8940922">
<ele>72.919</ele>
<time>2017-01-31T22:01:50.861Z</time>
</trkpt>
<trkpt lat="-27.2186531" lon="152.8936308">
<ele>74.170</ele>
<time>2017-01-31T22:01:52.828Z</time>
</trkpt>
<trkpt lat="-27.2184289" lon="152.8931460">
<ele>74.491</ele>
<time>2017-01-31T22:01:54.766Z</time>
</trkpt>
<trkpt lat="-27.2180978" lon="152.8923392">
<ele>74.572</ele>
<time>2017-01-31T22:01:57.862Z</time>
</trkpt>
<trkpt lat="-27.2179102" lon="152.8918066">
<ele>74.525</ele>
<time>2017-01-31T22:01:59.881Z</time>
</trkpt>
<trkpt lat="-27.2176462" lon="152.8910185">
<ele>73.644</ele>
<time>2017-01-31T22:02:02.832Z</time>
</trkpt>
<trkpt lat="-27.2173547" lon="152.8902087">
<ele>70.903</ele>
<time>2017-01-31T22:02:05.850Z</time>
</trkpt>
<trkpt lat="-27.2171624" lon="152.8896638">
<ele>66.434</ele>
<time>2017-01-31T22:02:07.880Z</time>
</trkpt>
<trkpt lat="-27.2168928" lon="152.8888735">
<ele>61.990</ele>
<time>2017-01-31T22:02:10.853Z</time>
</trkpt>
<trkpt lat="-27.2167311" lon="152.8883509">
<ele>58.950</ele>
<time>2017-01-31T22:02:12.866Z</time>
</trkpt>
<trkpt lat="-27.2165491" lon="152.8878596">
<ele>57.339</ele>
<time>2017-01-31T22:02:14.874Z</time>
</trkpt>
<trkpt lat="-27.2162926" lon="152.8871338">
<ele>56.999</ele>
<time>2017-01-31T22:02:17.905Z</time>
</trkpt>
<trkpt lat="-27.2161432" lon="152.8866803">
<ele>57.886</ele>
<time>2017-01-31T22:02:19.885Z</time>
</trkpt>
<trkpt lat="-27.2159809" lon="152.8862310">
<ele>59.489</ele>
<time>2017-01-31T22:02:21.956Z</time>
</trkpt>
<trkpt lat="-27.2157626" lon="152.8855947">
<ele>61.231</ele>
<time>2017-01-31T22:02:24.894Z</time>
</trkpt>
<trkpt lat="-27.2156089" lon="152.8851696">
<ele>62.939</ele>
<time>2017-01-31T22:02:26.827Z</time>
</trkpt>
<trkpt lat="-27.2154326" lon="152.8847198">
<ele>64.445</ele>
<time>2017-01-31T22:02:28.887Z</time>
</trkpt>
<trkpt lat="-27.2151937" lon="152.8840580">
<ele>65.360</ele>
<time>2017-01-31T22:02:31.884Z</time>
</trkpt>
<trkpt lat="-27.2150499" lon="152.8836171">
<ele>65.332</ele>
<time>2017-01-31T22:02:33.829Z</time>
</trkpt>
<trkpt lat="-27.2148878" lon="152.8831577">
<ele>64.454</ele>
<time>2017-01-31T22:02:35.857Z</time>
</trkpt>
<trkpt lat="-27.2146591" lon="152.8824723">
<ele>63.225</ele>
<time>2017-01-31T22:02:38.869Z</time>
</trkpt>
<trkpt lat="-27.2144218" lon="152.8818169">
<ele>62.099</ele>
<time>2017-01-31T22:02:41.784Z</time>
</trkpt>
<trkpt lat="-27.2142275" lon="152.8813867">
<ele>60.840</ele>
<time>2017-01-31T22:02:43.749Z</time>
</trkpt>
<trkpt lat="-27.2138958" lon="152.8807458">
<ele>58.999</ele>
<time>2017-01-31T22:02:46.810Z</time>
</trkpt>
<trkpt lat="-27.2135076" lon="152.8802053">
<ele>56.427</ele>
<time>2017-01-31T22:02:49.809Z</time>
</trkpt>
<trkpt lat="-27.2130957" lon="152.8797355">
<ele>53.099</ele>
<time>2017-01-31T22:02:52.753Z</time>
</trkpt>
<trkpt lat="-27.2127748" lon="152.8794494">
<ele>49.377</ele>
<time>2017-01-31T22:02:54.805Z</time>
</trkpt>
<trkpt lat="-27.2122918" lon="152.8790586">
<ele>46.384</ele>
<time>2017-01-31T22:02:57.863Z</time>
</trkpt>
<trkpt lat="-27.2118309" lon="152.8787224">
<ele>44.993</ele>
<time>2017-01-31T22:03:00.812Z</time>
</trkpt>
<trkpt lat="-27.2115240" lon="152.8784975">
<ele>45.008</ele>
<time>2017-01-31T22:03:02.813Z</time>
</trkpt>
<trkpt lat="-27.2112168" lon="152.8782759">
<ele>45.817</ele>
<time>2017-01-31T22:03:04.807Z</time>
</trkpt>
<trkpt lat="-27.2109074" lon="152.8780468">
<ele>47.291</ele>
<time>2017-01-31T22:03:06.824Z</time>
</trkpt>
<trkpt lat="-27.2106089" lon="152.8778122">
<ele>49.379</ele>
<time>2017-01-31T22:03:08.765Z</time>
</trkpt>
<trkpt lat="-27.2102894" lon="152.8775690">
<ele>51.698</ele>
<time>2017-01-31T22:03:10.727Z</time>
</trkpt>
<trkpt lat="-27.2099522" lon="152.8773192">
<ele>53.951</ele>
<time>2017-01-31T22:03:12.682Z</time>
</trkpt>
<trkpt lat="-27.2094142" lon="152.8769243">
<ele>56.037</ele>
<time>2017-01-31T22:03:15.736Z</time>
</trkpt>
<trkpt lat="-27.2090614" lon="152.8766620">
<ele>57.855</ele>
<time>2017-01-31T22:03:17.746Z</time>
</trkpt>
<trkpt lat="-27.2085764" lon="152.8762315">
<ele>59.273</ele>
<time>2017-01-31T22:03:20.699Z</time>
</trkpt>
<trkpt lat="-27.2081391" lon="152.8757360">
<ele>60.232</ele>
<time>2017-01-31T22:03:23.682Z</time>
</trkpt>
<trkpt lat="-27.2077457" lon="152.8751879">
<ele>60.864</ele>
<time>2017-01-31T22:03:26.745Z</time>
</trkpt>
<trkpt lat="-27.2074344" lon="152.8746214">
<ele>61.333</ele>
<time>2017-01-31T22:03:29.722Z</time>
</trkpt>
<trkpt lat="-27.2072575" lon="152.8742260">
<ele>61.625</ele>
<time>2017-01-31T22:03:31.718Z</time>
</trkpt>
<trkpt lat="-27.2070976" lon="152.8738228">
<ele>62.080</ele>
<time>2017-01-31T22:03:33.696Z</time>
</trkpt>
<trkpt lat="-27.2069185" lon="152.8731843">
<ele>63.454</ele>
<time>2017-01-31T22:03:36.699Z</time>
</trkpt>
<trkpt lat="-27.2067800" lon="152.8725412">
<ele>66.096</ele>
<time>2017-01-31T22:03:39.687Z</time>
</trkpt>
<trkpt lat="-27.2067290" lon="152.8721032">
<ele>69.615</ele>
<time>2017-01-31T22:03:41.696Z</time>
</trkpt>
<trkpt lat="-27.2067116" lon="152.8716567">
<ele>73.311</ele>
<time>2017-01-31T22:03:43.716Z</time>
</trkpt>
<trkpt lat="-27.2067202" lon="152.8709942">
<ele>76.473</ele>
<time>2017-01-31T22:03:46.675Z</time>
</trkpt>
<trkpt lat="-27.2067794" lon="152.8705462">
<ele>78.726</ele>
<time>2017-01-31T22:03:48.658Z</time>
</trkpt>
<trkpt lat="-27.2068770" lon="152.8700959">
<ele>80.052</ele>
<time>2017-01-31T22:03:50.672Z</time>
</trkpt>
<trkpt lat="-27.2070561" lon="152.8694168">
<ele>80.437</ele>
<time>2017-01-31T22:03:53.764Z</time>
</trkpt>
<trkpt lat="-27.2072363" lon="152.8687812">
<ele>79.612</ele>
<time>2017-01-31T22:03:56.701Z</time>
</trkpt>
<trkpt lat="-27.2073538" lon="152.8683443">
<ele>77.518</ele>
<time>2017-01-31T22:03:58.703Z</time>
</trkpt>
<trkpt lat="-27.2074753" lon="152.8679089">
<ele>74.765</ele>
<time>2017-01-31T22:04:00.712Z</time>
</trkpt>
<trkpt lat="-27.2076478" lon="152.8672710">
<ele>72.141</ele>
<time>2017-01-31T22:04:03.650Z</time>
</trkpt>
<trkpt lat="-27.2077369" lon="152.8668324">
<ele>69.529</ele>
<time>2017-01-31T22:04:05.621Z</time>
</trkpt>
<trkpt lat="-27.2078252" lon="152.8663881">
<ele>66.462</ele>
<time>2017-01-31T22:04:07.605Z</time>
</trkpt>
<trkpt lat="-27.2079221" lon="152.8657139">
<ele>63.402</ele>
<time>2017-01-31T22:04:10.568Z</time>
</trkpt>
<trkpt lat="-27.2079550" lon="152.8650199">
<ele>61.079</ele>
<time>2017-01-31T22:04:13.559Z</time>
</trkpt>
<trkpt lat="-27.2079659" lon="152.8645551">
<ele>59.607</ele>
<time>2017-01-31T22:04:15.514Z</time>
</trkpt>
<trkpt lat="-27.2079591" lon="152.8638259">
<ele>58.671</ele>
<time>2017-01-31T22:04:18.529Z</time>
</trkpt>
<trkpt lat="-27.2079642" lon="152.8633306">
<ele>57.760</ele>
<time>2017-01-31T22:04:20.551Z</time>
</trkpt>
<trkpt lat="-27.2079553" lon="152.8625960">
<ele>56.618</ele>
<time>2017-01-31T22:04:23.559Z</time>
</trkpt>
<trkpt lat="-27.2079132" lon="152.8621254">
<ele>55.040</ele>
<time>2017-01-31T22:04:25.498Z</time>
</trkpt>
<trkpt lat="-27.2077676" lon="152.8614089">
<ele>52.747</ele>
<time>2017-01-31T22:04:28.490Z</time>
</trkpt>
<trkpt lat="-27.2076177" lon="152.8609453">
<ele>50.371</ele>
<time>2017-01-31T22:04:30.488Z</time>
</trkpt>
<trkpt lat="-27.2073271" lon="152.8602899">
<ele>48.945</ele>
<time>2017-01-31T22:04:33.471Z</time>
</trkpt>
<trkpt lat="-27.2070906" lon="152.8598819">
<ele>48.552</ele>
<time>2017-01-31T22:04:35.486Z</time>
</trkpt>
<trkpt lat="-27.2066766" lon="152.8593357">
<ele>48.962</ele>
<time>2017-01-31T22:04:38.489Z</time>
</trkpt>
<trkpt lat="-27.2063707" lon="152.8590173">
<ele>50.287</ele>
<time>2017-01-31T22:04:40.503Z</time>
</trkpt>
<trkpt lat="-27.2058786" lon="152.8586021">
<ele>52.261</ele>
<time>2017-01-31T22:04:43.521Z</time>
</trkpt>
<trkpt lat="-27.2055553" lon="152.8583500">
<ele>54.268</ele>
<time>2017-01-31T22:04:45.425Z</time>
</trkpt>
<trkpt lat="-27.2050348" lon="152.8579372">
<ele>56.167</ele>
<time>2017-01-31T22:04:48.434Z</time>
</trkpt>
<trkpt lat="-27.2045065" lon="152.8575048">
<ele>58.165</ele>
<time>2017-01-31T22:04:51.500Z</time>
</trkpt>
<trkpt lat="-27.2040117" lon="152.8570981">
<ele>60.125</ele>
<time>2017-01-31T22:04:54.480Z</time>
</trkpt>
<trkpt lat="-27.2037156" lon="152.8568188">
<ele>61.583</ele>
<time>2017-01-31T22:04:56.422Z</time>
</trkpt>
<trkpt lat="-27.2034308" lon="152.8565018">
<ele>62.334</ele>
<time>2017-01-31T22:04:58.414Z</time>
</trkpt>
<trkpt lat="-27.2031607" lon="152.8561509">
<ele>62.635</ele>
<time>2017-01-31T22:05:00.435Z</time>
</trkpt>
<trkpt lat="-27.2028068" lon="152.8555907">
<ele>63.028</ele>
<time>2017-01-31T22:05:03.427Z</time>
</trkpt>
<trkpt lat="-27.2026117" lon="152.8551972">
<ele>63.902</ele>
<time>2017-01-31T22:05:05.418Z</time>
</trkpt>
<trkpt lat="-27.2023356" lon="152.8545825">
<ele>64.989</ele>
<time>2017-01-31T22:05:08.512Z</time>
</trkpt>
<trkpt lat="-27.2022204" lon="152.8541785">
<ele>66.019</ele>
<time>2017-01-31T22:05:10.479Z</time>
</trkpt>
<trkpt lat="-27.2021284" lon="152.8537716">
<ele>67.351</ele>
<time>2017-01-31T22:05:12.437Z</time>
</trkpt>
<trkpt lat="-27.2020170" lon="152.8531246">
<ele>69.461</ele>
<time>2017-01-31T22:05:15.500Z</time>
</trkpt>
<trkpt lat="-27.2019821" lon="152.8526985">
<ele>72.526</ele>
<time>2017-01-31T22:05:17.470Z</time>
</trkpt>
<trkpt lat="-27.2019824" lon="152.8520422">
<ele>76.093</ele>
<time>2017-01-31T22:05:20.463Z</time>
</trkpt>
<trkpt lat="-27.2019855" lon="152.8513819">
<ele>79.842</ele>
<time>2017-01-31T22:05:23.457Z</time>
</trkpt>
<trkpt lat="-27.2020027" lon="152.8509538">
<ele>83.666</ele>
<time>2017-01-31T22:05:25.438Z</time>
</trkpt>
<trkpt lat="-27.2020116" lon="152.8505334">
<ele>87.148</ele>
<time>2017-01-31T22:05:27.387Z</time>
</trkpt>
<trkpt lat="-27.2019978" lon="152.8500947">
<ele>89.939</ele>
<time>2017-01-31T22:05:29.381Z</time>
</trkpt>
<trkpt lat="-27.2019325" lon="152.8494211">
<ele>92.246</ele>
<time>2017-01-31T22:05:32.391Z</time>
</trkpt>
<trkpt lat="-27.2018591" lon="152.8489609">
<ele>94.744</ele>
<time>2017-01-31T22:05:34.419Z</time>
</trkpt>
<trkpt lat="-27.2017279" lon="152.8482789">
<ele>97.763</ele>
<time>2017-01-31T22:05:37.446Z</time>
</trkpt>
<trkpt lat="-27.2015527" lon="152.8476225">
<ele>100.462</ele>
<time>2017-01-31T22:05:40.454Z</time>
</trkpt>
<trkpt lat="-27.2014091" lon="152.8472065">
<ele>102.043</ele>
<time>2017-01-31T22:05:42.429Z</time>
</trkpt>
<trkpt lat="-27.2012455" lon="152.8467995">
<ele>102.317</ele>
<time>2017-01-31T22:05:44.369Z</time>
</trkpt>
<trkpt lat="-27.2010772" lon="152.8463742">
<ele>101.427</ele>
<time>2017-01-31T22:05:46.357Z</time>
</trkpt>
<trkpt lat="-27.2008678" lon="152.8459746">
<ele>99.924</ele>
<time>2017-01-31T22:05:48.332Z</time>
</trkpt>
<trkpt lat="-27.2006622" lon="152.8455680">
<ele>98.202</ele>
<time>2017-01-31T22:05:50.299Z</time>
</trkpt>
<trkpt lat="-27.2003081" lon="152.8449880">
<ele>96.044</ele>
<time>2017-01-31T22:05:53.224Z</time>
</trkpt>
<trkpt lat="-27.2000321" lon="152.8446073">
<ele>93.229</ele>
<time>2017-01-31T22:05:55.289Z</time>
</trkpt>
<trkpt lat="-27.1995805" lon="152.8440968">
<ele>89.970</ele>
<time>2017-01-31T22:05:58.398Z</time>
</trkpt>
<trkpt lat="-27.1991374" lon="152.8436423">
<ele>86.407</ele>
<time>2017-01-31T22:06:01.403Z</time>
</trkpt>
<trkpt lat="-27.1986915" lon="152.8432245">
<ele>82.708</ele>
<time>2017-01-31T22:06:04.382Z</time>
</trkpt>
<trkpt lat="-27.1983887" lon="152.8429529">
<ele>79.583</ele>
<time>2017-01-31T22:06:06.413Z</time>
</trkpt>
<trkpt lat="-27.1979376" lon="152.8425600">
<ele>77.428</ele>
<time>2017-01-31T22:06:09.409Z</time>
</trkpt>
<trkpt lat="-27.1976330" lon="152.8422919">
<ele>75.837</ele>
<time>2017-01-31T22:06:11.433Z</time>
</trkpt>
<trkpt lat="-27.1971987" lon="152.8419099">
<ele>74.578</ele>
<time>2017-01-31T22:06:14.327Z</time>
</trkpt>
<trkpt lat="-27.1967407" lon="152.8415092">
<ele>73.643</ele>
<time>2017-01-31T22:06:17.387Z</time>
</trkpt>
<trkpt lat="-27.1964554" lon="152.8412505">
<ele>72.839</ele>
<time>2017-01-31T22:06:19.352Z</time>
</trkpt>
<trkpt lat="-27.1960317" lon="152.8408672">
<ele>72.106</ele>
<time>2017-01-31T22:06:22.308Z</time>
</trkpt>
<trkpt lat="-27.1957546" lon="152.8406210">
<ele>71.274</ele>
<time>2017-01-31T22:06:24.267Z</time>
</trkpt>
<trkpt lat="-27.1953082" lon="152.8402347">
<ele>70.168</ele>
<time>2017-01-31T22:06:27.435Z</time>
</trkpt>
<trkpt lat="-27.1950557" lon="152.8399604">
<ele>68.775</ele>
<time>2017-01-31T22:06:29.388Z</time>
</trkpt>
<trkpt lat="-27.1947007" lon="152.8394874">
<ele>67.242</ele>
<time>2017-01-31T22:06:32.381Z</time>
</trkpt>
<trkpt lat="-27.1944824" lon="152.8391395">
<ele>66.088</ele>
<time>2017-01-31T22:06:34.430Z</time>
</trkpt>
<trkpt lat="-27.1943218" lon="152.8387853">
<ele>65.712</ele>
<time>2017-01-31T22:06:36.415Z</time>
</trkpt>
<trkpt lat="-27.1941976" lon="152.8384311">
<ele>65.799</ele>
<time>2017-01-31T22:06:38.444Z</time>
</trkpt>
<trkpt lat="-27.1940483" lon="152.8379368">
<ele>65.954</ele>
<time>2017-01-31T22:06:41.391Z</time>
</trkpt>
<trkpt lat="-27.1939617" lon="152.8374381">
<ele>65.996</ele>
<time>2017-01-31T22:06:44.448Z</time>
</trkpt>
<trkpt lat="-27.1939231" lon="152.8371279">
<ele>66.090</ele>
<time>2017-01-31T22:06:46.389Z</time>
</trkpt>
<trkpt lat="-27.1938918" lon="152.8368014">
<ele>66.455</ele>
<time>2017-01-31T22:06:48.393Z</time>
</trkpt>
<trkpt lat="-27.1938645" lon="152.8364724">
<ele>67.187</ele>
<time>2017-01-31T22:06:50.356Z</time>
</trkpt>
<trkpt lat="-27.1938342" lon="152.8361262">
<ele>68.248</ele>
<time>2017-01-31T22:06:52.413Z</time>
</trkpt>
<trkpt lat="-27.1937880" lon="152.8356344">
<ele>69.452</ele>
<time>2017-01-31T22:06:55.360Z</time>
</trkpt>
<trkpt lat="-27.1937462" lon="152.8351380">
<ele>70.558</ele>
<time>2017-01-31T22:06:58.359Z</time>
</trkpt>
<trkpt lat="-27.1937034" lon="152.8346448">
<ele>71.476</ele>
<time>2017-01-31T22:07:01.356Z</time>
</trkpt>
<trkpt lat="-27.1936696" lon="152.8343189">
<ele>72.173</ele>
<time>2017-01-31T22:07:03.367Z</time>
</trkpt>
<trkpt lat="-27.1936222" lon="152.8338399">
<ele>72.617</ele>
<time>2017-01-31T22:07:06.337Z</time>
</trkpt>
<trkpt lat="-27.1935756" lon="152.8333628">
<ele>72.696</ele>
<time>2017-01-31T22:07:09.289Z</time>
</trkpt>
<trkpt lat="-27.1935169" lon="152.8328773">
<ele>72.388</ele>
<time>2017-01-31T22:07:12.266Z</time>
</trkpt>
<trkpt lat="-27.1934824" lon="152.8325453">
<ele>71.755</ele>
<time>2017-01-31T22:07:14.273Z</time>
</trkpt>
<trkpt lat="-27.1934645" lon="152.8322111">
<ele>70.783</ele>
<time>2017-01-31T22:07:16.278Z</time>
</trkpt>
<trkpt lat="-27.1934696" lon="152.8318756">
<ele>69.464</ele>
<time>2017-01-31T22:07:18.278Z</time>
</trkpt>
<trkpt lat="-27.1935086" lon="152.8315390">
<ele>67.979</ele>
<time>2017-01-31T22:07:20.301Z</time>
</trkpt>
<trkpt lat="-27.1936057" lon="152.8310478">
<ele>66.421</ele>
<time>2017-01-31T22:07:23.312Z</time>
</trkpt>
<trkpt lat="-27.1937506" lon="152.8305793">
<ele>64.704</ele>
<time>2017-01-31T22:07:26.274Z</time>
</trkpt>
<trkpt lat="-27.1938729" lon="152.8302692">
<ele>62.720</ele>
<time>2017-01-31T22:07:28.281Z</time>
</trkpt>
<trkpt lat="-27.1941089" lon="152.8298117">
<ele>60.698</ele>
<time>2017-01-31T22:07:31.470Z</time>
</trkpt>
<trkpt lat="-27.1943589" lon="152.8294418">
<ele>58.989</ele>
<time>2017-01-31T22:07:34.414Z</time>
</trkpt>
<trkpt lat="-27.1945332" lon="152.8292045">
<ele>57.487</ele>
<time>2017-01-31T22:07:36.465Z</time>
</trkpt>
<trkpt lat="-27.1948031" lon="152.8288809">
<ele>56.120</ele>
<time>2017-01-31T22:07:39.493Z</time>
</trkpt>
<trkpt lat="-27.1949706" lon="152.8286660">
<ele>55.267</ele>
<time>2017-01-31T22:07:41.488Z</time>
</trkpt>
<trkpt lat="-27.1951505" lon="152.8284571">
<ele>55.153</ele>
<time>2017-01-31T22:07:43.558Z</time>
</trkpt>
<trkpt lat="-27.1953736" lon="152.8281458">
<ele>55.559</ele>
<time>2017-01-31T22:07:46.442Z</time>
</trkpt>
<trkpt lat="-27.1955718" lon="152.8277903">
<ele>56.025</ele>
<time>2017-01-31T22:07:49.499Z</time>
</trkpt>
<trkpt lat="-27.1956578" lon="152.8275443">
<ele>56.172</ele>
<time>2017-01-31T22:07:51.447Z</time>
</trkpt>
<trkpt lat="-27.1957244" lon="152.8272907">
<ele>55.836</ele>
<time>2017-01-31T22:07:53.396Z</time>
</trkpt>
<trkpt lat="-27.1957622" lon="152.8270197">
<ele>54.930</ele>
<time>2017-01-31T22:07:55.387Z</time>
</trkpt>
<trkpt lat="-27.1958124" lon="152.8266145">
<ele>53.670</ele>
<time>2017-01-31T22:07:58.331Z</time>
</trkpt>
<trkpt lat="-27.1958566" lon="152.8263290">
<ele>52.568</ele>
<time>2017-01-31T22:08:00.425Z</time>
</trkpt>
<trkpt lat="-27.1958989" lon="152.8259256">
<ele>51.983</ele>
<time>2017-01-31T22:08:03.415Z</time>
</trkpt>
<trkpt lat="-27.1959119" lon="152.8256600">
<ele>51.844</ele>
<time>2017-01-31T22:08:05.475Z</time>
</trkpt>
<trkpt lat="-27.1959538" lon="152.8252994">
<ele>51.895</ele>
<time>2017-01-31T22:08:08.392Z</time>
</trkpt>
<trkpt lat="-27.1959814" lon="152.8250662">
<ele>51.900</ele>
<time>2017-01-31T22:08:10.386Z</time>
</trkpt>
<trkpt lat="-27.1960163" lon="152.8248584">
<ele>51.758</ele>
<time>2017-01-31T22:08:12.203Z</time>
</trkpt>
<trkpt lat="-27.1961339" lon="152.8245343">
<ele>51.539</ele>
<time>2017-01-31T22:08:15.193Z</time>
</trkpt>
<trkpt lat="-27.1962484" lon="152.8243285">
<ele>51.404</ele>
<time>2017-01-31T22:08:17.310Z</time>
</trkpt>
<trkpt lat="-27.1963992" lon="152.8240619">
<ele>51.403</ele>
<time>2017-01-31T22:08:20.174Z</time>
</trkpt>
<trkpt lat="-27.1965720" lon="152.8237897">
<ele>51.410</ele>
<time>2017-01-31T22:08:23.343Z</time>
</trkpt>
<trkpt lat="-27.1966531" lon="152.8236238">
<ele>51.316</ele>
<time>2017-01-31T22:08:25.259Z</time>
</trkpt>
<trkpt lat="-27.1967372" lon="152.8234591">
<ele>51.106</ele>
<time>2017-01-31T22:08:27.267Z</time>
</trkpt>
<trkpt lat="-27.1967902" lon="152.8232941">
<ele>50.822</ele>
<time>2017-01-31T22:08:29.205Z</time>
</trkpt>
<trkpt lat="-27.1968647" lon="152.8231444">
<ele>50.619</ele>
<time>2017-01-31T22:08:31.337Z</time>
</trkpt>
<trkpt lat="-27.1968979" lon="152.8230282">
<ele>50.622</ele>
<time>2017-01-31T22:08:33.616Z</time>
</trkpt>
<trkpt lat="-27.1968403" lon="152.8229442">
<ele>50.825</ele>
<time>2017-01-31T22:08:36.000Z</time>
</trkpt>
<trkpt lat="-27.1968403" lon="152.8229442">
<ele>51.144</ele>
<time>2017-01-31T22:08:42.000Z</time>
</trkpt>
<trkpt lat="-27.1968403" lon="152.8229442">
<ele>51.354</ele>
<time>2017-01-31T23:18:58.925Z</time>
</trkpt>
<trkpt lat="-27.1968125" lon="152.8231797">
<ele>51.323</ele>
<time>2017-01-31T23:19:04.882Z</time>
</trkpt>
<trkpt lat="-27.1967515" lon="152.8232896">
<ele>52.079</ele>
<time>2017-01-31T23:19:07.052Z</time>
</trkpt>
<trkpt lat="-27.1966657" lon="152.8234131">
<ele>54.306</ele>
<time>2017-01-31T23:19:10.132Z</time>
</trkpt>
<trkpt lat="-27.1966031" lon="152.8235214">
<ele>56.482</ele>
<time>2017-01-31T23:19:13.273Z</time>
</trkpt>
<trkpt lat="-27.1965422" lon="152.8236395">
<ele>57.120</ele>
<time>2017-01-31T23:19:16.740Z</time>
</trkpt>
<trkpt lat="-27.1964785" lon="152.8237454">
<ele>56.725</ele>
<time>2017-01-31T23:19:19.654Z</time>
</trkpt>
<trkpt lat="-27.1964295" lon="152.8238340">
<ele>56.203</ele>
<time>2017-01-31T23:19:21.573Z</time>
</trkpt>
<trkpt lat="-27.1963756" lon="152.8239425">
<ele>55.964</ele>
<time>2017-01-31T23:19:23.515Z</time>
</trkpt>
<trkpt lat="-27.1963071" lon="152.8240681">
<ele>56.011</ele>
<time>2017-01-31T23:19:25.518Z</time>
</trkpt>
<trkpt lat="-27.1961933" lon="152.8242668">
<ele>56.219</ele>
<time>2017-01-31T23:19:28.477Z</time>
</trkpt>
<trkpt lat="-27.1960738" lon="152.8244879">
<ele>56.510</ele>
<time>2017-01-31T23:19:31.467Z</time>
</trkpt>
<trkpt lat="-27.1959989" lon="152.8246441">
<ele>56.823</ele>
<time>2017-01-31T23:19:33.400Z</time>
</trkpt>
<trkpt lat="-27.1959459" lon="152.8249187">
<ele>57.068</ele>
<time>2017-01-31T23:19:36.456Z</time>
</trkpt>
<trkpt lat="-27.1959314" lon="152.8251831">
<ele>57.224</ele>
<time>2017-01-31T23:19:39.447Z</time>
</trkpt>
<trkpt lat="-27.1959168" lon="152.8253460">
<ele>57.322</ele>
<time>2017-01-31T23:19:41.366Z</time>
</trkpt>
<trkpt lat="-27.1958850" lon="152.8256120">
<ele>57.377</ele>
<time>2017-01-31T23:19:44.487Z</time>
</trkpt>
<trkpt lat="-27.1958377" lon="152.8257803">
<ele>57.404</ele>
<time>2017-01-31T23:19:46.400Z</time>
</trkpt>
<trkpt lat="-27.1957098" lon="152.8259059">
<ele>57.450</ele>
<time>2017-01-31T23:19:48.193Z</time>
</trkpt>
<trkpt lat="-27.1953887" lon="152.8259949">
<ele>57.662</ele>
<time>2017-01-31T23:19:51.314Z</time>
</trkpt>
<trkpt lat="-27.1950336" lon="152.8260638">
<ele>58.087</ele>
<time>2017-01-31T23:19:54.384Z</time>
</trkpt>
<trkpt lat="-27.1946767" lon="152.8261394">
<ele>58.527</ele>
<time>2017-01-31T23:19:57.283Z</time>
</trkpt>
<trkpt lat="-27.1943035" lon="152.8262534">
<ele>58.869</ele>
<time>2017-01-31T23:20:00.216Z</time>
</trkpt>
<trkpt lat="-27.1940425" lon="152.8263324">
<ele>59.188</ele>
<time>2017-01-31T23:20:02.214Z</time>
</trkpt>
<trkpt lat="-27.1937828" lon="152.8264115">
<ele>59.501</ele>
<time>2017-01-31T23:20:04.207Z</time>
</trkpt>
<trkpt lat="-27.1935227" lon="152.8264848">
<ele>59.797</ele>
<time>2017-01-31T23:20:06.224Z</time>
</trkpt>
<trkpt lat="-27.1931526" lon="152.8265888">
<ele>60.041</ele>
<time>2017-01-31T23:20:09.097Z</time>
</trkpt>
<trkpt lat="-27.1927464" lon="152.8266172">
<ele>60.177</ele>
<time>2017-01-31T23:20:12.077Z</time>
</trkpt>
<trkpt lat="-27.1923113" lon="152.8265997">
<ele>60.170</ele>
<time>2017-01-31T23:20:15.169Z</time>
</trkpt>
<trkpt lat="-27.1920345" lon="152.8265722">
<ele>60.099</ele>
<time>2017-01-31T23:20:17.151Z</time>
</trkpt>
<trkpt lat="-27.1917676" lon="152.8265504">
<ele>60.050</ele>
<time>2017-01-31T23:20:19.081Z</time>
</trkpt>
<trkpt lat="-27.1914980" lon="152.8265232">
<ele>59.939</ele>
<time>2017-01-31T23:20:21.036Z</time>
</trkpt>
<trkpt lat="-27.1912155" lon="152.8264914">
<ele>59.724</ele>
<time>2017-01-31T23:20:23.056Z</time>
</trkpt>
<trkpt lat="-27.1907855" lon="152.8264525">
<ele>59.615</ele>
<time>2017-01-31T23:20:26.054Z</time>
</trkpt>
<trkpt lat="-27.1903416" lon="152.8264234">
<ele>59.782</ele>
<time>2017-01-31T23:20:29.098Z</time>
</trkpt>
<trkpt lat="-27.1899106" lon="152.8263957">
<ele>60.108</ele>
<time>2017-01-31T23:20:32.125Z</time>
</trkpt>
<trkpt lat="-27.1895001" lon="152.8263491">
<ele>60.263</ele>
<time>2017-01-31T23:20:35.097Z</time>
</trkpt>
<trkpt lat="-27.1890699" lon="152.8263391">
<ele>60.112</ele>
<time>2017-01-31T23:20:38.168Z</time>
</trkpt>
<trkpt lat="-27.1886646" lon="152.8264017">
<ele>59.984</ele>
<time>2017-01-31T23:20:41.015Z</time>
</trkpt>
<trkpt lat="-27.1882753" lon="152.8266055">
<ele>60.184</ele>
<time>2017-01-31T23:20:43.959Z</time>
</trkpt>
<trkpt lat="-27.1879459" lon="152.8269307">
<ele>60.562</ele>
<time>2017-01-31T23:20:46.950Z</time>
</trkpt>
<trkpt lat="-27.1877360" lon="152.8271746">
<ele>60.862</ele>
<time>2017-01-31T23:20:48.998Z</time>
</trkpt>
<trkpt lat="-27.1874092" lon="152.8274968">
<ele>60.897</ele>
<time>2017-01-31T23:20:51.961Z</time>
</trkpt>
<trkpt lat="-27.1871734" lon="152.8276848">
<ele>60.591</ele>
<time>2017-01-31T23:20:54.005Z</time>
</trkpt>
<trkpt lat="-27.1869442" lon="152.8278531">
<ele>59.972</ele>
<time>2017-01-31T23:20:56.012Z</time>
</trkpt>
<trkpt lat="-27.1866019" lon="152.8280982">
<ele>59.126</ele>
<time>2017-01-31T23:20:59.039Z</time>
</trkpt>
<trkpt lat="-27.1863811" lon="152.8282547">
<ele>58.341</ele>
<time>2017-01-31T23:21:00.956Z</time>
</trkpt>
<trkpt lat="-27.1860152" lon="152.8285090">
<ele>57.941</ele>
<time>2017-01-31T23:21:04.003Z</time>
</trkpt>
<trkpt lat="-27.1856502" lon="152.8287739">
<ele>57.935</ele>
<time>2017-01-31T23:21:06.963Z</time>
</trkpt>
<trkpt lat="-27.1853697" lon="152.8289090">
<ele>58.277</ele>
<time>2017-01-31T23:21:09.003Z</time>
</trkpt>
<trkpt lat="-27.1849163" lon="152.8289078">
<ele>59.284</ele>
<time>2017-01-31T23:21:12.014Z</time>
</trkpt>
<trkpt lat="-27.1845184" lon="152.8286657">
<ele>60.971</ele>
<time>2017-01-31T23:21:14.919Z</time>
</trkpt>
<trkpt lat="-27.1840920" lon="152.8283330">
<ele>62.730</ele>
<time>2017-01-31T23:21:18.022Z</time>
</trkpt>
<trkpt lat="-27.1836288" lon="152.8280516">
<ele>64.451</ele>
<time>2017-01-31T23:21:21.082Z</time>
</trkpt>
<trkpt lat="-27.1833043" lon="152.8279508">
<ele>66.467</ele>
<time>2017-01-31T23:21:23.097Z</time>
</trkpt>
<trkpt lat="-27.1829869" lon="152.8278618">
<ele>68.573</ele>
<time>2017-01-31T23:21:25.109Z</time>
</trkpt>
<trkpt lat="-27.1825298" lon="152.8277387">
<ele>70.430</ele>
<time>2017-01-31T23:21:28.061Z</time>
</trkpt>
<trkpt lat="-27.1820776" lon="152.8276209">
<ele>72.101</ele>
<time>2017-01-31T23:21:31.050Z</time>
</trkpt>
<trkpt lat="-27.1817751" lon="152.8275699">
<ele>73.686</ele>
<time>2017-01-31T23:21:33.045Z</time>
</trkpt>
<trkpt lat="-27.1814688" lon="152.8275416">
<ele>74.949</ele>
<time>2017-01-31T23:21:35.026Z</time>
</trkpt>
<trkpt lat="-27.1810029" lon="152.8275336">
<ele>75.659</ele>
<time>2017-01-31T23:21:37.974Z</time>
</trkpt>
<trkpt lat="-27.1806914" lon="152.8274932">
<ele>76.388</ele>
<time>2017-01-31T23:21:39.916Z</time>
</trkpt>
<trkpt lat="-27.1803772" lon="152.8274098">
<ele>77.822</ele>
<time>2017-01-31T23:21:41.891Z</time>
</trkpt>
<trkpt lat="-27.1800571" lon="152.8273253">
<ele>79.632</ele>
<time>2017-01-31T23:21:43.897Z</time>
</trkpt>
<trkpt lat="-27.1795823" lon="152.8272000">
<ele>81.148</ele>
<time>2017-01-31T23:21:46.897Z</time>
</trkpt>
<trkpt lat="-27.1791289" lon="152.8270739">
<ele>82.310</ele>
<time>2017-01-31T23:21:49.798Z</time>
</trkpt>
<trkpt lat="-27.1788055" lon="152.8270016">
<ele>83.510</ele>
<time>2017-01-31T23:21:51.824Z</time>
</trkpt>
<trkpt lat="-27.1783158" lon="152.8268880">
<ele>85.031</ele>
<time>2017-01-31T23:21:54.841Z</time>
</trkpt>
<trkpt lat="-27.1779741" lon="152.8268012">
<ele>86.533</ele>
<time>2017-01-31T23:21:56.891Z</time>
</trkpt>
<trkpt lat="-27.1774567" lon="152.8266650">
<ele>87.480</ele>
<time>2017-01-31T23:21:59.913Z</time>
</trkpt>
<trkpt lat="-27.1771071" lon="152.8265753">
<ele>87.869</ele>
<time>2017-01-31T23:22:01.927Z</time>
</trkpt>
<trkpt lat="-27.1765930" lon="152.8264508">
<ele>87.999</ele>
<time>2017-01-31T23:22:04.928Z</time>
</trkpt>
<trkpt lat="-27.1760954" lon="152.8263330">
<ele>87.916</ele>
<time>2017-01-31T23:22:07.907Z</time>
</trkpt>
<trkpt lat="-27.1756084" lon="152.8261936">
<ele>87.581</ele>
<time>2017-01-31T23:22:10.874Z</time>
</trkpt>
<trkpt lat="-27.1751544" lon="152.8258929">
<ele>87.353</ele>
<time>2017-01-31T23:22:13.950Z</time>
</trkpt>
<trkpt lat="-27.1749198" lon="152.8256117">
<ele>87.731</ele>
<time>2017-01-31T23:22:15.936Z</time>
</trkpt>
<trkpt lat="-27.1746849" lon="152.8253466">
<ele>88.983</ele>
<time>2017-01-31T23:22:17.892Z</time>
</trkpt>
<trkpt lat="-27.1744186" lon="152.8251201">
<ele>90.909</ele>
<time>2017-01-31T23:22:19.927Z</time>
</trkpt>
<trkpt lat="-27.1739885" lon="152.8249563">
<ele>92.950</ele>
<time>2017-01-31T23:22:22.799Z</time>
</trkpt>
<trkpt lat="-27.1736662" lon="152.8249622">
<ele>94.915</ele>
<time>2017-01-31T23:22:24.877Z</time>
</trkpt>
<trkpt lat="-27.1731857" lon="152.8249357">
<ele>97.040</ele>
<time>2017-01-31T23:22:27.957Z</time>
</trkpt>
<trkpt lat="-27.1727187" lon="152.8249479">
<ele>99.219</ele>
<time>2017-01-31T23:22:30.948Z</time>
</trkpt>
<trkpt lat="-27.1722667" lon="152.8250953">
<ele>101.140</ele>
<time>2017-01-31T23:22:33.974Z</time>
</trkpt>
<trkpt lat="-27.1719621" lon="152.8251571">
<ele>102.929</ele>
<time>2017-01-31T23:22:35.915Z</time>
</trkpt>
<trkpt lat="-27.1714691" lon="152.8251238">
<ele>104.820</ele>
<time>2017-01-31T23:22:38.923Z</time>
</trkpt>
<trkpt lat="-27.1709725" lon="152.8250467">
<ele>106.929</ele>
<time>2017-01-31T23:22:41.945Z</time>
</trkpt>
<trkpt lat="-27.1706497" lon="152.8250840">
<ele>109.401</ele>
<time>2017-01-31T23:22:43.969Z</time>
</trkpt>
<trkpt lat="-27.1702252" lon="152.8253029">
<ele>112.026</ele>
<time>2017-01-31T23:22:46.936Z</time>
</trkpt>
<trkpt lat="-27.1699642" lon="152.8255048">
<ele>114.526</ele>
<time>2017-01-31T23:22:48.936Z</time>
</trkpt>
<trkpt lat="-27.1695939" lon="152.8258263">
<ele>116.794</ele>
<time>2017-01-31T23:22:51.891Z</time>
</trkpt>
<trkpt lat="-27.1694024" lon="152.8261060">
<ele>118.566</ele>
<time>2017-01-31T23:22:53.917Z</time>
</trkpt>
<trkpt lat="-27.1693076" lon="152.8265694">
<ele>119.833</ele>
<time>2017-01-31T23:22:56.734Z</time>
</trkpt>
<trkpt lat="-27.1690857" lon="152.8270092">
<ele>121.149</ele>
<time>2017-01-31T23:22:59.895Z</time>
</trkpt>
<trkpt lat="-27.1688422" lon="152.8271385">
<ele>122.953</ele>
<time>2017-01-31T23:23:01.860Z</time>
</trkpt>
<trkpt lat="-27.1683828" lon="152.8270988">
<ele>125.081</ele>
<time>2017-01-31T23:23:05.086Z</time>
</trkpt>
<trkpt lat="-27.1680874" lon="152.8268738">
<ele>127.233</ele>
<time>2017-01-31T23:23:07.291Z</time>
</trkpt>
<trkpt lat="-27.1676235" lon="152.8266582">
<ele>129.435</ele>
<time>2017-01-31T23:23:10.227Z</time>
</trkpt>
<trkpt lat="-27.1671046" lon="152.8265556">
<ele>131.646</ele>
<time>2017-01-31T23:23:13.204Z</time>
</trkpt>
<trkpt lat="-27.1667361" lon="152.8266202">
<ele>133.935</ele>
<time>2017-01-31T23:23:15.293Z</time>
</trkpt>
<trkpt lat="-27.1662226" lon="152.8267684">
<ele>136.416</ele>
<time>2017-01-31T23:23:18.294Z</time>
</trkpt>
<trkpt lat="-27.1658886" lon="152.8268588">
<ele>138.843</ele>
<time>2017-01-31T23:23:20.265Z</time>
</trkpt>
<trkpt lat="-27.1655532" lon="152.8269749">
<ele>140.996</ele>
<time>2017-01-31T23:23:22.305Z</time>
</trkpt>
<trkpt lat="-27.1650675" lon="152.8270705">
<ele>143.025</ele>
<time>2017-01-31T23:23:25.230Z</time>
</trkpt>
<trkpt lat="-27.1647531" lon="152.8270222">
<ele>145.150</ele>
<time>2017-01-31T23:23:27.212Z</time>
</trkpt>
<trkpt lat="-27.1644666" lon="152.8269314">
<ele>147.282</ele>
<time>2017-01-31T23:23:29.206Z</time>
</trkpt>
<trkpt lat="-27.1640962" lon="152.8267542">
<ele>149.099</ele>
<time>2017-01-31T23:23:32.097Z</time>
</trkpt>
<trkpt lat="-27.1639237" lon="152.8265619">
<ele>150.512</ele>
<time>2017-01-31T23:23:34.040Z</time>
</trkpt>
<trkpt lat="-27.1638815" lon="152.8261378">
<ele>151.610</ele>
<time>2017-01-31T23:23:37.205Z</time>
</trkpt>
<trkpt lat="-27.1640177" lon="152.8258274">
<ele>152.864</ele>
<time>2017-01-31T23:23:39.464Z</time>
</trkpt>
<trkpt lat="-27.1641936" lon="152.8252660">
<ele>155.066</ele>
<time>2017-01-31T23:23:42.966Z</time>
</trkpt>
<trkpt lat="-27.1643187" lon="152.8247815">
<ele>158.342</ele>
<time>2017-01-31T23:23:46.005Z</time>
</trkpt>
<trkpt lat="-27.1642461" lon="152.8243529">
<ele>161.857</ele>
<time>2017-01-31T23:23:48.665Z</time>
</trkpt>
<trkpt lat="-27.1639256" lon="152.8239780">
<ele>164.798</ele>
<time>2017-01-31T23:23:51.630Z</time>
</trkpt>
<trkpt lat="-27.1635315" lon="152.8236172">
<ele>167.414</ele>
<time>2017-01-31T23:23:54.722Z</time>
</trkpt>
<trkpt lat="-27.1631534" lon="152.8232797">
<ele>170.439</ele>
<time>2017-01-31T23:23:57.739Z</time>
</trkpt>
<trkpt lat="-27.1627522" lon="152.8230651">
<ele>173.829</ele>
<time>2017-01-31T23:24:00.618Z</time>
</trkpt>
<trkpt lat="-27.1624459" lon="152.8230241">
<ele>177.032</ele>
<time>2017-01-31T23:24:02.612Z</time>
</trkpt>
<trkpt lat="-27.1620061" lon="152.8231579">
<ele>179.719</ele>
<time>2017-01-31T23:24:05.539Z</time>
</trkpt>
<trkpt lat="-27.1615841" lon="152.8234289">
<ele>181.961</ele>
<time>2017-01-31T23:24:08.607Z</time>
</trkpt>
<trkpt lat="-27.1613564" lon="152.8237127">
<ele>184.260</ele>
<time>2017-01-31T23:24:10.732Z</time>
</trkpt>
<trkpt lat="-27.1610421" lon="152.8241035">
<ele>186.920</ele>
<time>2017-01-31T23:24:13.754Z</time>
</trkpt>
<trkpt lat="-27.1606640" lon="152.8242884">
<ele>189.742</ele>
<time>2017-01-31T23:24:16.523Z</time>
</trkpt>
<trkpt lat="-27.1602598" lon="152.8245067">
<ele>192.724</ele>
<time>2017-01-31T23:24:19.565Z</time>
</trkpt>
<trkpt lat="-27.1600352" lon="152.8247265">
<ele>195.881</ele>
<time>2017-01-31T23:24:21.558Z</time>
</trkpt>
<trkpt lat="-27.1596441" lon="152.8250572">
<ele>198.873</ele>
<time>2017-01-31T23:24:24.936Z</time>
</trkpt>
<trkpt lat="-27.1594220" lon="152.8252205">
<ele>201.475</ele>
<time>2017-01-31T23:24:27.007Z</time>
</trkpt>
<trkpt lat="-27.1591701" lon="152.8252342">
<ele>203.550</ele>
<time>2017-01-31T23:24:29.052Z</time>
</trkpt>
<trkpt lat="-27.1589561" lon="152.8250913">
<ele>205.047</ele>
<time>2017-01-31T23:24:31.089Z</time>
</trkpt>
<trkpt lat="-27.1586842" lon="152.8247943">
<ele>206.454</ele>
<time>2017-01-31T23:24:34.261Z</time>
</trkpt>
<trkpt lat="-27.1583275" lon="152.8248099">
<ele>208.109</ele>
<time>2017-01-31T23:24:37.236Z</time>
</trkpt>
<trkpt lat="-27.1580990" lon="152.8249160">
<ele>209.844</ele>
<time>2017-01-31T23:24:39.163Z</time>
</trkpt>
<trkpt lat="-27.1577152" lon="152.8248074">
<ele>211.655</ele>
<time>2017-01-31T23:24:42.050Z</time>
</trkpt>
<trkpt lat="-27.1573063" lon="152.8246152">
<ele>213.932</ele>
<time>2017-01-31T23:24:45.159Z</time>
</trkpt>
<trkpt lat="-27.1568731" lon="152.8245980">
<ele>216.833</ele>
<time>2017-01-31T23:24:48.240Z</time>
</trkpt>
<trkpt lat="-27.1566102" lon="152.8244830">
<ele>220.118</ele>
<time>2017-01-31T23:24:50.335Z</time>
</trkpt>
<trkpt lat="-27.1563547" lon="152.8245038">
<ele>223.416</ele>
<time>2017-01-31T23:24:52.300Z</time>
</trkpt>
<trkpt lat="-27.1560912" lon="152.8248335">
<ele>226.469</ele>
<time>2017-01-31T23:24:55.290Z</time>
</trkpt>
<trkpt lat="-27.1559932" lon="152.8251215">
<ele>229.288</ele>
<time>2017-01-31T23:24:57.425Z</time>
</trkpt>
<trkpt lat="-27.1557228" lon="152.8253916">
<ele>232.045</ele>
<time>2017-01-31T23:25:00.244Z</time>
</trkpt>
<trkpt lat="-27.1554503" lon="152.8254087">
<ele>234.779</ele>
<time>2017-01-31T23:25:02.200Z</time>
</trkpt>
<trkpt lat="-27.1551652" lon="152.8253929">
<ele>237.628</ele>
<time>2017-01-31T23:25:04.149Z</time>
</trkpt>
<trkpt lat="-27.1548766" lon="152.8254752">
<ele>240.842</ele>
<time>2017-01-31T23:25:06.240Z</time>
</trkpt>
<trkpt lat="-27.1546298" lon="152.8256382">
<ele>244.184</ele>
<time>2017-01-31T23:25:08.411Z</time>
</trkpt>
<trkpt lat="-27.1544459" lon="152.8258350">
<ele>246.980</ele>
<time>2017-01-31T23:25:10.423Z</time>
</trkpt>
<trkpt lat="-27.1542130" lon="152.8259282">
<ele>248.932</ele>
<time>2017-01-31T23:25:12.380Z</time>
</trkpt>
<trkpt lat="-27.1538458" lon="152.8257807">
<ele>250.401</ele>
<time>2017-01-31T23:25:15.226Z</time>
</trkpt>
<trkpt lat="-27.1537375" lon="152.8254458">
<ele>252.002</ele>
<time>2017-01-31T23:25:17.194Z</time>
</trkpt>
<trkpt lat="-27.1534312" lon="152.8249658">
<ele>254.259</ele>
<time>2017-01-31T23:25:20.350Z</time>
</trkpt>
<trkpt lat="-27.1531386" lon="152.8245312">
<ele>257.424</ele>
<time>2017-01-31T23:25:23.300Z</time>
</trkpt>
<trkpt lat="-27.1527492" lon="152.8241989">
<ele>261.006</ele>
<time>2017-01-31T23:25:26.218Z</time>
</trkpt>
<trkpt lat="-27.1524506" lon="152.8239834">
<ele>264.469</ele>
<time>2017-01-31T23:25:28.322Z</time>
</trkpt>
<trkpt lat="-27.1521918" lon="152.8237646">
<ele>267.893</ele>
<time>2017-01-31T23:25:30.271Z</time>
</trkpt>
<trkpt lat="-27.1519819" lon="152.8232707">
<ele>270.872</ele>
<time>2017-01-31T23:25:33.033Z</time>
</trkpt>
<trkpt lat="-27.1519415" lon="152.8228427">
<ele>273.090</ele>
<time>2017-01-31T23:25:35.030Z</time>
</trkpt>
<trkpt lat="-27.1518729" lon="152.8224174">
<ele>275.554</ele>
<time>2017-01-31T23:25:37.117Z</time>
</trkpt>
<trkpt lat="-27.1517883" lon="152.8218258">
<ele>278.776</ele>
<time>2017-01-31T23:25:40.116Z</time>
</trkpt>
<trkpt lat="-27.1517490" lon="152.8212454">
<ele>282.031</ele>
<time>2017-01-31T23:25:43.166Z</time>
</trkpt>
<trkpt lat="-27.1517676" lon="152.8208810">
<ele>284.738</ele>
<time>2017-01-31T23:25:45.200Z</time>
</trkpt>
<trkpt lat="-27.1516390" lon="152.8203889">
<ele>286.856</ele>
<time>2017-01-31T23:25:48.055Z</time>
</trkpt>
<trkpt lat="-27.1512891" lon="152.8200016">
<ele>288.667</ele>
<time>2017-01-31T23:25:51.118Z</time>
</trkpt>
<trkpt lat="-27.1510440" lon="152.8197824">
<ele>290.804</ele>
<time>2017-01-31T23:25:53.209Z</time>
</trkpt>
<trkpt lat="-27.1508539" lon="152.8193739">
<ele>293.335</ele>
<time>2017-01-31T23:25:56.069Z</time>
</trkpt>
<trkpt lat="-27.1508954" lon="152.8190500">
<ele>295.702</ele>
<time>2017-01-31T23:25:58.207Z</time>
</trkpt>
<trkpt lat="-27.1510051" lon="152.8185949">
<ele>297.776</ele>
<time>2017-01-31T23:26:01.510Z</time>
</trkpt>
<trkpt lat="-27.1508408" lon="152.8182408">
<ele>299.660</ele>
<time>2017-01-31T23:26:04.311Z</time>
</trkpt>
<trkpt lat="-27.1504676" lon="152.8180172">
<ele>301.236</ele>
<time>2017-01-31T23:26:07.257Z</time>
</trkpt>
<trkpt lat="-27.1500046" lon="152.8178425">
<ele>302.825</ele>
<time>2017-01-31T23:26:10.505Z</time>
</trkpt>
<trkpt lat="-27.1497406" lon="152.8177150">
<ele>304.976</ele>
<time>2017-01-31T23:26:12.453Z</time>
</trkpt>
<trkpt lat="-27.1495029" lon="152.8175266">
<ele>307.593</ele>
<time>2017-01-31T23:26:14.366Z</time>
</trkpt>
<trkpt lat="-27.1492442" lon="152.8170714">
<ele>310.149</ele>
<time>2017-01-31T23:26:17.307Z</time>
</trkpt>
<trkpt lat="-27.1491758" lon="152.8166576">
<ele>312.781</ele>
<time>2017-01-31T23:26:19.549Z</time>
</trkpt>
<trkpt lat="-27.1490938" lon="152.8163087">
<ele>315.894</ele>
<time>2017-01-31T23:26:21.624Z</time>
</trkpt>
<trkpt lat="-27.1489643" lon="152.8160093">
<ele>319.008</ele>
<time>2017-01-31T23:26:23.666Z</time>
</trkpt>
<trkpt lat="-27.1486284" lon="152.8157342">
<ele>321.431</ele>
<time>2017-01-31T23:26:26.579Z</time>
</trkpt>
<trkpt lat="-27.1483439" lon="152.8156828">
<ele>323.317</ele>
<time>2017-01-31T23:26:28.531Z</time>
</trkpt>
<trkpt lat="-27.1479112" lon="152.8155263">
<ele>325.240</ele>
<time>2017-01-31T23:26:31.571Z</time>
</trkpt>
<trkpt lat="-27.1476939" lon="152.8153102">
<ele>327.595</ele>
<time>2017-01-31T23:26:33.492Z</time>
</trkpt>
<trkpt lat="-27.1475942" lon="152.8147704">
<ele>330.235</ele>
<time>2017-01-31T23:26:36.578Z</time>
</trkpt>
<trkpt lat="-27.1476651" lon="152.8142123">
<ele>332.730</ele>
<time>2017-01-31T23:26:39.669Z</time>
</trkpt>
<trkpt lat="-27.1476681" lon="152.8138589">
<ele>334.886</ele>
<time>2017-01-31T23:26:41.664Z</time>
</trkpt>
<trkpt lat="-27.1474858" lon="152.8133845">
<ele>336.588</ele>
<time>2017-01-31T23:26:44.449Z</time>
</trkpt>
<trkpt lat="-27.1470838" lon="152.8130126">
<ele>338.153</ele>
<time>2017-01-31T23:26:47.397Z</time>
</trkpt>
<trkpt lat="-27.1467885" lon="152.8127791">
<ele>340.386</ele>
<time>2017-01-31T23:26:49.442Z</time>
</trkpt>
<trkpt lat="-27.1463526" lon="152.8124669">
<ele>343.017</ele>
<time>2017-01-31T23:26:52.461Z</time>
</trkpt>
<trkpt lat="-27.1460925" lon="152.8122233">
<ele>345.156</ele>
<time>2017-01-31T23:26:54.495Z</time>
</trkpt>
<trkpt lat="-27.1457363" lon="152.8118327">
<ele>346.813</ele>
<time>2017-01-31T23:26:57.607Z</time>
</trkpt>
<trkpt lat="-27.1453437" lon="152.8115716">
<ele>348.710</ele>
<time>2017-01-31T23:27:00.558Z</time>
</trkpt>
<trkpt lat="-27.1450421" lon="152.8114947">
<ele>351.194</ele>
<time>2017-01-31T23:27:02.560Z</time>
</trkpt>
<trkpt lat="-27.1446031" lon="152.8113468">
<ele>353.923</ele>
<time>2017-01-31T23:27:05.580Z</time>
</trkpt>
<trkpt lat="-27.1443577" lon="152.8111382">
<ele>356.602</ele>
<time>2017-01-31T23:27:07.678Z</time>
</trkpt>
<trkpt lat="-27.1440925" lon="152.8107521">
<ele>359.343</ele>
<time>2017-01-31T23:27:10.943Z</time>
</trkpt>
<trkpt lat="-27.1438950" lon="152.8105905">
<ele>362.073</ele>
<time>2017-01-31T23:27:12.885Z</time>
</trkpt>
<trkpt lat="-27.1435231" lon="152.8106003">
<ele>364.517</ele>
<time>2017-01-31T23:27:16.023Z</time>
</trkpt>
<trkpt lat="-27.1432017" lon="152.8104688">
<ele>366.652</ele>
<time>2017-01-31T23:27:18.883Z</time>
</trkpt>
<trkpt lat="-27.1430320" lon="152.8100805">
<ele>368.691</ele>
<time>2017-01-31T23:27:21.918Z</time>
</trkpt>
<trkpt lat="-27.1429448" lon="152.8098125">
<ele>370.879</ele>
<time>2017-01-31T23:27:23.970Z</time>
</trkpt>
<trkpt lat="-27.1426572" lon="152.8095858">
<ele>373.139</ele>
<time>2017-01-31T23:27:26.847Z</time>
</trkpt>
<trkpt lat="-27.1424008" lon="152.8095520">
<ele>375.167</ele>
<time>2017-01-31T23:27:28.969Z</time>
</trkpt>
<trkpt lat="-27.1420733" lon="152.8093630">
<ele>376.965</ele>
<time>2017-01-31T23:27:32.011Z</time>
</trkpt>
<trkpt lat="-27.1419597" lon="152.8091025">
<ele>378.765</ele>
<time>2017-01-31T23:27:34.156Z</time>
</trkpt>
<trkpt lat="-27.1418500" lon="152.8088534">
<ele>380.567</ele>
<time>2017-01-31T23:27:36.281Z</time>
</trkpt>
<trkpt lat="-27.1416456" lon="152.8087139">
<ele>382.147</ele>
<time>2017-01-31T23:27:38.361Z</time>
</trkpt>
<trkpt lat="-27.1414219" lon="152.8086584">
<ele>383.176</ele>
<time>2017-01-31T23:27:40.352Z</time>
</trkpt>
<trkpt lat="-27.1410904" lon="152.8087479">
<ele>383.852</ele>
<time>2017-01-31T23:27:43.282Z</time>
</trkpt>
<trkpt lat="-27.1407428" lon="152.8088709">
<ele>384.781</ele>
<time>2017-01-31T23:27:46.304Z</time>
</trkpt>
<trkpt lat="-27.1403884" lon="152.8088184">
<ele>386.203</ele>
<time>2017-01-31T23:27:48.768Z</time>
</trkpt>
<trkpt lat="-27.1401183" lon="152.8087134">
<ele>388.032</ele>
<time>2017-01-31T23:27:50.422Z</time>
</trkpt>
<trkpt lat="-27.1395684" lon="152.8085063">
<ele>390.328</ele>
<time>2017-01-31T23:27:53.305Z</time>
</trkpt>
<trkpt lat="-27.1391529" lon="152.8082740">
<ele>393.879</ele>
<time>2017-01-31T23:27:55.590Z</time>
</trkpt>
<trkpt lat="-27.1387823" lon="152.8080694">
<ele>399.296</ele>
<time>2017-01-31T23:27:57.840Z</time>
</trkpt>
<trkpt lat="-27.1384566" lon="152.8079576">
<ele>405.003</ele>
<time>2017-01-31T23:27:59.819Z</time>
</trkpt>
<trkpt lat="-27.1381124" lon="152.8079012">
<ele>408.569</ele>
<time>2017-01-31T23:28:01.895Z</time>
</trkpt>
<trkpt lat="-27.1376160" lon="152.8079547">
<ele>409.864</ele>
<time>2017-01-31T23:28:05.222Z</time>
</trkpt>
<trkpt lat="-27.1373492" lon="152.8079947">
<ele>410.564</ele>
<time>2017-01-31T23:28:07.084Z</time>
</trkpt>
<trkpt lat="-27.1369218" lon="152.8080670">
<ele>411.553</ele>
<time>2017-01-31T23:28:09.934Z</time>
</trkpt>
<trkpt lat="-27.1366022" lon="152.8080589">
<ele>412.903</ele>
<time>2017-01-31T23:28:11.919Z</time>
</trkpt>
<trkpt lat="-27.1362653" lon="152.8080144">
<ele>414.476</ele>
<time>2017-01-31T23:28:13.994Z</time>
</trkpt>
<trkpt lat="-27.1357889" lon="152.8079033">
<ele>415.519</ele>
<time>2017-01-31T23:28:16.973Z</time>
</trkpt>
<trkpt lat="-27.1354782" lon="152.8078274">
<ele>415.158</ele>
<time>2017-01-31T23:28:18.908Z</time>
</trkpt>
<trkpt lat="-27.1349990" lon="152.8076996">
<ele>413.458</ele>
<time>2017-01-31T23:28:21.849Z</time>
</trkpt>
<trkpt lat="-27.1346776" lon="152.8076106">
<ele>411.059</ele>
<time>2017-01-31T23:28:23.810Z</time>
</trkpt>
<trkpt lat="-27.1343662" lon="152.8074712">
<ele>408.710</ele>
<time>2017-01-31T23:28:25.790Z</time>
</trkpt>
<trkpt lat="-27.1339314" lon="152.8071565">
<ele>406.695</ele>
<time>2017-01-31T23:28:28.783Z</time>
</trkpt>
<trkpt lat="-27.1334699" lon="152.8068590">
<ele>404.630</ele>
<time>2017-01-31T23:28:31.880Z</time>
</trkpt>
<trkpt lat="-27.1329676" lon="152.8067593">
<ele>402.099</ele>
<time>2017-01-31T23:28:34.873Z</time>
</trkpt>
<trkpt lat="-27.1326218" lon="152.8067837">
<ele>399.575</ele>
<time>2017-01-31T23:28:36.922Z</time>
</trkpt>
<trkpt lat="-27.1322695" lon="152.8068199">
<ele>397.879</ele>
<time>2017-01-31T23:28:39.074Z</time>
</trkpt>
<trkpt lat="-27.1317959" lon="152.8069461">
<ele>397.160</ele>
<time>2017-01-31T23:28:42.532Z</time>
</trkpt>
<trkpt lat="-27.1314410" lon="152.8071257">
<ele>396.993</ele>
<time>2017-01-31T23:28:45.474Z</time>
</trkpt>
<trkpt lat="-27.1310702" lon="152.8069814">
<ele>397.107</ele>
<time>2017-01-31T23:28:48.156Z</time>
</trkpt>
<trkpt lat="-27.1307764" lon="152.8063909">
<ele>397.492</ele>
<time>2017-01-31T23:28:51.670Z</time>
</trkpt>
<trkpt lat="-27.1305845" lon="152.8058147">
<ele>398.079</ele>
<time>2017-01-31T23:28:54.793Z</time>
</trkpt>
<trkpt lat="-27.1304019" lon="152.8053245">
<ele>398.489</ele>
<time>2017-01-31T23:28:57.594Z</time>
</trkpt>
<trkpt lat="-27.1301826" lon="152.8050697">
<ele>398.504</ele>
<time>2017-01-31T23:28:59.463Z</time>
</trkpt>
<trkpt lat="-27.1296627" lon="152.8047663">
<ele>398.490</ele>
<time>2017-01-31T23:29:02.853Z</time>
</trkpt>
<trkpt lat="-27.1294444" lon="152.8044969">
<ele>399.111</ele>
<time>2017-01-31T23:29:04.710Z</time>
</trkpt>
<trkpt lat="-27.1291346" lon="152.8040231">
<ele>400.695</ele>
<time>2017-01-31T23:29:07.732Z</time>
</trkpt>
<trkpt lat="-27.1288365" lon="152.8035507">
<ele>403.086</ele>
<time>2017-01-31T23:29:10.753Z</time>
</trkpt>
<trkpt lat="-27.1286073" lon="152.8032793">
<ele>405.821</ele>
<time>2017-01-31T23:29:12.675Z</time>
</trkpt>
<trkpt lat="-27.1281302" lon="152.8029675">
<ele>408.224</ele>
<time>2017-01-31T23:29:15.838Z</time>
</trkpt>
<trkpt lat="-27.1276532" lon="152.8027218">
<ele>409.945</ele>
<time>2017-01-31T23:29:18.934Z</time>
</trkpt>
<trkpt lat="-27.1273433" lon="152.8025608">
<ele>411.114</ele>
<time>2017-01-31T23:29:20.974Z</time>
</trkpt>
<trkpt lat="-27.1268790" lon="152.8022947">
<ele>411.821</ele>
<time>2017-01-31T23:29:24.180Z</time>
</trkpt>
<trkpt lat="-27.1266111" lon="152.8020903">
<ele>412.636</ele>
<time>2017-01-31T23:29:26.154Z</time>
</trkpt>
<trkpt lat="-27.1263971" lon="152.8018214">
<ele>414.181</ele>
<time>2017-01-31T23:29:28.039Z</time>
</trkpt>
<trkpt lat="-27.1262564" lon="152.8014625">
<ele>416.169</ele>
<time>2017-01-31T23:29:30.060Z</time>
</trkpt>
<trkpt lat="-27.1261916" lon="152.8008857">
<ele>418.175</ele>
<time>2017-01-31T23:29:32.993Z</time>
</trkpt>
<trkpt lat="-27.1262544" lon="152.8005078">
<ele>420.320</ele>
<time>2017-01-31T23:29:34.956Z</time>
</trkpt>
<trkpt lat="-27.1263234" lon="152.8001210">
<ele>422.652</ele>
<time>2017-01-31T23:29:37.122Z</time>
</trkpt>
<trkpt lat="-27.1262707" lon="152.7997584">
<ele>425.004</ele>
<time>2017-01-31T23:29:39.383Z</time>
</trkpt>
<trkpt lat="-27.1262120" lon="152.7994237">
<ele>427.182</ele>
<time>2017-01-31T23:29:41.726Z</time>
</trkpt>
<trkpt lat="-27.1260584" lon="152.7989831">
<ele>429.123</ele>
<time>2017-01-31T23:29:45.244Z</time>
</trkpt>
<trkpt lat="-27.1258574" lon="152.7988564">
<ele>430.646</ele>
<time>2017-01-31T23:29:46.974Z</time>
</trkpt>
<trkpt lat="-27.1256206" lon="152.7987848">
<ele>431.500</ele>
<time>2017-01-31T23:29:48.718Z</time>
</trkpt>
<trkpt lat="-27.1254000" lon="152.7986346">
<ele>431.969</ele>
<time>2017-01-31T23:29:50.413Z</time>
</trkpt>
<trkpt lat="-27.1251545" lon="152.7981895">
<ele>432.861</ele>
<time>2017-01-31T23:29:53.462Z</time>
</trkpt>
<trkpt lat="-27.1249400" lon="152.7977072">
<ele>434.641</ele>
<time>2017-01-31T23:29:56.731Z</time>
</trkpt>
<trkpt lat="-27.1247803" lon="152.7974438">
<ele>436.767</ele>
<time>2017-01-31T23:29:58.646Z</time>
</trkpt>
<trkpt lat="-27.1244456" lon="152.7971584">
<ele>438.249</ele>
<time>2017-01-31T23:30:01.463Z</time>
</trkpt>
<trkpt lat="-27.1241547" lon="152.7970284">
<ele>438.814</ele>
<time>2017-01-31T23:30:03.666Z</time>
</trkpt>
<trkpt lat="-27.1239041" lon="152.7968381">
<ele>439.072</ele>
<time>2017-01-31T23:30:05.997Z</time>
</trkpt>
<trkpt lat="-27.1237520" lon="152.7964038">
<ele>439.580</ele>
<time>2017-01-31T23:30:09.336Z</time>
</trkpt>
<trkpt lat="-27.1238131" lon="152.7959952">
<ele>440.316</ele>
<time>2017-01-31T23:30:12.269Z</time>
</trkpt>
<trkpt lat="-27.1239707" lon="152.7956241">
<ele>440.933</ele>
<time>2017-01-31T23:30:14.776Z</time>
</trkpt>
<trkpt lat="-27.1238373" lon="152.7953368">
<ele>441.236</ele>
<time>2017-01-31T23:30:16.473Z</time>
</trkpt>
<trkpt lat="-27.1235510" lon="152.7948884">
<ele>441.626</ele>
<time>2017-01-31T23:30:19.307Z</time>
</trkpt>
<trkpt lat="-27.1233552" lon="152.7945496">
<ele>443.131</ele>
<time>2017-01-31T23:30:21.441Z</time>
</trkpt>
<trkpt lat="-27.1231600" lon="152.7942590">
<ele>445.803</ele>
<time>2017-01-31T23:30:23.359Z</time>
</trkpt>
<trkpt lat="-27.1229546" lon="152.7939689">
<ele>448.178</ele>
<time>2017-01-31T23:30:25.296Z</time>
</trkpt>
<trkpt lat="-27.1227262" lon="152.7936841">
<ele>449.268</ele>
<time>2017-01-31T23:30:27.286Z</time>
</trkpt>
<trkpt lat="-27.1223436" lon="152.7932891">
<ele>449.640</ele>
<time>2017-01-31T23:30:30.273Z</time>
</trkpt>
<trkpt lat="-27.1220590" lon="152.7930691">
<ele>450.396</ele>
<time>2017-01-31T23:30:32.229Z</time>
</trkpt>
<trkpt lat="-27.1216031" lon="152.7928062">
<ele>451.974</ele>
<time>2017-01-31T23:30:35.083Z</time>
</trkpt>
<trkpt lat="-27.1212603" lon="152.7926604">
<ele>454.007</ele>
<time>2017-01-31T23:30:37.115Z</time>
</trkpt>
<trkpt lat="-27.1207731" lon="152.7923951">
<ele>455.865</ele>
<time>2017-01-31T23:30:40.065Z</time>
</trkpt>
<trkpt lat="-27.1204979" lon="152.7921447">
<ele>457.274</ele>
<time>2017-01-31T23:30:41.979Z</time>
</trkpt>
<trkpt lat="-27.1201104" lon="152.7916819">
<ele>458.444</ele>
<time>2017-01-31T23:30:45.092Z</time>
</trkpt>
<trkpt lat="-27.1198771" lon="152.7911450">
<ele>459.673</ele>
<time>2017-01-31T23:30:48.176Z</time>
</trkpt>
<trkpt lat="-27.1197494" lon="152.7906037">
<ele>460.849</ele>
<time>2017-01-31T23:30:51.162Z</time>
</trkpt>
<trkpt lat="-27.1196392" lon="152.7902737">
<ele>461.614</ele>
<time>2017-01-31T23:30:52.961Z</time>
</trkpt>
<trkpt lat="-27.1194418" lon="152.7899609">
<ele>461.723</ele>
<time>2017-01-31T23:30:54.928Z</time>
</trkpt>
<trkpt lat="-27.1190396" lon="152.7895308">
<ele>461.298</ele>
<time>2017-01-31T23:30:58.357Z</time>
</trkpt>
<trkpt lat="-27.1188608" lon="152.7892274">
<ele>460.443</ele>
<time>2017-01-31T23:31:00.394Z</time>
</trkpt>
<trkpt lat="-27.1186485" lon="152.7889797">
<ele>459.392</ele>
<time>2017-01-31T23:31:02.202Z</time>
</trkpt>
<trkpt lat="-27.1182267" lon="152.7886858">
<ele>458.730</ele>
<time>2017-01-31T23:31:04.965Z</time>
</trkpt>
<trkpt lat="-27.1178640" lon="152.7885747">
<ele>459.342</ele>
<time>2017-01-31T23:31:07.029Z</time>
</trkpt>
<trkpt lat="-27.1173555" lon="152.7883539">
<ele>461.554</ele>
<time>2017-01-31T23:31:09.973Z</time>
</trkpt>
<trkpt lat="-27.1170686" lon="152.7881016">
<ele>464.803</ele>
<time>2017-01-31T23:31:11.960Z</time>
</trkpt>
<trkpt lat="-27.1167959" lon="152.7877996">
<ele>468.157</ele>
<time>2017-01-31T23:31:14.098Z</time>
</trkpt>
<trkpt lat="-27.1165986" lon="152.7874691">
<ele>471.086</ele>
<time>2017-01-31T23:31:16.057Z</time>
</trkpt>
<trkpt lat="-27.1164464" lon="152.7870749">
<ele>473.511</ele>
<time>2017-01-31T23:31:18.141Z</time>
</trkpt>
<trkpt lat="-27.1162891" lon="152.7865158">
<ele>475.387</ele>
<time>2017-01-31T23:31:20.881Z</time>
</trkpt>
<trkpt lat="-27.1162507" lon="152.7861054">
<ele>476.534</ele>
<time>2017-01-31T23:31:22.782Z</time>
</trkpt>
<trkpt lat="-27.1162312" lon="152.7854490">
<ele>476.992</ele>
<time>2017-01-31T23:31:25.783Z</time>
</trkpt>
<trkpt lat="-27.1162332" lon="152.7848068">
<ele>476.682</ele>
<time>2017-01-31T23:31:28.634Z</time>
</trkpt>
<trkpt lat="-27.1162595" lon="152.7843597">
<ele>475.574</ele>
<time>2017-01-31T23:31:30.587Z</time>
</trkpt>
<trkpt lat="-27.1162481" lon="152.7836828">
<ele>474.022</ele>
<time>2017-01-31T23:31:33.509Z</time>
</trkpt>
<trkpt lat="-27.1161920" lon="152.7829915">
<ele>472.388</ele>
<time>2017-01-31T23:31:36.588Z</time>
</trkpt>
<trkpt lat="-27.1161425" lon="152.7823382">
<ele>470.609</ele>
<time>2017-01-31T23:31:39.677Z</time>
</trkpt>
<trkpt lat="-27.1161509" lon="152.7819231">
<ele>468.555</ele>
<time>2017-01-31T23:31:41.654Z</time>
</trkpt>
<trkpt lat="-27.1163125" lon="152.7813022">
<ele>466.562</ele>
<time>2017-01-31T23:31:44.705Z</time>
</trkpt>
<trkpt lat="-27.1164988" lon="152.7809379">
<ele>465.233</ele>
<time>2017-01-31T23:31:46.678Z</time>
</trkpt>
<trkpt lat="-27.1167391" lon="152.7806110">
<ele>464.782</ele>
<time>2017-01-31T23:31:48.674Z</time>
</trkpt>
<trkpt lat="-27.1170047" lon="152.7803161">
<ele>465.210</ele>
<time>2017-01-31T23:31:50.641Z</time>
</trkpt>
<trkpt lat="-27.1174334" lon="152.7799240">
<ele>466.417</ele>
<time>2017-01-31T23:31:53.503Z</time>
</trkpt>
<trkpt lat="-27.1177355" lon="152.7796467">
<ele>468.273</ele>
<time>2017-01-31T23:31:55.508Z</time>
</trkpt>
<trkpt lat="-27.1180223" lon="152.7793656">
<ele>470.825</ele>
<time>2017-01-31T23:31:57.463Z</time>
</trkpt>
<trkpt lat="-27.1182998" lon="152.7790540">
<ele>473.557</ele>
<time>2017-01-31T23:31:59.476Z</time>
</trkpt>
<trkpt lat="-27.1187100" lon="152.7786004">
<ele>475.365</ele>
<time>2017-01-31T23:32:02.414Z</time>
</trkpt>
<trkpt lat="-27.1191213" lon="152.7781133">
<ele>475.914</ele>
<time>2017-01-31T23:32:05.433Z</time>
</trkpt>
<trkpt lat="-27.1193451" lon="152.7777533">
<ele>475.756</ele>
<time>2017-01-31T23:32:07.397Z</time>
</trkpt>
<trkpt lat="-27.1195245" lon="152.7773691">
<ele>475.464</ele>
<time>2017-01-31T23:32:09.338Z</time>
</trkpt>
<trkpt lat="-27.1197736" lon="152.7767662">
<ele>475.347</ele>
<time>2017-01-31T23:32:12.354Z</time>
</trkpt>
<trkpt lat="-27.1199404" lon="152.7763537">
<ele>475.653</ele>
<time>2017-01-31T23:32:14.461Z</time>
</trkpt>
<trkpt lat="-27.1202344" lon="152.7758300">
<ele>476.597</ele>
<time>2017-01-31T23:32:17.468Z</time>
</trkpt>
<trkpt lat="-27.1204714" lon="152.7755276">
<ele>478.037</ele>
<time>2017-01-31T23:32:19.428Z</time>
</trkpt>
<trkpt lat="-27.1208878" lon="152.7751228">
<ele>479.421</ele>
<time>2017-01-31T23:32:22.393Z</time>
</trkpt>
<trkpt lat="-27.1211646" lon="152.7748591">
<ele>480.238</ele>
<time>2017-01-31T23:32:24.316Z</time>
</trkpt>
<trkpt lat="-27.1214527" lon="152.7745964">
<ele>480.443</ele>
<time>2017-01-31T23:32:26.260Z</time>
</trkpt>
<trkpt lat="-27.1218842" lon="152.7741774">
<ele>480.356</ele>
<time>2017-01-31T23:32:29.148Z</time>
</trkpt>
<trkpt lat="-27.1223031" lon="152.7736968">
<ele>480.092</ele>
<time>2017-01-31T23:32:32.071Z</time>
</trkpt>
<trkpt lat="-27.1225748" lon="152.7733479">
<ele>479.645</ele>
<time>2017-01-31T23:32:34.076Z</time>
</trkpt>
<trkpt lat="-27.1229571" lon="152.7728058">
<ele>479.147</ele>
<time>2017-01-31T23:32:37.144Z</time>
</trkpt>
<trkpt lat="-27.1233644" lon="152.7723453">
<ele>478.627</ele>
<time>2017-01-31T23:32:40.136Z</time>
</trkpt>
<trkpt lat="-27.1236826" lon="152.7721138">
<ele>477.931</ele>
<time>2017-01-31T23:32:42.122Z</time>
</trkpt>
<trkpt lat="-27.1241990" lon="152.7718257">
<ele>477.169</ele>
<time>2017-01-31T23:32:45.352Z</time>
</trkpt>
<trkpt lat="-27.1246239" lon="152.7715334">
<ele>476.988</ele>
<time>2017-01-31T23:32:48.378Z</time>
</trkpt>
<trkpt lat="-27.1248394" lon="152.7712705">
<ele>477.785</ele>
<time>2017-01-31T23:32:50.303Z</time>
</trkpt>
<trkpt lat="-27.1249991" lon="152.7707306">
<ele>478.947</ele>
<time>2017-01-31T23:32:53.255Z</time>
</trkpt>
<trkpt lat="-27.1251457" lon="152.7701675">
<ele>479.529</ele>
<time>2017-01-31T23:32:56.281Z</time>
</trkpt>
<trkpt lat="-27.1252827" lon="152.7698326">
<ele>479.271</ele>
<time>2017-01-31T23:32:58.165Z</time>
</trkpt>
<trkpt lat="-27.1255968" lon="152.7693221">
<ele>478.309</ele>
<time>2017-01-31T23:33:01.235Z</time>
</trkpt>
<trkpt lat="-27.1259635" lon="152.7691966">
<ele>476.746</ele>
<time>2017-01-31T23:33:03.359Z</time>
</trkpt>
<trkpt lat="-27.1265305" lon="152.7691309">
<ele>475.000</ele>
<time>2017-01-31T23:33:06.619Z</time>
</trkpt>
<trkpt lat="-27.1270215" lon="152.7690058">
<ele>473.831</ele>
<time>2017-01-31T23:33:09.662Z</time>
</trkpt>
<trkpt lat="-27.1273124" lon="152.7688182">
<ele>473.486</ele>
<time>2017-01-31T23:33:11.713Z</time>
</trkpt>
<trkpt lat="-27.1275710" lon="152.7683279">
<ele>473.647</ele>
<time>2017-01-31T23:33:14.815Z</time>
</trkpt>
<trkpt lat="-27.1275893" lon="152.7679246">
<ele>474.437</ele>
<time>2017-01-31T23:33:16.952Z</time>
</trkpt>
<trkpt lat="-27.1274317" lon="152.7673761">
<ele>476.105</ele>
<time>2017-01-31T23:33:19.879Z</time>
</trkpt>
<trkpt lat="-27.1271185" lon="152.7669016">
<ele>478.534</ele>
<time>2017-01-31T23:33:22.734Z</time>
</trkpt>
<trkpt lat="-27.1268211" lon="152.7666523">
<ele>481.632</ele>
<time>2017-01-31T23:33:24.736Z</time>
</trkpt>
<trkpt lat="-27.1263291" lon="152.7663286">
<ele>485.194</ele>
<time>2017-01-31T23:33:27.869Z</time>
</trkpt>
<trkpt lat="-27.1258530" lon="152.7660588">
<ele>488.888</ele>
<time>2017-01-31T23:33:30.889Z</time>
</trkpt>
<trkpt lat="-27.1253565" lon="152.7658714">
<ele>492.525</ele>
<time>2017-01-31T23:33:33.920Z</time>
</trkpt>
<trkpt lat="-27.1250525" lon="152.7656891">
<ele>495.656</ele>
<time>2017-01-31T23:33:35.986Z</time>
</trkpt>
<trkpt lat="-27.1247815" lon="152.7654605">
<ele>498.001</ele>
<time>2017-01-31T23:33:38.007Z</time>
</trkpt>
<trkpt lat="-27.1245131" lon="152.7650346">
<ele>499.784</ele>
<time>2017-01-31T23:33:40.625Z</time>
</trkpt>
<trkpt lat="-27.1243743" lon="152.7646366">
<ele>501.229</ele>
<time>2017-01-31T23:33:42.679Z</time>
</trkpt>
<trkpt lat="-27.1241946" lon="152.7639914">
<ele>502.254</ele>
<time>2017-01-31T23:33:45.817Z</time>
</trkpt>
<trkpt lat="-27.1240903" lon="152.7635753">
<ele>502.721</ele>
<time>2017-01-31T23:33:47.828Z</time>
</trkpt>
<trkpt lat="-27.1240155" lon="152.7631245">
<ele>502.650</ele>
<time>2017-01-31T23:33:49.983Z</time>
</trkpt>
<trkpt lat="-27.1239275" lon="152.7625113">
<ele>502.244</ele>
<time>2017-01-31T23:33:52.968Z</time>
</trkpt>
<trkpt lat="-27.1238749" lon="152.7620768">
<ele>502.047</ele>
<time>2017-01-31T23:33:55.119Z</time>
</trkpt>
<trkpt lat="-27.1238023" lon="152.7614514">
<ele>502.619</ele>
<time>2017-01-31T23:33:58.310Z</time>
</trkpt>
<trkpt lat="-27.1237394" lon="152.7610606">
<ele>503.893</ele>
<time>2017-01-31T23:34:00.303Z</time>
</trkpt>
<trkpt lat="-27.1236702" lon="152.7606818">
<ele>505.216</ele>
<time>2017-01-31T23:34:02.193Z</time>
</trkpt>
<trkpt lat="-27.1234939" lon="152.7601162">
<ele>505.954</ele>
<time>2017-01-31T23:34:05.079Z</time>
</trkpt>
<trkpt lat="-27.1232583" lon="152.7595353">
<ele>506.028</ele>
<time>2017-01-31T23:34:08.090Z</time>
</trkpt>
<trkpt lat="-27.1231053" lon="152.7591794">
<ele>506.002</ele>
<time>2017-01-31T23:34:09.904Z</time>
</trkpt>
<trkpt lat="-27.1228758" lon="152.7585796">
<ele>506.488</ele>
<time>2017-01-31T23:34:12.857Z</time>
</trkpt>
<trkpt lat="-27.1226367" lon="152.7579753">
<ele>507.385</ele>
<time>2017-01-31T23:34:15.870Z</time>
</trkpt>
<trkpt lat="-27.1222771" lon="152.7574543">
<ele>507.960</ele>
<time>2017-01-31T23:34:18.853Z</time>
</trkpt>
<trkpt lat="-27.1220001" lon="152.7571391">
<ele>507.574</ele>
<time>2017-01-31T23:34:20.808Z</time>
</trkpt>
<trkpt lat="-27.1216655" lon="152.7568782">
<ele>506.424</ele>
<time>2017-01-31T23:34:22.812Z</time>
</trkpt>
<trkpt lat="-27.1211475" lon="152.7564980">
<ele>505.208</ele>
<time>2017-01-31T23:34:25.833Z</time>
</trkpt>
<trkpt lat="-27.1206100" lon="152.7561493">
<ele>504.327</ele>
<time>2017-01-31T23:34:28.912Z</time>
</trkpt>
<trkpt lat="-27.1200889" lon="152.7558081">
<ele>503.908</ele>
<time>2017-01-31T23:34:32.017Z</time>
</trkpt>
<trkpt lat="-27.1195944" lon="152.7554826">
<ele>504.415</ele>
<time>2017-01-31T23:34:35.002Z</time>
</trkpt>
<trkpt lat="-27.1192687" lon="152.7552774">
<ele>506.115</ele>
<time>2017-01-31T23:34:36.893Z</time>
</trkpt>
<trkpt lat="-27.1189140" lon="152.7550819">
<ele>508.582</ele>
<time>2017-01-31T23:34:38.884Z</time>
</trkpt>
<trkpt lat="-27.1183554" lon="152.7548335">
<ele>511.076</ele>
<time>2017-01-31T23:34:41.908Z</time>
</trkpt>
<trkpt lat="-27.1179812" lon="152.7547061">
<ele>513.153</ele>
<time>2017-01-31T23:34:43.899Z</time>
</trkpt>
<trkpt lat="-27.1176171" lon="152.7545514">
<ele>514.776</ele>
<time>2017-01-31T23:34:45.895Z</time>
</trkpt>
<trkpt lat="-27.1172498" lon="152.7544207">
<ele>516.266</ele>
<time>2017-01-31T23:34:47.862Z</time>
</trkpt>
<trkpt lat="-27.1167216" lon="152.7541272">
<ele>517.839</ele>
<time>2017-01-31T23:34:50.833Z</time>
</trkpt>
<trkpt lat="-27.1164038" lon="152.7538585">
<ele>519.450</ele>
<time>2017-01-31T23:34:52.829Z</time>
</trkpt>
<trkpt lat="-27.1159847" lon="152.7533829">
<ele>521.054</ele>
<time>2017-01-31T23:34:55.807Z</time>
</trkpt>
<trkpt lat="-27.1157187" lon="152.7530495">
<ele>522.530</ele>
<time>2017-01-31T23:34:57.783Z</time>
</trkpt>
<trkpt lat="-27.1152939" lon="152.7525823">
<ele>523.622</ele>
<time>2017-01-31T23:35:00.694Z</time>
</trkpt>
<trkpt lat="-27.1147503" lon="152.7522657">
<ele>524.359</ele>
<time>2017-01-31T23:35:03.663Z</time>
</trkpt>
<trkpt lat="-27.1143716" lon="152.7520789">
<ele>524.910</ele>
<time>2017-01-31T23:35:05.675Z</time>
</trkpt>
<trkpt lat="-27.1140035" lon="152.7519007">
<ele>525.189</ele>
<time>2017-01-31T23:35:07.561Z</time>
</trkpt>
<trkpt lat="-27.1136203" lon="152.7517106">
<ele>525.172</ele>
<time>2017-01-31T23:35:09.420Z</time>
</trkpt>
<trkpt lat="-27.1132043" lon="152.7515211">
<ele>525.051</ele>
<time>2017-01-31T23:35:11.375Z</time>
</trkpt>
<trkpt lat="-27.1125405" lon="152.7512173">
<ele>525.080</ele>
<time>2017-01-31T23:35:14.478Z</time>
</trkpt>
<trkpt lat="-27.1121235" lon="152.7510386">
<ele>525.330</ele>
<time>2017-01-31T23:35:16.437Z</time>
</trkpt>
<trkpt lat="-27.1116943" lon="152.7508383">
<ele>525.477</ele>
<time>2017-01-31T23:35:18.479Z</time>
</trkpt>
<trkpt lat="-27.1110479" lon="152.7505953">
<ele>525.026</ele>
<time>2017-01-31T23:35:21.461Z</time>
</trkpt>
<trkpt lat="-27.1103550" lon="152.7504737">
<ele>524.060</ele>
<time>2017-01-31T23:35:24.534Z</time>
</trkpt>
<trkpt lat="-27.1098967" lon="152.7504412">
<ele>523.191</ele>
<time>2017-01-31T23:35:26.568Z</time>
</trkpt>
<trkpt lat="-27.1092368" lon="152.7504697">
<ele>522.817</ele>
<time>2017-01-31T23:35:29.484Z</time>
</trkpt>
<trkpt lat="-27.1087833" lon="152.7505410">
<ele>522.914</ele>
<time>2017-01-31T23:35:31.461Z</time>
</trkpt>
<trkpt lat="-27.1083411" lon="152.7506363">
<ele>523.313</ele>
<time>2017-01-31T23:35:33.378Z</time>
</trkpt>
<trkpt lat="-27.1076514" lon="152.7507868">
<ele>523.846</ele>
<time>2017-01-31T23:35:36.267Z</time>
</trkpt>
<trkpt lat="-27.1069270" lon="152.7509391">
<ele>524.289</ele>
<time>2017-01-31T23:35:39.253Z</time>
</trkpt>
<trkpt lat="-27.1062145" lon="152.7510983">
<ele>524.412</ele>
<time>2017-01-31T23:35:42.174Z</time>
</trkpt>
<trkpt lat="-27.1057061" lon="152.7511971">
<ele>524.040</ele>
<time>2017-01-31T23:35:44.278Z</time>
</trkpt>
<trkpt lat="-27.1052110" lon="152.7512996">
<ele>523.194</ele>
<time>2017-01-31T23:35:46.368Z</time>
</trkpt>
<trkpt lat="-27.1045340" lon="152.7514130">
<ele>522.111</ele>
<time>2017-01-31T23:35:49.308Z</time>
</trkpt>
<trkpt lat="-27.1040465" lon="152.7514057">
<ele>520.416</ele>
<time>2017-01-31T23:35:51.413Z</time>
</trkpt>
<trkpt lat="-27.1033657" lon="152.7512628">
<ele>517.832</ele>
<time>2017-01-31T23:35:54.422Z</time>
</trkpt>
<trkpt lat="-27.1029151" lon="152.7511553">
<ele>515.432</ele>
<time>2017-01-31T23:35:56.422Z</time>
</trkpt>
<trkpt lat="-27.1022423" lon="152.7509815">
<ele>513.780</ele>
<time>2017-01-31T23:35:59.381Z</time>
</trkpt>
<trkpt lat="-27.1016350" lon="152.7505786">
<ele>512.241</ele>
<time>2017-01-31T23:36:02.382Z</time>
</trkpt>
<trkpt lat="-27.1012925" lon="152.7502000">
<ele>510.365</ele>
<time>2017-01-31T23:36:04.443Z</time>
</trkpt>
<trkpt lat="-27.1008372" lon="152.7496157">
<ele>508.047</ele>
<time>2017-01-31T23:36:07.418Z</time>
</trkpt>
<trkpt lat="-27.1005103" lon="152.7492575">
<ele>505.775</ele>
<time>2017-01-31T23:36:09.359Z</time>
</trkpt>
<trkpt lat="-27.0999414" lon="152.7487810">
<ele>504.659</ele>
<time>2017-01-31T23:36:12.324Z</time>
</trkpt>
<trkpt lat="-27.0995049" lon="152.7485604">
<ele>505.429</ele>
<time>2017-01-31T23:36:14.316Z</time>
</trkpt>
<trkpt lat="-27.0988163" lon="152.7483146">
<ele>507.485</ele>
<time>2017-01-31T23:36:17.309Z</time>
</trkpt>
<trkpt lat="-27.0983415" lon="152.7482435">
<ele>509.012</ele>
<time>2017-01-31T23:36:19.253Z</time>
</trkpt>
<trkpt lat="-27.0978568" lon="152.7482264">
<ele>509.019</ele>
<time>2017-01-31T23:36:21.200Z</time>
</trkpt>
<trkpt lat="-27.0971112" lon="152.7483213">
<ele>508.095</ele>
<time>2017-01-31T23:36:24.226Z</time>
</trkpt>
<trkpt lat="-27.0966342" lon="152.7484209">
<ele>507.033</ele>
<time>2017-01-31T23:36:26.224Z</time>
</trkpt>
<trkpt lat="-27.0959275" lon="152.7485792">
<ele>506.260</ele>
<time>2017-01-31T23:36:29.289Z</time>
</trkpt>
<trkpt lat="-27.0952674" lon="152.7487148">
<ele>506.053</ele>
<time>2017-01-31T23:36:32.228Z</time>
</trkpt>
<trkpt lat="-27.0948131" lon="152.7487700">
<ele>506.737</ele>
<time>2017-01-31T23:36:34.244Z</time>
</trkpt>
<trkpt lat="-27.0941372" lon="152.7486510">
<ele>508.849</ele>
<time>2017-01-31T23:36:37.250Z</time>
</trkpt>
<trkpt lat="-27.0937162" lon="152.7484607">
<ele>512.438</ele>
<time>2017-01-31T23:36:39.228Z</time>
</trkpt>
<trkpt lat="-27.0931328" lon="152.7480447">
<ele>516.590</ele>
<time>2017-01-31T23:36:42.210Z</time>
</trkpt>
<trkpt lat="-27.0927633" lon="152.7477336">
<ele>520.065</ele>
<time>2017-01-31T23:36:44.222Z</time>
</trkpt>
<trkpt lat="-27.0923960" lon="152.7474372">
<ele>522.315</ele>
<time>2017-01-31T23:36:46.211Z</time>
</trkpt>
<trkpt lat="-27.0918396" lon="152.7470255">
<ele>523.616</ele>
<time>2017-01-31T23:36:49.205Z</time>
</trkpt>
<trkpt lat="-27.0912264" lon="152.7467256">
<ele>524.387</ele>
<time>2017-01-31T23:36:52.232Z</time>
</trkpt>
<trkpt lat="-27.0907644" lon="152.7467085">
<ele>525.222</ele>
<time>2017-01-31T23:36:54.315Z</time>
</trkpt>
<trkpt lat="-27.0900936" lon="152.7467822">
<ele>526.898</ele>
<time>2017-01-31T23:36:57.334Z</time>
</trkpt>
<trkpt lat="-27.0896586" lon="152.7469204">
<ele>529.722</ele>
<time>2017-01-31T23:36:59.359Z</time>
</trkpt>
<trkpt lat="-27.0892564" lon="152.7471581">
<ele>533.551</ele>
<time>2017-01-31T23:37:01.395Z</time>
</trkpt>
<trkpt lat="-27.0887544" lon="152.7476248">
<ele>537.462</ele>
<time>2017-01-31T23:37:04.306Z</time>
</trkpt>
<trkpt lat="-27.0884805" lon="152.7480138">
<ele>539.811</ele>
<time>2017-01-31T23:37:06.270Z</time>
</trkpt>
<trkpt lat="-27.0881850" lon="152.7486882">
<ele>540.135</ele>
<time>2017-01-31T23:37:09.210Z</time>
</trkpt>
<trkpt lat="-27.0879872" lon="152.7494213">
<ele>539.534</ele>
<time>2017-01-31T23:37:12.165Z</time>
</trkpt>
<trkpt lat="-27.0878031" lon="152.7501667">
<ele>538.757</ele>
<time>2017-01-31T23:37:15.104Z</time>
</trkpt>
<trkpt lat="-27.0876208" lon="152.7509239">
<ele>537.411</ele>
<time>2017-01-31T23:37:18.057Z</time>
</trkpt>
<trkpt lat="-27.0874945" lon="152.7514375">
<ele>534.666</ele>
<time>2017-01-31T23:37:20.057Z</time>
</trkpt>
<trkpt lat="-27.0873044" lon="152.7522059">
<ele>530.588</ele>
<time>2017-01-31T23:37:23.037Z</time>
</trkpt>
<trkpt lat="-27.0871170" lon="152.7529634">
<ele>525.752</ele>
<time>2017-01-31T23:37:25.944Z</time>
</trkpt>
<trkpt lat="-27.0868778" lon="152.7537350">
<ele>520.400</ele>
<time>2017-01-31T23:37:28.930Z</time>
</trkpt>
<trkpt lat="-27.0866596" lon="152.7542212">
<ele>514.809</ele>
<time>2017-01-31T23:37:30.932Z</time>
</trkpt>
<trkpt lat="-27.0862877" lon="152.7549161">
<ele>509.684</ele>
<time>2017-01-31T23:37:33.951Z</time>
</trkpt>
<trkpt lat="-27.0860006" lon="152.7556301">
<ele>505.322</ele>
<time>2017-01-31T23:37:36.840Z</time>
</trkpt>
<trkpt lat="-27.0858719" lon="152.7561631">
<ele>501.942</ele>
<time>2017-01-31T23:37:38.883Z</time>
</trkpt>
<trkpt lat="-27.0856884" lon="152.7569251">
<ele>500.017</ele>
<time>2017-01-31T23:37:41.881Z</time>
</trkpt>
<trkpt lat="-27.0855049" lon="152.7573992">
<ele>499.548</ele>
<time>2017-01-31T23:37:43.864Z</time>
</trkpt>
<trkpt lat="-27.0851276" lon="152.7580366">
<ele>499.627</ele>
<time>2017-01-31T23:37:46.868Z</time>
</trkpt>
<trkpt lat="-27.0848399" lon="152.7584243">
<ele>499.431</ele>
<time>2017-01-31T23:37:48.885Z</time>
</trkpt>
<trkpt lat="-27.0843945" lon="152.7589723">
<ele>498.637</ele>
<time>2017-01-31T23:37:51.965Z</time>
</trkpt>
<trkpt lat="-27.0841094" lon="152.7593307">
<ele>497.083</ele>
<time>2017-01-31T23:37:54.139Z</time>
</trkpt>
<trkpt lat="-27.0838470" lon="152.7596549">
<ele>494.428</ele>
<time>2017-01-31T23:37:56.244Z</time>
</trkpt>
<trkpt lat="-27.0834557" lon="152.7600547">
<ele>490.860</ele>
<time>2017-01-31T23:37:59.406Z</time>
</trkpt>
<trkpt lat="-27.0831589" lon="152.7602217">
<ele>487.502</ele>
<time>2017-01-31T23:38:01.479Z</time>
</trkpt>
<trkpt lat="-27.0827282" lon="152.7604078">
<ele>485.082</ele>
<time>2017-01-31T23:38:04.555Z</time>
</trkpt>
<trkpt lat="-27.0824329" lon="152.7607554">
<ele>483.169</ele>
<time>2017-01-31T23:38:07.434Z</time>
</trkpt>
<trkpt lat="-27.0823230" lon="152.7612363">
<ele>481.494</ele>
<time>2017-01-31T23:38:10.180Z</time>
</trkpt>
<trkpt lat="-27.0823730" lon="152.7617898">
<ele>480.750</ele>
<time>2017-01-31T23:38:13.003Z</time>
</trkpt>
<trkpt lat="-27.0824297" lon="152.7623935">
<ele>481.560</ele>
<time>2017-01-31T23:38:16.059Z</time>
</trkpt>
<trkpt lat="-27.0823231" lon="152.7629724">
<ele>483.323</ele>
<time>2017-01-31T23:38:18.931Z</time>
</trkpt>
<trkpt lat="-27.0821282" lon="152.7633217">
<ele>484.784</ele>
<time>2017-01-31T23:38:20.832Z</time>
</trkpt>
<trkpt lat="-27.0817543" lon="152.7638572">
<ele>485.554</ele>
<time>2017-01-31T23:38:23.999Z</time>
</trkpt>
<trkpt lat="-27.0815233" lon="152.7641622">
<ele>486.752</ele>
<time>2017-01-31T23:38:25.944Z</time>
</trkpt>
<trkpt lat="-27.0812453" lon="152.7646513">
<ele>489.124</ele>
<time>2017-01-31T23:38:28.765Z</time>
</trkpt>
<trkpt lat="-27.0810833" lon="152.7652341">
<ele>491.593</ele>
<time>2017-01-31T23:38:31.578Z</time>
</trkpt>
<trkpt lat="-27.0810262" lon="152.7658974">
<ele>492.693</ele>
<time>2017-01-31T23:38:34.525Z</time>
</trkpt>
<trkpt lat="-27.0810041" lon="152.7665846">
<ele>492.357</ele>
<time>2017-01-31T23:38:37.622Z</time>
</trkpt>
<trkpt lat="-27.0809817" lon="152.7670231">
<ele>491.413</ele>
<time>2017-01-31T23:38:39.723Z</time>
</trkpt>
<trkpt lat="-27.0809513" lon="152.7676248">
<ele>490.689</ele>
<time>2017-01-31T23:38:42.989Z</time>
</trkpt>
<trkpt lat="-27.0809309" lon="152.7679697">
<ele>490.473</ele>
<time>2017-01-31T23:38:45.035Z</time>
</trkpt>
<trkpt lat="-27.0809133" lon="152.7682988">
<ele>490.644</ele>
<time>2017-01-31T23:38:47.023Z</time>
</trkpt>
<trkpt lat="-27.0808833" lon="152.7687929">
<ele>490.932</ele>
<time>2017-01-31T23:38:50.020Z</time>
</trkpt>
<trkpt lat="-27.0808732" lon="152.7691235">
<ele>490.842</ele>
<time>2017-01-31T23:38:52.030Z</time>
</trkpt>
<trkpt lat="-27.0808431" lon="152.7694550">
<ele>489.827</ele>
<time>2017-01-31T23:38:54.113Z</time>
</trkpt>
<trkpt lat="-27.0807586" lon="152.7697739">
<ele>488.145</ele>
<time>2017-01-31T23:38:56.335Z</time>
</trkpt>
<trkpt lat="-27.0806388" lon="152.7700394">
<ele>486.672</ele>
<time>2017-01-31T23:38:58.468Z</time>
</trkpt>
<trkpt lat="-27.0805788" lon="152.7703141">
<ele>485.793</ele>
<time>2017-01-31T23:39:00.543Z</time>
</trkpt>
<trkpt lat="-27.0806492" lon="152.7707079">
<ele>485.339</ele>
<time>2017-01-31T23:39:03.546Z</time>
</trkpt>
<trkpt lat="-27.0807404" lon="152.7709496">
<ele>484.949</ele>
<time>2017-01-31T23:39:05.515Z</time>
</trkpt>
<trkpt lat="-27.0808128" lon="152.7713363">
<ele>484.219</ele>
<time>2017-01-31T23:39:08.473Z</time>
</trkpt>
<trkpt lat="-27.0807984" lon="152.7717350">
<ele>482.951</ele>
<time>2017-01-31T23:39:11.415Z</time>
</trkpt>
<trkpt lat="-27.0807279" lon="152.7721215">
<ele>481.264</ele>
<time>2017-01-31T23:39:14.286Z</time>
</trkpt>
<trkpt lat="-27.0806486" lon="152.7723759">
<ele>479.629</ele>
<time>2017-01-31T23:39:16.213Z</time>
</trkpt>
<trkpt lat="-27.0804386" lon="152.7727108">
<ele>478.762</ele>
<time>2017-01-31T23:39:18.853Z</time>
</trkpt>
<trkpt lat="-27.0802169" lon="152.7729301">
<ele>478.838</ele>
<time>2017-01-31T23:39:20.855Z</time>
</trkpt>
<trkpt lat="-27.0798577" lon="152.7732446">
<ele>479.351</ele>
<time>2017-01-31T23:39:23.818Z</time>
</trkpt>
<trkpt lat="-27.0795219" lon="152.7735776">
<ele>479.808</ele>
<time>2017-01-31T23:39:26.734Z</time>
</trkpt>
<trkpt lat="-27.0793647" lon="152.7738895">
<ele>480.556</ele>
<time>2017-01-31T23:39:28.779Z</time>
</trkpt>
<trkpt lat="-27.0791844" lon="152.7743959">
<ele>482.075</ele>
<time>2017-01-31T23:39:31.760Z</time>
</trkpt>
<trkpt lat="-27.0789825" lon="152.7749123">
<ele>483.790</ele>
<time>2017-01-31T23:39:34.821Z</time>
</trkpt>
<trkpt lat="-27.0788971" lon="152.7754352">
<ele>484.915</ele>
<time>2017-01-31T23:39:37.726Z</time>
</trkpt>
<trkpt lat="-27.0788983" lon="152.7758041">
<ele>485.643</ele>
<time>2017-01-31T23:39:39.726Z</time>
</trkpt>
<trkpt lat="-27.0789941" lon="152.7763400">
<ele>486.288</ele>
<time>2017-01-31T23:39:42.608Z</time>
</trkpt>
<trkpt lat="-27.0791210" lon="152.7768946">
<ele>486.580</ele>
<time>2017-01-31T23:39:45.548Z</time>
</trkpt>
<trkpt lat="-27.0791798" lon="152.7772858">
<ele>486.173</ele>
<time>2017-01-31T23:39:47.580Z</time>
</trkpt>
<trkpt lat="-27.0791936" lon="152.7778634">
<ele>485.351</ele>
<time>2017-01-31T23:39:50.546Z</time>
</trkpt>
<trkpt lat="-27.0791384" lon="152.7784470">
<ele>484.989</ele>
<time>2017-01-31T23:39:53.510Z</time>
</trkpt>
<trkpt lat="-27.0790649" lon="152.7790369">
<ele>485.482</ele>
<time>2017-01-31T23:39:56.466Z</time>
</trkpt>
<trkpt lat="-27.0788889" lon="152.7796090">
<ele>486.130</ele>
<time>2017-01-31T23:39:59.403Z</time>
</trkpt>
<trkpt lat="-27.0786131" lon="152.7801289">
<ele>485.831</ele>
<time>2017-01-31T23:40:02.268Z</time>
</trkpt>
<trkpt lat="-27.0783776" lon="152.7804578">
<ele>484.207</ele>
<time>2017-01-31T23:40:04.252Z</time>
</trkpt>
<trkpt lat="-27.0780135" lon="152.7809370">
<ele>481.698</ele>
<time>2017-01-31T23:40:07.196Z</time>
</trkpt>
<trkpt lat="-27.0777443" lon="152.7812358">
<ele>478.620</ele>
<time>2017-01-31T23:40:09.139Z</time>
</trkpt>
<trkpt lat="-27.0774253" lon="152.7815009">
<ele>474.963</ele>
<time>2017-01-31T23:40:11.131Z</time>
</trkpt>
<trkpt lat="-27.0768821" lon="152.7818008">
<ele>471.161</ele>
<time>2017-01-31T23:40:14.124Z</time>
</trkpt>
<trkpt lat="-27.0765061" lon="152.7819068">
<ele>467.772</ele>
<time>2017-01-31T23:40:15.997Z</time>
</trkpt>
<trkpt lat="-27.0760959" lon="152.7819661">
<ele>465.032</ele>
<time>2017-01-31T23:40:17.923Z</time>
</trkpt>
<trkpt lat="-27.0754375" lon="152.7819186">
<ele>463.172</ele>
<time>2017-01-31T23:40:20.948Z</time>
</trkpt>
<trkpt lat="-27.0749992" lon="152.7818515">
<ele>462.469</ele>
<time>2017-01-31T23:40:22.980Z</time>
</trkpt>
<trkpt lat="-27.0743655" lon="152.7818134">
<ele>462.747</ele>
<time>2017-01-31T23:40:25.893Z</time>
</trkpt>
<trkpt lat="-27.0739246" lon="152.7818778">
<ele>463.352</ele>
<time>2017-01-31T23:40:27.911Z</time>
</trkpt>
<trkpt lat="-27.0734918" lon="152.7819390">
<ele>463.664</ele>
<time>2017-01-31T23:40:29.888Z</time>
</trkpt>
<trkpt lat="-27.0728253" lon="152.7819016">
<ele>463.540</ele>
<time>2017-01-31T23:40:32.924Z</time>
</trkpt>
<trkpt lat="-27.0724009" lon="152.7817911">
<ele>463.725</ele>
<time>2017-01-31T23:40:34.914Z</time>
</trkpt>
<trkpt lat="-27.0719765" lon="152.7816448">
<ele>465.248</ele>
<time>2017-01-31T23:40:36.994Z</time>
</trkpt>
<trkpt lat="-27.0715876" lon="152.7815442">
<ele>468.204</ele>
<time>2017-01-31T23:40:38.980Z</time>
</trkpt>
<trkpt lat="-27.0710140" lon="152.7816074">
<ele>471.822</ele>
<time>2017-01-31T23:40:41.929Z</time>
</trkpt>
<trkpt lat="-27.0704522" lon="152.7816317">
<ele>475.338</ele>
<time>2017-01-31T23:40:44.874Z</time>
</trkpt>
<trkpt lat="-27.0700796" lon="152.7816010">
<ele>478.043</ele>
<time>2017-01-31T23:40:46.819Z</time>
</trkpt>
<trkpt lat="-27.0696960" lon="152.7815070">
<ele>479.457</ele>
<time>2017-01-31T23:40:48.834Z</time>
</trkpt>
<trkpt lat="-27.0691225" lon="152.7813531">
<ele>480.004</ele>
<time>2017-01-31T23:40:51.868Z</time>
</trkpt>
<trkpt lat="-27.0685563" lon="152.7812158">
<ele>480.920</ele>
<time>2017-01-31T23:40:54.880Z</time>
</trkpt>
<trkpt lat="-27.0681873" lon="152.7811448">
<ele>482.581</ele>
<time>2017-01-31T23:40:56.857Z</time>
</trkpt>
<trkpt lat="-27.0678172" lon="152.7810820">
<ele>484.151</ele>
<time>2017-01-31T23:40:58.840Z</time>
</trkpt>
<trkpt lat="-27.0674413" lon="152.7810259">
<ele>485.224</ele>
<time>2017-01-31T23:41:00.844Z</time>
</trkpt>
<trkpt lat="-27.0670705" lon="152.7809705">
<ele>486.057</ele>
<time>2017-01-31T23:41:02.805Z</time>
</trkpt>
<trkpt lat="-27.0664901" lon="152.7809049">
<ele>486.500</ele>
<time>2017-01-31T23:41:05.832Z</time>
</trkpt>
<trkpt lat="-27.0659105" lon="152.7808657">
<ele>486.254</ele>
<time>2017-01-31T23:41:08.805Z</time>
</trkpt>
<trkpt lat="-27.0653177" lon="152.7808733">
<ele>485.400</ele>
<time>2017-01-31T23:41:11.796Z</time>
</trkpt>
<trkpt lat="-27.0647148" lon="152.7808396">
<ele>484.012</ele>
<time>2017-01-31T23:41:14.802Z</time>
</trkpt>
<trkpt lat="-27.0643295" lon="152.7807449">
<ele>481.722</ele>
<time>2017-01-31T23:41:16.747Z</time>
</trkpt>
<trkpt lat="-27.0637783" lon="152.7804913">
<ele>478.434</ele>
<time>2017-01-31T23:41:19.664Z</time>
</trkpt>
<trkpt lat="-27.0634307" lon="152.7802465">
<ele>474.574</ele>
<time>2017-01-31T23:41:21.642Z</time>
</trkpt>
<trkpt lat="-27.0630961" lon="152.7799652">
<ele>470.493</ele>
<time>2017-01-31T23:41:23.641Z</time>
</trkpt>
<trkpt lat="-27.0627756" lon="152.7796676">
<ele>466.859</ele>
<time>2017-01-31T23:41:25.602Z</time>
</trkpt>
<trkpt lat="-27.0622726" lon="152.7792112">
<ele>464.135</ele>
<time>2017-01-31T23:41:28.602Z</time>
</trkpt>
<trkpt lat="-27.0617817" lon="152.7787444">
<ele>461.618</ele>
<time>2017-01-31T23:41:31.499Z</time>
</trkpt>
<trkpt lat="-27.0614420" lon="152.7783951">
<ele>458.580</ele>
<time>2017-01-31T23:41:33.478Z</time>
</trkpt>
<trkpt lat="-27.0611065" lon="152.7780125">
<ele>455.271</ele>
<time>2017-01-31T23:41:35.482Z</time>
</trkpt>
<trkpt lat="-27.0606420" lon="152.7773970">
<ele>452.345</ele>
<time>2017-01-31T23:41:38.511Z</time>
</trkpt>
<trkpt lat="-27.0602020" lon="152.7767933">
<ele>449.817</ele>
<time>2017-01-31T23:41:41.510Z</time>
</trkpt>
<trkpt lat="-27.0599216" lon="152.7764066">
<ele>447.314</ele>
<time>2017-01-31T23:41:43.435Z</time>
</trkpt>
<trkpt lat="-27.0594659" lon="152.7758037">
<ele>445.092</ele>
<time>2017-01-31T23:41:46.468Z</time>
</trkpt>
<trkpt lat="-27.0591746" lon="152.7753876">
<ele>443.649</ele>
<time>2017-01-31T23:41:48.499Z</time>
</trkpt>
<trkpt lat="-27.0586142" lon="152.7749659">
<ele>442.778</ele>
<time>2017-01-31T23:41:51.423Z</time>
</trkpt>
<trkpt lat="-27.0582078" lon="152.7747503">
<ele>441.775</ele>
<time>2017-01-31T23:41:53.380Z</time>
</trkpt>
<trkpt lat="-27.0575402" lon="152.7745277">
<ele>440.283</ele>
<time>2017-01-31T23:41:56.401Z</time>
</trkpt>
<trkpt lat="-27.0568724" lon="152.7743393">
<ele>438.729</ele>
<time>2017-01-31T23:41:59.370Z</time>
</trkpt>
<trkpt lat="-27.0564100" lon="152.7742136">
<ele>437.652</ele>
<time>2017-01-31T23:42:01.388Z</time>
</trkpt>
<trkpt lat="-27.0559486" lon="152.7741008">
<ele>437.033</ele>
<time>2017-01-31T23:42:03.375Z</time>
</trkpt>
<trkpt lat="-27.0554916" lon="152.7739743">
<ele>436.371</ele>
<time>2017-01-31T23:42:05.367Z</time>
</trkpt>
<trkpt lat="-27.0550398" lon="152.7738502">
<ele>435.488</ele>
<time>2017-01-31T23:42:07.359Z</time>
</trkpt>
<trkpt lat="-27.0543687" lon="152.7736741">
<ele>434.740</ele>
<time>2017-01-31T23:42:10.326Z</time>
</trkpt>
<trkpt lat="-27.0539225" lon="152.7735089">
<ele>434.248</ele>
<time>2017-01-31T23:42:12.368Z</time>
</trkpt>
<trkpt lat="-27.0535246" lon="152.7732825">
<ele>433.642</ele>
<time>2017-01-31T23:42:14.332Z</time>
</trkpt>
<trkpt lat="-27.0529860" lon="152.7728244">
<ele>432.834</ele>
<time>2017-01-31T23:42:17.335Z</time>
</trkpt>
<trkpt lat="-27.0526446" lon="152.7725053">
<ele>432.417</ele>
<time>2017-01-31T23:42:19.343Z</time>
</trkpt>
<trkpt lat="-27.0523167" lon="152.7721889">
<ele>432.739</ele>
<time>2017-01-31T23:42:21.322Z</time>
</trkpt>
<trkpt lat="-27.0518315" lon="152.7717227">
<ele>433.350</ele>
<time>2017-01-31T23:42:24.262Z</time>
</trkpt>
<trkpt lat="-27.0513228" lon="152.7712751">
<ele>433.966</ele>
<time>2017-01-31T23:42:27.273Z</time>
</trkpt>
<trkpt lat="-27.0507523" lon="152.7709657">
<ele>435.058</ele>
<time>2017-01-31T23:42:30.311Z</time>
</trkpt>
<trkpt lat="-27.0501800" lon="152.7708347">
<ele>437.053</ele>
<time>2017-01-31T23:42:33.208Z</time>
</trkpt>
<trkpt lat="-27.0497821" lon="152.7708472">
<ele>439.669</ele>
<time>2017-01-31T23:42:35.212Z</time>
</trkpt>
<trkpt lat="-27.0493955" lon="152.7709386">
<ele>441.998</ele>
<time>2017-01-31T23:42:37.154Z</time>
</trkpt>
<trkpt lat="-27.0488105" lon="152.7712093">
<ele>443.257</ele>
<time>2017-01-31T23:42:40.188Z</time>
</trkpt>
<trkpt lat="-27.0484249" lon="152.7714036">
<ele>443.265</ele>
<time>2017-01-31T23:42:42.191Z</time>
</trkpt>
<trkpt lat="-27.0480374" lon="152.7716064">
<ele>442.308</ele>
<time>2017-01-31T23:42:44.274Z</time>
</trkpt>
<trkpt lat="-27.0475095" lon="152.7718873">
<ele>440.677</ele>
<time>2017-01-31T23:42:47.225Z</time>
</trkpt>
<trkpt lat="-27.0471643" lon="152.7720587">
<ele>438.159</ele>
<time>2017-01-31T23:42:49.217Z</time>
</trkpt>
<trkpt lat="-27.0468270" lon="152.7722354">
<ele>434.656</ele>
<time>2017-01-31T23:42:51.226Z</time>
</trkpt>
<trkpt lat="-27.0464087" lon="152.7726261">
<ele>430.861</ele>
<time>2017-01-31T23:42:54.223Z</time>
</trkpt>
<trkpt lat="-27.0461851" lon="152.7731592">
<ele>427.223</ele>
<time>2017-01-31T23:42:57.228Z</time>
</trkpt>
<trkpt lat="-27.0460862" lon="152.7736850">
<ele>423.519</ele>
<time>2017-01-31T23:43:00.148Z</time>
</trkpt>
<trkpt lat="-27.0462117" lon="152.7741826">
<ele>419.592</ele>
<time>2017-01-31T23:43:03.074Z</time>
</trkpt>
<trkpt lat="-27.0462534" lon="152.7747349">
<ele>415.531</ele>
<time>2017-01-31T23:43:06.190Z</time>
</trkpt>
<trkpt lat="-27.0463413" lon="152.7752301">
<ele>411.595</ele>
<time>2017-01-31T23:43:09.148Z</time>
</trkpt>
<trkpt lat="-27.0462074" lon="152.7755106">
<ele>407.641</ele>
<time>2017-01-31T23:43:11.215Z</time>
</trkpt>
<trkpt lat="-27.0459741" lon="152.7758032">
<ele>403.253</ele>
<time>2017-01-31T23:43:13.865Z</time>
</trkpt>
<trkpt lat="-27.0456060" lon="152.7760225">
<ele>398.321</ele>
<time>2017-01-31T23:43:17.050Z</time>
</trkpt>
<trkpt lat="-27.0454204" lon="152.7761721">
<ele>393.085</ele>
<time>2017-01-31T23:43:18.825Z</time>
</trkpt>
<trkpt lat="-27.0453771" lon="152.7766324">
<ele>388.270</ele>
<time>2017-01-31T23:43:22.080Z</time>
</trkpt>
<trkpt lat="-27.0451260" lon="152.7769489">
<ele>384.587</ele>
<time>2017-01-31T23:43:24.985Z</time>
</trkpt>
<trkpt lat="-27.0448382" lon="152.7771373">
<ele>381.747</ele>
<time>2017-01-31T23:43:27.260Z</time>
</trkpt>
<trkpt lat="-27.0444809" lon="152.7772799">
<ele>379.136</ele>
<time>2017-01-31T23:43:29.585Z</time>
</trkpt>
<trkpt lat="-27.0440466" lon="152.7774882">
<ele>376.323</ele>
<time>2017-01-31T23:43:32.480Z</time>
</trkpt>
<trkpt lat="-27.0437584" lon="152.7775643">
<ele>372.572</ele>
<time>2017-01-31T23:43:34.395Z</time>
</trkpt>
<trkpt lat="-27.0433367" lon="152.7776644">
<ele>367.900</ele>
<time>2017-01-31T23:43:37.208Z</time>
</trkpt>
<trkpt lat="-27.0429920" lon="152.7776933">
<ele>363.267</ele>
<time>2017-01-31T23:43:39.345Z</time>
</trkpt>
<trkpt lat="-27.0426158" lon="152.7775993">
<ele>359.155</ele>
<time>2017-01-31T23:43:41.664Z</time>
</trkpt>
<trkpt lat="-27.0421446" lon="152.7775885">
<ele>355.206</ele>
<time>2017-01-31T23:43:44.575Z</time>
</trkpt>
<trkpt lat="-27.0418361" lon="152.7776035">
<ele>350.751</ele>
<time>2017-01-31T23:43:46.521Z</time>
</trkpt>
<trkpt lat="-27.0413557" lon="152.7776177">
<ele>346.197</ele>
<time>2017-01-31T23:43:49.536Z</time>
</trkpt>
<trkpt lat="-27.0410418" lon="152.7776167">
<ele>345.721</ele>
<time>2017-01-31T23:43:51.488Z</time>
</trkpt>
<trkpt lat="-27.0406719" lon="152.7774596">
<ele>351.350</ele>
<time>2017-01-31T23:43:53.928Z</time>
</trkpt>
<trkpt lat="-27.0401923" lon="152.7773453">
<ele>356.375</ele>
<time>2017-01-31T23:43:57.020Z</time>
</trkpt>
<trkpt lat="-27.0397460" lon="152.7773248">
<ele>353.975</ele>
<time>2017-01-31T23:43:59.993Z</time>
</trkpt>
<trkpt lat="-27.0394645" lon="152.7772877">
<ele>345.827</ele>
<time>2017-01-31T23:44:02.072Z</time>
</trkpt>
<trkpt lat="-27.0392433" lon="152.7770753">
<ele>336.936</ele>
<time>2017-01-31T23:44:04.335Z</time>
</trkpt>
<trkpt lat="-27.0388812" lon="152.7769949">
<ele>330.150</ele>
<time>2017-01-31T23:44:07.273Z</time>
</trkpt>
<trkpt lat="-27.0386382" lon="152.7770699">
<ele>325.543</ele>
<time>2017-01-31T23:44:09.201Z</time>
</trkpt>
<trkpt lat="-27.0382290" lon="152.7772877">
<ele>322.019</ele>
<time>2017-01-31T23:44:12.425Z</time>
</trkpt>
<trkpt lat="-27.0379444" lon="152.7773026">
<ele>318.348</ele>
<time>2017-01-31T23:44:14.390Z</time>
</trkpt>
<trkpt lat="-27.0376616" lon="152.7773258">
<ele>313.927</ele>
<time>2017-01-31T23:44:16.383Z</time>
</trkpt>
<trkpt lat="-27.0372650" lon="152.7774070">
<ele>309.831</ele>
<time>2017-01-31T23:44:19.279Z</time>
</trkpt>
<trkpt lat="-27.0369964" lon="152.7773303">
<ele>306.737</ele>
<time>2017-01-31T23:44:21.341Z</time>
</trkpt>
<trkpt lat="-27.0367329" lon="152.7773136">
<ele>303.552</ele>
<time>2017-01-31T23:44:23.421Z</time>
</trkpt>
<trkpt lat="-27.0364069" lon="152.7774280">
<ele>299.709</ele>
<time>2017-01-31T23:44:26.061Z</time>
</trkpt>
<trkpt lat="-27.0360929" lon="152.7774142">
<ele>294.587</ele>
<time>2017-01-31T23:44:28.229Z</time>
</trkpt>
<trkpt lat="-27.0357980" lon="152.7772951">
<ele>288.341</ele>
<time>2017-01-31T23:44:30.363Z</time>
</trkpt>
<trkpt lat="-27.0355566" lon="152.7771018">
<ele>283.234</ele>
<time>2017-01-31T23:44:32.523Z</time>
</trkpt>
<trkpt lat="-27.0351920" lon="152.7770072">
<ele>280.182</ele>
<time>2017-01-31T23:44:35.508Z</time>
</trkpt>
<trkpt lat="-27.0349904" lon="152.7768466">
<ele>277.130</ele>
<time>2017-01-31T23:44:37.569Z</time>
</trkpt>
<trkpt lat="-27.0347327" lon="152.7765666">
<ele>272.970</ele>
<time>2017-01-31T23:44:40.680Z</time>
</trkpt>
<trkpt lat="-27.0345176" lon="152.7765252">
<ele>268.382</ele>
<time>2017-01-31T23:44:42.584Z</time>
</trkpt>
<trkpt lat="-27.0341756" lon="152.7766815">
<ele>264.036</ele>
<time>2017-01-31T23:44:45.511Z</time>
</trkpt>
<trkpt lat="-27.0339200" lon="152.7770370">
<ele>259.943</ele>
<time>2017-01-31T23:44:48.476Z</time>
</trkpt>
<trkpt lat="-27.0335837" lon="152.7772600">
<ele>255.976</ele>
<time>2017-01-31T23:44:51.245Z</time>
</trkpt>
<trkpt lat="-27.0332721" lon="152.7775959">
<ele>251.771</ele>
<time>2017-01-31T23:44:54.315Z</time>
</trkpt>
<trkpt lat="-27.0329137" lon="152.7778070">
<ele>246.975</ele>
<time>2017-01-31T23:44:57.270Z</time>
</trkpt>
<trkpt lat="-27.0327137" lon="152.7780049">
<ele>241.624</ele>
<time>2017-01-31T23:44:59.313Z</time>
</trkpt>
<trkpt lat="-27.0324939" lon="152.7781185">
<ele>236.350</ele>
<time>2017-01-31T23:45:01.143Z</time>
</trkpt>
<trkpt lat="-27.0322230" lon="152.7782124">
<ele>231.885</ele>
<time>2017-01-31T23:45:03.081Z</time>
</trkpt>
<trkpt lat="-27.0317280" lon="152.7781686">
<ele>228.485</ele>
<time>2017-01-31T23:45:06.237Z</time>
</trkpt>
<trkpt lat="-27.0312539" lon="152.7781997">
<ele>225.485</ele>
<time>2017-01-31T23:45:09.105Z</time>
</trkpt>
<trkpt lat="-27.0309425" lon="152.7783237">
<ele>221.883</ele>
<time>2017-01-31T23:45:10.967Z</time>
</trkpt>
<trkpt lat="-27.0304871" lon="152.7786839">
<ele>217.660</ele>
<time>2017-01-31T23:45:13.989Z</time>
</trkpt>
<trkpt lat="-27.0300399" lon="152.7790542">
<ele>213.435</ele>
<time>2017-01-31T23:45:17.005Z</time>
</trkpt>
<trkpt lat="-27.0297268" lon="152.7792323">
<ele>209.412</ele>
<time>2017-01-31T23:45:18.984Z</time>
</trkpt>
<trkpt lat="-27.0293910" lon="152.7793321">
<ele>206.016</ele>
<time>2017-01-31T23:45:20.999Z</time>
</trkpt>
<trkpt lat="-27.0288783" lon="152.7792893">
<ele>204.013</ele>
<time>2017-01-31T23:45:24.149Z</time>
</trkpt>
<trkpt lat="-27.0284425" lon="152.7791658">
<ele>203.771</ele>
<time>2017-01-31T23:45:27.111Z</time>
</trkpt>
<trkpt lat="-27.0280040" lon="152.7791675">
<ele>205.280</ele>
<time>2017-01-31T23:45:30.032Z</time>
</trkpt>
<trkpt lat="-27.0277102" lon="152.7793019">
<ele>207.699</ele>
<time>2017-01-31T23:45:32.194Z</time>
</trkpt>
<trkpt lat="-27.0274244" lon="152.7793513">
<ele>208.762</ele>
<time>2017-01-31T23:45:34.322Z</time>
</trkpt>
<trkpt lat="-27.0270600" lon="152.7791854">
<ele>207.408</ele>
<time>2017-01-31T23:45:37.225Z</time>
</trkpt>
<trkpt lat="-27.0268733" lon="152.7789465">
<ele>205.404</ele>
<time>2017-01-31T23:45:39.116Z</time>
</trkpt>
<trkpt lat="-27.0265207" lon="152.7785625">
<ele>204.833</ele>
<time>2017-01-31T23:45:42.343Z</time>
</trkpt>
<trkpt lat="-27.0261807" lon="152.7782511">
<ele>206.633</ele>
<time>2017-01-31T23:45:45.645Z</time>
</trkpt>
<trkpt lat="-27.0258516" lon="152.7781305">
<ele>210.740</ele>
<time>2017-01-31T23:45:48.890Z</time>
</trkpt>
<trkpt lat="-27.0256271" lon="152.7783096">
<ele>215.696</ele>
<time>2017-01-31T23:45:51.497Z</time>
</trkpt>
<trkpt lat="-27.0256174" lon="152.7785688">
<ele>219.883</ele>
<time>2017-01-31T23:45:53.461Z</time>
</trkpt>
<trkpt lat="-27.0256383" lon="152.7788376">
<ele>222.569</ele>
<time>2017-01-31T23:45:55.416Z</time>
</trkpt>
<trkpt lat="-27.0255026" lon="152.7792157">
<ele>224.850</ele>
<time>2017-01-31T23:45:58.272Z</time>
</trkpt>
<trkpt lat="-27.0252667" lon="152.7793699">
<ele>227.949</ele>
<time>2017-01-31T23:46:00.308Z</time>
</trkpt>
<trkpt lat="-27.0248586" lon="152.7795111">
<ele>230.699</ele>
<time>2017-01-31T23:46:03.501Z</time>
</trkpt>
<trkpt lat="-27.0245970" lon="152.7794718">
<ele>231.293</ele>
<time>2017-01-31T23:46:05.591Z</time>
</trkpt>
<trkpt lat="-27.0243398" lon="152.7794599">
<ele>229.677</ele>
<time>2017-01-31T23:46:07.755Z</time>
</trkpt>
<trkpt lat="-27.0241290" lon="152.7795625">
<ele>226.807</ele>
<time>2017-01-31T23:46:09.685Z</time>
</trkpt>
<trkpt lat="-27.0239573" lon="152.7799375">
<ele>223.699</ele>
<time>2017-01-31T23:46:12.559Z</time>
</trkpt>
<trkpt lat="-27.0238652" lon="152.7803802">
<ele>220.881</ele>
<time>2017-01-31T23:46:15.472Z</time>
</trkpt>
<trkpt lat="-27.0236159" lon="152.7807543">
<ele>218.413</ele>
<time>2017-01-31T23:46:18.400Z</time>
</trkpt>
<trkpt lat="-27.0231995" lon="152.7809341">
<ele>215.990</ele>
<time>2017-01-31T23:46:21.311Z</time>
</trkpt>
<trkpt lat="-27.0228743" lon="152.7808951">
<ele>213.204</ele>
<time>2017-01-31T23:46:23.165Z</time>
</trkpt>
<trkpt lat="-27.0223309" lon="152.7806780">
<ele>210.254</ele>
<time>2017-01-31T23:46:26.184Z</time>
</trkpt>
<trkpt lat="-27.0217604" lon="152.7804452">
<ele>207.766</ele>
<time>2017-01-31T23:46:29.218Z</time>
</trkpt>
<trkpt lat="-27.0212065" lon="152.7802147">
<ele>205.890</ele>
<time>2017-01-31T23:46:32.178Z</time>
</trkpt>
<trkpt lat="-27.0208361" lon="152.7800705">
<ele>203.790</ele>
<time>2017-01-31T23:46:34.171Z</time>
</trkpt>
<trkpt lat="-27.0204762" lon="152.7799280">
<ele>200.922</ele>
<time>2017-01-31T23:46:36.129Z</time>
</trkpt>
<trkpt lat="-27.0199283" lon="152.7797135">
<ele>197.838</ele>
<time>2017-01-31T23:46:39.111Z</time>
</trkpt>
<trkpt lat="-27.0195657" lon="152.7795805">
<ele>195.039</ele>
<time>2017-01-31T23:46:41.042Z</time>
</trkpt>
<trkpt lat="-27.0189980" lon="152.7793690">
<ele>192.299</ele>
<time>2017-01-31T23:46:43.974Z</time>
</trkpt>
<trkpt lat="-27.0183757" lon="152.7792134">
<ele>189.614</ele>
<time>2017-01-31T23:46:46.961Z</time>
</trkpt>
<trkpt lat="-27.0177252" lon="152.7791168">
<ele>187.245</ele>
<time>2017-01-31T23:46:49.963Z</time>
</trkpt>
<trkpt lat="-27.0172867" lon="152.7790629">
<ele>185.125</ele>
<time>2017-01-31T23:46:51.944Z</time>
</trkpt>
<trkpt lat="-27.0166207" lon="152.7789628">
<ele>182.772</ele>
<time>2017-01-31T23:46:54.917Z</time>
</trkpt>
<trkpt lat="-27.0159512" lon="152.7788609">
<ele>179.946</ele>
<time>2017-01-31T23:46:57.871Z</time>
</trkpt>
<trkpt lat="-27.0152674" lon="152.7788309">
<ele>176.932</ele>
<time>2017-01-31T23:47:00.851Z</time>
</trkpt>
<trkpt lat="-27.0148063" lon="152.7788474">
<ele>174.029</ele>
<time>2017-01-31T23:47:02.894Z</time>
</trkpt>
<trkpt lat="-27.0141433" lon="152.7788378">
<ele>171.450</ele>
<time>2017-01-31T23:47:05.903Z</time>
</trkpt>
<trkpt lat="-27.0135029" lon="152.7787502">
<ele>169.253</ele>
<time>2017-01-31T23:47:08.907Z</time>
</trkpt>
<trkpt lat="-27.0130870" lon="152.7786771">
<ele>167.216</ele>
<time>2017-01-31T23:47:10.896Z</time>
</trkpt>
<trkpt lat="-27.0126723" lon="152.7786169">
<ele>165.428</ele>
<time>2017-01-31T23:47:12.876Z</time>
</trkpt>
<trkpt lat="-27.0120531" lon="152.7785315">
<ele>164.281</ele>
<time>2017-01-31T23:47:15.811Z</time>
</trkpt>
<trkpt lat="-27.0114148" lon="152.7784355">
<ele>163.745</ele>
<time>2017-01-31T23:47:18.796Z</time>
</trkpt>
<trkpt lat="-27.0109829" lon="152.7783858">
<ele>163.260</ele>
<time>2017-01-31T23:47:20.778Z</time>
</trkpt>
<trkpt lat="-27.0105509" lon="152.7783533">
<ele>162.247</ele>
<time>2017-01-31T23:47:22.745Z</time>
</trkpt>
<trkpt lat="-27.0101151" lon="152.7783596">
<ele>160.576</ele>
<time>2017-01-31T23:47:24.705Z</time>
</trkpt>
<trkpt lat="-27.0094497" lon="152.7783880">
<ele>158.627</ele>
<time>2017-01-31T23:47:27.702Z</time>
</trkpt>
<trkpt lat="-27.0090152" lon="152.7784288">
<ele>156.747</ele>
<time>2017-01-31T23:47:29.674Z</time>
</trkpt>
<trkpt lat="-27.0085696" lon="152.7784914">
<ele>154.975</ele>
<time>2017-01-31T23:47:31.692Z</time>
</trkpt>
<trkpt lat="-27.0079291" lon="152.7786573">
<ele>153.091</ele>
<time>2017-01-31T23:47:34.622Z</time>
</trkpt>
<trkpt lat="-27.0074926" lon="152.7788031">
<ele>150.812</ele>
<time>2017-01-31T23:47:36.640Z</time>
</trkpt>
<trkpt lat="-27.0070732" lon="152.7789854">
<ele>148.427</ele>
<time>2017-01-31T23:47:38.642Z</time>
</trkpt>
<trkpt lat="-27.0066727" lon="152.7792007">
<ele>146.741</ele>
<time>2017-01-31T23:47:40.635Z</time>
</trkpt>
<trkpt lat="-27.0062818" lon="152.7794471">
<ele>145.899</ele>
<time>2017-01-31T23:47:42.675Z</time>
</trkpt>
<trkpt lat="-27.0059435" lon="152.7797268">
<ele>145.258</ele>
<time>2017-01-31T23:47:44.623Z</time>
</trkpt>
<trkpt lat="-27.0054311" lon="152.7801687">
<ele>144.467</ele>
<time>2017-01-31T23:47:47.643Z</time>
</trkpt>
<trkpt lat="-27.0051184" lon="152.7804721">
<ele>143.702</ele>
<time>2017-01-31T23:47:49.577Z</time>
</trkpt>
<trkpt lat="-27.0046845" lon="152.7809868">
<ele>143.032</ele>
<time>2017-01-31T23:47:52.513Z</time>
</trkpt>
<trkpt lat="-27.0042873" lon="152.7815534">
<ele>142.364</ele>
<time>2017-01-31T23:47:55.513Z</time>
</trkpt>
<trkpt lat="-27.0039411" lon="152.7821403">
<ele>141.753</ele>
<time>2017-01-31T23:47:58.545Z</time>
</trkpt>
<trkpt lat="-27.0036288" lon="152.7826912">
<ele>141.030</ele>
<time>2017-01-31T23:48:01.532Z</time>
</trkpt>
<trkpt lat="-27.0033246" lon="152.7832013">
<ele>139.893</ele>
<time>2017-01-31T23:48:04.493Z</time>
</trkpt>
<trkpt lat="-27.0031326" lon="152.7835347">
<ele>138.630</ele>
<time>2017-01-31T23:48:06.451Z</time>
</trkpt>
<trkpt lat="-27.0028344" lon="152.7840387">
<ele>137.811</ele>
<time>2017-01-31T23:48:09.385Z</time>
</trkpt>
<trkpt lat="-27.0025194" lon="152.7845718">
<ele>137.641</ele>
<time>2017-01-31T23:48:12.389Z</time>
</trkpt>
<trkpt lat="-27.0023211" lon="152.7849343">
<ele>138.012</ele>
<time>2017-01-31T23:48:14.353Z</time>
</trkpt>
<trkpt lat="-27.0020578" lon="152.7854916">
<ele>138.589</ele>
<time>2017-01-31T23:48:17.293Z</time>
</trkpt>
<trkpt lat="-27.0018601" lon="152.7860658">
<ele>138.922</ele>
<time>2017-01-31T23:48:20.208Z</time>
</trkpt>
<trkpt lat="-27.0017514" lon="152.7864697">
<ele>138.559</ele>
<time>2017-01-31T23:48:22.217Z</time>
</trkpt>
<trkpt lat="-27.0016653" lon="152.7868670">
<ele>137.462</ele>
<time>2017-01-31T23:48:24.238Z</time>
</trkpt>
<trkpt lat="-27.0015796" lon="152.7874256">
<ele>136.089</ele>
<time>2017-01-31T23:48:27.192Z</time>
</trkpt>
<trkpt lat="-27.0015065" lon="152.7879514">
<ele>134.932</ele>
<time>2017-01-31T23:48:30.135Z</time>
</trkpt>
<trkpt lat="-27.0014977" lon="152.7882828">
<ele>134.301</ele>
<time>2017-01-31T23:48:31.987Z</time>
</trkpt>
<trkpt lat="-27.0014864" lon="152.7886614">
<ele>134.292</ele>
<time>2017-01-31T23:48:33.985Z</time>
</trkpt>
<trkpt lat="-27.0014036" lon="152.7892723">
<ele>134.770</ele>
<time>2017-01-31T23:48:37.006Z</time>
</trkpt>
<trkpt lat="-27.0013381" lon="152.7899333">
<ele>135.679</ele>
<time>2017-01-31T23:48:40.036Z</time>
</trkpt>
<trkpt lat="-27.0013160" lon="152.7903865">
<ele>136.930</ele>
<time>2017-01-31T23:48:42.040Z</time>
</trkpt>
<trkpt lat="-27.0012363" lon="152.7910533">
<ele>138.122</ele>
<time>2017-01-31T23:48:45.002Z</time>
</trkpt>
<trkpt lat="-27.0011089" lon="152.7916979">
<ele>138.817</ele>
<time>2017-01-31T23:48:47.916Z</time>
</trkpt>
<trkpt lat="-27.0009795" lon="152.7921132">
<ele>138.997</ele>
<time>2017-01-31T23:48:49.859Z</time>
</trkpt>
<trkpt lat="-27.0007603" lon="152.7925026">
<ele>139.281</ele>
<time>2017-01-31T23:48:51.884Z</time>
</trkpt>
<trkpt lat="-27.0005243" lon="152.7928657">
<ele>140.089</ele>
<time>2017-01-31T23:48:53.872Z</time>
</trkpt>
<trkpt lat="-27.0000678" lon="152.7932645">
<ele>140.999</ele>
<time>2017-01-31T23:48:56.806Z</time>
</trkpt>
<trkpt lat="-26.9997502" lon="152.7934746">
<ele>141.518</ele>
<time>2017-01-31T23:48:58.731Z</time>
</trkpt>
<trkpt lat="-26.9993829" lon="152.7936506">
<ele>141.759</ele>
<time>2017-01-31T23:49:00.805Z</time>
</trkpt>
<trkpt lat="-26.9988181" lon="152.7938099">
<ele>141.928</ele>
<time>2017-01-31T23:49:03.761Z</time>
</trkpt>
<trkpt lat="-26.9984005" lon="152.7938721">
<ele>142.154</ele>
<time>2017-01-31T23:49:05.744Z</time>
</trkpt>
<trkpt lat="-26.9976724" lon="152.7939890">
<ele>142.753</ele>
<time>2017-01-31T23:49:08.839Z</time>
</trkpt>
<trkpt lat="-26.9968590" lon="152.7941261">
<ele>144.206</ele>
<time>2017-01-31T23:49:11.941Z</time>
</trkpt>
<trkpt lat="-26.9960638" lon="152.7942231">
<ele>146.189</ele>
<time>2017-01-31T23:49:14.947Z</time>
</trkpt>
<trkpt lat="-26.9955855" lon="152.7943079">
<ele>147.528</ele>
<time>2017-01-31T23:49:16.931Z</time>
</trkpt>
<trkpt lat="-26.9949317" lon="152.7944009">
<ele>147.286</ele>
<time>2017-01-31T23:49:19.871Z</time>
</trkpt>
<trkpt lat="-26.9945443" lon="152.7944645">
<ele>145.315</ele>
<time>2017-01-31T23:49:21.809Z</time>
</trkpt>
<trkpt lat="-26.9939774" lon="152.7945438">
<ele>142.512</ele>
<time>2017-01-31T23:49:24.752Z</time>
</trkpt>
<trkpt lat="-26.9933984" lon="152.7946249">
<ele>140.318</ele>
<time>2017-01-31T23:49:27.738Z</time>
</trkpt>
<trkpt lat="-26.9927822" lon="152.7947112">
<ele>139.329</ele>
<time>2017-01-31T23:49:30.803Z</time>
</trkpt>
<trkpt lat="-26.9923714" lon="152.7947695">
<ele>139.167</ele>
<time>2017-01-31T23:49:32.792Z</time>
</trkpt>
<trkpt lat="-26.9919509" lon="152.7948378">
<ele>139.239</ele>
<time>2017-01-31T23:49:34.796Z</time>
</trkpt>
<trkpt lat="-26.9913075" lon="152.7949566">
<ele>138.744</ele>
<time>2017-01-31T23:49:37.826Z</time>
</trkpt>
<trkpt lat="-26.9906817" lon="152.7950748">
<ele>136.799</ele>
<time>2017-01-31T23:49:40.780Z</time>
</trkpt>
<trkpt lat="-26.9901002" lon="152.7952693">
<ele>133.757</ele>
<time>2017-01-31T23:49:43.676Z</time>
</trkpt>
<trkpt lat="-26.9897244" lon="152.7954456">
<ele>130.960</ele>
<time>2017-01-31T23:49:45.678Z</time>
</trkpt>
<trkpt lat="-26.9892009" lon="152.7957256">
<ele>128.932</ele>
<time>2017-01-31T23:49:48.614Z</time>
</trkpt>
<trkpt lat="-26.9888951" lon="152.7958971">
<ele>127.551</ele>
<time>2017-01-31T23:49:50.473Z</time>
</trkpt>
<trkpt lat="-26.9885899" lon="152.7962179">
<ele>127.066</ele>
<time>2017-01-31T23:49:52.931Z</time>
</trkpt>
<trkpt lat="-26.9882460" lon="152.7965498">
<ele>127.708</ele>
<time>2017-01-31T23:49:55.859Z</time>
</trkpt>
<trkpt lat="-26.9880209" lon="152.7967648">
<ele>129.421</ele>
<time>2017-01-31T23:49:57.847Z</time>
</trkpt>
<trkpt lat="-26.9877300" lon="152.7970951">
<ele>131.775</ele>
<time>2017-01-31T23:50:00.735Z</time>
</trkpt>
<trkpt lat="-26.9875842" lon="152.7972746">
<ele>134.152</ele>
<time>2017-01-31T23:50:02.378Z</time>
</trkpt>
<trkpt lat="-26.9873886" lon="152.7975015">
<ele>136.009</ele>
<time>2017-01-31T23:50:04.887Z</time>
</trkpt>
<trkpt lat="-26.9872471" lon="152.7976503">
<ele>137.028</ele>
<time>2017-01-31T23:50:06.959Z</time>
</trkpt>
<trkpt lat="-26.9871614" lon="152.7977131">
<ele>137.294</ele>
<time>2017-01-31T23:50:08.254Z</time>
</trkpt>
<trkpt lat="-26.9870459" lon="152.7976957">
<ele>137.199</ele>
<time>2017-01-31T23:50:10.264Z</time>
</trkpt>
<trkpt lat="-26.9867985" lon="152.7974528">
<ele>137.214</ele>
<time>2017-01-31T23:50:17.577Z</time>
</trkpt>
<trkpt lat="-26.9865786" lon="152.7972198">
<ele>138.098</ele>
<time>2017-01-31T23:50:20.846Z</time>
</trkpt>
<trkpt lat="-26.9863326" lon="152.7969866">
<ele>140.119</ele>
<time>2017-01-31T23:50:23.074Z</time>
</trkpt>
<trkpt lat="-26.9860735" lon="152.7967548">
<ele>142.395</ele>
<time>2017-01-31T23:50:25.118Z</time>
</trkpt>
<trkpt lat="-26.9856884" lon="152.7964300">
<ele>143.918</ele>
<time>2017-01-31T23:50:28.053Z</time>
</trkpt>
<trkpt lat="-26.9853007" lon="152.7961460">
<ele>144.265</ele>
<time>2017-01-31T23:50:30.964Z</time>
</trkpt>
<trkpt lat="-26.9850298" lon="152.7959699">
<ele>143.588</ele>
<time>2017-01-31T23:50:32.965Z</time>
</trkpt>
<trkpt lat="-26.9846109" lon="152.7957204">
<ele>142.653</ele>
<time>2017-01-31T23:50:35.925Z</time>
</trkpt>
<trkpt lat="-26.9843015" lon="152.7955590">
<ele>142.092</ele>
<time>2017-01-31T23:50:37.967Z</time>
</trkpt>
<trkpt lat="-26.9837953" lon="152.7953134">
<ele>141.935</ele>
<time>2017-01-31T23:50:41.053Z</time>
</trkpt>
<trkpt lat="-26.9834266" lon="152.7951488">
<ele>142.102</ele>
<time>2017-01-31T23:50:43.138Z</time>
</trkpt>
<trkpt lat="-26.9828853" lon="152.7949431">
<ele>142.492</ele>
<time>2017-01-31T23:50:46.115Z</time>
</trkpt>
<trkpt lat="-26.9823392" lon="152.7947103">
<ele>142.606</ele>
<time>2017-01-31T23:50:49.130Z</time>
</trkpt>
<trkpt lat="-26.9817877" lon="152.7944436">
<ele>141.862</ele>
<time>2017-01-31T23:50:52.149Z</time>
</trkpt>
<trkpt lat="-26.9814292" lon="152.7942504">
<ele>140.276</ele>
<time>2017-01-31T23:50:54.126Z</time>
</trkpt>
<trkpt lat="-26.9808833" lon="152.7939441">
<ele>138.537</ele>
<time>2017-01-31T23:50:57.102Z</time>
</trkpt>
<trkpt lat="-26.9803450" lon="152.7935834">
<ele>137.287</ele>
<time>2017-01-31T23:51:00.090Z</time>
</trkpt>
<trkpt lat="-26.9798089" lon="152.7932130">
<ele>136.616</ele>
<time>2017-01-31T23:51:03.076Z</time>
</trkpt>
<trkpt lat="-26.9794747" lon="152.7929652">
<ele>136.737</ele>
<time>2017-01-31T23:51:05.016Z</time>
</trkpt>
<trkpt lat="-26.9789884" lon="152.7926209">
<ele>137.782</ele>
<time>2017-01-31T23:51:07.925Z</time>
</trkpt>
<trkpt lat="-26.9786589" lon="152.7924005">
<ele>139.039</ele>
<time>2017-01-31T23:51:09.925Z</time>
</trkpt>
<trkpt lat="-26.9781922" lon="152.7920786">
<ele>139.862</ele>
<time>2017-01-31T23:51:12.844Z</time>
</trkpt>
<trkpt lat="-26.9778751" lon="152.7918596">
<ele>140.304</ele>
<time>2017-01-31T23:51:14.844Z</time>
</trkpt>
<trkpt lat="-26.9774119" lon="152.7915335">
<ele>140.531</ele>
<time>2017-01-31T23:51:17.778Z</time>
</trkpt>
<trkpt lat="-26.9770961" lon="152.7913123">
<ele>140.606</ele>
<time>2017-01-31T23:51:19.785Z</time>
</trkpt>
<trkpt lat="-26.9767746" lon="152.7910928">
<ele>140.402</ele>
<time>2017-01-31T23:51:21.809Z</time>
</trkpt>
<trkpt lat="-26.9763105" lon="152.7907527">
<ele>139.889</ele>
<time>2017-01-31T23:51:24.800Z</time>
</trkpt>
<trkpt lat="-26.9759966" lon="152.7905415">
<ele>139.307</ele>
<time>2017-01-31T23:51:26.780Z</time>
</trkpt>
<trkpt lat="-26.9755193" lon="152.7902156">
<ele>138.680</ele>
<time>2017-01-31T23:51:29.777Z</time>
</trkpt>
<trkpt lat="-26.9750422" lon="152.7898800">
<ele>137.739</ele>
<time>2017-01-31T23:51:32.789Z</time>
</trkpt>
<trkpt lat="-26.9747321" lon="152.7896598">
<ele>136.553</ele>
<time>2017-01-31T23:51:34.747Z</time>
</trkpt>
<trkpt lat="-26.9742615" lon="152.7893210">
<ele>135.558</ele>
<time>2017-01-31T23:51:37.720Z</time>
</trkpt>
<trkpt lat="-26.9739462" lon="152.7890848">
<ele>135.057</ele>
<time>2017-01-31T23:51:39.716Z</time>
</trkpt>
<trkpt lat="-26.9734387" lon="152.7887372">
<ele>135.024</ele>
<time>2017-01-31T23:51:42.763Z</time>
</trkpt>
<trkpt lat="-26.9729249" lon="152.7883866">
<ele>135.402</ele>
<time>2017-01-31T23:51:45.765Z</time>
</trkpt>
<trkpt lat="-26.9725815" lon="152.7881520">
<ele>136.094</ele>
<time>2017-01-31T23:51:47.753Z</time>
</trkpt>
<trkpt lat="-26.9722365" lon="152.7879107">
<ele>136.755</ele>
<time>2017-01-31T23:51:49.755Z</time>
</trkpt>
<trkpt lat="-26.9717198" lon="152.7875511">
<ele>137.174</ele>
<time>2017-01-31T23:51:52.741Z</time>
</trkpt>
<trkpt lat="-26.9712079" lon="152.7871723">
<ele>137.437</ele>
<time>2017-01-31T23:51:55.747Z</time>
</trkpt>
<trkpt lat="-26.9708751" lon="152.7869086">
<ele>137.573</ele>
<time>2017-01-31T23:51:57.738Z</time>
</trkpt>
<trkpt lat="-26.9705513" lon="152.7866429">
<ele>137.570</ele>
<time>2017-01-31T23:51:59.704Z</time>
</trkpt>
<trkpt lat="-26.9702309" lon="152.7863658">
<ele>137.550</ele>
<time>2017-01-31T23:52:01.697Z</time>
</trkpt>
<trkpt lat="-26.9697641" lon="152.7859505">
<ele>137.631</ele>
<time>2017-01-31T23:52:04.665Z</time>
</trkpt>
<trkpt lat="-26.9694593" lon="152.7856882">
<ele>137.783</ele>
<time>2017-01-31T23:52:06.613Z</time>
</trkpt>
<trkpt lat="-26.9690074" lon="152.7853036">
<ele>137.890</ele>
<time>2017-01-31T23:52:09.549Z</time>
</trkpt>
<trkpt lat="-26.9687129" lon="152.7850350">
<ele>137.909</ele>
<time>2017-01-31T23:52:11.530Z</time>
</trkpt>
<trkpt lat="-26.9684113" lon="152.7847682">
<ele>137.875</ele>
<time>2017-01-31T23:52:13.528Z</time>
</trkpt>
<trkpt lat="-26.9679643" lon="152.7843664">
<ele>137.832</ele>
<time>2017-01-31T23:52:16.491Z</time>
</trkpt>
<trkpt lat="-26.9675150" lon="152.7839596">
<ele>137.661</ele>
<time>2017-01-31T23:52:19.471Z</time>
</trkpt>
<trkpt lat="-26.9670462" lon="152.7835429">
<ele>137.014</ele>
<time>2017-01-31T23:52:22.511Z</time>
</trkpt>
<trkpt lat="-26.9667311" lon="152.7832658">
<ele>135.627</ele>
<time>2017-01-31T23:52:24.513Z</time>
</trkpt>
<trkpt lat="-26.9664346" lon="152.7829894">
<ele>133.778</ele>
<time>2017-01-31T23:52:26.449Z</time>
</trkpt>
<trkpt lat="-26.9659774" lon="152.7826271">
<ele>131.900</ele>
<time>2017-01-31T23:52:29.355Z</time>
</trkpt>
<trkpt lat="-26.9656906" lon="152.7824129">
<ele>129.881</ele>
<time>2017-01-31T23:52:31.213Z</time>
</trkpt>
<trkpt lat="-26.9652330" lon="152.7821457">
<ele>127.367</ele>
<time>2017-01-31T23:52:34.133Z</time>
</trkpt>
<trkpt lat="-26.9649571" lon="152.7819772">
<ele>124.534</ele>
<time>2017-01-31T23:52:35.980Z</time>
</trkpt>
<trkpt lat="-26.9646882" lon="152.7818096">
<ele>121.973</ele>
<time>2017-01-31T23:52:37.874Z</time>
</trkpt>
<trkpt lat="-26.9643183" lon="152.7815995">
<ele>120.037</ele>
<time>2017-01-31T23:52:40.617Z</time>
</trkpt>
<trkpt lat="-26.9640769" lon="152.7814626">
<ele>118.718</ele>
<time>2017-01-31T23:52:42.500Z</time>
</trkpt>
<trkpt lat="-26.9638314" lon="152.7813343">
<ele>117.978</ele>
<time>2017-01-31T23:52:44.491Z</time>
</trkpt>
<trkpt lat="-26.9635781" lon="152.7811981">
<ele>117.964</ele>
<time>2017-01-31T23:52:46.553Z</time>
</trkpt>
<trkpt lat="-26.9633255" lon="152.7810716">
<ele>118.807</ele>
<time>2017-01-31T23:52:48.555Z</time>
</trkpt>
<trkpt lat="-26.9630799" lon="152.7809280">
<ele>120.079</ele>
<time>2017-01-31T23:52:50.550Z</time>
</trkpt>
<trkpt lat="-26.9626977" lon="152.7806673">
<ele>121.014</ele>
<time>2017-01-31T23:52:53.696Z</time>
</trkpt>
<trkpt lat="-26.9624512" lon="152.7805268">
<ele>121.746</ele>
<time>2017-01-31T23:52:55.620Z</time>
</trkpt>
<trkpt lat="-26.9620851" lon="152.7803366">
<ele>122.826</ele>
<time>2017-01-31T23:52:58.517Z</time>
</trkpt>
<trkpt lat="-26.9617341" lon="152.7801381">
<ele>124.064</ele>
<time>2017-01-31T23:53:01.435Z</time>
</trkpt>
<trkpt lat="-26.9614069" lon="152.7799376">
<ele>124.966</ele>
<time>2017-01-31T23:53:04.293Z</time>
</trkpt>
<trkpt lat="-26.9611113" lon="152.7797703">
<ele>125.367</ele>
<time>2017-01-31T23:53:06.964Z</time>
</trkpt>
<trkpt lat="-26.9608916" lon="152.7796662">
<ele>125.343</ele>
<time>2017-01-31T23:53:08.986Z</time>
</trkpt>
<trkpt lat="-26.9606537" lon="152.7795676">
<ele>125.296</ele>
<time>2017-01-31T23:53:11.150Z</time>
</trkpt>
<trkpt lat="-26.9602673" lon="152.7794423">
<ele>125.508</ele>
<time>2017-01-31T23:53:14.340Z</time>
</trkpt>
<trkpt lat="-26.9599953" lon="152.7793571">
<ele>125.854</ele>
<time>2017-01-31T23:53:16.494Z</time>
</trkpt>
<trkpt lat="-26.9595771" lon="152.7792287">
<ele>126.207</ele>
<time>2017-01-31T23:53:19.638Z</time>
</trkpt>
<trkpt lat="-26.9591657" lon="152.7791208">
<ele>126.638</ele>
<time>2017-01-31T23:53:22.626Z</time>
</trkpt>
<trkpt lat="-26.9588964" lon="152.7790426">
<ele>127.079</ele>
<time>2017-01-31T23:53:24.574Z</time>
</trkpt>
<trkpt lat="-26.9584684" lon="152.7789222">
<ele>127.353</ele>
<time>2017-01-31T23:53:27.631Z</time>
</trkpt>
<trkpt lat="-26.9580592" lon="152.7788102">
<ele>127.465</ele>
<time>2017-01-31T23:53:30.552Z</time>
</trkpt>
<trkpt lat="-26.9578174" lon="152.7787542">
<ele>127.528</ele>
<time>2017-01-31T23:53:32.293Z</time>
</trkpt>
<trkpt lat="-26.9576052" lon="152.7786978">
<ele>127.576</ele>
<time>2017-01-31T23:53:33.911Z</time>
</trkpt>
<trkpt lat="-26.9573979" lon="152.7786411">
<ele>127.579</ele>
<time>2017-01-31T23:53:35.641Z</time>
</trkpt>
<trkpt lat="-26.9570903" lon="152.7785568">
<ele>127.518</ele>
<time>2017-01-31T23:53:38.469Z</time>
</trkpt>
<trkpt lat="-26.9568784" lon="152.7784949">
<ele>127.435</ele>
<time>2017-01-31T23:53:40.534Z</time>
</trkpt>
<trkpt lat="-26.9566657" lon="152.7784391">
<ele>127.441</ele>
<time>2017-01-31T23:53:42.572Z</time>
</trkpt>
<trkpt lat="-26.9563386" lon="152.7783584">
<ele>127.683</ele>
<time>2017-01-31T23:53:45.628Z</time>
</trkpt>
<trkpt lat="-26.9560180" lon="152.7782736">
<ele>128.217</ele>
<time>2017-01-31T23:53:48.613Z</time>
</trkpt>
<trkpt lat="-26.9558293" lon="152.7782248">
<ele>128.828</ele>
<time>2017-01-31T23:53:50.376Z</time>
</trkpt>
<trkpt lat="-26.9555234" lon="152.7781448">
<ele>129.110</ele>
<time>2017-01-31T23:53:53.386Z</time>
</trkpt>
<trkpt lat="-26.9552131" lon="152.7780461">
<ele>128.923</ele>
<time>2017-01-31T23:53:56.516Z</time>
</trkpt>
<trkpt lat="-26.9549215" lon="152.7779378">
<ele>128.525</ele>
<time>2017-01-31T23:53:59.378Z</time>
</trkpt>
<trkpt lat="-26.9546813" lon="152.7778533">
<ele>128.076</ele>
<time>2017-01-31T23:54:01.785Z</time>
</trkpt>
<trkpt lat="-26.9545220" lon="152.7777979">
<ele>127.561</ele>
<time>2017-01-31T23:54:03.586Z</time>
</trkpt>
<trkpt lat="-26.9542190" lon="152.7777051">
<ele>127.137</ele>
<time>2017-01-31T23:54:07.149Z</time>
</trkpt>
<trkpt lat="-26.9539917" lon="152.7776290">
<ele>127.151</ele>
<time>2017-01-31T23:54:09.546Z</time>
</trkpt>
<trkpt lat="-26.9536473" lon="152.7775117">
<ele>127.675</ele>
<time>2017-01-31T23:54:12.758Z</time>
</trkpt>
<trkpt lat="-26.9534208" lon="152.7774385">
<ele>128.397</ele>
<time>2017-01-31T23:54:14.762Z</time>
</trkpt>
<trkpt lat="-26.9531890" lon="152.7773756">
<ele>128.970</ele>
<time>2017-01-31T23:54:16.783Z</time>
</trkpt>
<trkpt lat="-26.9528643" lon="152.7772713">
<ele>129.180</ele>
<time>2017-01-31T23:54:19.689Z</time>
</trkpt>
<trkpt lat="-26.9526179" lon="152.7772044">
<ele>128.923</ele>
<time>2017-01-31T23:54:21.877Z</time>
</trkpt>
<trkpt lat="-26.9523816" lon="152.7771168">
<ele>128.431</ele>
<time>2017-01-31T23:54:23.969Z</time>
</trkpt>
<trkpt lat="-26.9521537" lon="152.7770105">
<ele>127.830</ele>
<time>2017-01-31T23:54:25.970Z</time>
</trkpt>
<trkpt lat="-26.9517715" lon="152.7768840">
<ele>127.012</ele>
<time>2017-01-31T23:54:29.107Z</time>
</trkpt>
<trkpt lat="-26.9515280" lon="152.7768106">
<ele>126.084</ele>
<time>2017-01-31T23:54:31.056Z</time>
</trkpt>
<trkpt lat="-26.9511357" lon="152.7767101">
<ele>125.201</ele>
<time>2017-01-31T23:54:34.094Z</time>
</trkpt>
<trkpt lat="-26.9508746" lon="152.7766146">
<ele>124.330</ele>
<time>2017-01-31T23:54:36.151Z</time>
</trkpt>
<trkpt lat="-26.9506107" lon="152.7765158">
<ele>123.601</ele>
<time>2017-01-31T23:54:38.193Z</time>
</trkpt>
<trkpt lat="-26.9503429" lon="152.7764173">
<ele>123.192</ele>
<time>2017-01-31T23:54:40.233Z</time>
</trkpt>
<trkpt lat="-26.9500904" lon="152.7762896">
<ele>122.684</ele>
<time>2017-01-31T23:54:42.234Z</time>
</trkpt>
<trkpt lat="-26.9497618" lon="152.7759838">
<ele>121.572</ele>
<time>2017-01-31T23:54:45.259Z</time>
</trkpt>
<trkpt lat="-26.9495719" lon="152.7757389">
<ele>120.245</ele>
<time>2017-01-31T23:54:47.280Z</time>
</trkpt>
<trkpt lat="-26.9492843" lon="152.7753787">
<ele>119.302</ele>
<time>2017-01-31T23:54:50.257Z</time>
</trkpt>
<trkpt lat="-26.9490905" lon="152.7751360">
<ele>118.715</ele>
<time>2017-01-31T23:54:52.263Z</time>
</trkpt>
<trkpt lat="-26.9488962" lon="152.7748790">
<ele>118.235</ele>
<time>2017-01-31T23:54:54.325Z</time>
</trkpt>
<trkpt lat="-26.9486841" lon="152.7746214">
<ele>117.638</ele>
<time>2017-01-31T23:54:56.402Z</time>
</trkpt>
<trkpt lat="-26.9484581" lon="152.7743528">
<ele>116.901</ele>
<time>2017-01-31T23:54:58.503Z</time>
</trkpt>
<trkpt lat="-26.9481143" lon="152.7739492">
<ele>116.341</ele>
<time>2017-01-31T23:55:01.528Z</time>
</trkpt>
<trkpt lat="-26.9477329" lon="152.7735245">
<ele>116.361</ele>
<time>2017-01-31T23:55:04.650Z</time>
</trkpt>
<trkpt lat="-26.9474445" lon="152.7732441">
<ele>117.074</ele>
<time>2017-01-31T23:55:06.769Z</time>
</trkpt>
<trkpt lat="-26.9471535" lon="152.7729669">
<ele>118.044</ele>
<time>2017-01-31T23:55:08.807Z</time>
</trkpt>
<trkpt lat="-26.9468529" lon="152.7727215">
<ele>118.666</ele>
<time>2017-01-31T23:55:10.780Z</time>
</trkpt>
<trkpt lat="-26.9465435" lon="152.7724789">
<ele>118.652</ele>
<time>2017-01-31T23:55:12.776Z</time>
</trkpt>
<trkpt lat="-26.9460497" lon="152.7721043">
<ele>118.183</ele>
<time>2017-01-31T23:55:15.841Z</time>
</trkpt>
<trkpt lat="-26.9457125" lon="152.7718418">
<ele>117.716</ele>
<time>2017-01-31T23:55:17.890Z</time>
</trkpt>
<trkpt lat="-26.9451966" lon="152.7714492">
<ele>117.645</ele>
<time>2017-01-31T23:55:20.910Z</time>
</trkpt>
<trkpt lat="-26.9448556" lon="152.7711819">
<ele>118.054</ele>
<time>2017-01-31T23:55:22.905Z</time>
</trkpt>
<trkpt lat="-26.9443405" lon="152.7707782">
<ele>118.663</ele>
<time>2017-01-31T23:55:25.890Z</time>
</trkpt>
<trkpt lat="-26.9440006" lon="152.7704984">
<ele>118.779</ele>
<time>2017-01-31T23:55:27.881Z</time>
</trkpt>
<trkpt lat="-26.9436615" lon="152.7701963">
<ele>118.119</ele>
<time>2017-01-31T23:55:29.908Z</time>
</trkpt>
<trkpt lat="-26.9431588" lon="152.7697185">
<ele>117.437</ele>
<time>2017-01-31T23:55:32.954Z</time>
</trkpt>
<trkpt lat="-26.9428293" lon="152.7693864">
<ele>117.498</ele>
<time>2017-01-31T23:55:34.978Z</time>
</trkpt>
<trkpt lat="-26.9425176" lon="152.7690346">
<ele>118.069</ele>
<time>2017-01-31T23:55:36.982Z</time>
</trkpt>
<trkpt lat="-26.9420773" lon="152.7685080">
<ele>118.657</ele>
<time>2017-01-31T23:55:39.930Z</time>
</trkpt>
<trkpt lat="-26.9416789" lon="152.7679904">
<ele>119.086</ele>
<time>2017-01-31T23:55:42.813Z</time>
</trkpt>
<trkpt lat="-26.9414622" lon="152.7676309">
<ele>119.306</ele>
<time>2017-01-31T23:55:44.700Z</time>
</trkpt>
<trkpt lat="-26.9411433" lon="152.7671065">
<ele>119.301</ele>
<time>2017-01-31T23:55:47.587Z</time>
</trkpt>
<trkpt lat="-26.9409110" lon="152.7667640">
<ele>119.204</ele>
<time>2017-01-31T23:55:49.569Z</time>
</trkpt>
<trkpt lat="-26.9406762" lon="152.7664075">
<ele>119.515</ele>
<time>2017-01-31T23:55:51.595Z</time>
</trkpt>
<trkpt lat="-26.9403479" lon="152.7658736">
<ele>120.475</ele>
<time>2017-01-31T23:55:54.537Z</time>
</trkpt>
<trkpt lat="-26.9401329" lon="152.7655133">
<ele>121.447</ele>
<time>2017-01-31T23:55:56.510Z</time>
</trkpt>
<trkpt lat="-26.9399050" lon="152.7651398">
<ele>121.782</ele>
<time>2017-01-31T23:55:58.553Z</time>
</trkpt>
<trkpt lat="-26.9396716" lon="152.7647529">
<ele>121.635</ele>
<time>2017-01-31T23:56:00.601Z</time>
</trkpt>
<trkpt lat="-26.9394219" lon="152.7643718">
<ele>121.353</ele>
<time>2017-01-31T23:56:02.614Z</time>
</trkpt>
<trkpt lat="-26.9389895" lon="152.7638546">
<ele>121.082</ele>
<time>2017-01-31T23:56:05.558Z</time>
</trkpt>
<trkpt lat="-26.9386286" lon="152.7635384">
<ele>120.564</ele>
<time>2017-01-31T23:56:07.658Z</time>
</trkpt>
<trkpt lat="-26.9382421" lon="152.7632846">
<ele>119.530</ele>
<time>2017-01-31T23:56:09.667Z</time>
</trkpt>
<trkpt lat="-26.9376792" lon="152.7629310">
<ele>118.113</ele>
<time>2017-01-31T23:56:12.557Z</time>
</trkpt>
<trkpt lat="-26.9373207" lon="152.7627061">
<ele>116.356</ele>
<time>2017-01-31T23:56:14.430Z</time>
</trkpt>
<trkpt lat="-26.9367425" lon="152.7623566">
<ele>114.364</ele>
<time>2017-01-31T23:56:17.498Z</time>
</trkpt>
<trkpt lat="-26.9361900" lon="152.7619883">
<ele>112.863</ele>
<time>2017-01-31T23:56:20.480Z</time>
</trkpt>
<trkpt lat="-26.9358348" lon="152.7617457">
<ele>112.152</ele>
<time>2017-01-31T23:56:22.409Z</time>
</trkpt>
<trkpt lat="-26.9353022" lon="152.7613563">
<ele>112.037</ele>
<time>2017-01-31T23:56:25.407Z</time>
</trkpt>
<trkpt lat="-26.9349448" lon="152.7610764">
<ele>112.421</ele>
<time>2017-01-31T23:56:27.455Z</time>
</trkpt>
<trkpt lat="-26.9345817" lon="152.7607891">
<ele>113.246</ele>
<time>2017-01-31T23:56:29.496Z</time>
</trkpt>
<trkpt lat="-26.9340642" lon="152.7603314">
<ele>114.308</ele>
<time>2017-01-31T23:56:32.491Z</time>
</trkpt>
<trkpt lat="-26.9337401" lon="152.7600253">
<ele>114.954</ele>
<time>2017-01-31T23:56:34.419Z</time>
</trkpt>
<trkpt lat="-26.9334110" lon="152.7597137">
<ele>114.738</ele>
<time>2017-01-31T23:56:36.394Z</time>
</trkpt>
<trkpt lat="-26.9329461" lon="152.7592468">
<ele>114.346</ele>
<time>2017-01-31T23:56:39.308Z</time>
</trkpt>
<trkpt lat="-26.9325372" lon="152.7587779">
<ele>114.428</ele>
<time>2017-01-31T23:56:42.133Z</time>
</trkpt>
<trkpt lat="-26.9321352" lon="152.7583159">
<ele>114.528</ele>
<time>2017-01-31T23:56:45.033Z</time>
</trkpt>
<trkpt lat="-26.9317524" lon="152.7578390">
<ele>114.132</ele>
<time>2017-01-31T23:56:47.980Z</time>
</trkpt>
<trkpt lat="-26.9313938" lon="152.7573780">
<ele>113.607</ele>
<time>2017-01-31T23:56:50.843Z</time>
</trkpt>
<trkpt lat="-26.9310864" lon="152.7569968">
<ele>113.406</ele>
<time>2017-01-31T23:56:53.353Z</time>
</trkpt>
<trkpt lat="-26.9309050" lon="152.7567284">
<ele>113.323</ele>
<time>2017-01-31T23:56:55.193Z</time>
</trkpt>
<trkpt lat="-26.9308080" lon="152.7565884">
<ele>112.861</ele>
<time>2017-01-31T23:56:56.220Z</time>
</trkpt>
<trkpt lat="-26.9306149" lon="152.7565683">
<ele>111.912</ele>
<time>2017-01-31T23:56:57.825Z</time>
</trkpt>
<trkpt lat="-26.9303633" lon="152.7568270">
<ele>110.958</ele>
<time>2017-01-31T23:57:01.301Z</time>
</trkpt>
<trkpt lat="-26.9300510" lon="152.7571957">
<ele>110.782</ele>
<time>2017-01-31T23:57:06.753Z</time>
</trkpt>
<trkpt lat="-26.9297237" lon="152.7575604">
<ele>111.786</ele>
<time>2017-01-31T23:57:10.169Z</time>
</trkpt>
<trkpt lat="-26.9295009" lon="152.7578162">
<ele>113.351</ele>
<time>2017-01-31T23:57:12.249Z</time>
</trkpt>
<trkpt lat="-26.9292466" lon="152.7580994">
<ele>114.476</ele>
<time>2017-01-31T23:57:14.525Z</time>
</trkpt>
<trkpt lat="-26.9288570" lon="152.7585274">
<ele>115.049</ele>
<time>2017-01-31T23:57:17.715Z</time>
</trkpt>
<trkpt lat="-26.9283845" lon="152.7590498">
<ele>115.604</ele>
<time>2017-01-31T23:57:21.180Z</time>
</trkpt>
<trkpt lat="-26.9278663" lon="152.7596195">
<ele>116.663</ele>
<time>2017-01-31T23:57:24.469Z</time>
</trkpt>
<trkpt lat="-26.9273486" lon="152.7601895">
<ele>118.139</ele>
<time>2017-01-31T23:57:27.519Z</time>
</trkpt>
<trkpt lat="-26.9270149" lon="152.7605687">
<ele>119.222</ele>
<time>2017-01-31T23:57:29.495Z</time>
</trkpt>
<trkpt lat="-26.9266737" lon="152.7609466">
<ele>119.260</ele>
<time>2017-01-31T23:57:31.501Z</time>
</trkpt>
<trkpt lat="-26.9261528" lon="152.7615324">
<ele>118.502</ele>
<time>2017-01-31T23:57:34.547Z</time>
</trkpt>
<trkpt lat="-26.9256201" lon="152.7621131">
<ele>117.647</ele>
<time>2017-01-31T23:57:37.563Z</time>
</trkpt>
<trkpt lat="-26.9252675" lon="152.7625002">
<ele>117.454</ele>
<time>2017-01-31T23:57:39.548Z</time>
</trkpt>
<trkpt lat="-26.9249167" lon="152.7628951">
<ele>118.150</ele>
<time>2017-01-31T23:57:41.539Z</time>
</trkpt>
<trkpt lat="-26.9243896" lon="152.7634732">
<ele>119.402</ele>
<time>2017-01-31T23:57:44.491Z</time>
</trkpt>
<trkpt lat="-26.9238599" lon="152.7640530">
<ele>120.958</ele>
<time>2017-01-31T23:57:47.474Z</time>
</trkpt>
<trkpt lat="-26.9235085" lon="152.7644531">
<ele>122.991</ele>
<time>2017-01-31T23:57:49.496Z</time>
</trkpt>
<trkpt lat="-26.9229744" lon="152.7650457">
<ele>125.358</ele>
<time>2017-01-31T23:57:52.509Z</time>
</trkpt>
<trkpt lat="-26.9224413" lon="152.7656412">
<ele>127.156</ele>
<time>2017-01-31T23:57:55.502Z</time>
</trkpt>
<trkpt lat="-26.9220844" lon="152.7660315">
<ele>127.661</ele>
<time>2017-01-31T23:57:57.480Z</time>
</trkpt>
<trkpt lat="-26.9215758" lon="152.7665936">
<ele>126.997</ele>
<time>2017-01-31T23:58:00.344Z</time>
</trkpt>
<trkpt lat="-26.9210866" lon="152.7671310">
<ele>125.368</ele>
<time>2017-01-31T23:58:03.161Z</time>
</trkpt>
<trkpt lat="-26.9207539" lon="152.7675048">
<ele>123.072</ele>
<time>2017-01-31T23:58:05.147Z</time>
</trkpt>
<trkpt lat="-26.9202454" lon="152.7680398">
<ele>120.966</ele>
<time>2017-01-31T23:58:08.139Z</time>
</trkpt>
<trkpt lat="-26.9198862" lon="152.7683836">
<ele>120.248</ele>
<time>2017-01-31T23:58:10.156Z</time>
</trkpt>
<trkpt lat="-26.9193070" lon="152.7688633">
<ele>121.158</ele>
<time>2017-01-31T23:58:13.195Z</time>
</trkpt>
<trkpt lat="-26.9187145" lon="152.7692944">
<ele>122.509</ele>
<time>2017-01-31T23:58:16.147Z</time>
</trkpt>
<trkpt lat="-26.9181136" lon="152.7696810">
<ele>123.025</ele>
<time>2017-01-31T23:58:19.054Z</time>
</trkpt>
<trkpt lat="-26.9174937" lon="152.7700390">
<ele>122.440</ele>
<time>2017-01-31T23:58:21.994Z</time>
</trkpt>
<trkpt lat="-26.9170735" lon="152.7702818">
<ele>121.356</ele>
<time>2017-01-31T23:58:23.983Z</time>
</trkpt>
<trkpt lat="-26.9164352" lon="152.7706535">
<ele>120.488</ele>
<time>2017-01-31T23:58:27.000Z</time>
</trkpt>
<trkpt lat="-26.9157952" lon="152.7710358">
<ele>119.672</ele>
<time>2017-01-31T23:58:30.021Z</time>
</trkpt>
<trkpt lat="-26.9153708" lon="152.7712885">
<ele>118.632</ele>
<time>2017-01-31T23:58:32.013Z</time>
</trkpt>
<trkpt lat="-26.9147316" lon="152.7716687">
<ele>117.818</ele>
<time>2017-01-31T23:58:35.000Z</time>
</trkpt>
<trkpt lat="-26.9143004" lon="152.7719199">
<ele>117.602</ele>
<time>2017-01-31T23:58:37.009Z</time>
</trkpt>
<trkpt lat="-26.9136526" lon="152.7723077">
<ele>117.724</ele>
<time>2017-01-31T23:58:40.027Z</time>
</trkpt>
<trkpt lat="-26.9130163" lon="152.7727205">
<ele>117.894</ele>
<time>2017-01-31T23:58:43.015Z</time>
</trkpt>
<trkpt lat="-26.9124059" lon="152.7731508">
<ele>118.044</ele>
<time>2017-01-31T23:58:45.947Z</time>
</trkpt>
<trkpt lat="-26.9120016" lon="152.7734439">
<ele>118.175</ele>
<time>2017-01-31T23:58:47.922Z</time>
</trkpt>
<trkpt lat="-26.9114159" lon="152.7739197">
<ele>118.263</ele>
<time>2017-01-31T23:58:50.905Z</time>
</trkpt>
<trkpt lat="-26.9110442" lon="152.7742414">
<ele>118.490</ele>
<time>2017-01-31T23:58:52.843Z</time>
</trkpt>
<trkpt lat="-26.9106768" lon="152.7745806">
<ele>119.054</ele>
<time>2017-01-31T23:58:54.822Z</time>
</trkpt>
<trkpt lat="-26.9103204" lon="152.7749266">
<ele>119.807</ele>
<time>2017-01-31T23:58:56.788Z</time>
</trkpt>
<trkpt lat="-26.9097574" lon="152.7754353">
<ele>120.509</ele>
<time>2017-01-31T23:58:59.805Z</time>
</trkpt>
<trkpt lat="-26.9093420" lon="152.7757472">
<ele>121.220</ele>
<time>2017-01-31T23:59:01.878Z</time>
</trkpt>
<trkpt lat="-26.9087136" lon="152.7761682">
<ele>121.993</ele>
<time>2017-01-31T23:59:04.863Z</time>
</trkpt>
<trkpt lat="-26.9082766" lon="152.7764250">
<ele>122.582</ele>
<time>2017-01-31T23:59:06.863Z</time>
</trkpt>
<trkpt lat="-26.9075947" lon="152.7767416">
<ele>122.968</ele>
<time>2017-01-31T23:59:09.858Z</time>
</trkpt>
<trkpt lat="-26.9071462" lon="152.7769250">
<ele>123.419</ele>
<time>2017-01-31T23:59:11.800Z</time>
</trkpt>
<trkpt lat="-26.9064512" lon="152.7771281">
<ele>124.072</ele>
<time>2017-01-31T23:59:14.758Z</time>
</trkpt>
<trkpt lat="-26.9057482" lon="152.7772875">
<ele>125.149</ele>
<time>2017-01-31T23:59:17.753Z</time>
</trkpt>
<trkpt lat="-26.9050375" lon="152.7773729">
<ele>126.545</ele>
<time>2017-01-31T23:59:20.748Z</time>
</trkpt>
<trkpt lat="-26.9043201" lon="152.7773912">
<ele>127.576</ele>
<time>2017-01-31T23:59:23.733Z</time>
</trkpt>
<trkpt lat="-26.9038199" lon="152.7774136">
<ele>127.905</ele>
<time>2017-01-31T23:59:25.788Z</time>
</trkpt>
<trkpt lat="-26.9033339" lon="152.7774426">
<ele>127.634</ele>
<time>2017-01-31T23:59:27.755Z</time>
</trkpt>
<trkpt lat="-26.9028502" lon="152.7775083">
<ele>126.784</ele>
<time>2017-01-31T23:59:29.727Z</time>
</trkpt>
<trkpt lat="-26.9023966" lon="152.7776052">
<ele>125.627</ele>
<time>2017-01-31T23:59:31.618Z</time>
</trkpt>
<trkpt lat="-26.9017348" lon="152.7777855">
<ele>124.743</ele>
<time>2017-01-31T23:59:34.498Z</time>
</trkpt>
<trkpt lat="-26.9010764" lon="152.7780204">
<ele>124.620</ele>
<time>2017-01-31T23:59:37.501Z</time>
</trkpt>
<trkpt lat="-26.9004531" lon="152.7783218">
<ele>125.202</ele>
<time>2017-01-31T23:59:40.463Z</time>
</trkpt>
<trkpt lat="-26.8998168" lon="152.7786778">
<ele>125.486</ele>
<time>2017-01-31T23:59:43.540Z</time>
</trkpt>
<trkpt lat="-26.8994056" lon="152.7789242">
<ele>124.394</ele>
<time>2017-01-31T23:59:45.519Z</time>
</trkpt>
<trkpt lat="-26.8987914" lon="152.7792837">
<ele>122.170</ele>
<time>2017-01-31T23:59:48.425Z</time>
</trkpt>
<trkpt lat="-26.8983959" lon="152.7795302">
<ele>119.952</ele>
<time>2017-01-31T23:59:50.340Z</time>
</trkpt>
<trkpt lat="-26.8977899" lon="152.7798908">
<ele>118.423</ele>
<time>2017-01-31T23:59:53.292Z</time>
</trkpt>
<trkpt lat="-26.8973767" lon="152.7801375">
<ele>117.552</ele>
<time>2017-01-31T23:59:55.322Z</time>
</trkpt>
<trkpt lat="-26.8967569" lon="152.7805172">
<ele>117.146</ele>
<time>2017-01-31T23:59:58.359Z</time>
</trkpt>
<trkpt lat="-26.8961821" lon="152.7808987">
<ele>117.640</ele>
<time>2017-02-01T00:00:01.225Z</time>
</trkpt>
<trkpt lat="-26.8958107" lon="152.7811373">
<ele>119.624</ele>
<time>2017-02-01T00:00:03.107Z</time>
</trkpt>
<trkpt lat="-26.8952632" lon="152.7815341">
<ele>122.497</ele>
<time>2017-02-01T00:00:06.035Z</time>
</trkpt>
<trkpt lat="-26.8947223" lon="152.7819348">
<ele>125.098</ele>
<time>2017-02-01T00:00:09.009Z</time>
</trkpt>
<trkpt lat="-26.8943582" lon="152.7822037">
<ele>127.029</ele>
<time>2017-02-01T00:00:11.017Z</time>
</trkpt>
<trkpt lat="-26.8938100" lon="152.7826042">
<ele>128.202</ele>
<time>2017-02-01T00:00:14.026Z</time>
</trkpt>
<trkpt lat="-26.8934249" lon="152.7828855">
<ele>128.408</ele>
<time>2017-02-01T00:00:16.120Z</time>
</trkpt>
<trkpt lat="-26.8928390" lon="152.7833227">
<ele>127.817</ele>
<time>2017-02-01T00:00:19.257Z</time>
</trkpt>
<trkpt lat="-26.8922342" lon="152.7837617">
<ele>126.641</ele>
<time>2017-02-01T00:00:22.327Z</time>
</trkpt>
<trkpt lat="-26.8918321" lon="152.7840627">
<ele>124.729</ele>
<time>2017-02-01T00:00:24.344Z</time>
</trkpt>
<trkpt lat="-26.8914242" lon="152.7843562">
<ele>122.478</ele>
<time>2017-02-01T00:00:26.351Z</time>
</trkpt>
<trkpt lat="-26.8910106" lon="152.7846561">
<ele>120.975</ele>
<time>2017-02-01T00:00:28.373Z</time>
</trkpt>
<trkpt lat="-26.8906063" lon="152.7849587">
<ele>120.554</ele>
<time>2017-02-01T00:00:30.351Z</time>
</trkpt>
<trkpt lat="-26.8899966" lon="152.7854127">
<ele>120.766</ele>
<time>2017-02-01T00:00:33.320Z</time>
</trkpt>
<trkpt lat="-26.8893675" lon="152.7858780">
<ele>121.448</ele>
<time>2017-02-01T00:00:36.367Z</time>
</trkpt>
<trkpt lat="-26.8886986" lon="152.7862919">
<ele>122.493</ele>
<time>2017-02-01T00:00:39.410Z</time>
</trkpt>
<trkpt lat="-26.8880173" lon="152.7866092">
<ele>123.179</ele>
<time>2017-02-01T00:00:42.349Z</time>
</trkpt>
<trkpt lat="-26.8875733" lon="152.7867579">
<ele>123.045</ele>
<time>2017-02-01T00:00:44.233Z</time>
</trkpt>
<trkpt lat="-26.8868958" lon="152.7869267">
<ele>122.852</ele>
<time>2017-02-01T00:00:47.108Z</time>
</trkpt>
<trkpt lat="-26.8864392" lon="152.7870079">
<ele>123.610</ele>
<time>2017-02-01T00:00:49.072Z</time>
</trkpt>
<trkpt lat="-26.8859766" lon="152.7870521">
<ele>125.124</ele>
<time>2017-02-01T00:00:51.050Z</time>
</trkpt>
<trkpt lat="-26.8855111" lon="152.7870581">
<ele>126.368</ele>
<time>2017-02-01T00:00:53.038Z</time>
</trkpt>
<trkpt lat="-26.8847907" lon="152.7870301">
<ele>126.858</ele>
<time>2017-02-01T00:00:56.117Z</time>
</trkpt>
<trkpt lat="-26.8843091" lon="152.7869993">
<ele>126.574</ele>
<time>2017-02-01T00:00:58.153Z</time>
</trkpt>
<trkpt lat="-26.8838217" lon="152.7869733">
<ele>125.701</ele>
<time>2017-02-01T00:01:00.192Z</time>
</trkpt>
<trkpt lat="-26.8830832" lon="152.7869345">
<ele>124.937</ele>
<time>2017-02-01T00:01:03.232Z</time>
</trkpt>
<trkpt lat="-26.8823583" lon="152.7869497">
<ele>125.056</ele>
<time>2017-02-01T00:01:06.173Z</time>
</trkpt>
<trkpt lat="-26.8818817" lon="152.7870025">
<ele>126.269</ele>
<time>2017-02-01T00:01:08.119Z</time>
</trkpt>
<trkpt lat="-26.8814009" lon="152.7871014">
<ele>127.983</ele>
<time>2017-02-01T00:01:10.117Z</time>
</trkpt>
<trkpt lat="-26.8809257" lon="152.7872327">
<ele>129.196</ele>
<time>2017-02-01T00:01:12.123Z</time>
</trkpt>
<trkpt lat="-26.8803387" lon="152.7874705">
<ele>129.490</ele>
<time>2017-02-01T00:01:14.669Z</time>
</trkpt>
<trkpt lat="-26.8800108" lon="152.7876297">
<ele>128.900</ele>
<time>2017-02-01T00:01:16.216Z</time>
</trkpt>
<trkpt lat="-26.8796392" lon="152.7878189">
<ele>127.389</ele>
<time>2017-02-01T00:01:18.017Z</time>
</trkpt>
<trkpt lat="-26.8793738" lon="152.7879300">
<ele>124.931</ele>
<time>2017-02-01T00:01:19.461Z</time>
</trkpt>
<trkpt lat="-26.8791950" lon="152.7878945">
<ele>121.958</ele>
<time>2017-02-01T00:01:20.463Z</time>
</trkpt>
<trkpt lat="-26.8790113" lon="152.7877382">
<ele>119.483</ele>
<time>2017-02-01T00:01:21.874Z</time>
</trkpt>
<trkpt lat="-26.8786048" lon="152.7876080">
<ele>118.442</ele>
<time>2017-02-01T00:01:24.997Z</time>
</trkpt>
<trkpt lat="-26.8782790" lon="152.7875771">
<ele>119.037</ele>
<time>2017-02-01T00:01:28.214Z</time>
</trkpt>
<trkpt lat="-26.8778022" lon="152.7875373">
<ele>120.643</ele>
<time>2017-02-01T00:01:32.427Z</time>
</trkpt>
<trkpt lat="-26.8775182" lon="152.7875070">
<ele>122.174</ele>
<time>2017-02-01T00:01:34.425Z</time>
</trkpt>
<trkpt lat="-26.8772409" lon="152.7874547">
<ele>122.973</ele>
<time>2017-02-01T00:01:36.222Z</time>
</trkpt>
<trkpt lat="-26.8769505" lon="152.7873547">
<ele>123.141</ele>
<time>2017-02-01T00:01:38.135Z</time>
</trkpt>
<trkpt lat="-26.8765104" lon="152.7871235">
<ele>123.207</ele>
<time>2017-02-01T00:01:41.380Z</time>
</trkpt>
<trkpt lat="-26.8762195" lon="152.7869232">
<ele>123.666</ele>
<time>2017-02-01T00:01:43.707Z</time>
</trkpt>
<trkpt lat="-26.8759430" lon="152.7867222">
<ele>124.634</ele>
<time>2017-02-01T00:01:45.807Z</time>
</trkpt>
<trkpt lat="-26.8755186" lon="152.7864360">
<ele>125.787</ele>
<time>2017-02-01T00:01:48.831Z</time>
</trkpt>
<trkpt lat="-26.8750857" lon="152.7861529">
<ele>126.722</ele>
<time>2017-02-01T00:01:51.837Z</time>
</trkpt>
<trkpt lat="-26.8748149" lon="152.7859614">
<ele>127.307</ele>
<time>2017-02-01T00:01:53.767Z</time>
</trkpt>
<trkpt lat="-26.8745447" lon="152.7857961">
<ele>127.619</ele>
<time>2017-02-01T00:01:55.613Z</time>
</trkpt>
<trkpt lat="-26.8742363" lon="152.7857016">
<ele>127.786</ele>
<time>2017-02-01T00:01:57.539Z</time>
</trkpt>
<trkpt lat="-26.8739228" lon="152.7856230">
<ele>127.960</ele>
<time>2017-02-01T00:01:59.512Z</time>
</trkpt>
<trkpt lat="-26.8734543" lon="152.7855306">
<ele>128.236</ele>
<time>2017-02-01T00:02:02.507Z</time>
</trkpt>
<trkpt lat="-26.8731344" lon="152.7855183">
<ele>128.681</ele>
<time>2017-02-01T00:02:04.494Z</time>
</trkpt>
<trkpt lat="-26.8726241" lon="152.7855908">
<ele>129.344</ele>
<time>2017-02-01T00:02:07.683Z</time>
</trkpt>
<trkpt lat="-26.8722926" lon="152.7856638">
<ele>130.391</ele>
<time>2017-02-01T00:02:09.802Z</time>
</trkpt>
<trkpt lat="-26.8719678" lon="152.7857401">
<ele>131.737</ele>
<time>2017-02-01T00:02:11.828Z</time>
</trkpt>
<trkpt lat="-26.8714625" lon="152.7858497">
<ele>132.727</ele>
<time>2017-02-01T00:02:14.883Z</time>
</trkpt>
<trkpt lat="-26.8711223" lon="152.7859084">
<ele>132.980</ele>
<time>2017-02-01T00:02:16.887Z</time>
</trkpt>
<trkpt lat="-26.8707829" lon="152.7859462">
<ele>132.997</ele>
<time>2017-02-01T00:02:18.867Z</time>
</trkpt>
<trkpt lat="-26.8704435" lon="152.7859701">
<ele>133.245</ele>
<time>2017-02-01T00:02:20.833Z</time>
</trkpt>
<trkpt lat="-26.8699383" lon="152.7860052">
<ele>133.480</ele>
<time>2017-02-01T00:02:23.747Z</time>
</trkpt>
<trkpt lat="-26.8695943" lon="152.7860539">
<ele>133.374</ele>
<time>2017-02-01T00:02:25.767Z</time>
</trkpt>
<trkpt lat="-26.8690565" lon="152.7862148">
<ele>133.213</ele>
<time>2017-02-01T00:02:29.032Z</time>
</trkpt>
<trkpt lat="-26.8685370" lon="152.7864250">
<ele>133.306</ele>
<time>2017-02-01T00:02:32.164Z</time>
</trkpt>
<trkpt lat="-26.8682012" lon="152.7865393">
<ele>133.508</ele>
<time>2017-02-01T00:02:34.091Z</time>
</trkpt>
<trkpt lat="-26.8677135" lon="152.7865080">
<ele>133.551</ele>
<time>2017-02-01T00:02:36.722Z</time>
</trkpt>
<trkpt lat="-26.8673254" lon="152.7862593">
<ele>133.326</ele>
<time>2017-02-01T00:02:39.215Z</time>
</trkpt>
<trkpt lat="-26.8670580" lon="152.7858737">
<ele>132.941</ele>
<time>2017-02-01T00:02:41.797Z</time>
</trkpt>
<trkpt lat="-26.8669270" lon="152.7853835">
<ele>132.886</ele>
<time>2017-02-01T00:02:44.763Z</time>
</trkpt>
<trkpt lat="-26.8668428" lon="152.7848697">
<ele>133.616</ele>
<time>2017-02-01T00:02:47.958Z</time>
</trkpt>
<trkpt lat="-26.8667820" lon="152.7845264">
<ele>134.890</ele>
<time>2017-02-01T00:02:50.033Z</time>
</trkpt>
<trkpt lat="-26.8667280" lon="152.7841810">
<ele>136.025</ele>
<time>2017-02-01T00:02:52.078Z</time>
</trkpt>
<trkpt lat="-26.8666686" lon="152.7838203">
<ele>136.679</ele>
<time>2017-02-01T00:02:54.186Z</time>
</trkpt>
<trkpt lat="-26.8666132" lon="152.7834676">
<ele>136.955</ele>
<time>2017-02-01T00:02:56.222Z</time>
</trkpt>
<trkpt lat="-26.8664482" lon="152.7829866">
<ele>137.277</ele>
<time>2017-02-01T00:02:59.097Z</time>
</trkpt>
<trkpt lat="-26.8662821" lon="152.7826807">
<ele>138.027</ele>
<time>2017-02-01T00:03:01.056Z</time>
</trkpt>
<trkpt lat="-26.8661366" lon="152.7823640">
<ele>138.993</ele>
<time>2017-02-01T00:03:03.019Z</time>
</trkpt>
<trkpt lat="-26.8660013" lon="152.7818709">
<ele>139.633</ele>
<time>2017-02-01T00:03:05.900Z</time>
</trkpt>
<trkpt lat="-26.8660353" lon="152.7812624">
<ele>139.812</ele>
<time>2017-02-01T00:03:09.312Z</time>
</trkpt>
<trkpt lat="-26.8660594" lon="152.7808568">
<ele>139.830</ele>
<time>2017-02-01T00:03:11.631Z</time>
</trkpt>
<trkpt lat="-26.8660952" lon="152.7802031">
<ele>140.270</ele>
<time>2017-02-01T00:03:15.207Z</time>
</trkpt>
<trkpt lat="-26.8660784" lon="152.7797804">
<ele>141.323</ele>
<time>2017-02-01T00:03:17.319Z</time>
</trkpt>
<trkpt lat="-26.8659922" lon="152.7791920">
<ele>142.433</ele>
<time>2017-02-01T00:03:20.204Z</time>
</trkpt>
<trkpt lat="-26.8659106" lon="152.7786321">
<ele>143.177</ele>
<time>2017-02-01T00:03:22.950Z</time>
</trkpt>
<trkpt lat="-26.8658172" lon="152.7780857">
<ele>143.627</ele>
<time>2017-02-01T00:03:25.696Z</time>
</trkpt>
<trkpt lat="-26.8657160" lon="152.7775456">
<ele>143.971</ele>
<time>2017-02-01T00:03:28.524Z</time>
</trkpt>
<trkpt lat="-26.8656202" lon="152.7769991">
<ele>144.369</ele>
<time>2017-02-01T00:03:31.474Z</time>
</trkpt>
<trkpt lat="-26.8655650" lon="152.7766604">
<ele>145.069</ele>
<time>2017-02-01T00:03:33.310Z</time>
</trkpt>
<trkpt lat="-26.8655216" lon="152.7763090">
<ele>146.489</ele>
<time>2017-02-01T00:03:35.214Z</time>
</trkpt>
<trkpt lat="-26.8654512" lon="152.7759744">
<ele>148.615</ele>
<time>2017-02-01T00:03:37.069Z</time>
</trkpt>
<trkpt lat="-26.8652845" lon="152.7754664">
<ele>150.671</ele>
<time>2017-02-01T00:03:40.064Z</time>
</trkpt>
<trkpt lat="-26.8651349" lon="152.7751315">
<ele>152.136</ele>
<time>2017-02-01T00:03:42.165Z</time>
</trkpt>
<trkpt lat="-26.8649728" lon="152.7747992">
<ele>153.103</ele>
<time>2017-02-01T00:03:44.294Z</time>
</trkpt>
<trkpt lat="-26.8648278" lon="152.7744878">
<ele>153.757</ele>
<time>2017-02-01T00:03:46.267Z</time>
</trkpt>
<trkpt lat="-26.8646055" lon="152.7740382">
<ele>154.177</ele>
<time>2017-02-01T00:03:49.095Z</time>
</trkpt>
<trkpt lat="-26.8644662" lon="152.7737735">
<ele>154.415</ele>
<time>2017-02-01T00:03:50.767Z</time>
</trkpt>
<trkpt lat="-26.8643436" lon="152.7735240">
<ele>154.318</ele>
<time>2017-02-01T00:03:52.338Z</time>
</trkpt>
<trkpt lat="-26.8642917" lon="152.7732213">
<ele>153.813</ele>
<time>2017-02-01T00:03:54.101Z</time>
</trkpt>
<trkpt lat="-26.8642850" lon="152.7727364">
<ele>153.228</ele>
<time>2017-02-01T00:03:56.980Z</time>
</trkpt>
<trkpt lat="-26.8642678" lon="152.7724172">
<ele>153.375</ele>
<time>2017-02-01T00:03:59.048Z</time>
</trkpt>
<trkpt lat="-26.8642458" lon="152.7721061">
<ele>154.576</ele>
<time>2017-02-01T00:04:01.134Z</time>
</trkpt>
<trkpt lat="-26.8642080" lon="152.7718049">
<ele>156.159</ele>
<time>2017-02-01T00:04:03.109Z</time>
</trkpt>
<trkpt lat="-26.8640702" lon="152.7713726">
<ele>157.342</ele>
<time>2017-02-01T00:04:06.031Z</time>
</trkpt>
<trkpt lat="-26.8637940" lon="152.7709784">
<ele>157.947</ele>
<time>2017-02-01T00:04:09.178Z</time>
</trkpt>
<trkpt lat="-26.8635719" lon="152.7707701">
<ele>158.161</ele>
<time>2017-02-01T00:04:11.267Z</time>
</trkpt>
<trkpt lat="-26.8632783" lon="152.7703883">
<ele>158.421</ele>
<time>2017-02-01T00:04:14.499Z</time>
</trkpt>
<trkpt lat="-26.8629146" lon="152.7701814">
<ele>159.226</ele>
<time>2017-02-01T00:04:17.300Z</time>
</trkpt>
<trkpt lat="-26.8626670" lon="152.7700184">
<ele>160.720</ele>
<time>2017-02-01T00:04:19.210Z</time>
</trkpt>
<trkpt lat="-26.8623267" lon="152.7697327">
<ele>162.276</ele>
<time>2017-02-01T00:04:22.061Z</time>
</trkpt>
<trkpt lat="-26.8620616" lon="152.7693528">
<ele>163.204</ele>
<time>2017-02-01T00:04:25.027Z</time>
</trkpt>
<trkpt lat="-26.8618482" lon="152.7691495">
<ele>163.501</ele>
<time>2017-02-01T00:04:26.995Z</time>
</trkpt>
<trkpt lat="-26.8615914" lon="152.7689504">
<ele>163.997</ele>
<time>2017-02-01T00:04:29.195Z</time>
</trkpt>
<trkpt lat="-26.8613424" lon="152.7687316">
<ele>165.804</ele>
<time>2017-02-01T00:04:31.446Z</time>
</trkpt>
<trkpt lat="-26.8609747" lon="152.7684027">
<ele>169.172</ele>
<time>2017-02-01T00:04:34.733Z</time>
</trkpt>
<trkpt lat="-26.8605825" lon="152.7681888">
<ele>173.561</ele>
<time>2017-02-01T00:04:37.559Z</time>
</trkpt>
<trkpt lat="-26.8601381" lon="152.7680624">
<ele>178.339</ele>
<time>2017-02-01T00:04:40.442Z</time>
</trkpt>
<trkpt lat="-26.8598567" lon="152.7679956">
<ele>182.733</ele>
<time>2017-02-01T00:04:42.292Z</time>
</trkpt>
<trkpt lat="-26.8595158" lon="152.7678480">
<ele>186.310</ele>
<time>2017-02-01T00:04:44.676Z</time>
</trkpt>
<trkpt lat="-26.8592081" lon="152.7675841">
<ele>189.511</ele>
<time>2017-02-01T00:04:47.234Z</time>
</trkpt>
<trkpt lat="-26.8589183" lon="152.7672632">
<ele>193.276</ele>
<time>2017-02-01T00:04:50.029Z</time>
</trkpt>
<trkpt lat="-26.8587083" lon="152.7670946">
<ele>198.046</ele>
<time>2017-02-01T00:04:51.909Z</time>
</trkpt>
<trkpt lat="-26.8584971" lon="152.7669295">
<ele>203.285</ele>
<time>2017-02-01T00:04:53.938Z</time>
</trkpt>
<trkpt lat="-26.8582123" lon="152.7667312">
<ele>208.031</ele>
<time>2017-02-01T00:04:56.560Z</time>
</trkpt>
<trkpt lat="-26.8579476" lon="152.7666850">
<ele>211.590</ele>
<time>2017-02-01T00:04:58.616Z</time>
</trkpt>
<trkpt lat="-26.8577346" lon="152.7665525">
<ele>213.664</ele>
<time>2017-02-01T00:05:00.436Z</time>
</trkpt>
<trkpt lat="-26.8577168" lon="152.7663113">
<ele>214.404</ele>
<time>2017-02-01T00:05:02.045Z</time>
</trkpt>
<trkpt lat="-26.8577507" lon="152.7659873">
<ele>214.351</ele>
<time>2017-02-01T00:05:04.392Z</time>
</trkpt>
<trkpt lat="-26.8575946" lon="152.7656238">
<ele>214.145</ele>
<time>2017-02-01T00:05:07.720Z</time>
</trkpt>
<trkpt lat="-26.8574032" lon="152.7654822">
<ele>214.250</ele>
<time>2017-02-01T00:05:10.274Z</time>
</trkpt>
<trkpt lat="-26.8570776" lon="152.7652718">
<ele>214.933</ele>
<time>2017-02-01T00:05:14.721Z</time>
</trkpt>
<trkpt lat="-26.8567904" lon="152.7649735">
<ele>216.492</ele>
<time>2017-02-01T00:05:18.300Z</time>
</trkpt>
<trkpt lat="-26.8565886" lon="152.7645544">
<ele>219.166</ele>
<time>2017-02-01T00:05:21.963Z</time>
</trkpt>
<trkpt lat="-26.8564351" lon="152.7641177">
<ele>222.640</ele>
<time>2017-02-01T00:05:25.380Z</time>
</trkpt>
<trkpt lat="-26.8563777" lon="152.7638374">
<ele>226.564</ele>
<time>2017-02-01T00:05:27.335Z</time>
</trkpt>
<trkpt lat="-26.8562881" lon="152.7635728">
<ele>230.870</ele>
<time>2017-02-01T00:05:29.208Z</time>
</trkpt>
<trkpt lat="-26.8560620" lon="152.7632441">
<ele>235.111</ele>
<time>2017-02-01T00:05:31.881Z</time>
</trkpt>
<trkpt lat="-26.8559449" lon="152.7630543">
<ele>239.045</ele>
<time>2017-02-01T00:05:33.396Z</time>
</trkpt>
<trkpt lat="-26.8558544" lon="152.7627273">
<ele>242.549</ele>
<time>2017-02-01T00:05:35.718Z</time>
</trkpt>
<trkpt lat="-26.8560558" lon="152.7622784">
<ele>245.247</ele>
<time>2017-02-01T00:05:39.314Z</time>
</trkpt>
<trkpt lat="-26.8563829" lon="152.7619054">
<ele>247.911</ele>
<time>2017-02-01T00:05:43.600Z</time>
</trkpt>
<trkpt lat="-26.8565736" lon="152.7616405">
<ele>252.033</ele>
<time>2017-02-01T00:05:46.350Z</time>
</trkpt>
<trkpt lat="-26.8568481" lon="152.7612859">
<ele>256.985</ele>
<time>2017-02-01T00:05:49.540Z</time>
</trkpt>
<trkpt lat="-26.8569432" lon="152.7609676">
<ele>260.729</ele>
<time>2017-02-01T00:05:51.569Z</time>
</trkpt>
<trkpt lat="-26.8568916" lon="152.7607506">
<ele>262.629</ele>
<time>2017-02-01T00:05:52.941Z</time>
</trkpt>
<trkpt lat="-26.8568766" lon="152.7605457">
<ele>263.729</ele>
<time>2017-02-01T00:05:54.216Z</time>
</trkpt>
<trkpt lat="-26.8570361" lon="152.7602724">
<ele>265.033</ele>
<time>2017-02-01T00:05:56.488Z</time>
</trkpt>
<trkpt lat="-26.8572627" lon="152.7600724">
<ele>267.291</ele>
<time>2017-02-01T00:05:59.049Z</time>
</trkpt>
<trkpt lat="-26.8575956" lon="152.7598377">
<ele>270.813</ele>
<time>2017-02-01T00:06:03.182Z</time>
</trkpt>
<trkpt lat="-26.8577443" lon="152.7596906">
<ele>275.273</ele>
<time>2017-02-01T00:06:05.357Z</time>
</trkpt>
<trkpt lat="-26.8578515" lon="152.7595527">
<ele>279.683</ele>
<time>2017-02-01T00:06:06.995Z</time>
</trkpt>
<trkpt lat="-26.8577984" lon="152.7593100">
<ele>283.000</ele>
<time>2017-02-01T00:06:08.816Z</time>
</trkpt>
<trkpt lat="-26.8575035" lon="152.7591423">
<ele>285.466</ele>
<time>2017-02-01T00:06:11.534Z</time>
</trkpt>
<trkpt lat="-26.8574018" lon="152.7590221">
<ele>288.174</ele>
<time>2017-02-01T00:06:12.928Z</time>
</trkpt>
<trkpt lat="-26.8573875" lon="152.7588890">
<ele>291.051</ele>
<time>2017-02-01T00:06:14.178Z</time>
</trkpt>
<trkpt lat="-26.8575636" lon="152.7585441">
<ele>293.589</ele>
<time>2017-02-01T00:06:18.624Z</time>
</trkpt>
<trkpt lat="-26.8577255" lon="152.7582646">
<ele>296.491</ele>
<time>2017-02-01T00:06:22.354Z</time>
</trkpt>
<trkpt lat="-26.8577554" lon="152.7580897">
<ele>300.282</ele>
<time>2017-02-01T00:06:24.644Z</time>
</trkpt>
<trkpt lat="-26.8578162" lon="152.7577999">
<ele>304.205</ele>
<time>2017-02-01T00:06:27.848Z</time>
</trkpt>
<trkpt lat="-26.8579679" lon="152.7574050">
<ele>307.772</ele>
<time>2017-02-01T00:06:31.867Z</time>
</trkpt>
<trkpt lat="-26.8580347" lon="152.7571889">
<ele>311.592</ele>
<time>2017-02-01T00:06:34.207Z</time>
</trkpt>
<trkpt lat="-26.8580835" lon="152.7569546">
<ele>315.703</ele>
<time>2017-02-01T00:06:36.463Z</time>
</trkpt>
<trkpt lat="-26.8579968" lon="152.7566503">
<ele>319.289</ele>
<time>2017-02-01T00:06:39.215Z</time>
</trkpt>
<trkpt lat="-26.8580101" lon="152.7563528">
<ele>322.282</ele>
<time>2017-02-01T00:06:41.704Z</time>
</trkpt>
<trkpt lat="-26.8579365" lon="152.7561698">
<ele>325.450</ele>
<time>2017-02-01T00:06:43.474Z</time>
</trkpt>
<trkpt lat="-26.8577546" lon="152.7560748">
<ele>328.729</ele>
<time>2017-02-01T00:06:45.517Z</time>
</trkpt>
<trkpt lat="-26.8574349" lon="152.7561658">
<ele>331.593</ele>
<time>2017-02-01T00:06:49.178Z</time>
</trkpt>
<trkpt lat="-26.8572463" lon="152.7562301">
<ele>334.527</ele>
<time>2017-02-01T00:06:51.585Z</time>
</trkpt>
<trkpt lat="-26.8570753" lon="152.7562511">
<ele>337.865</ele>
<time>2017-02-01T00:06:53.566Z</time>
</trkpt>
<trkpt lat="-26.8570741" lon="152.7561473">
<ele>340.763</ele>
<time>2017-02-01T00:06:54.612Z</time>
</trkpt>
<trkpt lat="-26.8571968" lon="152.7561307">
<ele>342.671</ele>
<time>2017-02-01T00:06:55.926Z</time>
</trkpt>
<trkpt lat="-26.8574714" lon="152.7560221">
<ele>344.024</ele>
<time>2017-02-01T00:06:59.485Z</time>
</trkpt>
<trkpt lat="-26.8576161" lon="152.7558752">
<ele>345.665</ele>
<time>2017-02-01T00:07:03.715Z</time>
</trkpt>
<trkpt lat="-26.8577577" lon="152.7557339">
<ele>348.199</ele>
<time>2017-02-01T00:07:06.795Z</time>
</trkpt>
<trkpt lat="-26.8580291" lon="152.7557603">
<ele>351.288</ele>
<time>2017-02-01T00:07:09.831Z</time>
</trkpt>
<trkpt lat="-26.8583145" lon="152.7557630">
<ele>354.378</ele>
<time>2017-02-01T00:07:12.794Z</time>
</trkpt>
<trkpt lat="-26.8585890" lon="152.7557014">
<ele>358.133</ele>
<time>2017-02-01T00:07:15.797Z</time>
</trkpt>
<trkpt lat="-26.8587151" lon="152.7557634">
<ele>363.082</ele>
<time>2017-02-01T00:07:17.274Z</time>
</trkpt>
<trkpt lat="-26.8586720" lon="152.7561853">
<ele>367.692</ele>
<time>2017-02-01T00:07:21.357Z</time>
</trkpt>
<trkpt lat="-26.8586383" lon="152.7564267">
<ele>370.961</ele>
<time>2017-02-01T00:07:24.009Z</time>
</trkpt>
<trkpt lat="-26.8587567" lon="152.7567069">
<ele>373.766</ele>
<time>2017-02-01T00:07:27.209Z</time>
</trkpt>
<trkpt lat="-26.8588694" lon="152.7570946">
<ele>376.620</ele>
<time>2017-02-01T00:07:31.023Z</time>
</trkpt>
<trkpt lat="-26.8589839" lon="152.7574958">
<ele>379.777</ele>
<time>2017-02-01T00:07:34.543Z</time>
</trkpt>
<trkpt lat="-26.8590424" lon="152.7578353">
<ele>383.550</ele>
<time>2017-02-01T00:07:37.108Z</time>
</trkpt>
<trkpt lat="-26.8590864" lon="152.7579474">
<ele>387.307</ele>
<time>2017-02-01T00:07:38.072Z</time>
</trkpt>
<trkpt lat="-26.8592351" lon="152.7578908">
<ele>390.172</ele>
<time>2017-02-01T00:07:39.458Z</time>
</trkpt>
<trkpt lat="-26.8593296" lon="152.7576866">
<ele>392.185</ele>
<time>2017-02-01T00:07:41.651Z</time>
</trkpt>
<trkpt lat="-26.8594468" lon="152.7572700">
<ele>394.296</ele>
<time>2017-02-01T00:07:47.696Z</time>
</trkpt>
<trkpt lat="-26.8594733" lon="152.7569790">
<ele>397.977</ele>
<time>2017-02-01T00:07:50.248Z</time>
</trkpt>
<trkpt lat="-26.8594220" lon="152.7565114">
<ele>403.722</ele>
<time>2017-02-01T00:07:53.600Z</time>
</trkpt>
<trkpt lat="-26.8594116" lon="152.7560550">
<ele>410.383</ele>
<time>2017-02-01T00:07:56.754Z</time>
</trkpt>
<trkpt lat="-26.8595448" lon="152.7555929">
<ele>416.696</ele>
<time>2017-02-01T00:08:00.054Z</time>
</trkpt>
<trkpt lat="-26.8596565" lon="152.7553073">
<ele>422.489</ele>
<time>2017-02-01T00:08:02.125Z</time>
</trkpt>
<trkpt lat="-26.8598532" lon="152.7549433">
<ele>427.711</ele>
<time>2017-02-01T00:08:04.973Z</time>
</trkpt>
<trkpt lat="-26.8600258" lon="152.7547450">
<ele>432.219</ele>
<time>2017-02-01T00:08:06.925Z</time>
</trkpt>
<trkpt lat="-26.8601255" lon="152.7545701">
<ele>435.872</ele>
<time>2017-02-01T00:08:08.527Z</time>
</trkpt>
<trkpt lat="-26.8601426" lon="152.7544373">
<ele>438.449</ele>
<time>2017-02-01T00:08:09.661Z</time>
</trkpt>
<trkpt lat="-26.8599145" lon="152.7542448">
<ele>440.020</ele>
<time>2017-02-01T00:08:13.011Z</time>
</trkpt>
<trkpt lat="-26.8597033" lon="152.7541218">
<ele>441.568</ele>
<time>2017-02-01T00:08:15.791Z</time>
</trkpt>
<trkpt lat="-26.8592852" lon="152.7540042">
<ele>444.015</ele>
<time>2017-02-01T00:08:19.382Z</time>
</trkpt>
<trkpt lat="-26.8589928" lon="152.7539382">
<ele>447.343</ele>
<time>2017-02-01T00:08:21.512Z</time>
</trkpt>
<trkpt lat="-26.8585975" lon="152.7537643">
<ele>450.756</ele>
<time>2017-02-01T00:08:24.462Z</time>
</trkpt>
<trkpt lat="-26.8582912" lon="152.7535370">
<ele>454.011</ele>
<time>2017-02-01T00:08:27.197Z</time>
</trkpt>
<trkpt lat="-26.8579764" lon="152.7533193">
<ele>457.994</ele>
<time>2017-02-01T00:08:30.167Z</time>
</trkpt>
<trkpt lat="-26.8577245" lon="152.7531563">
<ele>462.997</ele>
<time>2017-02-01T00:08:32.709Z</time>
</trkpt>
<trkpt lat="-26.8576001" lon="152.7529834">
<ele>468.018</ele>
<time>2017-02-01T00:08:34.554Z</time>
</trkpt>
<trkpt lat="-26.8575723" lon="152.7527811">
<ele>472.121</ele>
<time>2017-02-01T00:08:36.414Z</time>
</trkpt>
<trkpt lat="-26.8577300" lon="152.7523300">
<ele>474.987</ele>
<time>2017-02-01T00:08:40.711Z</time>
</trkpt>
<trkpt lat="-26.8578881" lon="152.7519991">
<ele>476.965</ele>
<time>2017-02-01T00:08:43.223Z</time>
</trkpt>
<trkpt lat="-26.8581616" lon="152.7515687">
<ele>478.539</ele>
<time>2017-02-01T00:08:46.335Z</time>
</trkpt>
<trkpt lat="-26.8582896" lon="152.7512922">
<ele>479.656</ele>
<time>2017-02-01T00:08:48.176Z</time>
</trkpt>
<trkpt lat="-26.8583002" lon="152.7509850">
<ele>480.239</ele>
<time>2017-02-01T00:08:50.097Z</time>
</trkpt>
<trkpt lat="-26.8581419" lon="152.7505969">
<ele>480.608</ele>
<time>2017-02-01T00:08:52.738Z</time>
</trkpt>
<trkpt lat="-26.8579344" lon="152.7500212">
<ele>481.135</ele>
<time>2017-02-01T00:08:56.309Z</time>
</trkpt>
<trkpt lat="-26.8577579" lon="152.7496108">
<ele>482.061</ele>
<time>2017-02-01T00:08:59.015Z</time>
</trkpt>
<trkpt lat="-26.8576127" lon="152.7494036">
<ele>483.545</ele>
<time>2017-02-01T00:09:00.727Z</time>
</trkpt>
<trkpt lat="-26.8573049" lon="152.7490898">
<ele>485.356</ele>
<time>2017-02-01T00:09:03.919Z</time>
</trkpt>
<trkpt lat="-26.8569943" lon="152.7489062">
<ele>486.913</ele>
<time>2017-02-01T00:09:06.749Z</time>
</trkpt>
<trkpt lat="-26.8566389" lon="152.7487108">
<ele>487.978</ele>
<time>2017-02-01T00:09:09.889Z</time>
</trkpt>
<trkpt lat="-26.8563763" lon="152.7485853">
<ele>489.355</ele>
<time>2017-02-01T00:09:11.987Z</time>
</trkpt>
<trkpt lat="-26.8561068" lon="152.7485310">
<ele>491.786</ele>
<time>2017-02-01T00:09:13.919Z</time>
</trkpt>
<trkpt lat="-26.8556712" lon="152.7484431">
<ele>494.691</ele>
<time>2017-02-01T00:09:16.943Z</time>
</trkpt>
<trkpt lat="-26.8553745" lon="152.7483943">
<ele>497.501</ele>
<time>2017-02-01T00:09:18.952Z</time>
</trkpt>
<trkpt lat="-26.8549900" lon="152.7481593">
<ele>500.641</ele>
<time>2017-02-01T00:09:21.942Z</time>
</trkpt>
<trkpt lat="-26.8547428" lon="152.7479710">
<ele>504.461</ele>
<time>2017-02-01T00:09:23.981Z</time>
</trkpt>
<trkpt lat="-26.8545005" lon="152.7477374">
<ele>508.476</ele>
<time>2017-02-01T00:09:26.059Z</time>
</trkpt>
<trkpt lat="-26.8542529" lon="152.7475085">
<ele>511.679</ele>
<time>2017-02-01T00:09:28.059Z</time>
</trkpt>
<trkpt lat="-26.8538795" lon="152.7471493">
<ele>513.686</ele>
<time>2017-02-01T00:09:31.089Z</time>
</trkpt>
<trkpt lat="-26.8535063" lon="152.7468083">
<ele>514.971</ele>
<time>2017-02-01T00:09:34.123Z</time>
</trkpt>
<trkpt lat="-26.8531967" lon="152.7464559">
<ele>515.818</ele>
<time>2017-02-01T00:09:37.026Z</time>
</trkpt>
<trkpt lat="-26.8530229" lon="152.7459616">
<ele>515.959</ele>
<time>2017-02-01T00:09:40.205Z</time>
</trkpt>
<trkpt lat="-26.8529682" lon="152.7455995">
<ele>515.320</ele>
<time>2017-02-01T00:09:42.398Z</time>
</trkpt>
<trkpt lat="-26.8528766" lon="152.7451454">
<ele>514.617</ele>
<time>2017-02-01T00:09:45.212Z</time>
</trkpt>
<trkpt lat="-26.8527610" lon="152.7448369">
<ele>514.937</ele>
<time>2017-02-01T00:09:47.217Z</time>
</trkpt>
<trkpt lat="-26.8525981" lon="152.7445111">
<ele>516.844</ele>
<time>2017-02-01T00:09:49.398Z</time>
</trkpt>
<trkpt lat="-26.8522288" lon="152.7442125">
<ele>519.868</ele>
<time>2017-02-01T00:09:52.398Z</time>
</trkpt>
<trkpt lat="-26.8518695" lon="152.7439737">
<ele>523.427</ele>
<time>2017-02-01T00:09:55.246Z</time>
</trkpt>
<trkpt lat="-26.8516568" lon="152.7437843">
<ele>527.445</ele>
<time>2017-02-01T00:09:57.098Z</time>
</trkpt>
<trkpt lat="-26.8514315" lon="152.7433265">
<ele>531.209</ele>
<time>2017-02-01T00:10:00.143Z</time>
</trkpt>
<trkpt lat="-26.8512026" lon="152.7428364">
<ele>533.621</ele>
<time>2017-02-01T00:10:03.228Z</time>
</trkpt>
<trkpt lat="-26.8509736" lon="152.7425954">
<ele>534.537</ele>
<time>2017-02-01T00:10:05.208Z</time>
</trkpt>
<trkpt lat="-26.8507244" lon="152.7423852">
<ele>534.468</ele>
<time>2017-02-01T00:10:07.164Z</time>
</trkpt>
<trkpt lat="-26.8502893" lon="152.7421415">
<ele>533.944</ele>
<time>2017-02-01T00:10:10.150Z</time>
</trkpt>
<trkpt lat="-26.8497763" lon="152.7420825">
<ele>533.537</ele>
<time>2017-02-01T00:10:13.224Z</time>
</trkpt>
<trkpt lat="-26.8492849" lon="152.7421516">
<ele>533.651</ele>
<time>2017-02-01T00:10:16.182Z</time>
</trkpt>
<trkpt lat="-26.8489676" lon="152.7422099">
<ele>534.287</ele>
<time>2017-02-01T00:10:18.168Z</time>
</trkpt>
<trkpt lat="-26.8485327" lon="152.7423982">
<ele>535.096</ele>
<time>2017-02-01T00:10:21.165Z</time>
</trkpt>
<trkpt lat="-26.8481778" lon="152.7426432">
<ele>535.467</ele>
<time>2017-02-01T00:10:24.086Z</time>
</trkpt>
<trkpt lat="-26.8479836" lon="152.7427944">
<ele>535.170</ele>
<time>2017-02-01T00:10:26.126Z</time>
</trkpt>
<trkpt lat="-26.8477561" lon="152.7428735">
<ele>534.683</ele>
<time>2017-02-01T00:10:28.608Z</time>
</trkpt>
<trkpt lat="-26.8476423" lon="152.7428815">
<ele>534.658</ele>
<time>2017-02-01T00:10:30.209Z</time>
</trkpt>
<trkpt lat="-26.8475068" lon="152.7429534">
<ele>535.271</ele>
<time>2017-02-01T00:10:32.974Z</time>
</trkpt>
<trkpt lat="-26.8473666" lon="152.7431072">
<ele>536.243</ele>
<time>2017-02-01T00:10:36.231Z</time>
</trkpt>
<trkpt lat="-26.8472217" lon="152.7432182">
<ele>537.333</ele>
<time>2017-02-01T00:10:38.364Z</time>
</trkpt>
<trkpt lat="-26.8470124" lon="152.7432484">
<ele>538.370</ele>
<time>2017-02-01T00:10:40.486Z</time>
</trkpt>
<trkpt lat="-26.8466330" lon="152.7431470">
<ele>539.101</ele>
<time>2017-02-01T00:10:43.786Z</time>
</trkpt>
<trkpt lat="-26.8462544" lon="152.7430334">
<ele>539.471</ele>
<time>2017-02-01T00:10:46.870Z</time>
</trkpt>
<trkpt lat="-26.8459190" lon="152.7429375">
<ele>539.734</ele>
<time>2017-02-01T00:10:49.735Z</time>
</trkpt>
<trkpt lat="-26.8457075" lon="152.7428518">
<ele>540.107</ele>
<time>2017-02-01T00:10:51.737Z</time>
</trkpt>
<trkpt lat="-26.8454656" lon="152.7425817">
<ele>540.570</ele>
<time>2017-02-01T00:10:54.768Z</time>
</trkpt>
<trkpt lat="-26.8453470" lon="152.7422932">
<ele>541.023</ele>
<time>2017-02-01T00:10:57.051Z</time>
</trkpt>
<trkpt lat="-26.8451188" lon="152.7419438">
<ele>541.474</ele>
<time>2017-02-01T00:11:00.029Z</time>
</trkpt>
<trkpt lat="-26.8449083" lon="152.7417734">
<ele>541.906</ele>
<time>2017-02-01T00:11:02.067Z</time>
</trkpt>
<trkpt lat="-26.8446941" lon="152.7416460">
<ele>542.354</ele>
<time>2017-02-01T00:11:04.093Z</time>
</trkpt>
<trkpt lat="-26.8444876" lon="152.7413391">
<ele>542.811</ele>
<time>2017-02-01T00:11:07.144Z</time>
</trkpt>
<trkpt lat="-26.8445020" lon="152.7409219">
<ele>543.226</ele>
<time>2017-02-01T00:11:10.500Z</time>
</trkpt>
<trkpt lat="-26.8445153" lon="152.7404676">
<ele>543.701</ele>
<time>2017-02-01T00:11:13.925Z</time>
</trkpt>
<trkpt lat="-26.8444225" lon="152.7402098">
<ele>544.268</ele>
<time>2017-02-01T00:11:15.778Z</time>
</trkpt>
<trkpt lat="-26.8441040" lon="152.7398526">
<ele>544.690</ele>
<time>2017-02-01T00:11:18.935Z</time>
</trkpt>
<trkpt lat="-26.8437461" lon="152.7395357">
<ele>545.056</ele>
<time>2017-02-01T00:11:22.008Z</time>
</trkpt>
<trkpt lat="-26.8434026" lon="152.7392310">
<ele>545.604</ele>
<time>2017-02-01T00:11:24.944Z</time>
</trkpt>
<trkpt lat="-26.8431707" lon="152.7390178">
<ele>545.573</ele>
<time>2017-02-01T00:11:26.888Z</time>
</trkpt>
<trkpt lat="-26.8427680" lon="152.7387278">
<ele>543.912</ele>
<time>2017-02-01T00:11:29.958Z</time>
</trkpt>
<trkpt lat="-26.8424729" lon="152.7386203">
<ele>540.708</ele>
<time>2017-02-01T00:11:31.983Z</time>
</trkpt>
<trkpt lat="-26.8420405" lon="152.7384796">
<ele>537.119</ele>
<time>2017-02-01T00:11:35.061Z</time>
</trkpt>
<trkpt lat="-26.8417886" lon="152.7383763">
<ele>534.345</ele>
<time>2017-02-01T00:11:37.166Z</time>
</trkpt>
<trkpt lat="-26.8414376" lon="152.7383590">
<ele>532.811</ele>
<time>2017-02-01T00:11:40.063Z</time>
</trkpt>
<trkpt lat="-26.8412121" lon="152.7384437">
<ele>532.210</ele>
<time>2017-02-01T00:11:41.990Z</time>
</trkpt>
<trkpt lat="-26.8409738" lon="152.7385615">
<ele>532.149</ele>
<time>2017-02-01T00:11:43.994Z</time>
</trkpt>
<trkpt lat="-26.8405419" lon="152.7386913">
<ele>532.359</ele>
<time>2017-02-01T00:11:47.438Z</time>
</trkpt>
<trkpt lat="-26.8402831" lon="152.7387740">
<ele>532.756</ele>
<time>2017-02-01T00:11:49.587Z</time>
</trkpt>
<trkpt lat="-26.8399149" lon="152.7389259">
<ele>533.209</ele>
<time>2017-02-01T00:11:53.091Z</time>
</trkpt>
<trkpt lat="-26.8397065" lon="152.7389635">
<ele>533.465</ele>
<time>2017-02-01T00:11:55.202Z</time>
</trkpt>
<trkpt lat="-26.8395161" lon="152.7389211">
<ele>533.227</ele>
<time>2017-02-01T00:11:57.096Z</time>
</trkpt>
<trkpt lat="-26.8393448" lon="152.7388098">
<ele>532.488</ele>
<time>2017-02-01T00:11:58.969Z</time>
</trkpt>
<trkpt lat="-26.8393657" lon="152.7383556">
<ele>531.703</ele>
<time>2017-02-01T00:12:02.738Z</time>
</trkpt>
<trkpt lat="-26.8393858" lon="152.7379504">
<ele>531.616</ele>
<time>2017-02-01T00:12:06.563Z</time>
</trkpt>
<trkpt lat="-26.8393425" lon="152.7377577">
<ele>532.819</ele>
<time>2017-02-01T00:12:08.292Z</time>
</trkpt>
<trkpt lat="-26.8391256" lon="152.7376007">
<ele>534.943</ele>
<time>2017-02-01T00:12:10.500Z</time>
</trkpt>
<trkpt lat="-26.8388812" lon="152.7375143">
<ele>537.084</ele>
<time>2017-02-01T00:12:12.592Z</time>
</trkpt>
<trkpt lat="-26.8386533" lon="152.7374189">
<ele>538.856</ele>
<time>2017-02-01T00:12:14.578Z</time>
</trkpt>
<trkpt lat="-26.8383058" lon="152.7372671">
<ele>540.067</ele>
<time>2017-02-01T00:12:17.585Z</time>
</trkpt>
<trkpt lat="-26.8381335" lon="152.7370632">
<ele>540.474</ele>
<time>2017-02-01T00:12:19.611Z</time>
</trkpt>
<trkpt lat="-26.8379804" lon="152.7368224">
<ele>540.273</ele>
<time>2017-02-01T00:12:21.778Z</time>
</trkpt>
<trkpt lat="-26.8377397" lon="152.7365287">
<ele>540.045</ele>
<time>2017-02-01T00:12:24.733Z</time>
</trkpt>
<trkpt lat="-26.8373888" lon="152.7364341">
<ele>540.477</ele>
<time>2017-02-01T00:12:27.757Z</time>
</trkpt>
<trkpt lat="-26.8371355" lon="152.7364851">
<ele>541.567</ele>
<time>2017-02-01T00:12:30.543Z</time>
</trkpt>
<trkpt lat="-26.8369029" lon="152.7365497">
<ele>542.486</ele>
<time>2017-02-01T00:12:33.542Z</time>
</trkpt>
<trkpt lat="-26.8367525" lon="152.7367048">
<ele>542.631</ele>
<time>2017-02-01T00:12:35.796Z</time>
</trkpt>
<trkpt lat="-26.8367063" lon="152.7368863">
<ele>542.227</ele>
<time>2017-02-01T00:12:37.477Z</time>
</trkpt>
<trkpt lat="-26.8368381" lon="152.7372135">
<ele>541.751</ele>
<time>2017-02-01T00:12:40.619Z</time>
</trkpt>
<trkpt lat="-26.8369171" lon="152.7374214">
<ele>541.557</ele>
<time>2017-02-01T00:12:42.554Z</time>
</trkpt>
<trkpt lat="-26.8369156" lon="152.7378044">
<ele>541.694</ele>
<time>2017-02-01T00:12:45.539Z</time>
</trkpt>
<trkpt lat="-26.8368996" lon="152.7380315">
<ele>541.815</ele>
<time>2017-02-01T00:12:47.134Z</time>
</trkpt>
<trkpt lat="-26.8368278" lon="152.7383254">
<ele>541.505</ele>
<time>2017-02-01T00:12:49.158Z</time>
</trkpt>
<trkpt lat="-26.8367320" lon="152.7386034">
<ele>540.676</ele>
<time>2017-02-01T00:12:51.229Z</time>
</trkpt>
<trkpt lat="-26.8365936" lon="152.7388659">
<ele>539.507</ele>
<time>2017-02-01T00:12:53.560Z</time>
</trkpt>
<trkpt lat="-26.8364375" lon="152.7392019">
<ele>538.371</ele>
<time>2017-02-01T00:12:57.054Z</time>
</trkpt>
<trkpt lat="-26.8363874" lon="152.7394025">
<ele>537.662</ele>
<time>2017-02-01T00:12:59.220Z</time>
</trkpt>
<trkpt lat="-26.8363112" lon="152.7396537">
<ele>537.491</ele>
<time>2017-02-01T00:13:01.967Z</time>
</trkpt>
<trkpt lat="-26.8361504" lon="152.7399281">
<ele>537.860</ele>
<time>2017-02-01T00:13:04.919Z</time>
</trkpt>
<trkpt lat="-26.8359744" lon="152.7399737">
<ele>539.179</ele>
<time>2017-02-01T00:13:06.586Z</time>
</trkpt>
<trkpt lat="-26.8356419" lon="152.7399350">
<ele>541.916</ele>
<time>2017-02-01T00:13:09.806Z</time>
</trkpt>
<trkpt lat="-26.8354397" lon="152.7398961">
<ele>545.719</ele>
<time>2017-02-01T00:13:11.855Z</time>
</trkpt>
<trkpt lat="-26.8351538" lon="152.7398962">
<ele>549.229</ele>
<time>2017-02-01T00:13:14.486Z</time>
</trkpt>
<trkpt lat="-26.8349600" lon="152.7401298">
<ele>550.958</ele>
<time>2017-02-01T00:13:16.833Z</time>
</trkpt>
<trkpt lat="-26.8348637" lon="152.7405219">
<ele>550.742</ele>
<time>2017-02-01T00:13:19.563Z</time>
</trkpt>
<trkpt lat="-26.8347729" lon="152.7409560">
<ele>550.466</ele>
<time>2017-02-01T00:13:22.460Z</time>
</trkpt>
<trkpt lat="-26.8346251" lon="152.7413851">
<ele>552.367</ele>
<time>2017-02-01T00:13:25.406Z</time>
</trkpt>
<trkpt lat="-26.8344373" lon="152.7417942">
<ele>556.319</ele>
<time>2017-02-01T00:13:28.600Z</time>
</trkpt>
<trkpt lat="-26.8343276" lon="152.7420702">
<ele>560.172</ele>
<time>2017-02-01T00:13:31.180Z</time>
</trkpt>
<trkpt lat="-26.8342354" lon="152.7422827">
<ele>562.918</ele>
<time>2017-02-01T00:13:33.295Z</time>
</trkpt>
<trkpt lat="-26.8341119" lon="152.7424397">
<ele>565.271</ele>
<time>2017-02-01T00:13:35.056Z</time>
</trkpt>
<trkpt lat="-26.8338052" lon="152.7425550">
<ele>567.894</ele>
<time>2017-02-01T00:13:37.917Z</time>
</trkpt>
<trkpt lat="-26.8335814" lon="152.7426320">
<ele>571.069</ele>
<time>2017-02-01T00:13:39.995Z</time>
</trkpt>
<trkpt lat="-26.8333769" lon="152.7427321">
<ele>574.366</ele>
<time>2017-02-01T00:13:42.047Z</time>
</trkpt>
<trkpt lat="-26.8330671" lon="152.7428493">
<ele>576.781</ele>
<time>2017-02-01T00:13:45.337Z</time>
</trkpt>
<trkpt lat="-26.8327762" lon="152.7429628">
<ele>578.504</ele>
<time>2017-02-01T00:13:48.935Z</time>
</trkpt>
<trkpt lat="-26.8326244" lon="152.7430356">
<ele>580.859</ele>
<time>2017-02-01T00:13:50.890Z</time>
</trkpt>
<trkpt lat="-26.8323821" lon="152.7431254">
<ele>583.846</ele>
<time>2017-02-01T00:13:53.878Z</time>
</trkpt>
<trkpt lat="-26.8321385" lon="152.7432394">
<ele>585.889</ele>
<time>2017-02-01T00:13:56.657Z</time>
</trkpt>
<trkpt lat="-26.8320537" lon="152.7434096">
<ele>586.020</ele>
<time>2017-02-01T00:13:58.318Z</time>
</trkpt>
<trkpt lat="-26.8320045" lon="152.7437357">
<ele>584.598</ele>
<time>2017-02-01T00:14:01.037Z</time>
</trkpt>
<trkpt lat="-26.8319880" lon="152.7439849">
<ele>582.030</ele>
<time>2017-02-01T00:14:03.149Z</time>
</trkpt>
<trkpt lat="-26.8318916" lon="152.7443302">
<ele>578.411</ele>
<time>2017-02-01T00:14:06.386Z</time>
</trkpt>
<trkpt lat="-26.8318268" lon="152.7445182">
<ele>573.815</ele>
<time>2017-02-01T00:14:08.114Z</time>
</trkpt>
<trkpt lat="-26.8319212" lon="152.7448312">
<ele>568.611</ele>
<time>2017-02-01T00:14:10.795Z</time>
</trkpt>
<trkpt lat="-26.8320208" lon="152.7451788">
<ele>563.389</ele>
<time>2017-02-01T00:14:13.531Z</time>
</trkpt>
<trkpt lat="-26.8320228" lon="152.7454388">
<ele>558.470</ele>
<time>2017-02-01T00:14:15.460Z</time>
</trkpt>
<trkpt lat="-26.8318815" lon="152.7458360">
<ele>553.877</ele>
<time>2017-02-01T00:14:18.678Z</time>
</trkpt>
<trkpt lat="-26.8316244" lon="152.7460864">
<ele>549.507</ele>
<time>2017-02-01T00:14:21.424Z</time>
</trkpt>
<trkpt lat="-26.8313994" lon="152.7461734">
<ele>545.322</ele>
<time>2017-02-01T00:14:23.127Z</time>
</trkpt>
<trkpt lat="-26.8311378" lon="152.7462600">
<ele>541.784</ele>
<time>2017-02-01T00:14:25.011Z</time>
</trkpt>
<trkpt lat="-26.8307015" lon="152.7464031">
<ele>539.324</ele>
<time>2017-02-01T00:14:28.289Z</time>
</trkpt>
<trkpt lat="-26.8303529" lon="152.7465739">
<ele>537.659</ele>
<time>2017-02-01T00:14:31.106Z</time>
</trkpt>
<trkpt lat="-26.8301566" lon="152.7467886">
<ele>536.491</ele>
<time>2017-02-01T00:14:33.042Z</time>
</trkpt>
<trkpt lat="-26.8299338" lon="152.7472259">
<ele>536.569</ele>
<time>2017-02-01T00:14:36.132Z</time>
</trkpt>
<trkpt lat="-26.8298281" lon="152.7475204">
<ele>539.310</ele>
<time>2017-02-01T00:14:38.187Z</time>
</trkpt>
<trkpt lat="-26.8297199" lon="152.7478141">
<ele>544.271</ele>
<time>2017-02-01T00:14:40.385Z</time>
</trkpt>
<trkpt lat="-26.8296634" lon="152.7480842">
<ele>548.871</ele>
<time>2017-02-01T00:14:42.389Z</time>
</trkpt>
<trkpt lat="-26.8295777" lon="152.7484770">
<ele>551.359</ele>
<time>2017-02-01T00:14:45.578Z</time>
</trkpt>
<trkpt lat="-26.8294939" lon="152.7487049">
<ele>551.792</ele>
<time>2017-02-01T00:14:47.520Z</time>
</trkpt>
<trkpt lat="-26.8294809" lon="152.7490736">
<ele>550.872</ele>
<time>2017-02-01T00:14:50.258Z</time>
</trkpt>
<trkpt lat="-26.8296286" lon="152.7494454">
<ele>549.580</ele>
<time>2017-02-01T00:14:52.934Z</time>
</trkpt>
<trkpt lat="-26.8299223" lon="152.7497939">
<ele>548.586</ele>
<time>2017-02-01T00:14:55.844Z</time>
</trkpt>
<trkpt lat="-26.8301345" lon="152.7500294">
<ele>547.574</ele>
<time>2017-02-01T00:14:57.923Z</time>
</trkpt>
<trkpt lat="-26.8304431" lon="152.7503695">
<ele>545.958</ele>
<time>2017-02-01T00:15:01.312Z</time>
</trkpt>
<trkpt lat="-26.8306775" lon="152.7506863">
<ele>543.219</ele>
<time>2017-02-01T00:15:04.253Z</time>
</trkpt>
<trkpt lat="-26.8307239" lon="152.7509679">
<ele>538.822</ele>
<time>2017-02-01T00:15:06.161Z</time>
</trkpt>
<trkpt lat="-26.8306368" lon="152.7515028">
<ele>533.103</ele>
<time>2017-02-01T00:15:09.503Z</time>
</trkpt>
<trkpt lat="-26.8305914" lon="152.7518552">
<ele>527.175</ele>
<time>2017-02-01T00:15:11.912Z</time>
</trkpt>
<trkpt lat="-26.8305272" lon="152.7522322">
<ele>521.712</ele>
<time>2017-02-01T00:15:14.913Z</time>
</trkpt>
<trkpt lat="-26.8303612" lon="152.7524594">
<ele>516.418</ele>
<time>2017-02-01T00:15:17.335Z</time>
</trkpt>
<trkpt lat="-26.8301710" lon="152.7527377">
<ele>511.311</ele>
<time>2017-02-01T00:15:20.162Z</time>
</trkpt>
<trkpt lat="-26.8300454" lon="152.7529323">
<ele>507.620</ele>
<time>2017-02-01T00:15:21.997Z</time>
</trkpt>
<trkpt lat="-26.8298171" lon="152.7532470">
<ele>505.983</ele>
<time>2017-02-01T00:15:24.882Z</time>
</trkpt>
<trkpt lat="-26.8297057" lon="152.7536468">
<ele>504.996</ele>
<time>2017-02-01T00:15:27.454Z</time>
</trkpt>
<trkpt lat="-26.8296864" lon="152.7539850">
<ele>502.830</ele>
<time>2017-02-01T00:15:29.362Z</time>
</trkpt>
<trkpt lat="-26.8296409" lon="152.7543362">
<ele>498.874</ele>
<time>2017-02-01T00:15:31.277Z</time>
</trkpt>
<trkpt lat="-26.8295136" lon="152.7546992">
<ele>494.172</ele>
<time>2017-02-01T00:15:33.413Z</time>
</trkpt>
<trkpt lat="-26.8293238" lon="152.7550107">
<ele>490.483</ele>
<time>2017-02-01T00:15:35.601Z</time>
</trkpt>
<trkpt lat="-26.8290872" lon="152.7554423">
<ele>489.524</ele>
<time>2017-02-01T00:15:39.145Z</time>
</trkpt>
<trkpt lat="-26.8288260" lon="152.7557603">
<ele>492.196</ele>
<time>2017-02-01T00:15:42.790Z</time>
</trkpt>
<trkpt lat="-26.8286711" lon="152.7560560">
<ele>497.773</ele>
<time>2017-02-01T00:15:45.646Z</time>
</trkpt>
<trkpt lat="-26.8287135" lon="152.7563962">
<ele>504.109</ele>
<time>2017-02-01T00:15:48.444Z</time>
</trkpt>
<trkpt lat="-26.8288168" lon="152.7566372">
<ele>509.395</ele>
<time>2017-02-01T00:15:50.709Z</time>
</trkpt>
<trkpt lat="-26.8290382" lon="152.7568857">
<ele>513.182</ele>
<time>2017-02-01T00:15:53.640Z</time>
</trkpt>
<trkpt lat="-26.8292404" lon="152.7569448">
<ele>516.033</ele>
<time>2017-02-01T00:15:55.580Z</time>
</trkpt>
<trkpt lat="-26.8295602" lon="152.7569853">
<ele>518.503</ele>
<time>2017-02-01T00:15:58.410Z</time>
</trkpt>
<trkpt lat="-26.8297491" lon="152.7570985">
<ele>521.029</ele>
<time>2017-02-01T00:16:00.179Z</time>
</trkpt>
<trkpt lat="-26.8300114" lon="152.7573793">
<ele>523.689</ele>
<time>2017-02-01T00:16:03.014Z</time>
</trkpt>
<trkpt lat="-26.8301792" lon="152.7575982">
<ele>525.990</ele>
<time>2017-02-01T00:16:04.945Z</time>
</trkpt>
<trkpt lat="-26.8303515" lon="152.7580030">
<ele>527.445</ele>
<time>2017-02-01T00:16:07.895Z</time>
</trkpt>
<trkpt lat="-26.8304445" lon="152.7583019">
<ele>528.177</ele>
<time>2017-02-01T00:16:10.125Z</time>
</trkpt>
<trkpt lat="-26.8305043" lon="152.7587475">
<ele>528.490</ele>
<time>2017-02-01T00:16:14.048Z</time>
</trkpt>
<trkpt lat="-26.8304826" lon="152.7590109">
<ele>528.051</ele>
<time>2017-02-01T00:16:16.664Z</time>
</trkpt>
<trkpt lat="-26.8304174" lon="152.7593127">
<ele>526.310</ele>
<time>2017-02-01T00:16:19.199Z</time>
</trkpt>
<trkpt lat="-26.8302742" lon="152.7593950">
<ele>523.754</ele>
<time>2017-02-01T00:16:20.345Z</time>
</trkpt>
<trkpt lat="-26.8298979" lon="152.7594289">
<ele>521.569</ele>
<time>2017-02-01T00:16:22.942Z</time>
</trkpt>
<trkpt lat="-26.8295982" lon="152.7594345">
<ele>520.918</ele>
<time>2017-02-01T00:16:25.003Z</time>
</trkpt>
<trkpt lat="-26.8291776" lon="152.7594442">
<ele>522.257</ele>
<time>2017-02-01T00:16:27.890Z</time>
</trkpt>
<trkpt lat="-26.8287413" lon="152.7594537">
<ele>524.799</ele>
<time>2017-02-01T00:16:30.767Z</time>
</trkpt>
<trkpt lat="-26.8282854" lon="152.7594749">
<ele>527.706</ele>
<time>2017-02-01T00:16:33.700Z</time>
</trkpt>
<trkpt lat="-26.8279660" lon="152.7594831">
<ele>530.778</ele>
<time>2017-02-01T00:16:35.827Z</time>
</trkpt>
<trkpt lat="-26.8276599" lon="152.7594950">
<ele>533.709</ele>
<time>2017-02-01T00:16:37.931Z</time>
</trkpt>
<trkpt lat="-26.8272124" lon="152.7594960">
<ele>536.010</ele>
<time>2017-02-01T00:16:41.242Z</time>
</trkpt>
<trkpt lat="-26.8269366" lon="152.7595008">
<ele>537.454</ele>
<time>2017-02-01T00:16:43.426Z</time>
</trkpt>
<trkpt lat="-26.8265519" lon="152.7595109">
<ele>538.158</ele>
<time>2017-02-01T00:16:46.744Z</time>
</trkpt>
<trkpt lat="-26.8263215" lon="152.7595535">
<ele>538.372</ele>
<time>2017-02-01T00:16:48.745Z</time>
</trkpt>
<trkpt lat="-26.8260293" lon="152.7597256">
<ele>538.314</ele>
<time>2017-02-01T00:16:51.164Z</time>
</trkpt>
<trkpt lat="-26.8259113" lon="152.7599685">
<ele>538.161</ele>
<time>2017-02-01T00:16:52.851Z</time>
</trkpt>
<trkpt lat="-26.8258135" lon="152.7604634">
<ele>538.129</ele>
<time>2017-02-01T00:16:55.852Z</time>
</trkpt>
<trkpt lat="-26.8257621" lon="152.7607999">
<ele>538.994</ele>
<time>2017-02-01T00:16:57.914Z</time>
</trkpt>
<trkpt lat="-26.8256896" lon="152.7612649">
<ele>541.036</ele>
<time>2017-02-01T00:17:00.655Z</time>
</trkpt>
<trkpt lat="-26.8256296" lon="152.7615863">
<ele>543.256</ele>
<time>2017-02-01T00:17:02.471Z</time>
</trkpt>
<trkpt lat="-26.8255617" lon="152.7621231">
<ele>544.909</ele>
<time>2017-02-01T00:17:05.318Z</time>
</trkpt>
<trkpt lat="-26.8254805" lon="152.7626977">
<ele>546.334</ele>
<time>2017-02-01T00:17:08.519Z</time>
</trkpt>
<trkpt lat="-26.8254197" lon="152.7630589">
<ele>547.658</ele>
<time>2017-02-01T00:17:10.663Z</time>
</trkpt>
<trkpt lat="-26.8253499" lon="152.7635490">
<ele>548.460</ele>
<time>2017-02-01T00:17:13.681Z</time>
</trkpt>
<trkpt lat="-26.8252801" lon="152.7640240">
<ele>548.537</ele>
<time>2017-02-01T00:17:16.636Z</time>
</trkpt>
<trkpt lat="-26.8252187" lon="152.7643538">
<ele>548.673</ele>
<time>2017-02-01T00:17:18.706Z</time>
</trkpt>
<trkpt lat="-26.8251660" lon="152.7646642">
<ele>549.527</ele>
<time>2017-02-01T00:17:20.659Z</time>
</trkpt>
<trkpt lat="-26.8251118" lon="152.7649818">
<ele>550.720</ele>
<time>2017-02-01T00:17:22.700Z</time>
</trkpt>
<trkpt lat="-26.8250539" lon="152.7652861">
<ele>551.803</ele>
<time>2017-02-01T00:17:24.720Z</time>
</trkpt>
<trkpt lat="-26.8249662" lon="152.7657476">
<ele>552.940</ele>
<time>2017-02-01T00:17:28.027Z</time>
</trkpt>
<trkpt lat="-26.8248827" lon="152.7661406">
<ele>554.401</ele>
<time>2017-02-01T00:17:31.387Z</time>
</trkpt>
<trkpt lat="-26.8248437" lon="152.7663868">
<ele>556.161</ele>
<time>2017-02-01T00:17:33.686Z</time>
</trkpt>
<trkpt lat="-26.8247232" lon="152.7666716">
<ele>557.751</ele>
<time>2017-02-01T00:17:36.408Z</time>
</trkpt>
<trkpt lat="-26.8244810" lon="152.7668561">
<ele>558.830</ele>
<time>2017-02-01T00:17:38.656Z</time>
</trkpt>
<trkpt lat="-26.8242544" lon="152.7669335">
<ele>559.495</ele>
<time>2017-02-01T00:17:40.340Z</time>
</trkpt>
<trkpt lat="-26.8238223" lon="152.7670608">
<ele>559.857</ele>
<time>2017-02-01T00:17:43.200Z</time>
</trkpt>
<trkpt lat="-26.8235097" lon="152.7671498">
<ele>559.769</ele>
<time>2017-02-01T00:17:45.271Z</time>
</trkpt>
<trkpt lat="-26.8232048" lon="152.7672415">
<ele>558.964</ele>
<time>2017-02-01T00:17:47.362Z</time>
</trkpt>
<trkpt lat="-26.8229270" lon="152.7673270">
<ele>557.313</ele>
<time>2017-02-01T00:17:49.307Z</time>
</trkpt>
<trkpt lat="-26.8226396" lon="152.7674017">
<ele>555.105</ele>
<time>2017-02-01T00:17:51.402Z</time>
</trkpt>
<trkpt lat="-26.8223595" lon="152.7674781">
<ele>552.987</ele>
<time>2017-02-01T00:17:53.593Z</time>
</trkpt>
<trkpt lat="-26.8219808" lon="152.7675855">
<ele>551.418</ele>
<time>2017-02-01T00:17:57.171Z</time>
</trkpt>
<trkpt lat="-26.8216850" lon="152.7676712">
<ele>550.085</ele>
<time>2017-02-01T00:18:01.150Z</time>
</trkpt>
<trkpt lat="-26.8215400" lon="152.7677780">
<ele>548.296</ele>
<time>2017-02-01T00:18:03.273Z</time>
</trkpt>
<trkpt lat="-26.8214502" lon="152.7678662">
<ele>546.062</ele>
<time>2017-02-01T00:18:04.548Z</time>
</trkpt>
<trkpt lat="-26.8213298" lon="152.7679039">
<ele>543.961</ele>
<time>2017-02-01T00:18:05.547Z</time>
</trkpt>
<trkpt lat="-26.8209610" lon="152.7678146">
<ele>542.388</ele>
<time>2017-02-01T00:18:08.037Z</time>
</trkpt>
<trkpt lat="-26.8204476" lon="152.7676372">
<ele>542.001</ele>
<time>2017-02-01T00:18:10.979Z</time>
</trkpt>
<trkpt lat="-26.8199023" lon="152.7674815">
<ele>543.012</ele>
<time>2017-02-01T00:18:13.913Z</time>
</trkpt>
<trkpt lat="-26.8193352" lon="152.7673026">
<ele>544.238</ele>
<time>2017-02-01T00:18:17.004Z</time>
</trkpt>
<trkpt lat="-26.8189837" lon="152.7672093">
<ele>544.679</ele>
<time>2017-02-01T00:18:18.980Z</time>
</trkpt>
<trkpt lat="-26.8186451" lon="152.7671007">
<ele>544.603</ele>
<time>2017-02-01T00:18:20.983Z</time>
</trkpt>
<trkpt lat="-26.8183024" lon="152.7670016">
<ele>544.502</ele>
<time>2017-02-01T00:18:23.067Z</time>
</trkpt>
<trkpt lat="-26.8179904" lon="152.7668563">
<ele>544.319</ele>
<time>2017-02-01T00:18:25.083Z</time>
</trkpt>
<trkpt lat="-26.8175567" lon="152.7665708">
<ele>543.629</ele>
<time>2017-02-01T00:18:28.100Z</time>
</trkpt>
<trkpt lat="-26.8171263" lon="152.7662807">
<ele>542.236</ele>
<time>2017-02-01T00:18:31.022Z</time>
</trkpt>
<trkpt lat="-26.8168371" lon="152.7660862">
<ele>540.324</ele>
<time>2017-02-01T00:18:32.904Z</time>
</trkpt>
<trkpt lat="-26.8165291" lon="152.7658757">
<ele>538.166</ele>
<time>2017-02-01T00:18:34.934Z</time>
</trkpt>
<trkpt lat="-26.8162291" lon="152.7656688">
<ele>536.238</ele>
<time>2017-02-01T00:18:36.972Z</time>
</trkpt>
<trkpt lat="-26.8158341" lon="152.7653167">
<ele>535.073</ele>
<time>2017-02-01T00:18:40.448Z</time>
</trkpt>
<trkpt lat="-26.8155490" lon="152.7649788">
<ele>534.660</ele>
<time>2017-02-01T00:18:44.178Z</time>
</trkpt>
<trkpt lat="-26.8153395" lon="152.7646995">
<ele>534.489</ele>
<time>2017-02-01T00:18:48.055Z</time>
</trkpt>
<trkpt lat="-26.8152737" lon="152.7645276">
<ele>534.247</ele>
<time>2017-02-01T00:18:50.095Z</time>
</trkpt>
<trkpt lat="-26.8153208" lon="152.7642768">
<ele>533.981</ele>
<time>2017-02-01T00:18:52.783Z</time>
</trkpt>
<trkpt lat="-26.8153366" lon="152.7640911">
<ele>533.750</ele>
<time>2017-02-01T00:18:54.708Z</time>
</trkpt>
<trkpt lat="-26.8153007" lon="152.7639027">
<ele>533.531</ele>
<time>2017-02-01T00:18:56.661Z</time>
</trkpt>
<trkpt lat="-26.8152388" lon="152.7637231">
<ele>533.403</ele>
<time>2017-02-01T00:18:58.528Z</time>
</trkpt>
<trkpt lat="-26.8151469" lon="152.7634460">
<ele>533.530</ele>
<time>2017-02-01T00:19:01.246Z</time>
</trkpt>
<trkpt lat="-26.8150871" lon="152.7632447">
<ele>534.152</ele>
<time>2017-02-01T00:19:03.098Z</time>
</trkpt>
<trkpt lat="-26.8149978" lon="152.7629262">
<ele>535.318</ele>
<time>2017-02-01T00:19:05.692Z</time>
</trkpt>
<trkpt lat="-26.8149205" lon="152.7627014">
<ele>536.619</ele>
<time>2017-02-01T00:19:07.451Z</time>
</trkpt>
<trkpt lat="-26.8147304" lon="152.7623164">
<ele>537.534</ele>
<time>2017-02-01T00:19:10.514Z</time>
</trkpt>
<trkpt lat="-26.8145969" lon="152.7620848">
<ele>537.563</ele>
<time>2017-02-01T00:19:12.465Z</time>
</trkpt>
<trkpt lat="-26.8144374" lon="152.7617122">
<ele>536.348</ele>
<time>2017-02-01T00:19:15.483Z</time>
</trkpt>
<trkpt lat="-26.8143593" lon="152.7614554">
<ele>534.131</ele>
<time>2017-02-01T00:19:17.459Z</time>
</trkpt>
<trkpt lat="-26.8142438" lon="152.7610711">
<ele>531.621</ele>
<time>2017-02-01T00:19:20.289Z</time>
</trkpt>
<trkpt lat="-26.8142665" lon="152.7606241">
<ele>528.878</ele>
<time>2017-02-01T00:19:23.221Z</time>
</trkpt>
<trkpt lat="-26.8142827" lon="152.7601629">
<ele>525.762</ele>
<time>2017-02-01T00:19:26.142Z</time>
</trkpt>
<trkpt lat="-26.8142324" lon="152.7598525">
<ele>523.094</ele>
<time>2017-02-01T00:19:28.123Z</time>
</trkpt>
<trkpt lat="-26.8141011" lon="152.7594067">
<ele>521.818</ele>
<time>2017-02-01T00:19:31.145Z</time>
</trkpt>
<trkpt lat="-26.8140423" lon="152.7590895">
<ele>521.881</ele>
<time>2017-02-01T00:19:33.509Z</time>
</trkpt>
<trkpt lat="-26.8139947" lon="152.7588550">
<ele>522.670</ele>
<time>2017-02-01T00:19:35.316Z</time>
</trkpt>
<trkpt lat="-26.8138847" lon="152.7586538">
<ele>523.462</ele>
<time>2017-02-01T00:19:37.079Z</time>
</trkpt>
<trkpt lat="-26.8136012" lon="152.7583864">
<ele>524.007</ele>
<time>2017-02-01T00:19:40.131Z</time>
</trkpt>
<trkpt lat="-26.8133380" lon="152.7581096">
<ele>524.505</ele>
<time>2017-02-01T00:19:43.244Z</time>
</trkpt>
<trkpt lat="-26.8131881" lon="152.7577571">
<ele>525.124</ele>
<time>2017-02-01T00:19:46.150Z</time>
</trkpt>
<trkpt lat="-26.8129833" lon="152.7575791">
<ele>526.105</ele>
<time>2017-02-01T00:19:48.275Z</time>
</trkpt>
<trkpt lat="-26.8128134" lon="152.7574038">
<ele>527.403</ele>
<time>2017-02-01T00:19:50.203Z</time>
</trkpt>
<trkpt lat="-26.8125596" lon="152.7571233">
<ele>528.123</ele>
<time>2017-02-01T00:19:53.642Z</time>
</trkpt>
<trkpt lat="-26.8124017" lon="152.7569700">
<ele>527.553</ele>
<time>2017-02-01T00:19:55.900Z</time>
</trkpt>
<trkpt lat="-26.8122072" lon="152.7567799">
<ele>526.224</ele>
<time>2017-02-01T00:19:58.548Z</time>
</trkpt>
<trkpt lat="-26.8121611" lon="152.7565712">
<ele>525.039</ele>
<time>2017-02-01T00:20:00.326Z</time>
</trkpt>
<trkpt lat="-26.8122064" lon="152.7562197">
<ele>524.116</ele>
<time>2017-02-01T00:20:02.847Z</time>
</trkpt>
<trkpt lat="-26.8123332" lon="152.7557826">
<ele>522.760</ele>
<time>2017-02-01T00:20:05.824Z</time>
</trkpt>
<trkpt lat="-26.8124672" lon="152.7555252">
<ele>519.969</ele>
<time>2017-02-01T00:20:07.714Z</time>
</trkpt>
<trkpt lat="-26.8126965" lon="152.7551252">
<ele>515.542</ele>
<time>2017-02-01T00:20:10.859Z</time>
</trkpt>
<trkpt lat="-26.8128375" lon="152.7548926">
<ele>511.054</ele>
<time>2017-02-01T00:20:12.796Z</time>
</trkpt>
<trkpt lat="-26.8130245" lon="152.7544977">
<ele>508.392</ele>
<time>2017-02-01T00:20:15.963Z</time>
</trkpt>
<trkpt lat="-26.8131313" lon="152.7542427">
<ele>508.012</ele>
<time>2017-02-01T00:20:17.974Z</time>
</trkpt>
<trkpt lat="-26.8132145" lon="152.7539803">
<ele>509.025</ele>
<time>2017-02-01T00:20:19.954Z</time>
</trkpt>
<trkpt lat="-26.8133576" lon="152.7535660">
<ele>509.875</ele>
<time>2017-02-01T00:20:23.265Z</time>
</trkpt>
<trkpt lat="-26.8135068" lon="152.7533653">
<ele>509.435</ele>
<time>2017-02-01T00:20:25.235Z</time>
</trkpt>
<trkpt lat="-26.8137239" lon="152.7530477">
<ele>507.811</ele>
<time>2017-02-01T00:20:28.276Z</time>
</trkpt>
<trkpt lat="-26.8139823" lon="152.7527969">
<ele>505.186</ele>
<time>2017-02-01T00:20:31.549Z</time>
</trkpt>
<trkpt lat="-26.8142937" lon="152.7527441">
<ele>501.184</ele>
<time>2017-02-01T00:20:35.249Z</time>
</trkpt>
<trkpt lat="-26.8144751" lon="152.7527651">
<ele>495.945</ele>
<time>2017-02-01T00:20:37.589Z</time>
</trkpt>
<trkpt lat="-26.8146429" lon="152.7526174">
<ele>490.641</ele>
<time>2017-02-01T00:20:40.153Z</time>
</trkpt>
<trkpt lat="-26.8146928" lon="152.7524506">
<ele>486.627</ele>
<time>2017-02-01T00:20:42.049Z</time>
</trkpt>
<trkpt lat="-26.8146626" lon="152.7522282">
<ele>484.394</ele>
<time>2017-02-01T00:20:44.505Z</time>
</trkpt>
<trkpt lat="-26.8147099" lon="152.7519941">
<ele>483.204</ele>
<time>2017-02-01T00:20:46.974Z</time>
</trkpt>
<trkpt lat="-26.8147651" lon="152.7517946">
<ele>481.898</ele>
<time>2017-02-01T00:20:49.173Z</time>
</trkpt>
<trkpt lat="-26.8148583" lon="152.7514966">
<ele>479.972</ele>
<time>2017-02-01T00:20:52.870Z</time>
</trkpt>
<trkpt lat="-26.8150411" lon="152.7513327">
<ele>477.477</ele>
<time>2017-02-01T00:20:56.282Z</time>
</trkpt>
<trkpt lat="-26.8151693" lon="152.7512434">
<ele>474.415</ele>
<time>2017-02-01T00:20:58.252Z</time>
</trkpt>
<trkpt lat="-26.8152212" lon="152.7510372">
<ele>471.050</ele>
<time>2017-02-01T00:21:00.567Z</time>
</trkpt>
<trkpt lat="-26.8151568" lon="152.7507491">
<ele>468.194</ele>
<time>2017-02-01T00:21:03.895Z</time>
</trkpt>
<trkpt lat="-26.8151466" lon="152.7505540">
<ele>465.954</ele>
<time>2017-02-01T00:21:06.656Z</time>
</trkpt>
<trkpt lat="-26.8152814" lon="152.7503549">
<ele>463.678</ele>
<time>2017-02-01T00:21:09.967Z</time>
</trkpt>
<trkpt lat="-26.8153855" lon="152.7502193">
<ele>460.683</ele>
<time>2017-02-01T00:21:11.757Z</time>
</trkpt>
<trkpt lat="-26.8154138" lon="152.7499609">
<ele>456.604</ele>
<time>2017-02-01T00:21:14.294Z</time>
</trkpt>
<trkpt lat="-26.8155721" lon="152.7496929">
<ele>452.045</ele>
<time>2017-02-01T00:21:17.504Z</time>
</trkpt>
<trkpt lat="-26.8157731" lon="152.7494808">
<ele>447.731</ele>
<time>2017-02-01T00:21:20.821Z</time>
</trkpt>
<trkpt lat="-26.8159576" lon="152.7493082">
<ele>443.179</ele>
<time>2017-02-01T00:21:23.677Z</time>
</trkpt>
<trkpt lat="-26.8161131" lon="152.7490803">
<ele>437.903</ele>
<time>2017-02-01T00:21:26.757Z</time>
</trkpt>
<trkpt lat="-26.8161723" lon="152.7489148">
<ele>432.349</ele>
<time>2017-02-01T00:21:28.781Z</time>
</trkpt>
<trkpt lat="-26.8161888" lon="152.7486465">
<ele>427.290</ele>
<time>2017-02-01T00:21:31.632Z</time>
</trkpt>
<trkpt lat="-26.8161382" lon="152.7484754">
<ele>422.572</ele>
<time>2017-02-01T00:21:33.512Z</time>
</trkpt>
<trkpt lat="-26.8159866" lon="152.7482356">
<ele>417.767</ele>
<time>2017-02-01T00:21:37.104Z</time>
</trkpt>
<trkpt lat="-26.8158958" lon="152.7481314">
<ele>413.086</ele>
<time>2017-02-01T00:21:38.892Z</time>
</trkpt>
<trkpt lat="-26.8157983" lon="152.7479373">
<ele>408.585</ele>
<time>2017-02-01T00:21:41.192Z</time>
</trkpt>
<trkpt lat="-26.8156240" lon="152.7477518">
<ele>404.041</ele>
<time>2017-02-01T00:21:43.514Z</time>
</trkpt>
<trkpt lat="-26.8153654" lon="152.7474861">
<ele>399.841</ele>
<time>2017-02-01T00:21:46.474Z</time>
</trkpt>
<trkpt lat="-26.8150760" lon="152.7472439">
<ele>396.261</ele>
<time>2017-02-01T00:21:49.597Z</time>
</trkpt>
<trkpt lat="-26.8148311" lon="152.7469820">
<ele>393.387</ele>
<time>2017-02-01T00:21:52.825Z</time>
</trkpt>
<trkpt lat="-26.8145726" lon="152.7467649">
<ele>391.466</ele>
<time>2017-02-01T00:21:56.546Z</time>
</trkpt>
<trkpt lat="-26.8143582" lon="152.7465795">
<ele>390.250</ele>
<time>2017-02-01T00:22:00.797Z</time>
</trkpt>
<trkpt lat="-26.8142604" lon="152.7464716">
<ele>388.459</ele>
<time>2017-02-01T00:22:02.944Z</time>
</trkpt>
<trkpt lat="-26.8141198" lon="152.7463473">
<ele>385.485</ele>
<time>2017-02-01T00:22:05.518Z</time>
</trkpt>
<trkpt lat="-26.8140088" lon="152.7462527">
<ele>381.982</ele>
<time>2017-02-01T00:22:07.348Z</time>
</trkpt>
<trkpt lat="-26.8137893" lon="152.7461736">
<ele>378.786</ele>
<time>2017-02-01T00:22:10.142Z</time>
</trkpt>
<trkpt lat="-26.8136440" lon="152.7461259">
<ele>375.915</ele>
<time>2017-02-01T00:22:11.848Z</time>
</trkpt>
<trkpt lat="-26.8134242" lon="152.7459941">
<ele>372.839</ele>
<time>2017-02-01T00:22:14.732Z</time>
</trkpt>
<trkpt lat="-26.8132516" lon="152.7459058">
<ele>369.054</ele>
<time>2017-02-01T00:22:16.906Z</time>
</trkpt>
<trkpt lat="-26.8130156" lon="152.7458674">
<ele>364.692</ele>
<time>2017-02-01T00:22:19.506Z</time>
</trkpt>
<trkpt lat="-26.8127887" lon="152.7456438">
<ele>360.144</ele>
<time>2017-02-01T00:22:22.673Z</time>
</trkpt>
<trkpt lat="-26.8125673" lon="152.7454128">
<ele>355.542</ele>
<time>2017-02-01T00:22:25.867Z</time>
</trkpt>
<trkpt lat="-26.8124350" lon="152.7451396">
<ele>350.728</ele>
<time>2017-02-01T00:22:29.555Z</time>
</trkpt>
<trkpt lat="-26.8123745" lon="152.7449477">
<ele>345.504</ele>
<time>2017-02-01T00:22:32.639Z</time>
</trkpt>
<trkpt lat="-26.8123134" lon="152.7447893">
<ele>340.007</ele>
<time>2017-02-01T00:22:34.904Z</time>
</trkpt>
<trkpt lat="-26.8122420" lon="152.7446651">
<ele>334.745</ele>
<time>2017-02-01T00:22:36.641Z</time>
</trkpt>
<trkpt lat="-26.8122048" lon="152.7445325">
<ele>330.136</ele>
<time>2017-02-01T00:22:38.080Z</time>
</trkpt>
<trkpt lat="-26.8119954" lon="152.7443826">
<ele>326.419</ele>
<time>2017-02-01T00:22:40.614Z</time>
</trkpt>
<trkpt lat="-26.8118473" lon="152.7442746">
<ele>323.208</ele>
<time>2017-02-01T00:22:42.367Z</time>
</trkpt>
<trkpt lat="-26.8116698" lon="152.7441383">
<ele>319.704</ele>
<time>2017-02-01T00:22:44.613Z</time>
</trkpt>
<trkpt lat="-26.8114331" lon="152.7439454">
<ele>315.691</ele>
<time>2017-02-01T00:22:47.898Z</time>
</trkpt>
<trkpt lat="-26.8112865" lon="152.7436742">
<ele>310.728</ele>
<time>2017-02-01T00:22:51.233Z</time>
</trkpt>
<trkpt lat="-26.8112603" lon="152.7434696">
<ele>304.360</ele>
<time>2017-02-01T00:22:53.286Z</time>
</trkpt>
<trkpt lat="-26.8112022" lon="152.7433019">
<ele>297.701</ele>
<time>2017-02-01T00:22:54.915Z</time>
</trkpt>
<trkpt lat="-26.8110549" lon="152.7430496">
<ele>292.423</ele>
<time>2017-02-01T00:22:57.477Z</time>
</trkpt>
<trkpt lat="-26.8109035" lon="152.7428964">
<ele>288.468</ele>
<time>2017-02-01T00:22:59.418Z</time>
</trkpt>
<trkpt lat="-26.8106996" lon="152.7427685">
<ele>284.744</ele>
<time>2017-02-01T00:23:01.641Z</time>
</trkpt>
<trkpt lat="-26.8105037" lon="152.7426705">
<ele>281.145</ele>
<time>2017-02-01T00:23:03.610Z</time>
</trkpt>
<trkpt lat="-26.8102156" lon="152.7425287">
<ele>278.300</ele>
<time>2017-02-01T00:23:06.361Z</time>
</trkpt>
<trkpt lat="-26.8100278" lon="152.7423995">
<ele>276.041</ele>
<time>2017-02-01T00:23:08.245Z</time>
</trkpt>
<trkpt lat="-26.8097266" lon="152.7422142">
<ele>273.665</ele>
<time>2017-02-01T00:23:11.157Z</time>
</trkpt>
<trkpt lat="-26.8094239" lon="152.7420063">
<ele>270.619</ele>
<time>2017-02-01T00:23:14.190Z</time>
</trkpt>
<trkpt lat="-26.8092355" lon="152.7418729">
<ele>266.676</ele>
<time>2017-02-01T00:23:16.135Z</time>
</trkpt>
<trkpt lat="-26.8089399" lon="152.7416638">
<ele>262.321</ele>
<time>2017-02-01T00:23:19.224Z</time>
</trkpt>
<trkpt lat="-26.8086404" lon="152.7415087">
<ele>258.148</ele>
<time>2017-02-01T00:23:22.016Z</time>
</trkpt>
<trkpt lat="-26.8084222" lon="152.7414223">
<ele>254.389</ele>
<time>2017-02-01T00:23:23.770Z</time>
</trkpt>
<trkpt lat="-26.8081908" lon="152.7413255">
<ele>251.445</ele>
<time>2017-02-01T00:23:25.515Z</time>
</trkpt>
<trkpt lat="-26.8079360" lon="152.7412170">
<ele>249.676</ele>
<time>2017-02-01T00:23:27.404Z</time>
</trkpt>
<trkpt lat="-26.8075378" lon="152.7410185">
<ele>248.898</ele>
<time>2017-02-01T00:23:30.318Z</time>
</trkpt>
<trkpt lat="-26.8072706" lon="152.7408600">
<ele>248.645</ele>
<time>2017-02-01T00:23:32.408Z</time>
</trkpt>
<trkpt lat="-26.8070147" lon="152.7406871">
<ele>248.510</ele>
<time>2017-02-01T00:23:34.643Z</time>
</trkpt>
<trkpt lat="-26.8067778" lon="152.7405537">
<ele>248.498</ele>
<time>2017-02-01T00:23:36.832Z</time>
</trkpt>
<trkpt lat="-26.8065334" lon="152.7404724">
<ele>248.765</ele>
<time>2017-02-01T00:23:39.013Z</time>
</trkpt>
<trkpt lat="-26.8062197" lon="152.7403712">
<ele>249.158</ele>
<time>2017-02-01T00:23:41.835Z</time>
</trkpt>
<trkpt lat="-26.8058772" lon="152.7403171">
<ele>249.325</ele>
<time>2017-02-01T00:23:44.656Z</time>
</trkpt>
<trkpt lat="-26.8056312" lon="152.7403482">
<ele>248.644</ele>
<time>2017-02-01T00:23:46.592Z</time>
</trkpt>
<trkpt lat="-26.8053835" lon="152.7404111">
<ele>246.713</ele>
<time>2017-02-01T00:23:48.495Z</time>
</trkpt>
<trkpt lat="-26.8051310" lon="152.7404700">
<ele>244.098</ele>
<time>2017-02-01T00:23:50.385Z</time>
</trkpt>
<trkpt lat="-26.8047183" lon="152.7405876">
<ele>241.470</ele>
<time>2017-02-01T00:23:53.357Z</time>
</trkpt>
<trkpt lat="-26.8042698" lon="152.7406721">
<ele>238.613</ele>
<time>2017-02-01T00:23:56.599Z</time>
</trkpt>
<trkpt lat="-26.8039967" lon="152.7406775">
<ele>234.990</ele>
<time>2017-02-01T00:23:58.743Z</time>
</trkpt>
<trkpt lat="-26.8037342" lon="152.7406771">
<ele>230.901</ele>
<time>2017-02-01T00:24:00.898Z</time>
</trkpt>
<trkpt lat="-26.8033820" lon="152.7407254">
<ele>227.528</ele>
<time>2017-02-01T00:24:03.964Z</time>
</trkpt>
<trkpt lat="-26.8031717" lon="152.7408119">
<ele>225.330</ele>
<time>2017-02-01T00:24:05.854Z</time>
</trkpt>
<trkpt lat="-26.8029560" lon="152.7408919">
<ele>223.784</ele>
<time>2017-02-01T00:24:07.631Z</time>
</trkpt>
<trkpt lat="-26.8027184" lon="152.7409825">
<ele>222.431</ele>
<time>2017-02-01T00:24:09.529Z</time>
</trkpt>
<trkpt lat="-26.8023202" lon="152.7411160">
<ele>221.004</ele>
<time>2017-02-01T00:24:12.451Z</time>
</trkpt>
<trkpt lat="-26.8018931" lon="152.7412178">
<ele>219.590</ele>
<time>2017-02-01T00:24:15.388Z</time>
</trkpt>
<trkpt lat="-26.8015951" lon="152.7412868">
<ele>218.380</ele>
<time>2017-02-01T00:24:17.429Z</time>
</trkpt>
<trkpt lat="-26.8011504" lon="152.7413771">
<ele>217.066</ele>
<time>2017-02-01T00:24:20.515Z</time>
</trkpt>
<trkpt lat="-26.8007243" lon="152.7414659">
<ele>215.237</ele>
<time>2017-02-01T00:24:23.518Z</time>
</trkpt>
<trkpt lat="-26.8002992" lon="152.7415445">
<ele>212.837</ele>
<time>2017-02-01T00:24:26.522Z</time>
</trkpt>
<trkpt lat="-26.8000136" lon="152.7415579">
<ele>210.364</ele>
<time>2017-02-01T00:24:28.499Z</time>
</trkpt>
<trkpt lat="-26.7997353" lon="152.7414994">
<ele>208.531</ele>
<time>2017-02-01T00:24:30.435Z</time>
</trkpt>
<trkpt lat="-26.7993278" lon="152.7412975">
<ele>207.358</ele>
<time>2017-02-01T00:24:33.411Z</time>
</trkpt>
<trkpt lat="-26.7989396" lon="152.7410083">
<ele>206.312</ele>
<time>2017-02-01T00:24:36.604Z</time>
</trkpt>
<trkpt lat="-26.7987048" lon="152.7408353">
<ele>205.097</ele>
<time>2017-02-01T00:24:38.547Z</time>
</trkpt>
<trkpt lat="-26.7983560" lon="152.7405783">
<ele>203.892</ele>
<time>2017-02-01T00:24:41.382Z</time>
</trkpt>
<trkpt lat="-26.7981270" lon="152.7403628">
<ele>202.818</ele>
<time>2017-02-01T00:24:43.413Z</time>
</trkpt>
<trkpt lat="-26.7979262" lon="152.7401163">
<ele>201.692</ele>
<time>2017-02-01T00:24:45.445Z</time>
</trkpt>
<trkpt lat="-26.7976518" lon="152.7397477">
<ele>200.384</ele>
<time>2017-02-01T00:24:48.350Z</time>
</trkpt>
<trkpt lat="-26.7974281" lon="152.7395136">
<ele>199.162</ele>
<time>2017-02-01T00:24:50.414Z</time>
</trkpt>
<trkpt lat="-26.7972103" lon="152.7392739">
<ele>198.541</ele>
<time>2017-02-01T00:24:52.482Z</time>
</trkpt>
<trkpt lat="-26.7968768" lon="152.7389543">
<ele>198.671</ele>
<time>2017-02-01T00:24:55.553Z</time>
</trkpt>
<trkpt lat="-26.7966730" lon="152.7387334">
<ele>198.951</ele>
<time>2017-02-01T00:24:57.684Z</time>
</trkpt>
<trkpt lat="-26.7964823" lon="152.7385264">
<ele>198.808</ele>
<time>2017-02-01T00:24:59.877Z</time>
</trkpt>
<trkpt lat="-26.7963316" lon="152.7382976">
<ele>198.322</ele>
<time>2017-02-01T00:25:02.165Z</time>
</trkpt>
<trkpt lat="-26.7961729" lon="152.7381389">
<ele>197.631</ele>
<time>2017-02-01T00:25:03.893Z</time>
</trkpt>
<trkpt lat="-26.7960263" lon="152.7379966">
<ele>196.642</ele>
<time>2017-02-01T00:25:05.377Z</time>
</trkpt>
<trkpt lat="-26.7958219" lon="152.7376334">
<ele>195.606</ele>
<time>2017-02-01T00:25:07.893Z</time>
</trkpt>
<trkpt lat="-26.7955811" lon="152.7371575">
<ele>195.168</ele>
<time>2017-02-01T00:25:10.935Z</time>
</trkpt>
<trkpt lat="-26.7953132" lon="152.7367073">
<ele>195.485</ele>
<time>2017-02-01T00:25:13.945Z</time>
</trkpt>
<trkpt lat="-26.7949198" lon="152.7363894">
<ele>195.999</ele>
<time>2017-02-01T00:25:16.897Z</time>
</trkpt>
<trkpt lat="-26.7946085" lon="152.7362437">
<ele>196.040</ele>
<time>2017-02-01T00:25:19.016Z</time>
</trkpt>
<trkpt lat="-26.7942974" lon="152.7361319">
<ele>195.543</ele>
<time>2017-02-01T00:25:21.125Z</time>
</trkpt>
<trkpt lat="-26.7939042" lon="152.7359044">
<ele>194.931</ele>
<time>2017-02-01T00:25:24.023Z</time>
</trkpt>
<trkpt lat="-26.7936703" lon="152.7356825">
<ele>194.438</ele>
<time>2017-02-01T00:25:26.017Z</time>
</trkpt>
<trkpt lat="-26.7933414" lon="152.7353026">
<ele>193.824</ele>
<time>2017-02-01T00:25:29.090Z</time>
</trkpt>
<trkpt lat="-26.7931227" lon="152.7350636">
<ele>192.805</ele>
<time>2017-02-01T00:25:31.079Z</time>
</trkpt>
<trkpt lat="-26.7927943" lon="152.7347155">
<ele>191.414</ele>
<time>2017-02-01T00:25:34.078Z</time>
</trkpt>
<trkpt lat="-26.7925685" lon="152.7344942">
<ele>189.720</ele>
<time>2017-02-01T00:25:36.089Z</time>
</trkpt>
<trkpt lat="-26.7923613" lon="152.7342525">
<ele>187.846</ele>
<time>2017-02-01T00:25:38.094Z</time>
</trkpt>
<trkpt lat="-26.7920409" lon="152.7338987">
<ele>185.985</ele>
<time>2017-02-01T00:25:41.089Z</time>
</trkpt>
<trkpt lat="-26.7917383" lon="152.7335336">
<ele>184.151</ele>
<time>2017-02-01T00:25:44.054Z</time>
</trkpt>
<trkpt lat="-26.7915404" lon="152.7332959">
<ele>182.103</ele>
<time>2017-02-01T00:25:46.025Z</time>
</trkpt>
<trkpt lat="-26.7912439" lon="152.7329342">
<ele>179.922</ele>
<time>2017-02-01T00:25:49.157Z</time>
</trkpt>
<trkpt lat="-26.7910549" lon="152.7326958">
<ele>178.104</ele>
<time>2017-02-01T00:25:51.635Z</time>
</trkpt>
<trkpt lat="-26.7908838" lon="152.7324793">
<ele>176.886</ele>
<time>2017-02-01T00:25:54.710Z</time>
</trkpt>
<trkpt lat="-26.7907030" lon="152.7322678">
<ele>175.755</ele>
<time>2017-02-01T00:26:00.204Z</time>
</trkpt>
<trkpt lat="-26.7905674" lon="152.7321577">
<ele>174.162</ele>
<time>2017-02-01T00:26:02.633Z</time>
</trkpt>
<trkpt lat="-26.7904863" lon="152.7320678">
<ele>172.137</ele>
<time>2017-02-01T00:26:03.648Z</time>
</trkpt>
<trkpt lat="-26.7903623" lon="152.7319300">
<ele>170.329</ele>
<time>2017-02-01T00:26:05.141Z</time>
</trkpt>
<trkpt lat="-26.7900604" lon="152.7315613">
<ele>169.549</ele>
<time>2017-02-01T00:26:07.886Z</time>
</trkpt>
<trkpt lat="-26.7895653" lon="152.7311486">
<ele>170.502</ele>
<time>2017-02-01T00:26:11.255Z</time>
</trkpt>
<trkpt lat="-26.7892449" lon="152.7308646">
<ele>173.247</ele>
<time>2017-02-01T00:26:13.419Z</time>
</trkpt>
<trkpt lat="-26.7889729" lon="152.7305520">
<ele>176.466</ele>
<time>2017-02-01T00:26:15.515Z</time>
</trkpt>
<trkpt lat="-26.7886096" lon="152.7301172">
<ele>178.074</ele>
<time>2017-02-01T00:26:18.481Z</time>
</trkpt>
<trkpt lat="-26.7883799" lon="152.7298105">
<ele>177.207</ele>
<time>2017-02-01T00:26:20.477Z</time>
</trkpt>
<trkpt lat="-26.7880618" lon="152.7293342">
<ele>175.025</ele>
<time>2017-02-01T00:26:23.451Z</time>
</trkpt>
<trkpt lat="-26.7877169" lon="152.7288805">
<ele>173.289</ele>
<time>2017-02-01T00:26:26.472Z</time>
</trkpt>
<trkpt lat="-26.7874711" lon="152.7286128">
<ele>172.599</ele>
<time>2017-02-01T00:26:28.420Z</time>
</trkpt>
<trkpt lat="-26.7872114" lon="152.7283502">
<ele>172.415</ele>
<time>2017-02-01T00:26:30.412Z</time>
</trkpt>
<trkpt lat="-26.7869507" lon="152.7280925">
<ele>172.189</ele>
<time>2017-02-01T00:26:32.396Z</time>
</trkpt>
<trkpt lat="-26.7865480" lon="152.7277240">
<ele>171.863</ele>
<time>2017-02-01T00:26:35.329Z</time>
</trkpt>
<trkpt lat="-26.7862923" lon="152.7274484">
<ele>171.538</ele>
<time>2017-02-01T00:26:37.242Z</time>
</trkpt>
<trkpt lat="-26.7860311" lon="152.7271612">
<ele>171.311</ele>
<time>2017-02-01T00:26:39.153Z</time>
</trkpt>
<trkpt lat="-26.7857688" lon="152.7268407">
<ele>171.347</ele>
<time>2017-02-01T00:26:41.160Z</time>
</trkpt>
<trkpt lat="-26.7853776" lon="152.7263690">
<ele>171.644</ele>
<time>2017-02-01T00:26:44.152Z</time>
</trkpt>
<trkpt lat="-26.7849766" lon="152.7259173">
<ele>171.936</ele>
<time>2017-02-01T00:26:47.160Z</time>
</trkpt>
<trkpt lat="-26.7845833" lon="152.7254818">
<ele>171.944</ele>
<time>2017-02-01T00:26:50.188Z</time>
</trkpt>
<trkpt lat="-26.7843332" lon="152.7251790">
<ele>171.353</ele>
<time>2017-02-01T00:26:52.288Z</time>
</trkpt>
<trkpt lat="-26.7839976" lon="152.7247526">
<ele>170.195</ele>
<time>2017-02-01T00:26:55.346Z</time>
</trkpt>
<trkpt lat="-26.7836394" lon="152.7243921">
<ele>169.121</ele>
<time>2017-02-01T00:26:58.154Z</time>
</trkpt>
<trkpt lat="-26.7833312" lon="152.7242190">
<ele>168.593</ele>
<time>2017-02-01T00:27:00.053Z</time>
</trkpt>
<trkpt lat="-26.7829874" lon="152.7240774">
<ele>168.568</ele>
<time>2017-02-01T00:27:02.031Z</time>
</trkpt>
<trkpt lat="-26.7824489" lon="152.7238669">
<ele>169.103</ele>
<time>2017-02-01T00:27:05.081Z</time>
</trkpt>
<trkpt lat="-26.7819295" lon="152.7236463">
<ele>170.043</ele>
<time>2017-02-01T00:27:08.056Z</time>
</trkpt>
<trkpt lat="-26.7815820" lon="152.7234904">
<ele>170.553</ele>
<time>2017-02-01T00:27:10.039Z</time>
</trkpt>
<trkpt lat="-26.7810505" lon="152.7232625">
<ele>170.140</ele>
<time>2017-02-01T00:27:12.957Z</time>
</trkpt>
<trkpt lat="-26.7805086" lon="152.7230301">
<ele>169.348</ele>
<time>2017-02-01T00:27:15.911Z</time>
</trkpt>
<trkpt lat="-26.7799790" lon="152.7227881">
<ele>168.797</ele>
<time>2017-02-01T00:27:18.852Z</time>
</trkpt>
<trkpt lat="-26.7796251" lon="152.7226359">
<ele>168.607</ele>
<time>2017-02-01T00:27:20.810Z</time>
</trkpt>
<trkpt lat="-26.7790730" lon="152.7223944">
<ele>168.683</ele>
<time>2017-02-01T00:27:23.909Z</time>
</trkpt>
<trkpt lat="-26.7785547" lon="152.7221335">
<ele>168.713</ele>
<time>2017-02-01T00:27:26.914Z</time>
</trkpt>
<trkpt lat="-26.7782234" lon="152.7219274">
<ele>168.464</ele>
<time>2017-02-01T00:27:28.915Z</time>
</trkpt>
<trkpt lat="-26.7777877" lon="152.7215580">
<ele>168.083</ele>
<time>2017-02-01T00:27:31.750Z</time>
</trkpt>
<trkpt lat="-26.7773527" lon="152.7211161">
<ele>167.846</ele>
<time>2017-02-01T00:27:34.752Z</time>
</trkpt>
<trkpt lat="-26.7770713" lon="152.7208194">
<ele>167.856</ele>
<time>2017-02-01T00:27:36.718Z</time>
</trkpt>
<trkpt lat="-26.7766365" lon="152.7203799">
<ele>168.037</ele>
<time>2017-02-01T00:27:39.665Z</time>
</trkpt>
<trkpt lat="-26.7761712" lon="152.7199334">
<ele>168.000</ele>
<time>2017-02-01T00:27:42.707Z</time>
</trkpt>
<trkpt lat="-26.7758653" lon="152.7196399">
<ele>167.332</ele>
<time>2017-02-01T00:27:44.699Z</time>
</trkpt>
<trkpt lat="-26.7754234" lon="152.7191970">
<ele>166.237</ele>
<time>2017-02-01T00:27:47.671Z</time>
</trkpt>
<trkpt lat="-26.7749672" lon="152.7187726">
<ele>165.077</ele>
<time>2017-02-01T00:27:50.693Z</time>
</trkpt>
<trkpt lat="-26.7745149" lon="152.7183846">
<ele>163.789</ele>
<time>2017-02-01T00:27:53.674Z</time>
</trkpt>
<trkpt lat="-26.7741966" lon="152.7181477">
<ele>162.510</ele>
<time>2017-02-01T00:27:55.718Z</time>
</trkpt>
<trkpt lat="-26.7736743" lon="152.7179503">
<ele>161.597</ele>
<time>2017-02-01T00:27:58.723Z</time>
</trkpt>
<trkpt lat="-26.7733108" lon="152.7178919">
<ele>160.860</ele>
<time>2017-02-01T00:28:00.779Z</time>
</trkpt>
<trkpt lat="-26.7729560" lon="152.7178635">
<ele>159.983</ele>
<time>2017-02-01T00:28:02.793Z</time>
</trkpt>
<trkpt lat="-26.7726213" lon="152.7178026">
<ele>159.175</ele>
<time>2017-02-01T00:28:04.698Z</time>
</trkpt>
<trkpt lat="-26.7720859" lon="152.7176655">
<ele>158.915</ele>
<time>2017-02-01T00:28:07.682Z</time>
</trkpt>
<trkpt lat="-26.7715403" lon="152.7175228">
<ele>159.720</ele>
<time>2017-02-01T00:28:10.677Z</time>
</trkpt>
<trkpt lat="-26.7711657" lon="152.7174407">
<ele>161.666</ele>
<time>2017-02-01T00:28:12.699Z</time>
</trkpt>
<trkpt lat="-26.7708037" lon="152.7173663">
<ele>163.841</ele>
<time>2017-02-01T00:28:14.631Z</time>
</trkpt>
<trkpt lat="-26.7702325" lon="152.7172706">
<ele>165.244</ele>
<time>2017-02-01T00:28:17.698Z</time>
</trkpt>
<trkpt lat="-26.7698732" lon="152.7171957">
<ele>165.768</ele>
<time>2017-02-01T00:28:19.692Z</time>
</trkpt>
<trkpt lat="-26.7695169" lon="152.7170885">
<ele>165.801</ele>
<time>2017-02-01T00:28:21.738Z</time>
</trkpt>
<trkpt lat="-26.7690265" lon="152.7168391">
<ele>165.656</ele>
<time>2017-02-01T00:28:24.873Z</time>
</trkpt>
<trkpt lat="-26.7687307" lon="152.7166838">
<ele>165.238</ele>
<time>2017-02-01T00:28:26.798Z</time>
</trkpt>
<trkpt lat="-26.7683311" lon="152.7163478">
<ele>164.262</ele>
<time>2017-02-01T00:28:29.529Z</time>
</trkpt>
<trkpt lat="-26.7679312" lon="152.7158874">
<ele>163.001</ele>
<time>2017-02-01T00:28:32.422Z</time>
</trkpt>
<trkpt lat="-26.7676948" lon="152.7155080">
<ele>162.080</ele>
<time>2017-02-01T00:28:34.419Z</time>
</trkpt>
<trkpt lat="-26.7673317" lon="152.7149375">
<ele>161.694</ele>
<time>2017-02-01T00:28:37.521Z</time>
</trkpt>
<trkpt lat="-26.7670703" lon="152.7146063">
<ele>161.949</ele>
<time>2017-02-01T00:28:39.636Z</time>
</trkpt>
<trkpt lat="-26.7666765" lon="152.7142068">
<ele>162.798</ele>
<time>2017-02-01T00:28:42.787Z</time>
</trkpt>
<trkpt lat="-26.7664055" lon="152.7137859">
<ele>163.288</ele>
<time>2017-02-01T00:28:45.673Z</time>
</trkpt>
<trkpt lat="-26.7662841" lon="152.7134617">
<ele>162.242</ele>
<time>2017-02-01T00:28:47.601Z</time>
</trkpt>
<trkpt lat="-26.7660163" lon="152.7130024">
<ele>159.965</ele>
<time>2017-02-01T00:28:50.530Z</time>
</trkpt>
<trkpt lat="-26.7657933" lon="152.7127171">
<ele>157.884</ele>
<time>2017-02-01T00:28:52.565Z</time>
</trkpt>
<trkpt lat="-26.7655499" lon="152.7124690">
<ele>156.788</ele>
<time>2017-02-01T00:28:54.547Z</time>
</trkpt>
<trkpt lat="-26.7652579" lon="152.7122836">
<ele>156.364</ele>
<time>2017-02-01T00:28:56.514Z</time>
</trkpt>
<trkpt lat="-26.7647904" lon="152.7120772">
<ele>155.938</ele>
<time>2017-02-01T00:28:59.238Z</time>
</trkpt>
<trkpt lat="-26.7642211" lon="152.7119596">
<ele>155.240</ele>
<time>2017-02-01T00:29:02.219Z</time>
</trkpt>
<trkpt lat="-26.7636319" lon="152.7118339">
<ele>154.904</ele>
<time>2017-02-01T00:29:05.299Z</time>
</trkpt>
<trkpt lat="-26.7630682" lon="152.7116899">
<ele>155.399</ele>
<time>2017-02-01T00:29:08.308Z</time>
</trkpt>
<trkpt lat="-26.7627173" lon="152.7115512">
<ele>156.150</ele>
<time>2017-02-01T00:29:10.357Z</time>
</trkpt>
<trkpt lat="-26.7622089" lon="152.7113412">
<ele>156.549</ele>
<time>2017-02-01T00:29:13.674Z</time>
</trkpt>
<trkpt lat="-26.7617694" lon="152.7112652">
<ele>156.824</ele>
<time>2017-02-01T00:29:16.752Z</time>
</trkpt>
<trkpt lat="-26.7613718" lon="152.7112433">
<ele>157.298</ele>
<time>2017-02-01T00:29:19.612Z</time>
</trkpt>
<trkpt lat="-26.7609502" lon="152.7112588">
<ele>157.789</ele>
<time>2017-02-01T00:29:22.714Z</time>
</trkpt>
<trkpt lat="-26.7606790" lon="152.7113095">
<ele>157.289</ele>
<time>2017-02-01T00:29:24.689Z</time>
</trkpt>
<trkpt lat="-26.7604616" lon="152.7114796">
<ele>155.080</ele>
<time>2017-02-01T00:29:26.453Z</time>
</trkpt>
<trkpt lat="-26.7602440" lon="152.7117468">
<ele>152.162</ele>
<time>2017-02-01T00:29:28.457Z</time>
</trkpt>
<trkpt lat="-26.7599550" lon="152.7121854">
<ele>149.977</ele>
<time>2017-02-01T00:29:31.332Z</time>
</trkpt>
<trkpt lat="-26.7596953" lon="152.7126863">
<ele>148.297</ele>
<time>2017-02-01T00:29:34.348Z</time>
</trkpt>
<trkpt lat="-26.7595419" lon="152.7130285">
<ele>146.458</ele>
<time>2017-02-01T00:29:36.462Z</time>
</trkpt>
<trkpt lat="-26.7593401" lon="152.7134939">
<ele>144.698</ele>
<time>2017-02-01T00:29:39.594Z</time>
</trkpt>
<trkpt lat="-26.7593024" lon="152.7139397">
<ele>143.332</ele>
<time>2017-02-01T00:29:42.330Z</time>
</trkpt>
<trkpt lat="-26.7594153" lon="152.7144387">
<ele>142.312</ele>
<time>2017-02-01T00:29:45.172Z</time>
</trkpt>
<trkpt lat="-26.7594771" lon="152.7150045">
<ele>142.072</ele>
<time>2017-02-01T00:29:48.137Z</time>
</trkpt>
<trkpt lat="-26.7595274" lon="152.7155834">
<ele>142.814</ele>
<time>2017-02-01T00:29:51.238Z</time>
</trkpt>
<trkpt lat="-26.7595576" lon="152.7159381">
<ele>143.730</ele>
<time>2017-02-01T00:29:53.214Z</time>
</trkpt>
<trkpt lat="-26.7595817" lon="152.7164619">
<ele>143.895</ele>
<time>2017-02-01T00:29:56.085Z</time>
</trkpt>
<trkpt lat="-26.7596108" lon="152.7168318">
<ele>143.306</ele>
<time>2017-02-01T00:29:58.033Z</time>
</trkpt>
<trkpt lat="-26.7596433" lon="152.7172169">
<ele>142.599</ele>
<time>2017-02-01T00:29:59.991Z</time>
</trkpt>
<trkpt lat="-26.7596537" lon="152.7178000">
<ele>142.161</ele>
<time>2017-02-01T00:30:02.908Z</time>
</trkpt>
<trkpt lat="-26.7595986" lon="152.7183941">
<ele>141.892</ele>
<time>2017-02-01T00:30:05.876Z</time>
</trkpt>
<trkpt lat="-26.7595079" lon="152.7187782">
<ele>141.808</ele>
<time>2017-02-01T00:30:07.863Z</time>
</trkpt>
<trkpt lat="-26.7593883" lon="152.7191419">
<ele>141.945</ele>
<time>2017-02-01T00:30:09.862Z</time>
</trkpt>
<trkpt lat="-26.7592017" lon="152.7196738">
<ele>141.975</ele>
<time>2017-02-01T00:30:13.044Z</time>
</trkpt>
<trkpt lat="-26.7589771" lon="152.7200830">
<ele>141.453</ele>
<time>2017-02-01T00:30:16.161Z</time>
</trkpt>
<trkpt lat="-26.7587917" lon="152.7202610">
<ele>140.310</ele>
<time>2017-02-01T00:30:18.231Z</time>
</trkpt>
<trkpt lat="-26.7585841" lon="152.7203487">
<ele>138.827</ele>
<time>2017-02-01T00:30:20.059Z</time>
</trkpt>
<trkpt lat="-26.7583265" lon="152.7203748">
<ele>137.487</ele>
<time>2017-02-01T00:30:21.815Z</time>
</trkpt>
<trkpt lat="-26.7578398" lon="152.7203713">
<ele>136.807</ele>
<time>2017-02-01T00:30:24.863Z</time>
</trkpt>
<trkpt lat="-26.7574928" lon="152.7203306">
<ele>137.280</ele>
<time>2017-02-01T00:30:26.880Z</time>
</trkpt>
<trkpt lat="-26.7571545" lon="152.7202858">
<ele>138.780</ele>
<time>2017-02-01T00:30:28.787Z</time>
</trkpt>
<trkpt lat="-26.7567818" lon="152.7202361">
<ele>140.428</ele>
<time>2017-02-01T00:30:30.907Z</time>
</trkpt>
<trkpt lat="-26.7562643" lon="152.7201807">
<ele>141.549</ele>
<time>2017-02-01T00:30:34.016Z</time>
</trkpt>
<trkpt lat="-26.7558052" lon="152.7202088">
<ele>142.111</ele>
<time>2017-02-01T00:30:36.971Z</time>
</trkpt>
<trkpt lat="-26.7555189" lon="152.7203511">
<ele>142.101</ele>
<time>2017-02-01T00:30:38.993Z</time>
</trkpt>
<trkpt lat="-26.7552421" lon="152.7205121">
<ele>141.651</ele>
<time>2017-02-01T00:30:40.926Z</time>
</trkpt>
<trkpt lat="-26.7547844" lon="152.7206947">
<ele>141.194</ele>
<time>2017-02-01T00:30:43.867Z</time>
</trkpt>
<trkpt lat="-26.7542869" lon="152.7207678">
<ele>141.134</ele>
<time>2017-02-01T00:30:46.839Z</time>
</trkpt>
<trkpt lat="-26.7539522" lon="152.7208185">
<ele>141.432</ele>
<time>2017-02-01T00:30:48.941Z</time>
</trkpt>
<trkpt lat="-26.7535336" lon="152.7209960">
<ele>141.971</ele>
<time>2017-02-01T00:30:51.816Z</time>
</trkpt>
<trkpt lat="-26.7532555" lon="152.7214037">
<ele>142.725</ele>
<time>2017-02-01T00:30:54.696Z</time>
</trkpt>
<trkpt lat="-26.7530745" lon="152.7219277">
<ele>143.810</ele>
<time>2017-02-01T00:30:57.677Z</time>
</trkpt>
<trkpt lat="-26.7529014" lon="152.7224678">
<ele>145.386</ele>
<time>2017-02-01T00:31:00.631Z</time>
</trkpt>
<trkpt lat="-26.7528197" lon="152.7228402">
<ele>147.084</ele>
<time>2017-02-01T00:31:02.608Z</time>
</trkpt>
<trkpt lat="-26.7527458" lon="152.7234123">
<ele>148.161</ele>
<time>2017-02-01T00:31:05.600Z</time>
</trkpt>
<trkpt lat="-26.7526984" lon="152.7237817">
<ele>147.900</ele>
<time>2017-02-01T00:31:07.519Z</time>
</trkpt>
<trkpt lat="-26.7526463" lon="152.7241665">
<ele>146.309</ele>
<time>2017-02-01T00:31:09.564Z</time>
</trkpt>
<trkpt lat="-26.7525795" lon="152.7247076">
<ele>144.638</ele>
<time>2017-02-01T00:31:12.501Z</time>
</trkpt>
<trkpt lat="-26.7525284" lon="152.7250717">
<ele>143.902</ele>
<time>2017-02-01T00:31:14.538Z</time>
</trkpt>
<trkpt lat="-26.7524638" lon="152.7255916">
<ele>143.690</ele>
<time>2017-02-01T00:31:17.490Z</time>
</trkpt>
<trkpt lat="-26.7524692" lon="152.7259343">
<ele>143.157</ele>
<time>2017-02-01T00:31:19.397Z</time>
</trkpt>
<trkpt lat="-26.7525688" lon="152.7264737">
<ele>142.152</ele>
<time>2017-02-01T00:31:22.380Z</time>
</trkpt>
<trkpt lat="-26.7526066" lon="152.7268539">
<ele>141.373</ele>
<time>2017-02-01T00:31:24.404Z</time>
</trkpt>
<trkpt lat="-26.7525987" lon="152.7274226">
<ele>141.252</ele>
<time>2017-02-01T00:31:27.387Z</time>
</trkpt>
<trkpt lat="-26.7524690" lon="152.7279769">
<ele>141.619</ele>
<time>2017-02-01T00:31:30.337Z</time>
</trkpt>
<trkpt lat="-26.7523409" lon="152.7283414">
<ele>142.196</ele>
<time>2017-02-01T00:31:32.339Z</time>
</trkpt>
<trkpt lat="-26.7522150" lon="152.7286895">
<ele>142.793</ele>
<time>2017-02-01T00:31:34.262Z</time>
</trkpt>
<trkpt lat="-26.7520805" lon="152.7290476">
<ele>143.530</ele>
<time>2017-02-01T00:31:36.232Z</time>
</trkpt>
<trkpt lat="-26.7519406" lon="152.7294080">
<ele>144.537</ele>
<time>2017-02-01T00:31:38.182Z</time>
</trkpt>
<trkpt lat="-26.7517206" lon="152.7299833">
<ele>145.520</ele>
<time>2017-02-01T00:31:41.222Z</time>
</trkpt>
<trkpt lat="-26.7515799" lon="152.7303728">
<ele>146.417</ele>
<time>2017-02-01T00:31:43.223Z</time>
</trkpt>
<trkpt lat="-26.7513504" lon="152.7309520">
<ele>147.353</ele>
<time>2017-02-01T00:31:46.218Z</time>
</trkpt>
<trkpt lat="-26.7511367" lon="152.7315376">
<ele>148.053</ele>
<time>2017-02-01T00:31:49.171Z</time>
</trkpt>
<trkpt lat="-26.7509905" lon="152.7319354">
<ele>148.434</ele>
<time>2017-02-01T00:31:51.157Z</time>
</trkpt>
<trkpt lat="-26.7508334" lon="152.7323318">
<ele>148.834</ele>
<time>2017-02-01T00:31:53.201Z</time>
</trkpt>
<trkpt lat="-26.7506005" lon="152.7328668">
<ele>149.307</ele>
<time>2017-02-01T00:31:56.111Z</time>
</trkpt>
<trkpt lat="-26.7503042" lon="152.7333284">
<ele>150.057</ele>
<time>2017-02-01T00:31:58.975Z</time>
</trkpt>
<trkpt lat="-26.7500592" lon="152.7336236">
<ele>151.398</ele>
<time>2017-02-01T00:32:01.045Z</time>
</trkpt>
<trkpt lat="-26.7497194" lon="152.7340219">
<ele>153.064</ele>
<time>2017-02-01T00:32:04.041Z</time>
</trkpt>
<trkpt lat="-26.7495102" lon="152.7342580">
<ele>154.614</ele>
<time>2017-02-01T00:32:06.009Z</time>
</trkpt>
<trkpt lat="-26.7492116" lon="152.7346254">
<ele>155.989</ele>
<time>2017-02-01T00:32:09.035Z</time>
</trkpt>
<trkpt lat="-26.7490238" lon="152.7348635">
<ele>157.065</ele>
<time>2017-02-01T00:32:11.115Z</time>
</trkpt>
<trkpt lat="-26.7487972" lon="152.7351881">
<ele>157.608</ele>
<time>2017-02-01T00:32:14.119Z</time>
</trkpt>
<trkpt lat="-26.7486820" lon="152.7353658">
<ele>157.240</ele>
<time>2017-02-01T00:32:16.054Z</time>
</trkpt>
<trkpt lat="-26.7484290" lon="152.7354373">
<ele>155.514</ele>
<time>2017-02-01T00:32:18.763Z</time>
</trkpt>
<trkpt lat="-26.7480879" lon="152.7352996">
<ele>152.706</ele>
<time>2017-02-01T00:32:22.208Z</time>
</trkpt>
<trkpt lat="-26.7477669" lon="152.7351788">
<ele>150.064</ele>
<time>2017-02-01T00:32:25.304Z</time>
</trkpt>
<trkpt lat="-26.7474448" lon="152.7351849">
<ele>148.408</ele>
<time>2017-02-01T00:32:28.206Z</time>
</trkpt>
<trkpt lat="-26.7472261" lon="152.7352767">
<ele>147.601</ele>
<time>2017-02-01T00:32:30.037Z</time>
</trkpt>
<trkpt lat="-26.7468150" lon="152.7354133">
<ele>147.627</ele>
<time>2017-02-01T00:32:33.061Z</time>
</trkpt>
<trkpt lat="-26.7463664" lon="152.7352849">
<ele>149.038</ele>
<time>2017-02-01T00:32:35.980Z</time>
</trkpt>
<trkpt lat="-26.7460958" lon="152.7350403">
<ele>151.965</ele>
<time>2017-02-01T00:32:37.970Z</time>
</trkpt>
<trkpt lat="-26.7457204" lon="152.7345586">
<ele>155.585</ele>
<time>2017-02-01T00:32:41.144Z</time>
</trkpt>
<trkpt lat="-26.7454785" lon="152.7342757">
<ele>159.006</ele>
<time>2017-02-01T00:32:43.188Z</time>
</trkpt>
<trkpt lat="-26.7451106" lon="152.7339175">
<ele>161.749</ele>
<time>2017-02-01T00:32:46.218Z</time>
</trkpt>
<trkpt lat="-26.7447136" lon="152.7336958">
<ele>163.682</ele>
<time>2017-02-01T00:32:49.116Z</time>
</trkpt>
<trkpt lat="-26.7442672" lon="152.7336019">
<ele>165.051</ele>
<time>2017-02-01T00:32:52.076Z</time>
</trkpt>
<trkpt lat="-26.7437832" lon="152.7335595">
<ele>166.011</ele>
<time>2017-02-01T00:32:55.160Z</time>
</trkpt>
<trkpt lat="-26.7433237" lon="152.7335259">
<ele>166.230</ele>
<time>2017-02-01T00:32:58.066Z</time>
</trkpt>
<trkpt lat="-26.7428595" lon="152.7334947">
<ele>165.403</ele>
<time>2017-02-01T00:33:01.051Z</time>
</trkpt>
<trkpt lat="-26.7424095" lon="152.7334533">
<ele>163.422</ele>
<time>2017-02-01T00:33:04.004Z</time>
</trkpt>
<trkpt lat="-26.7420721" lon="152.7334215">
<ele>160.325</ele>
<time>2017-02-01T00:33:06.177Z</time>
</trkpt>
<trkpt lat="-26.7416363" lon="152.7332262">
<ele>156.505</ele>
<time>2017-02-01T00:33:09.071Z</time>
</trkpt>
<trkpt lat="-26.7413312" lon="152.7330273">
<ele>152.664</ele>
<time>2017-02-01T00:33:11.143Z</time>
</trkpt>
<trkpt lat="-26.7410288" lon="152.7328485">
<ele>149.550</ele>
<time>2017-02-01T00:33:13.155Z</time>
</trkpt>
<trkpt lat="-26.7407355" lon="152.7326866">
<ele>147.296</ele>
<time>2017-02-01T00:33:15.135Z</time>
</trkpt>
<trkpt lat="-26.7402386" lon="152.7325760">
<ele>145.216</ele>
<time>2017-02-01T00:33:18.265Z</time>
</trkpt>
<trkpt lat="-26.7399273" lon="152.7326105">
<ele>142.856</ele>
<time>2017-02-01T00:33:20.157Z</time>
</trkpt>
<trkpt lat="-26.7394308" lon="152.7328203">
<ele>140.672</ele>
<time>2017-02-01T00:33:23.287Z</time>
</trkpt>
<trkpt lat="-26.7389658" lon="152.7330231">
<ele>139.270</ele>
<time>2017-02-01T00:33:26.222Z</time>
</trkpt>
<trkpt lat="-26.7385094" lon="152.7332444">
<ele>138.597</ele>
<time>2017-02-01T00:33:29.180Z</time>
</trkpt>
<trkpt lat="-26.7382168" lon="152.7334088">
<ele>138.134</ele>
<time>2017-02-01T00:33:31.122Z</time>
</trkpt>
<trkpt lat="-26.7379174" lon="152.7335940">
<ele>137.630</ele>
<time>2017-02-01T00:33:33.145Z</time>
</trkpt>
<trkpt lat="-26.7374761" lon="152.7338672">
<ele>137.143</ele>
<time>2017-02-01T00:33:36.167Z</time>
</trkpt>
<trkpt lat="-26.7372032" lon="152.7340349">
<ele>136.670</ele>
<time>2017-02-01T00:33:38.220Z</time>
</trkpt>
<trkpt lat="-26.7368553" lon="152.7342480">
<ele>135.848</ele>
<time>2017-02-01T00:33:41.235Z</time>
</trkpt>
<trkpt lat="-26.7366939" lon="152.7343417">
<ele>134.144</ele>
<time>2017-02-01T00:33:43.113Z</time>
</trkpt>
<trkpt lat="-26.7365685" lon="152.7343964">
<ele>131.711</ele>
<time>2017-02-01T00:33:45.170Z</time>
</trkpt>
<trkpt lat="-26.7364767" lon="152.7344086">
<ele>129.392</ele>
<time>2017-02-01T00:33:47.000Z</time>
</trkpt>
<trkpt lat="-26.7364767" lon="152.7344086">
<ele>127.881</ele>
<time>2017-02-01T00:33:51.000Z</time>
</trkpt>
<trkpt lat="-26.7364767" lon="152.7344086">
<ele>127.297</ele>
<time>2017-02-01T00:34:09.298Z</time>
</trkpt>
<trkpt lat="-26.7363521" lon="152.7342781">
<ele>127.546</ele>
<time>2017-02-01T00:34:14.188Z</time>
</trkpt>
<trkpt lat="-26.7363403" lon="152.7340493">
<ele>128.445</ele>
<time>2017-02-01T00:34:16.299Z</time>
</trkpt>
<trkpt lat="-26.7362085" lon="152.7336133">
<ele>129.684</ele>
<time>2017-02-01T00:34:19.658Z</time>
</trkpt>
<trkpt lat="-26.7359899" lon="152.7332350">
<ele>131.167</ele>
<time>2017-02-01T00:34:22.717Z</time>
</trkpt>
<trkpt lat="-26.7358032" lon="152.7330353">
<ele>132.932</ele>
<time>2017-02-01T00:34:24.658Z</time>
</trkpt>
<trkpt lat="-26.7354770" lon="152.7327921">
<ele>134.686</ele>
<time>2017-02-01T00:34:27.477Z</time>
</trkpt>
<trkpt lat="-26.7352266" lon="152.7325904">
<ele>136.500</ele>
<time>2017-02-01T00:34:29.512Z</time>
</trkpt>
<trkpt lat="-26.7348412" lon="152.7322722">
<ele>138.704</ele>
<time>2017-02-01T00:34:32.505Z</time>
</trkpt>
<trkpt lat="-26.7345190" lon="152.7318457">
<ele>140.770</ele>
<time>2017-02-01T00:34:35.376Z</time>
</trkpt>
<trkpt lat="-26.7342153" lon="152.7313160">
<ele>141.733</ele>
<time>2017-02-01T00:34:38.395Z</time>
</trkpt>
<trkpt lat="-26.7340168" lon="152.7309474">
<ele>141.353</ele>
<time>2017-02-01T00:34:40.432Z</time>
</trkpt>
<trkpt lat="-26.7338015" lon="152.7305943">
<ele>140.280</ele>
<time>2017-02-01T00:34:42.458Z</time>
</trkpt>
<trkpt lat="-26.7334656" lon="152.7300838">
<ele>139.445</ele>
<time>2017-02-01T00:34:45.423Z</time>
</trkpt>
<trkpt lat="-26.7332403" lon="152.7297322">
<ele>139.447</ele>
<time>2017-02-01T00:34:47.396Z</time>
</trkpt>
<trkpt lat="-26.7328862" lon="152.7292058">
<ele>140.298</ele>
<time>2017-02-01T00:34:50.365Z</time>
</trkpt>
<trkpt lat="-26.7325256" lon="152.7286881">
<ele>141.401</ele>
<time>2017-02-01T00:34:53.289Z</time>
</trkpt>
<trkpt lat="-26.7322852" lon="152.7283273">
<ele>141.937</ele>
<time>2017-02-01T00:34:55.292Z</time>
</trkpt>
<trkpt lat="-26.7319305" lon="152.7277907">
<ele>141.679</ele>
<time>2017-02-01T00:34:58.300Z</time>
</trkpt>
<trkpt lat="-26.7315922" lon="152.7272728">
<ele>140.541</ele>
<time>2017-02-01T00:35:01.262Z</time>
</trkpt>
<trkpt lat="-26.7313703" lon="152.7269304">
<ele>138.691</ele>
<time>2017-02-01T00:35:03.245Z</time>
</trkpt>
<trkpt lat="-26.7311874" lon="152.7265583">
<ele>137.174</ele>
<time>2017-02-01T00:35:05.237Z</time>
</trkpt>
<trkpt lat="-26.7310088" lon="152.7259530">
<ele>137.049</ele>
<time>2017-02-01T00:35:08.207Z</time>
</trkpt>
<trkpt lat="-26.7309132" lon="152.7253031">
<ele>138.026</ele>
<time>2017-02-01T00:35:11.219Z</time>
</trkpt>
<trkpt lat="-26.7308329" lon="152.7246457">
<ele>138.445</ele>
<time>2017-02-01T00:35:14.191Z</time>
</trkpt>
<trkpt lat="-26.7307667" lon="152.7242175">
<ele>136.860</ele>
<time>2017-02-01T00:35:16.142Z</time>
</trkpt>
<trkpt lat="-26.7306697" lon="152.7235712">
<ele>133.995</ele>
<time>2017-02-01T00:35:19.122Z</time>
</trkpt>
<trkpt lat="-26.7305777" lon="152.7229212">
<ele>131.665</ele>
<time>2017-02-01T00:35:22.140Z</time>
</trkpt>
<trkpt lat="-26.7305090" lon="152.7224978">
<ele>130.245</ele>
<time>2017-02-01T00:35:24.191Z</time>
</trkpt>
<trkpt lat="-26.7304164" lon="152.7219392">
<ele>129.107</ele>
<time>2017-02-01T00:35:27.123Z</time>
</trkpt>
<trkpt lat="-26.7303678" lon="152.7216084">
<ele>128.023</ele>
<time>2017-02-01T00:35:29.094Z</time>
</trkpt>
<trkpt lat="-26.7303194" lon="152.7212980">
<ele>127.094</ele>
<time>2017-02-01T00:35:31.050Z</time>
</trkpt>
<trkpt lat="-26.7302418" lon="152.7210081">
<ele>126.432</ele>
<time>2017-02-01T00:35:32.939Z</time>
</trkpt>
<trkpt lat="-26.7301101" lon="152.7205499">
<ele>126.189</ele>
<time>2017-02-01T00:35:35.926Z</time>
</trkpt>
<trkpt lat="-26.7299547" lon="152.7200964">
<ele>126.593</ele>
<time>2017-02-01T00:35:38.969Z</time>
</trkpt>
<trkpt lat="-26.7298686" lon="152.7198015">
<ele>127.947</ele>
<time>2017-02-01T00:35:40.972Z</time>
</trkpt>
<trkpt lat="-26.7297957" lon="152.7195001">
<ele>129.794</ele>
<time>2017-02-01T00:35:43.037Z</time>
</trkpt>
<trkpt lat="-26.7296897" lon="152.7190716">
<ele>131.392</ele>
<time>2017-02-01T00:35:46.033Z</time>
</trkpt>
<trkpt lat="-26.7296267" lon="152.7186511">
<ele>132.810</ele>
<time>2017-02-01T00:35:48.952Z</time>
</trkpt>
<trkpt lat="-26.7295753" lon="152.7182361">
<ele>134.163</ele>
<time>2017-02-01T00:35:51.913Z</time>
</trkpt>
<trkpt lat="-26.7295397" lon="152.7179843">
<ele>134.826</ele>
<time>2017-02-01T00:35:53.972Z</time>
</trkpt>
<trkpt lat="-26.7295050" lon="152.7177934">
<ele>134.250</ele>
<time>2017-02-01T00:35:56.030Z</time>
</trkpt>
<trkpt lat="-26.7294747" lon="152.7176113">
<ele>132.587</ele>
<time>2017-02-01T00:35:58.670Z</time>
</trkpt>
<trkpt lat="-26.7294790" lon="152.7175005">
<ele>130.441</ele>
<time>2017-02-01T00:36:01.000Z</time>
</trkpt>
<trkpt lat="-26.7294790" lon="152.7175005">
<ele>128.590</ele>
<time>2017-02-01T00:36:06.000Z</time>
</trkpt>
<trkpt lat="-26.7294790" lon="152.7175005">
<ele>127.689</ele>
<time>2017-02-01T00:50:44.628Z</time>
</trkpt>
<trkpt lat="-26.7294127" lon="152.7172794">
<ele>127.986</ele>
<time>2017-02-01T00:50:50.419Z</time>
</trkpt>
<trkpt lat="-26.7293462" lon="152.7169780">
<ele>129.544</ele>
<time>2017-02-01T00:50:53.476Z</time>
</trkpt>
<trkpt lat="-26.7292843" lon="152.7167130">
<ele>131.902</ele>
<time>2017-02-01T00:50:55.488Z</time>
</trkpt>
<trkpt lat="-26.7291990" lon="152.7164262">
<ele>133.930</ele>
<time>2017-02-01T00:50:57.502Z</time>
</trkpt>
<trkpt lat="-26.7290909" lon="152.7161244">
<ele>134.937</ele>
<time>2017-02-01T00:50:59.520Z</time>
</trkpt>
<trkpt lat="-26.7289973" lon="152.7158108">
<ele>135.001</ele>
<time>2017-02-01T00:51:01.498Z</time>
</trkpt>
<trkpt lat="-26.7288945" lon="152.7154913">
<ele>134.332</ele>
<time>2017-02-01T00:51:03.500Z</time>
</trkpt>
<trkpt lat="-26.7287305" lon="152.7150096">
<ele>133.329</ele>
<time>2017-02-01T00:51:06.535Z</time>
</trkpt>
<trkpt lat="-26.7286168" lon="152.7145188">
<ele>132.424</ele>
<time>2017-02-01T00:51:09.541Z</time>
</trkpt>
<trkpt lat="-26.7285791" lon="152.7141977">
<ele>131.792</ele>
<time>2017-02-01T00:51:11.484Z</time>
</trkpt>
<trkpt lat="-26.7285298" lon="152.7137008">
<ele>131.374</ele>
<time>2017-02-01T00:51:14.511Z</time>
</trkpt>
<trkpt lat="-26.7284962" lon="152.7133817">
<ele>130.878</ele>
<time>2017-02-01T00:51:16.567Z</time>
</trkpt>
<trkpt lat="-26.7284180" lon="152.7129532">
<ele>130.008</ele>
<time>2017-02-01T00:51:19.518Z</time>
</trkpt>
<trkpt lat="-26.7282045" lon="152.7126177">
<ele>128.962</ele>
<time>2017-02-01T00:51:22.390Z</time>
</trkpt>
<trkpt lat="-26.7279577" lon="152.7124710">
<ele>128.212</ele>
<time>2017-02-01T00:51:24.494Z</time>
</trkpt>
<trkpt lat="-26.7277133" lon="152.7123430">
<ele>127.863</ele>
<time>2017-02-01T00:51:26.470Z</time>
</trkpt>
<trkpt lat="-26.7273417" lon="152.7121432">
<ele>127.562</ele>
<time>2017-02-01T00:51:29.512Z</time>
</trkpt>
<trkpt lat="-26.7269781" lon="152.7119746">
<ele>127.072</ele>
<time>2017-02-01T00:51:32.573Z</time>
</trkpt>
<trkpt lat="-26.7267665" lon="152.7118597">
<ele>126.458</ele>
<time>2017-02-01T00:51:34.552Z</time>
</trkpt>
<trkpt lat="-26.7264601" lon="152.7116928">
<ele>125.851</ele>
<time>2017-02-01T00:51:37.440Z</time>
</trkpt>
<trkpt lat="-26.7261787" lon="152.7114508">
<ele>125.377</ele>
<time>2017-02-01T00:51:40.374Z</time>
</trkpt>
<trkpt lat="-26.7259259" lon="152.7111153">
<ele>125.400</ele>
<time>2017-02-01T00:51:43.471Z</time>
</trkpt>
<trkpt lat="-26.7256968" lon="152.7107578">
<ele>126.601</ele>
<time>2017-02-01T00:51:46.412Z</time>
</trkpt>
<trkpt lat="-26.7255396" lon="152.7104971">
<ele>129.245</ele>
<time>2017-02-01T00:51:48.376Z</time>
</trkpt>
<trkpt lat="-26.7253754" lon="152.7102136">
<ele>132.697</ele>
<time>2017-02-01T00:51:50.443Z</time>
</trkpt>
<trkpt lat="-26.7252135" lon="152.7099367">
<ele>136.087</ele>
<time>2017-02-01T00:51:52.562Z</time>
</trkpt>
<trkpt lat="-26.7249858" lon="152.7095755">
<ele>138.740</ele>
<time>2017-02-01T00:51:55.652Z</time>
</trkpt>
<trkpt lat="-26.7247985" lon="152.7092583">
<ele>140.542</ele>
<time>2017-02-01T00:51:58.723Z</time>
</trkpt>
<trkpt lat="-26.7246587" lon="152.7091123">
<ele>141.815</ele>
<time>2017-02-01T00:52:00.674Z</time>
</trkpt>
<trkpt lat="-26.7244965" lon="152.7089873">
<ele>142.446</ele>
<time>2017-02-01T00:52:02.412Z</time>
</trkpt>
<trkpt lat="-26.7241205" lon="152.7088539">
<ele>142.016</ele>
<time>2017-02-01T00:52:05.362Z</time>
</trkpt>
<trkpt lat="-26.7236044" lon="152.7089000">
<ele>140.683</ele>
<time>2017-02-01T00:52:08.570Z</time>
</trkpt>
<trkpt lat="-26.7230896" lon="152.7088487">
<ele>139.198</ele>
<time>2017-02-01T00:52:11.624Z</time>
</trkpt>
<trkpt lat="-26.7227894" lon="152.7086851">
<ele>137.639</ele>
<time>2017-02-01T00:52:13.597Z</time>
</trkpt>
<trkpt lat="-26.7223537" lon="152.7083819">
<ele>135.715</ele>
<time>2017-02-01T00:52:16.570Z</time>
</trkpt>
<trkpt lat="-26.7219162" lon="152.7080495">
<ele>134.405</ele>
<time>2017-02-01T00:52:19.490Z</time>
</trkpt>
<trkpt lat="-26.7214343" lon="152.7076928">
<ele>134.775</ele>
<time>2017-02-01T00:52:22.526Z</time>
</trkpt>
<trkpt lat="-26.7211046" lon="152.7074672">
<ele>136.162</ele>
<time>2017-02-01T00:52:24.530Z</time>
</trkpt>
<trkpt lat="-26.7206247" lon="152.7071187">
<ele>136.930</ele>
<time>2017-02-01T00:52:27.526Z</time>
</trkpt>
<trkpt lat="-26.7203071" lon="152.7068834">
<ele>136.372</ele>
<time>2017-02-01T00:52:29.525Z</time>
</trkpt>
<trkpt lat="-26.7199801" lon="152.7066523">
<ele>135.422</ele>
<time>2017-02-01T00:52:31.489Z</time>
</trkpt>
<trkpt lat="-26.7194620" lon="152.7062926">
<ele>135.028</ele>
<time>2017-02-01T00:52:34.503Z</time>
</trkpt>
<trkpt lat="-26.7189615" lon="152.7058813">
<ele>134.607</ele>
<time>2017-02-01T00:52:37.508Z</time>
</trkpt>
<trkpt lat="-26.7186456" lon="152.7055862">
<ele>133.312</ele>
<time>2017-02-01T00:52:39.503Z</time>
</trkpt>
<trkpt lat="-26.7181987" lon="152.7051097">
<ele>131.460</ele>
<time>2017-02-01T00:52:42.517Z</time>
</trkpt>
<trkpt lat="-26.7179146" lon="152.7047875">
<ele>129.956</ele>
<time>2017-02-01T00:52:44.500Z</time>
</trkpt>
<trkpt lat="-26.7174509" lon="152.7043414">
<ele>129.121</ele>
<time>2017-02-01T00:52:47.523Z</time>
</trkpt>
<trkpt lat="-26.7169611" lon="152.7039644">
<ele>128.721</ele>
<time>2017-02-01T00:52:50.499Z</time>
</trkpt>
<trkpt lat="-26.7164552" lon="152.7035996">
<ele>128.290</ele>
<time>2017-02-01T00:52:53.502Z</time>
</trkpt>
<trkpt lat="-26.7159735" lon="152.7031951">
<ele>127.570</ele>
<time>2017-02-01T00:52:56.492Z</time>
</trkpt>
<trkpt lat="-26.7156327" lon="152.7029492">
<ele>126.513</ele>
<time>2017-02-01T00:52:58.512Z</time>
</trkpt>
<trkpt lat="-26.7151322" lon="152.7025863">
<ele>125.212</ele>
<time>2017-02-01T00:53:01.484Z</time>
</trkpt>
<trkpt lat="-26.7147855" lon="152.7023536">
<ele>124.007</ele>
<time>2017-02-01T00:53:03.482Z</time>
</trkpt>
<trkpt lat="-26.7144482" lon="152.7021078">
<ele>123.273</ele>
<time>2017-02-01T00:53:05.445Z</time>
</trkpt>
<trkpt lat="-26.7141044" lon="152.7018462">
<ele>123.001</ele>
<time>2017-02-01T00:53:07.458Z</time>
</trkpt>
<trkpt lat="-26.7135947" lon="152.7014370">
<ele>123.021</ele>
<time>2017-02-01T00:53:10.486Z</time>
</trkpt>
<trkpt lat="-26.7132699" lon="152.7011735">
<ele>123.173</ele>
<time>2017-02-01T00:53:12.404Z</time>
</trkpt>
<trkpt lat="-26.7129253" lon="152.7008931">
<ele>123.314</ele>
<time>2017-02-01T00:53:14.397Z</time>
</trkpt>
<trkpt lat="-26.7125760" lon="152.7005994">
<ele>123.573</ele>
<time>2017-02-01T00:53:16.395Z</time>
</trkpt>
<trkpt lat="-26.7122162" lon="152.7003050">
<ele>124.091</ele>
<time>2017-02-01T00:53:18.402Z</time>
</trkpt>
<trkpt lat="-26.7116816" lon="152.6998551">
<ele>124.576</ele>
<time>2017-02-01T00:53:21.404Z</time>
</trkpt>
<trkpt lat="-26.7113305" lon="152.6995539">
<ele>124.619</ele>
<time>2017-02-01T00:53:23.389Z</time>
</trkpt>
<trkpt lat="-26.7109736" lon="152.6992605">
<ele>124.259</ele>
<time>2017-02-01T00:53:25.324Z</time>
</trkpt>
<trkpt lat="-26.7104096" lon="152.6987905">
<ele>123.976</ele>
<time>2017-02-01T00:53:28.304Z</time>
</trkpt>
<trkpt lat="-26.7100038" lon="152.6984677">
<ele>124.321</ele>
<time>2017-02-01T00:53:30.346Z</time>
</trkpt>
<trkpt lat="-26.7096065" lon="152.6981377">
<ele>125.327</ele>
<time>2017-02-01T00:53:32.388Z</time>
</trkpt>
<trkpt lat="-26.7090223" lon="152.6976663">
<ele>126.432</ele>
<time>2017-02-01T00:53:35.462Z</time>
</trkpt>
<trkpt lat="-26.7084973" lon="152.6972244">
<ele>126.874</ele>
<time>2017-02-01T00:53:38.491Z</time>
</trkpt>
<trkpt lat="-26.7080419" lon="152.6968045">
<ele>126.107</ele>
<time>2017-02-01T00:53:41.456Z</time>
</trkpt>
<trkpt lat="-26.7078275" lon="152.6964725">
<ele>124.480</ele>
<time>2017-02-01T00:53:43.386Z</time>
</trkpt>
<trkpt lat="-26.7076964" lon="152.6960707">
<ele>123.323</ele>
<time>2017-02-01T00:53:45.355Z</time>
</trkpt>
<trkpt lat="-26.7077168" lon="152.6954012">
<ele>123.491</ele>
<time>2017-02-01T00:53:48.348Z</time>
</trkpt>
<trkpt lat="-26.7078711" lon="152.6947518">
<ele>124.772</ele>
<time>2017-02-01T00:53:51.278Z</time>
</trkpt>
<trkpt lat="-26.7080306" lon="152.6940947">
<ele>126.486</ele>
<time>2017-02-01T00:53:54.240Z</time>
</trkpt>
<trkpt lat="-26.7081344" lon="152.6936564">
<ele>127.843</ele>
<time>2017-02-01T00:53:56.266Z</time>
</trkpt>
<trkpt lat="-26.7082883" lon="152.6930257">
<ele>128.552</ele>
<time>2017-02-01T00:53:59.324Z</time>
</trkpt>
<trkpt lat="-26.7083040" lon="152.6924444">
<ele>129.106</ele>
<time>2017-02-01T00:54:02.223Z</time>
</trkpt>
<trkpt lat="-26.7082109" lon="152.6920865">
<ele>129.897</ele>
<time>2017-02-01T00:54:04.160Z</time>
</trkpt>
<trkpt lat="-26.7079865" lon="152.6917895">
<ele>130.793</ele>
<time>2017-02-01T00:54:06.150Z</time>
</trkpt>
<trkpt lat="-26.7074661" lon="152.6915125">
<ele>131.402</ele>
<time>2017-02-01T00:54:09.291Z</time>
</trkpt>
<trkpt lat="-26.7071046" lon="152.6913389">
<ele>131.379</ele>
<time>2017-02-01T00:54:11.334Z</time>
</trkpt>
<trkpt lat="-26.7065888" lon="152.6910556">
<ele>130.423</ele>
<time>2017-02-01T00:54:14.347Z</time>
</trkpt>
<trkpt lat="-26.7062697" lon="152.6908501">
<ele>128.656</ele>
<time>2017-02-01T00:54:16.300Z</time>
</trkpt>
<trkpt lat="-26.7059793" lon="152.6905640">
<ele>126.772</ele>
<time>2017-02-01T00:54:18.319Z</time>
</trkpt>
<trkpt lat="-26.7057120" lon="152.6902434">
<ele>125.303</ele>
<time>2017-02-01T00:54:20.335Z</time>
</trkpt>
<trkpt lat="-26.7054827" lon="152.6898811">
<ele>124.320</ele>
<time>2017-02-01T00:54:22.394Z</time>
</trkpt>
<trkpt lat="-26.7053095" lon="152.6895079">
<ele>124.238</ele>
<time>2017-02-01T00:54:24.345Z</time>
</trkpt>
<trkpt lat="-26.7051031" lon="152.6889012">
<ele>125.202</ele>
<time>2017-02-01T00:54:27.316Z</time>
</trkpt>
<trkpt lat="-26.7049541" lon="152.6884944">
<ele>126.374</ele>
<time>2017-02-01T00:54:29.274Z</time>
</trkpt>
<trkpt lat="-26.7047526" lon="152.6878496">
<ele>126.579</ele>
<time>2017-02-01T00:54:32.273Z</time>
</trkpt>
<trkpt lat="-26.7045341" lon="152.6871949">
<ele>125.064</ele>
<time>2017-02-01T00:54:35.309Z</time>
</trkpt>
<trkpt lat="-26.7043953" lon="152.6867666">
<ele>122.114</ele>
<time>2017-02-01T00:54:37.363Z</time>
</trkpt>
<trkpt lat="-26.7042055" lon="152.6861726">
<ele>119.079</ele>
<time>2017-02-01T00:54:40.379Z</time>
</trkpt>
<trkpt lat="-26.7040858" lon="152.6858222">
<ele>116.749</ele>
<time>2017-02-01T00:54:42.373Z</time>
</trkpt>
<trkpt lat="-26.7039222" lon="152.6853376">
<ele>114.871</ele>
<time>2017-02-01T00:54:45.283Z</time>
</trkpt>
<trkpt lat="-26.7037622" lon="152.6848639">
<ele>113.354</ele>
<time>2017-02-01T00:54:48.221Z</time>
</trkpt>
<trkpt lat="-26.7036045" lon="152.6845630">
<ele>112.528</ele>
<time>2017-02-01T00:54:50.093Z</time>
</trkpt>
<trkpt lat="-26.7031519" lon="152.6841676">
<ele>112.653</ele>
<time>2017-02-01T00:54:53.187Z</time>
</trkpt>
<trkpt lat="-26.7025985" lon="152.6838055">
<ele>114.157</ele>
<time>2017-02-01T00:54:56.311Z</time>
</trkpt>
<trkpt lat="-26.7020918" lon="152.6834518">
<ele>116.919</ele>
<time>2017-02-01T00:54:59.175Z</time>
</trkpt>
<trkpt lat="-26.7015588" lon="152.6830488">
<ele>120.036</ele>
<time>2017-02-01T00:55:02.236Z</time>
</trkpt>
<trkpt lat="-26.7009666" lon="152.6827033">
<ele>122.696</ele>
<time>2017-02-01T00:55:05.334Z</time>
</trkpt>
<trkpt lat="-26.7005889" lon="152.6824541">
<ele>124.397</ele>
<time>2017-02-01T00:55:07.318Z</time>
</trkpt>
<trkpt lat="-26.6999937" lon="152.6820800">
<ele>125.012</ele>
<time>2017-02-01T00:55:10.367Z</time>
</trkpt>
<trkpt lat="-26.6995825" lon="152.6818707">
<ele>124.827</ele>
<time>2017-02-01T00:55:12.352Z</time>
</trkpt>
<trkpt lat="-26.6989361" lon="152.6816423">
<ele>124.188</ele>
<time>2017-02-01T00:55:15.330Z</time>
</trkpt>
<trkpt lat="-26.6982751" lon="152.6814835">
<ele>123.247</ele>
<time>2017-02-01T00:55:18.331Z</time>
</trkpt>
<trkpt lat="-26.6978424" lon="152.6813874">
<ele>121.983</ele>
<time>2017-02-01T00:55:20.322Z</time>
</trkpt>
<trkpt lat="-26.6974065" lon="152.6812851">
<ele>120.555</ele>
<time>2017-02-01T00:55:22.351Z</time>
</trkpt>
<trkpt lat="-26.6969770" lon="152.6811802">
<ele>119.267</ele>
<time>2017-02-01T00:55:24.360Z</time>
</trkpt>
<trkpt lat="-26.6963402" lon="152.6810254">
<ele>118.425</ele>
<time>2017-02-01T00:55:27.306Z</time>
</trkpt>
<trkpt lat="-26.6958874" lon="152.6809285">
<ele>118.303</ele>
<time>2017-02-01T00:55:29.338Z</time>
</trkpt>
<trkpt lat="-26.6954318" lon="152.6808192">
<ele>118.846</ele>
<time>2017-02-01T00:55:31.405Z</time>
</trkpt>
<trkpt lat="-26.6947692" lon="152.6806873">
<ele>119.689</ele>
<time>2017-02-01T00:55:34.515Z</time>
</trkpt>
<trkpt lat="-26.6941862" lon="152.6805560">
<ele>120.120</ele>
<time>2017-02-01T00:55:37.455Z</time>
</trkpt>
<trkpt lat="-26.6938141" lon="152.6804676">
<ele>119.523</ele>
<time>2017-02-01T00:55:39.427Z</time>
</trkpt>
<trkpt lat="-26.6932459" lon="152.6803799">
<ele>118.104</ele>
<time>2017-02-01T00:55:42.429Z</time>
</trkpt>
<trkpt lat="-26.6928666" lon="152.6803961">
<ele>116.703</ele>
<time>2017-02-01T00:55:44.416Z</time>
</trkpt>
<trkpt lat="-26.6924907" lon="152.6804372">
<ele>115.953</ele>
<time>2017-02-01T00:55:46.402Z</time>
</trkpt>
<trkpt lat="-26.6919271" lon="152.6804982">
<ele>115.818</ele>
<time>2017-02-01T00:55:49.394Z</time>
</trkpt>
<trkpt lat="-26.6913649" lon="152.6805437">
<ele>115.864</ele>
<time>2017-02-01T00:55:52.375Z</time>
</trkpt>
<trkpt lat="-26.6907945" lon="152.6805939">
<ele>115.816</ele>
<time>2017-02-01T00:55:55.419Z</time>
</trkpt>
<trkpt lat="-26.6904432" lon="152.6805888">
<ele>115.838</ele>
<time>2017-02-01T00:55:57.365Z</time>
</trkpt>
<trkpt lat="-26.6900973" lon="152.6805167">
<ele>116.277</ele>
<time>2017-02-01T00:55:59.431Z</time>
</trkpt>
<trkpt lat="-26.6896641" lon="152.6803211">
<ele>117.028</ele>
<time>2017-02-01T00:56:02.286Z</time>
</trkpt>
<trkpt lat="-26.6893817" lon="152.6801891">
<ele>117.459</ele>
<time>2017-02-01T00:56:04.218Z</time>
</trkpt>
<trkpt lat="-26.6889375" lon="152.6800256">
<ele>117.263</ele>
<time>2017-02-01T00:56:07.202Z</time>
</trkpt>
<trkpt lat="-26.6885039" lon="152.6798449">
<ele>116.681</ele>
<time>2017-02-01T00:56:10.234Z</time>
</trkpt>
<trkpt lat="-26.6882393" lon="152.6796755">
<ele>115.967</ele>
<time>2017-02-01T00:56:12.301Z</time>
</trkpt>
<trkpt lat="-26.6880123" lon="152.6794858">
<ele>115.141</ele>
<time>2017-02-01T00:56:14.329Z</time>
</trkpt>
<trkpt lat="-26.6877443" lon="152.6791945">
<ele>114.019</ele>
<time>2017-02-01T00:56:17.242Z</time>
</trkpt>
<trkpt lat="-26.6875989" lon="152.6790138">
<ele>112.516</ele>
<time>2017-02-01T00:56:19.236Z</time>
</trkpt>
<trkpt lat="-26.6874070" lon="152.6787692">
<ele>111.096</ele>
<time>2017-02-01T00:56:22.140Z</time>
</trkpt>
<trkpt lat="-26.6872891" lon="152.6786267">
<ele>110.279</ele>
<time>2017-02-01T00:56:24.060Z</time>
</trkpt>
<trkpt lat="-26.6870836" lon="152.6784544">
<ele>110.053</ele>
<time>2017-02-01T00:56:27.085Z</time>
</trkpt>
<trkpt lat="-26.6869315" lon="152.6784006">
<ele>110.028</ele>
<time>2017-02-01T00:56:28.995Z</time>
</trkpt>
<trkpt lat="-26.6866679" lon="152.6784078">
<ele>109.860</ele>
<time>2017-02-01T00:56:32.037Z</time>
</trkpt>
<trkpt lat="-26.6864991" lon="152.6784491">
<ele>109.509</ele>
<time>2017-02-01T00:56:33.896Z</time>
</trkpt>
<trkpt lat="-26.6862202" lon="152.6785704">
<ele>109.187</ele>
<time>2017-02-01T00:56:36.861Z</time>
</trkpt>
<trkpt lat="-26.6859110" lon="152.6787803">
<ele>109.245</ele>
<time>2017-02-01T00:56:40.019Z</time>
</trkpt>
<trkpt lat="-26.6857486" lon="152.6789946">
<ele>110.034</ele>
<time>2017-02-01T00:56:41.979Z</time>
</trkpt>
<trkpt lat="-26.6855119" lon="152.6793797">
<ele>111.713</ele>
<time>2017-02-01T00:56:45.001Z</time>
</trkpt>
<trkpt lat="-26.6851752" lon="152.6797110">
<ele>114.250</ele>
<time>2017-02-01T00:56:47.949Z</time>
</trkpt>
<trkpt lat="-26.6848923" lon="152.6799202">
<ele>117.112</ele>
<time>2017-02-01T00:56:49.906Z</time>
</trkpt>
<trkpt lat="-26.6845480" lon="152.6801438">
<ele>119.452</ele>
<time>2017-02-01T00:56:51.924Z</time>
</trkpt>
<trkpt lat="-26.6841537" lon="152.6803626">
<ele>121.291</ele>
<time>2017-02-01T00:56:53.971Z</time>
</trkpt>
<trkpt lat="-26.6837570" lon="152.6805867">
<ele>122.955</ele>
<time>2017-02-01T00:56:56.045Z</time>
</trkpt>
<trkpt lat="-26.6832210" lon="152.6808967">
<ele>123.796</ele>
<time>2017-02-01T00:56:58.987Z</time>
</trkpt>
<trkpt lat="-26.6828782" lon="152.6810848">
<ele>122.978</ele>
<time>2017-02-01T00:57:00.942Z</time>
</trkpt>
<trkpt lat="-26.6823582" lon="152.6814040">
<ele>120.915</ele>
<time>2017-02-01T00:57:04.012Z</time>
</trkpt>
<trkpt lat="-26.6820262" lon="152.6815931">
<ele>118.968</ele>
<time>2017-02-01T00:57:05.963Z</time>
</trkpt>
<trkpt lat="-26.6814976" lon="152.6817931">
<ele>118.095</ele>
<time>2017-02-01T00:57:08.906Z</time>
</trkpt>
<trkpt lat="-26.6809143" lon="152.6818218">
<ele>118.250</ele>
<time>2017-02-01T00:57:11.936Z</time>
</trkpt>
<trkpt lat="-26.6805085" lon="152.6817583">
<ele>118.773</ele>
<time>2017-02-01T00:57:13.998Z</time>
</trkpt>
<trkpt lat="-26.6801069" lon="152.6816755">
<ele>118.753</ele>
<time>2017-02-01T00:57:16.037Z</time>
</trkpt>
<trkpt lat="-26.6795084" lon="152.6815566">
<ele>117.902</ele>
<time>2017-02-01T00:57:19.080Z</time>
</trkpt>
<trkpt lat="-26.6789329" lon="152.6814439">
<ele>116.623</ele>
<time>2017-02-01T00:57:22.039Z</time>
</trkpt>
<trkpt lat="-26.6783523" lon="152.6813836">
<ele>115.388</ele>
<time>2017-02-01T00:57:25.011Z</time>
</trkpt>
<trkpt lat="-26.6777492" lon="152.6814011">
<ele>114.710</ele>
<time>2017-02-01T00:57:28.049Z</time>
</trkpt>
<trkpt lat="-26.6773535" lon="152.6814584">
<ele>114.935</ele>
<time>2017-02-01T00:57:30.031Z</time>
</trkpt>
<trkpt lat="-26.6767616" lon="152.6815892">
<ele>115.706</ele>
<time>2017-02-01T00:57:32.989Z</time>
</trkpt>
<trkpt lat="-26.6761216" lon="152.6817329">
<ele>116.462</ele>
<time>2017-02-01T00:57:36.072Z</time>
</trkpt>
<trkpt lat="-26.6756977" lon="152.6818327">
<ele>117.281</ele>
<time>2017-02-01T00:57:38.060Z</time>
</trkpt>
<trkpt lat="-26.6750540" lon="152.6819813">
<ele>118.394</ele>
<time>2017-02-01T00:57:41.082Z</time>
</trkpt>
<trkpt lat="-26.6746292" lon="152.6820754">
<ele>119.305</ele>
<time>2017-02-01T00:57:43.086Z</time>
</trkpt>
<trkpt lat="-26.6742028" lon="152.6821724">
<ele>119.283</ele>
<time>2017-02-01T00:57:45.067Z</time>
</trkpt>
<trkpt lat="-26.6737556" lon="152.6822760">
<ele>118.234</ele>
<time>2017-02-01T00:57:47.102Z</time>
</trkpt>
<trkpt lat="-26.6730828" lon="152.6823939">
<ele>116.777</ele>
<time>2017-02-01T00:57:50.122Z</time>
</trkpt>
<trkpt lat="-26.6726347" lon="152.6824312">
<ele>115.628</ele>
<time>2017-02-01T00:57:52.100Z</time>
</trkpt>
<trkpt lat="-26.6719446" lon="152.6823952">
<ele>114.652</ele>
<time>2017-02-01T00:57:55.094Z</time>
</trkpt>
<trkpt lat="-26.6714718" lon="152.6823717">
<ele>113.528</ele>
<time>2017-02-01T00:57:57.129Z</time>
</trkpt>
<trkpt lat="-26.6707773" lon="152.6823202">
<ele>112.618</ele>
<time>2017-02-01T00:58:00.142Z</time>
</trkpt>
<trkpt lat="-26.6703226" lon="152.6822951">
<ele>112.298</ele>
<time>2017-02-01T00:58:02.132Z</time>
</trkpt>
<trkpt lat="-26.6696375" lon="152.6822445">
<ele>112.405</ele>
<time>2017-02-01T00:58:05.148Z</time>
</trkpt>
<trkpt lat="-26.6691780" lon="152.6822184">
<ele>112.644</ele>
<time>2017-02-01T00:58:07.160Z</time>
</trkpt>
<trkpt lat="-26.6687179" lon="152.6821842">
<ele>112.823</ele>
<time>2017-02-01T00:58:09.172Z</time>
</trkpt>
<trkpt lat="-26.6680233" lon="152.6821382">
<ele>112.883</ele>
<time>2017-02-01T00:58:12.229Z</time>
</trkpt>
<trkpt lat="-26.6675795" lon="152.6821110">
<ele>112.866</ele>
<time>2017-02-01T00:58:14.199Z</time>
</trkpt>
<trkpt lat="-26.6669186" lon="152.6820695">
<ele>112.775</ele>
<time>2017-02-01T00:58:17.144Z</time>
</trkpt>
<trkpt lat="-26.6664675" lon="152.6820340">
<ele>112.609</ele>
<time>2017-02-01T00:58:19.168Z</time>
</trkpt>
<trkpt lat="-26.6660135" lon="152.6820018">
<ele>112.456</ele>
<time>2017-02-01T00:58:21.230Z</time>
</trkpt>
<trkpt lat="-26.6653645" lon="152.6819734">
<ele>112.278</ele>
<time>2017-02-01T00:58:24.233Z</time>
</trkpt>
<trkpt lat="-26.6649422" lon="152.6819485">
<ele>111.798</ele>
<time>2017-02-01T00:58:26.260Z</time>
</trkpt>
<trkpt lat="-26.6643284" lon="152.6819220">
<ele>110.991</ele>
<time>2017-02-01T00:58:29.266Z</time>
</trkpt>
<trkpt lat="-26.6637298" lon="152.6818926">
<ele>110.221</ele>
<time>2017-02-01T00:58:32.283Z</time>
</trkpt>
<trkpt lat="-26.6631631" lon="152.6818195">
<ele>109.630</ele>
<time>2017-02-01T00:58:35.235Z</time>
</trkpt>
<trkpt lat="-26.6627846" lon="152.6817356">
<ele>109.122</ele>
<time>2017-02-01T00:58:37.230Z</time>
</trkpt>
<trkpt lat="-26.6624245" lon="152.6815732">
<ele>108.690</ele>
<time>2017-02-01T00:58:39.211Z</time>
</trkpt>
<trkpt lat="-26.6620765" lon="152.6813624">
<ele>108.446</ele>
<time>2017-02-01T00:58:41.197Z</time>
</trkpt>
<trkpt lat="-26.6617137" lon="152.6811537">
<ele>108.489</ele>
<time>2017-02-01T00:58:43.185Z</time>
</trkpt>
<trkpt lat="-26.6611170" lon="152.6809011">
<ele>108.890</ele>
<time>2017-02-01T00:58:46.206Z</time>
</trkpt>
<trkpt lat="-26.6604669" lon="152.6807966">
<ele>109.552</ele>
<time>2017-02-01T00:58:49.227Z</time>
</trkpt>
<trkpt lat="-26.6598131" lon="152.6807296">
<ele>110.232</ele>
<time>2017-02-01T00:58:52.218Z</time>
</trkpt>
<trkpt lat="-26.6591435" lon="152.6806762">
<ele>110.799</ele>
<time>2017-02-01T00:58:55.261Z</time>
</trkpt>
<trkpt lat="-26.6587020" lon="152.6806311">
<ele>111.268</ele>
<time>2017-02-01T00:58:57.255Z</time>
</trkpt>
<trkpt lat="-26.6582640" lon="152.6805789">
<ele>111.550</ele>
<time>2017-02-01T00:58:59.253Z</time>
</trkpt>
<trkpt lat="-26.6576142" lon="152.6805120">
<ele>111.631</ele>
<time>2017-02-01T00:59:02.236Z</time>
</trkpt>
<trkpt lat="-26.6569631" lon="152.6804450">
<ele>111.569</ele>
<time>2017-02-01T00:59:05.267Z</time>
</trkpt>
<trkpt lat="-26.6563376" lon="152.6803903">
<ele>111.265</ele>
<time>2017-02-01T00:59:08.285Z</time>
</trkpt>
<trkpt lat="-26.6557479" lon="152.6803258">
<ele>110.499</ele>
<time>2017-02-01T00:59:11.353Z</time>
</trkpt>
<trkpt lat="-26.6554017" lon="152.6802948">
<ele>109.414</ele>
<time>2017-02-01T00:59:13.369Z</time>
</trkpt>
<trkpt lat="-26.6550763" lon="152.6802732">
<ele>108.498</ele>
<time>2017-02-01T00:59:15.477Z</time>
</trkpt>
<trkpt lat="-26.6547996" lon="152.6802773">
<ele>107.896</ele>
<time>2017-02-01T00:59:17.521Z</time>
</trkpt>
<trkpt lat="-26.6544399" lon="152.6803146">
<ele>107.343</ele>
<time>2017-02-01T00:59:20.458Z</time>
</trkpt>
<trkpt lat="-26.6541251" lon="152.6804271">
<ele>106.516</ele>
<time>2017-02-01T00:59:23.533Z</time>
</trkpt>
<trkpt lat="-26.6538735" lon="152.6805452">
<ele>105.273</ele>
<time>2017-02-01T00:59:26.441Z</time>
</trkpt>
<trkpt lat="-26.6537254" lon="152.6806275">
<ele>103.794</ele>
<time>2017-02-01T00:59:28.165Z</time>
</trkpt>
<trkpt lat="-26.6535174" lon="152.6807284">
<ele>102.518</ele>
<time>2017-02-01T00:59:30.131Z</time>
</trkpt>
<trkpt lat="-26.6532720" lon="152.6808735">
<ele>102.108</ele>
<time>2017-02-01T00:59:32.049Z</time>
</trkpt>
<trkpt lat="-26.6528484" lon="152.6812216">
<ele>103.194</ele>
<time>2017-02-01T00:59:35.132Z</time>
</trkpt>
<trkpt lat="-26.6525343" lon="152.6815442">
<ele>106.102</ele>
<time>2017-02-01T00:59:37.266Z</time>
</trkpt>
<trkpt lat="-26.6521887" lon="152.6818750">
<ele>110.378</ele>
<time>2017-02-01T00:59:39.424Z</time>
</trkpt>
<trkpt lat="-26.6518479" lon="152.6821564">
<ele>114.363</ele>
<time>2017-02-01T00:59:41.617Z</time>
</trkpt>
<trkpt lat="-26.6514379" lon="152.6824799">
<ele>116.555</ele>
<time>2017-02-01T00:59:44.598Z</time>
</trkpt>
<trkpt lat="-26.6512061" lon="152.6826480">
<ele>116.107</ele>
<time>2017-02-01T00:59:46.394Z</time>
</trkpt>
<trkpt lat="-26.6508008" lon="152.6829066">
<ele>113.340</ele>
<time>2017-02-01T00:59:49.280Z</time>
</trkpt>
<trkpt lat="-26.6504786" lon="152.6830801">
<ele>110.376</ele>
<time>2017-02-01T00:59:51.275Z</time>
</trkpt>
<trkpt lat="-26.6501059" lon="152.6832512">
<ele>108.998</ele>
<time>2017-02-01T00:59:53.423Z</time>
</trkpt>
<trkpt lat="-26.6497438" lon="152.6834009">
<ele>109.003</ele>
<time>2017-02-01T00:59:55.431Z</time>
</trkpt>
<trkpt lat="-26.6491661" lon="152.6835444">
<ele>109.752</ele>
<time>2017-02-01T00:59:58.497Z</time>
</trkpt>
<trkpt lat="-26.6487876" lon="152.6836101">
<ele>110.932</ele>
<time>2017-02-01T01:00:00.549Z</time>
</trkpt>
<trkpt lat="-26.6484235" lon="152.6836463">
<ele>112.188</ele>
<time>2017-02-01T01:00:02.610Z</time>
</trkpt>
<trkpt lat="-26.6480802" lon="152.6836716">
<ele>112.837</ele>
<time>2017-02-01T01:00:04.599Z</time>
</trkpt>
<trkpt lat="-26.6477328" lon="152.6836642">
<ele>112.438</ele>
<time>2017-02-01T01:00:06.579Z</time>
</trkpt>
<trkpt lat="-26.6473786" lon="152.6836330">
<ele>111.360</ele>
<time>2017-02-01T01:00:08.564Z</time>
</trkpt>
<trkpt lat="-26.6470224" lon="152.6835693">
<ele>110.372</ele>
<time>2017-02-01T01:00:10.569Z</time>
</trkpt>
<trkpt lat="-26.6466744" lon="152.6834818">
<ele>109.832</ele>
<time>2017-02-01T01:00:12.555Z</time>
</trkpt>
<trkpt lat="-26.6461489" lon="152.6833450">
<ele>109.497</ele>
<time>2017-02-01T01:00:15.518Z</time>
</trkpt>
<trkpt lat="-26.6456013" lon="152.6832051">
<ele>109.057</ele>
<time>2017-02-01T01:00:18.480Z</time>
</trkpt>
<trkpt lat="-26.6450157" lon="152.6830627">
<ele>108.532</ele>
<time>2017-02-01T01:00:21.531Z</time>
</trkpt>
<trkpt lat="-26.6446409" lon="152.6829615">
<ele>108.181</ele>
<time>2017-02-01T01:00:23.519Z</time>
</trkpt>
<trkpt lat="-26.6440818" lon="152.6828384">
<ele>108.102</ele>
<time>2017-02-01T01:00:26.562Z</time>
</trkpt>
<trkpt lat="-26.6437367" lon="152.6827962">
<ele>108.190</ele>
<time>2017-02-01T01:00:28.500Z</time>
</trkpt>
<trkpt lat="-26.6432011" lon="152.6828933">
<ele>108.136</ele>
<time>2017-02-01T01:00:31.493Z</time>
</trkpt>
<trkpt lat="-26.6428459" lon="152.6830558">
<ele>107.788</ele>
<time>2017-02-01T01:00:33.500Z</time>
</trkpt>
<trkpt lat="-26.6424966" lon="152.6832918">
<ele>107.472</ele>
<time>2017-02-01T01:00:35.588Z</time>
</trkpt>
<trkpt lat="-26.6421757" lon="152.6835153">
<ele>107.729</ele>
<time>2017-02-01T01:00:37.550Z</time>
</trkpt>
<trkpt lat="-26.6417116" lon="152.6838764">
<ele>108.657</ele>
<time>2017-02-01T01:00:40.550Z</time>
</trkpt>
<trkpt lat="-26.6412647" lon="152.6842241">
<ele>109.731</ele>
<time>2017-02-01T01:00:43.525Z</time>
</trkpt>
<trkpt lat="-26.6408257" lon="152.6845592">
<ele>110.311</ele>
<time>2017-02-01T01:00:46.470Z</time>
</trkpt>
<trkpt lat="-26.6403680" lon="152.6848975">
<ele>110.290</ele>
<time>2017-02-01T01:00:49.498Z</time>
</trkpt>
<trkpt lat="-26.6400726" lon="152.6851327">
<ele>109.669</ele>
<time>2017-02-01T01:00:51.428Z</time>
</trkpt>
<trkpt lat="-26.6396615" lon="152.6855679">
<ele>108.288</ele>
<time>2017-02-01T01:00:54.327Z</time>
</trkpt>
<trkpt lat="-26.6392845" lon="152.6861359">
<ele>106.581</ele>
<time>2017-02-01T01:00:57.446Z</time>
</trkpt>
<trkpt lat="-26.6390852" lon="152.6865221">
<ele>105.774</ele>
<time>2017-02-01T01:00:59.429Z</time>
</trkpt>
<trkpt lat="-26.6387646" lon="152.6870900">
<ele>106.569</ele>
<time>2017-02-01T01:01:02.471Z</time>
</trkpt>
<trkpt lat="-26.6383914" lon="152.6875775">
<ele>108.420</ele>
<time>2017-02-01T01:01:05.487Z</time>
</trkpt>
<trkpt lat="-26.6380861" lon="152.6877955">
<ele>110.263</ele>
<time>2017-02-01T01:01:07.525Z</time>
</trkpt>
<trkpt lat="-26.6377632" lon="152.6879086">
<ele>111.451</ele>
<time>2017-02-01T01:01:09.508Z</time>
</trkpt>
<trkpt lat="-26.6372590" lon="152.6879033">
<ele>111.898</ele>
<time>2017-02-01T01:01:12.488Z</time>
</trkpt>
<trkpt lat="-26.6369376" lon="152.6877628">
<ele>111.811</ele>
<time>2017-02-01T01:01:14.440Z</time>
</trkpt>
<trkpt lat="-26.6364480" lon="152.6874801">
<ele>111.450</ele>
<time>2017-02-01T01:01:17.421Z</time>
</trkpt>
<trkpt lat="-26.6359500" lon="152.6871586">
<ele>111.076</ele>
<time>2017-02-01T01:01:20.426Z</time>
</trkpt>
<trkpt lat="-26.6354387" lon="152.6868519">
<ele>110.792</ele>
<time>2017-02-01T01:01:23.443Z</time>
</trkpt>
<trkpt lat="-26.6349426" lon="152.6865292">
<ele>110.298</ele>
<time>2017-02-01T01:01:26.422Z</time>
</trkpt>
<trkpt lat="-26.6344353" lon="152.6862100">
<ele>109.392</ele>
<time>2017-02-01T01:01:29.493Z</time>
</trkpt>
<trkpt lat="-26.6341023" lon="152.6860245">
<ele>108.321</ele>
<time>2017-02-01T01:01:31.508Z</time>
</trkpt>
<trkpt lat="-26.6335711" lon="152.6858294">
<ele>107.436</ele>
<time>2017-02-01T01:01:34.521Z</time>
</trkpt>
<trkpt lat="-26.6332040" lon="152.6857643">
<ele>107.251</ele>
<time>2017-02-01T01:01:36.482Z</time>
</trkpt>
<trkpt lat="-26.6326259" lon="152.6857413">
<ele>107.968</ele>
<time>2017-02-01T01:01:39.508Z</time>
</trkpt>
<trkpt lat="-26.6322475" lon="152.6857408">
<ele>108.870</ele>
<time>2017-02-01T01:01:41.476Z</time>
</trkpt>
<trkpt lat="-26.6316553" lon="152.6858071">
<ele>109.297</ele>
<time>2017-02-01T01:01:44.585Z</time>
</trkpt>
<trkpt lat="-26.6312844" lon="152.6858397">
<ele>109.331</ele>
<time>2017-02-01T01:01:46.576Z</time>
</trkpt>
<trkpt lat="-26.6307240" lon="152.6858475">
<ele>109.232</ele>
<time>2017-02-01T01:01:49.660Z</time>
</trkpt>
<trkpt lat="-26.6301974" lon="152.6859038">
<ele>108.749</ele>
<time>2017-02-01T01:01:52.697Z</time>
</trkpt>
<trkpt lat="-26.6298847" lon="152.6860145">
<ele>107.429</ele>
<time>2017-02-01T01:01:54.576Z</time>
</trkpt>
<trkpt lat="-26.6294295" lon="152.6863199">
<ele>105.681</ele>
<time>2017-02-01T01:01:57.547Z</time>
</trkpt>
<trkpt lat="-26.6291632" lon="152.6865950">
<ele>104.343</ele>
<time>2017-02-01T01:01:59.562Z</time>
</trkpt>
<trkpt lat="-26.6289326" lon="152.6868800">
<ele>103.636</ele>
<time>2017-02-01T01:02:01.522Z</time>
</trkpt>
<trkpt lat="-26.6286012" lon="152.6873379">
<ele>103.380</ele>
<time>2017-02-01T01:02:04.548Z</time>
</trkpt>
<trkpt lat="-26.6282272" lon="152.6877422">
<ele>103.715</ele>
<time>2017-02-01T01:02:07.510Z</time>
</trkpt>
<trkpt lat="-26.6279352" lon="152.6879620">
<ele>104.853</ele>
<time>2017-02-01T01:02:09.451Z</time>
</trkpt>
<trkpt lat="-26.6274444" lon="152.6882713">
<ele>106.296</ele>
<time>2017-02-01T01:02:12.498Z</time>
</trkpt>
<trkpt lat="-26.6271208" lon="152.6884826">
<ele>107.150</ele>
<time>2017-02-01T01:02:14.499Z</time>
</trkpt>
<trkpt lat="-26.6267953" lon="152.6886997">
<ele>106.930</ele>
<time>2017-02-01T01:02:16.517Z</time>
</trkpt>
<trkpt lat="-26.6264662" lon="152.6888984">
<ele>105.753</ele>
<time>2017-02-01T01:02:18.538Z</time>
</trkpt>
<trkpt lat="-26.6259972" lon="152.6892015">
<ele>104.215</ele>
<time>2017-02-01T01:02:21.504Z</time>
</trkpt>
<trkpt lat="-26.6255296" lon="152.6895106">
<ele>102.770</ele>
<time>2017-02-01T01:02:24.518Z</time>
</trkpt>
<trkpt lat="-26.6251965" lon="152.6897038">
<ele>101.526</ele>
<time>2017-02-01T01:02:26.650Z</time>
</trkpt>
<trkpt lat="-26.6248901" lon="152.6898515">
<ele>100.651</ele>
<time>2017-02-01T01:02:28.564Z</time>
</trkpt>
<trkpt lat="-26.6243728" lon="152.6899423">
<ele>100.281</ele>
<time>2017-02-01T01:02:31.594Z</time>
</trkpt>
<trkpt lat="-26.6238640" lon="152.6899100">
<ele>100.378</ele>
<time>2017-02-01T01:02:34.643Z</time>
</trkpt>
<trkpt lat="-26.6235407" lon="152.6898783">
<ele>100.760</ele>
<time>2017-02-01T01:02:36.700Z</time>
</trkpt>
<trkpt lat="-26.6232398" lon="152.6898445">
<ele>101.009</ele>
<time>2017-02-01T01:02:38.637Z</time>
</trkpt>
<trkpt lat="-26.6229174" lon="152.6898652">
<ele>100.766</ele>
<time>2017-02-01T01:02:40.644Z</time>
</trkpt>
<trkpt lat="-26.6226202" lon="152.6900370">
<ele>100.203</ele>
<time>2017-02-01T01:02:42.634Z</time>
</trkpt>
<trkpt lat="-26.6223682" lon="152.6902861">
<ele>99.926</ele>
<time>2017-02-01T01:02:44.528Z</time>
</trkpt>
<trkpt lat="-26.6219178" lon="152.6907072">
<ele>100.912</ele>
<time>2017-02-01T01:02:47.743Z</time>
</trkpt>
<trkpt lat="-26.6212489" lon="152.6908958">
<ele>103.472</ele>
<time>2017-02-01T01:02:51.386Z</time>
</trkpt>
<trkpt lat="-26.6206853" lon="152.6909640">
<ele>106.313</ele>
<time>2017-02-01T01:02:54.296Z</time>
</trkpt>
<trkpt lat="-26.6203271" lon="152.6910500">
<ele>107.644</ele>
<time>2017-02-01T01:02:56.249Z</time>
</trkpt>
<trkpt lat="-26.6199156" lon="152.6913809">
<ele>107.060</ele>
<time>2017-02-01T01:02:59.014Z</time>
</trkpt>
<trkpt lat="-26.6195309" lon="152.6917942">
<ele>105.646</ele>
<time>2017-02-01T01:03:01.904Z</time>
</trkpt>
<trkpt lat="-26.6191675" lon="152.6919932">
<ele>104.616</ele>
<time>2017-02-01T01:03:04.000Z</time>
</trkpt>
<trkpt lat="-26.6188048" lon="152.6921491">
<ele>104.385</ele>
<time>2017-02-01T01:03:06.003Z</time>
</trkpt>
<trkpt lat="-26.6184484" lon="152.6922914">
<ele>104.881</ele>
<time>2017-02-01T01:03:08.105Z</time>
</trkpt>
<trkpt lat="-26.6179666" lon="152.6925228">
<ele>105.805</ele>
<time>2017-02-01T01:03:11.162Z</time>
</trkpt>
<trkpt lat="-26.6177275" lon="152.6927603">
<ele>106.779</ele>
<time>2017-02-01T01:03:13.054Z</time>
</trkpt>
<trkpt lat="-26.6174761" lon="152.6930214">
<ele>107.498</ele>
<time>2017-02-01T01:03:15.033Z</time>
</trkpt>
<trkpt lat="-26.6171873" lon="152.6932477">
<ele>108.108</ele>
<time>2017-02-01T01:03:17.008Z</time>
</trkpt>
<trkpt lat="-26.6167091" lon="152.6935467">
<ele>108.888</ele>
<time>2017-02-01T01:03:20.038Z</time>
</trkpt>
<trkpt lat="-26.6164008" lon="152.6937621">
<ele>109.603</ele>
<time>2017-02-01T01:03:22.050Z</time>
</trkpt>
<trkpt lat="-26.6160266" lon="152.6941793">
<ele>110.096</ele>
<time>2017-02-01T01:03:24.952Z</time>
</trkpt>
<trkpt lat="-26.6157800" lon="152.6947381">
<ele>110.735</ele>
<time>2017-02-01T01:03:27.997Z</time>
</trkpt>
<trkpt lat="-26.6156296" lon="152.6953022">
<ele>111.810</ele>
<time>2017-02-01T01:03:30.907Z</time>
</trkpt>
<trkpt lat="-26.6155418" lon="152.6958993">
<ele>113.498</ele>
<time>2017-02-01T01:03:34.073Z</time>
</trkpt>
<trkpt lat="-26.6154763" lon="152.6964101">
<ele>115.913</ele>
<time>2017-02-01T01:03:37.064Z</time>
</trkpt>
<trkpt lat="-26.6153933" lon="152.6968804">
<ele>118.679</ele>
<time>2017-02-01T01:03:39.974Z</time>
</trkpt>
<trkpt lat="-26.6152981" lon="152.6972053">
<ele>121.481</ele>
<time>2017-02-01T01:03:41.983Z</time>
</trkpt>
<trkpt lat="-26.6150917" lon="152.6976730">
<ele>124.467</ele>
<time>2017-02-01T01:03:44.983Z</time>
</trkpt>
<trkpt lat="-26.6149082" lon="152.6979555">
<ele>127.575</ele>
<time>2017-02-01T01:03:46.974Z</time>
</trkpt>
<trkpt lat="-26.6146701" lon="152.6981731">
<ele>130.600</ele>
<time>2017-02-01T01:03:48.955Z</time>
</trkpt>
<trkpt lat="-26.6143671" lon="152.6983071">
<ele>133.242</ele>
<time>2017-02-01T01:03:51.134Z</time>
</trkpt>
<trkpt lat="-26.6140729" lon="152.6983321">
<ele>135.097</ele>
<time>2017-02-01T01:03:53.242Z</time>
</trkpt>
<trkpt lat="-26.6138008" lon="152.6983340">
<ele>136.475</ele>
<time>2017-02-01T01:03:55.388Z</time>
</trkpt>
<trkpt lat="-26.6134988" lon="152.6985388">
<ele>137.932</ele>
<time>2017-02-01T01:03:58.359Z</time>
</trkpt>
<trkpt lat="-26.6135031" lon="152.6989246">
<ele>139.253</ele>
<time>2017-02-01T01:04:01.064Z</time>
</trkpt>
<trkpt lat="-26.6136636" lon="152.6991945">
<ele>140.454</ele>
<time>2017-02-01T01:04:02.993Z</time>
</trkpt>
<trkpt lat="-26.6137877" lon="152.6995259">
<ele>142.306</ele>
<time>2017-02-01T01:04:05.006Z</time>
</trkpt>
<trkpt lat="-26.6138619" lon="152.6998773">
<ele>145.149</ele>
<time>2017-02-01T01:04:07.028Z</time>
</trkpt>
<trkpt lat="-26.6140097" lon="152.7003755">
<ele>148.272</ele>
<time>2017-02-01T01:04:10.005Z</time>
</trkpt>
<trkpt lat="-26.6141571" lon="152.7006704">
<ele>150.984</ele>
<time>2017-02-01T01:04:12.020Z</time>
</trkpt>
<trkpt lat="-26.6144779" lon="152.7010283">
<ele>153.019</ele>
<time>2017-02-01T01:04:15.294Z</time>
</trkpt>
<trkpt lat="-26.6146522" lon="152.7012400">
<ele>154.182</ele>
<time>2017-02-01T01:04:17.519Z</time>
</trkpt>
<trkpt lat="-26.6147486" lon="152.7015825">
<ele>154.101</ele>
<time>2017-02-01T01:04:20.382Z</time>
</trkpt>
<trkpt lat="-26.6145819" lon="152.7018519">
<ele>152.611</ele>
<time>2017-02-01T01:04:22.771Z</time>
</trkpt>
<trkpt lat="-26.6143536" lon="152.7022032">
<ele>150.385</ele>
<time>2017-02-01T01:04:26.028Z</time>
</trkpt>
<trkpt lat="-26.6143346" lon="152.7025841">
<ele>148.290</ele>
<time>2017-02-01T01:04:29.316Z</time>
</trkpt>
<trkpt lat="-26.6145052" lon="152.7027469">
<ele>146.062</ele>
<time>2017-02-01T01:04:31.483Z</time>
</trkpt>
<trkpt lat="-26.6147182" lon="152.7027347">
<ele>143.440</ele>
<time>2017-02-01T01:04:33.704Z</time>
</trkpt>
<trkpt lat="-26.6149195" lon="152.7027182">
<ele>141.187</ele>
<time>2017-02-01T01:04:35.704Z</time>
</trkpt>
<trkpt lat="-26.6150539" lon="152.7028436">
<ele>139.641</ele>
<time>2017-02-01T01:04:37.344Z</time>
</trkpt>
<trkpt lat="-26.6149903" lon="152.7032086">
<ele>138.392</ele>
<time>2017-02-01T01:04:40.025Z</time>
</trkpt>
<trkpt lat="-26.6148454" lon="152.7036323">
<ele>137.359</ele>
<time>2017-02-01T01:04:43.563Z</time>
</trkpt>
<trkpt lat="-26.6148208" lon="152.7038784">
<ele>136.377</ele>
<time>2017-02-01T01:04:45.664Z</time>
</trkpt>
<trkpt lat="-26.6149126" lon="152.7040782">
<ele>134.934</ele>
<time>2017-02-01T01:04:47.527Z</time>
</trkpt>
<trkpt lat="-26.6152362" lon="152.7041074">
<ele>133.100</ele>
<time>2017-02-01T01:04:50.438Z</time>
</trkpt>
<trkpt lat="-26.6154661" lon="152.7040004">
<ele>131.416</ele>
<time>2017-02-01T01:04:52.818Z</time>
</trkpt>
<trkpt lat="-26.6157443" lon="152.7040390">
<ele>130.046</ele>
<time>2017-02-01T01:04:55.599Z</time>
</trkpt>
<trkpt lat="-26.6158263" lon="152.7043636">
<ele>128.591</ele>
<time>2017-02-01T01:04:58.165Z</time>
</trkpt>
<trkpt lat="-26.6158008" lon="152.7046323">
<ele>126.928</ele>
<time>2017-02-01T01:04:59.982Z</time>
</trkpt>
<trkpt lat="-26.6158744" lon="152.7049171">
<ele>125.584</ele>
<time>2017-02-01T01:05:01.799Z</time>
</trkpt>
<trkpt lat="-26.6160675" lon="152.7051781">
<ele>124.861</ele>
<time>2017-02-01T01:05:03.753Z</time>
</trkpt>
<trkpt lat="-26.6164022" lon="152.7055547">
<ele>124.254</ele>
<time>2017-02-01T01:05:06.692Z</time>
</trkpt>
<trkpt lat="-26.6167785" lon="152.7058969">
<ele>123.085</ele>
<time>2017-02-01T01:05:09.767Z</time>
</trkpt>
<trkpt lat="-26.6170888" lon="152.7062560">
<ele>121.013</ele>
<time>2017-02-01T01:05:12.740Z</time>
</trkpt>
<trkpt lat="-26.6173996" lon="152.7065890">
<ele>118.126</ele>
<time>2017-02-01T01:05:15.674Z</time>
</trkpt>
<trkpt lat="-26.6176292" lon="152.7070061">
<ele>114.864</ele>
<time>2017-02-01T01:05:18.605Z</time>
</trkpt>
<trkpt lat="-26.6176839" lon="152.7073380">
<ele>111.803</ele>
<time>2017-02-01T01:05:20.562Z</time>
</trkpt>
<trkpt lat="-26.6175923" lon="152.7078510">
<ele>109.262</ele>
<time>2017-02-01T01:05:23.501Z</time>
</trkpt>
<trkpt lat="-26.6172832" lon="152.7082696">
<ele>107.455</ele>
<time>2017-02-01T01:05:26.445Z</time>
</trkpt>
<trkpt lat="-26.6168885" lon="152.7086317">
<ele>106.965</ele>
<time>2017-02-01T01:05:29.410Z</time>
</trkpt>
<trkpt lat="-26.6166760" lon="152.7089511">
<ele>108.703</ele>
<time>2017-02-01T01:05:31.399Z</time>
</trkpt>
<trkpt lat="-26.6162910" lon="152.7093708">
<ele>112.229</ele>
<time>2017-02-01T01:05:34.394Z</time>
</trkpt>
<trkpt lat="-26.6158193" lon="152.7096495">
<ele>115.525</ele>
<time>2017-02-01T01:05:37.591Z</time>
</trkpt>
<trkpt lat="-26.6154525" lon="152.7099633">
<ele>117.788</ele>
<time>2017-02-01T01:05:40.639Z</time>
</trkpt>
<trkpt lat="-26.6153378" lon="152.7102638">
<ele>119.696</ele>
<time>2017-02-01T01:05:42.596Z</time>
</trkpt>
<trkpt lat="-26.6153056" lon="152.7106118">
<ele>121.437</ele>
<time>2017-02-01T01:05:44.708Z</time>
</trkpt>
<trkpt lat="-26.6151349" lon="152.7110611">
<ele>122.989</ele>
<time>2017-02-01T01:05:47.585Z</time>
</trkpt>
<trkpt lat="-26.6147571" lon="152.7113700">
<ele>124.527</ele>
<time>2017-02-01T01:05:50.462Z</time>
</trkpt>
<trkpt lat="-26.6144588" lon="152.7115595">
<ele>126.501</ele>
<time>2017-02-01T01:05:52.506Z</time>
</trkpt>
<trkpt lat="-26.6140607" lon="152.7118723">
<ele>129.265</ele>
<time>2017-02-01T01:05:55.391Z</time>
</trkpt>
<trkpt lat="-26.6138219" lon="152.7121328">
<ele>132.302</ele>
<time>2017-02-01T01:05:57.340Z</time>
</trkpt>
<trkpt lat="-26.6135247" lon="152.7126071">
<ele>134.669</ele>
<time>2017-02-01T01:06:00.320Z</time>
</trkpt>
<trkpt lat="-26.6132507" lon="152.7131099">
<ele>135.729</ele>
<time>2017-02-01T01:06:03.374Z</time>
</trkpt>
<trkpt lat="-26.6130077" lon="152.7136108">
<ele>134.794</ele>
<time>2017-02-01T01:06:06.408Z</time>
</trkpt>
<trkpt lat="-26.6128247" lon="152.7139210">
<ele>131.536</ele>
<time>2017-02-01T01:06:08.455Z</time>
</trkpt>
<trkpt lat="-26.6126127" lon="152.7141954">
<ele>127.070</ele>
<time>2017-02-01T01:06:10.494Z</time>
</trkpt>
<trkpt lat="-26.6123318" lon="152.7143778">
<ele>123.225</ele>
<time>2017-02-01T01:06:12.536Z</time>
</trkpt>
<trkpt lat="-26.6118837" lon="152.7146006">
<ele>120.516</ele>
<time>2017-02-01T01:06:15.565Z</time>
</trkpt>
<trkpt lat="-26.6115148" lon="152.7149794">
<ele>118.039</ele>
<time>2017-02-01T01:06:18.547Z</time>
</trkpt>
<trkpt lat="-26.6113834" lon="152.7153344">
<ele>115.292</ele>
<time>2017-02-01T01:06:20.491Z</time>
</trkpt>
<trkpt lat="-26.6113709" lon="152.7157370">
<ele>112.987</ele>
<time>2017-02-01T01:06:22.449Z</time>
</trkpt>
<trkpt lat="-26.6114735" lon="152.7163635">
<ele>111.825</ele>
<time>2017-02-01T01:06:25.451Z</time>
</trkpt>
<trkpt lat="-26.6115548" lon="152.7167863">
<ele>111.618</ele>
<time>2017-02-01T01:06:27.509Z</time>
</trkpt>
<trkpt lat="-26.6116367" lon="152.7171943">
<ele>112.244</ele>
<time>2017-02-01T01:06:29.596Z</time>
</trkpt>
<trkpt lat="-26.6116984" lon="152.7177730">
<ele>113.694</ele>
<time>2017-02-01T01:06:32.788Z</time>
</trkpt>
<trkpt lat="-26.6115527" lon="152.7182563">
<ele>115.521</ele>
<time>2017-02-01T01:06:35.589Z</time>
</trkpt>
<trkpt lat="-26.6112184" lon="152.7186938">
<ele>117.033</ele>
<time>2017-02-01T01:06:38.514Z</time>
</trkpt>
<trkpt lat="-26.6109656" lon="152.7189780">
<ele>117.785</ele>
<time>2017-02-01T01:06:40.467Z</time>
</trkpt>
<trkpt lat="-26.6106916" lon="152.7192527">
<ele>117.409</ele>
<time>2017-02-01T01:06:42.443Z</time>
</trkpt>
<trkpt lat="-26.6102363" lon="152.7196014">
<ele>116.108</ele>
<time>2017-02-01T01:06:45.401Z</time>
</trkpt>
<trkpt lat="-26.6099039" lon="152.7198244">
<ele>114.533</ele>
<time>2017-02-01T01:06:47.472Z</time>
</trkpt>
<trkpt lat="-26.6095782" lon="152.7200324">
<ele>112.800</ele>
<time>2017-02-01T01:06:49.445Z</time>
</trkpt>
<trkpt lat="-26.6090823" lon="152.7203706">
<ele>110.645</ele>
<time>2017-02-01T01:06:52.424Z</time>
</trkpt>
<trkpt lat="-26.6085841" lon="152.7207152">
<ele>108.156</ele>
<time>2017-02-01T01:06:55.425Z</time>
</trkpt>
<trkpt lat="-26.6082377" lon="152.7209273">
<ele>105.291</ele>
<time>2017-02-01T01:06:57.458Z</time>
</trkpt>
<trkpt lat="-26.6078991" lon="152.7211609">
<ele>102.079</ele>
<time>2017-02-01T01:06:59.487Z</time>
</trkpt>
<trkpt lat="-26.6073970" lon="152.7214958">
<ele>99.291</ele>
<time>2017-02-01T01:07:02.544Z</time>
</trkpt>
<trkpt lat="-26.6069270" lon="152.7218078">
<ele>98.012</ele>
<time>2017-02-01T01:07:05.692Z</time>
</trkpt>
<trkpt lat="-26.6064897" lon="152.7220540">
<ele>98.581</ele>
<time>2017-02-01T01:07:08.896Z</time>
</trkpt>
<trkpt lat="-26.6061025" lon="152.7222749">
<ele>100.375</ele>
<time>2017-02-01T01:07:11.932Z</time>
</trkpt>
<trkpt lat="-26.6058393" lon="152.7224185">
<ele>102.578</ele>
<time>2017-02-01T01:07:13.988Z</time>
</trkpt>
<trkpt lat="-26.6054451" lon="152.7226271">
<ele>104.512</ele>
<time>2017-02-01T01:07:17.048Z</time>
</trkpt>
<trkpt lat="-26.6051810" lon="152.7227561">
<ele>105.394</ele>
<time>2017-02-01T01:07:19.066Z</time>
</trkpt>
<trkpt lat="-26.6048248" lon="152.7230064">
<ele>104.846</ele>
<time>2017-02-01T01:07:21.937Z</time>
</trkpt>
<trkpt lat="-26.6045279" lon="152.7233556">
<ele>103.339</ele>
<time>2017-02-01T01:07:24.811Z</time>
</trkpt>
<trkpt lat="-26.6042127" lon="152.7237353">
<ele>101.535</ele>
<time>2017-02-01T01:07:27.946Z</time>
</trkpt>
<trkpt lat="-26.6040166" lon="152.7239717">
<ele>99.517</ele>
<time>2017-02-01T01:07:29.922Z</time>
</trkpt>
<trkpt lat="-26.6037149" lon="152.7243196">
<ele>96.966</ele>
<time>2017-02-01T01:07:32.886Z</time>
</trkpt>
<trkpt lat="-26.6034646" lon="152.7245236">
<ele>93.940</ele>
<time>2017-02-01T01:07:34.980Z</time>
</trkpt>
<trkpt lat="-26.6030592" lon="152.7246602">
<ele>91.276</ele>
<time>2017-02-01T01:07:37.814Z</time>
</trkpt>
<trkpt lat="-26.6026148" lon="152.7247221">
<ele>89.988</ele>
<time>2017-02-01T01:07:40.776Z</time>
</trkpt>
<trkpt lat="-26.6023116" lon="152.7247966">
<ele>90.153</ele>
<time>2017-02-01T01:07:42.810Z</time>
</trkpt>
<trkpt lat="-26.6018692" lon="152.7248704">
<ele>90.849</ele>
<time>2017-02-01T01:07:45.781Z</time>
</trkpt>
<trkpt lat="-26.6015811" lon="152.7249034">
<ele>91.214</ele>
<time>2017-02-01T01:07:47.760Z</time>
</trkpt>
<trkpt lat="-26.6011525" lon="152.7249846">
<ele>91.044</ele>
<time>2017-02-01T01:07:50.912Z</time>
</trkpt>
<trkpt lat="-26.6007562" lon="152.7250567">
<ele>90.362</ele>
<time>2017-02-01T01:07:54.038Z</time>
</trkpt>
<trkpt lat="-26.6005229" lon="152.7250828">
<ele>89.319</ele>
<time>2017-02-01T01:07:55.900Z</time>
</trkpt>
<trkpt lat="-26.6001592" lon="152.7251822">
<ele>88.336</ele>
<time>2017-02-01T01:07:58.895Z</time>
</trkpt>
<trkpt lat="-26.5998069" lon="152.7253475">
<ele>87.770</ele>
<time>2017-02-01T01:08:01.888Z</time>
</trkpt>
<trkpt lat="-26.5994810" lon="152.7256088">
<ele>87.787</ele>
<time>2017-02-01T01:08:05.000Z</time>
</trkpt>
<trkpt lat="-26.5991632" lon="152.7258575">
<ele>88.485</ele>
<time>2017-02-01T01:08:08.053Z</time>
</trkpt>
<trkpt lat="-26.5988292" lon="152.7260822">
<ele>89.475</ele>
<time>2017-02-01T01:08:11.130Z</time>
</trkpt>
<trkpt lat="-26.5984895" lon="152.7262839">
<ele>90.026</ele>
<time>2017-02-01T01:08:14.266Z</time>
</trkpt>
<trkpt lat="-26.5982763" lon="152.7264053">
<ele>89.773</ele>
<time>2017-02-01T01:08:16.270Z</time>
</trkpt>
<trkpt lat="-26.5980690" lon="152.7265230">
<ele>88.825</ele>
<time>2017-02-01T01:08:18.226Z</time>
</trkpt>
<trkpt lat="-26.5977420" lon="152.7267036">
<ele>87.550</ele>
<time>2017-02-01T01:08:21.302Z</time>
</trkpt>
<trkpt lat="-26.5975286" lon="152.7268387">
<ele>86.421</ele>
<time>2017-02-01T01:08:23.407Z</time>
</trkpt>
<trkpt lat="-26.5973220" lon="152.7269684">
<ele>85.688</ele>
<time>2017-02-01T01:08:25.479Z</time>
</trkpt>
<trkpt lat="-26.5970142" lon="152.7271296">
<ele>85.215</ele>
<time>2017-02-01T01:08:28.681Z</time>
</trkpt>
<trkpt lat="-26.5968134" lon="152.7272158">
<ele>84.875</ele>
<time>2017-02-01T01:08:30.833Z</time>
</trkpt>
<trkpt lat="-26.5965299" lon="152.7272877">
<ele>84.686</ele>
<time>2017-02-01T01:08:33.941Z</time>
</trkpt>
<trkpt lat="-26.5963440" lon="152.7273136">
<ele>84.697</ele>
<time>2017-02-01T01:08:36.014Z</time>
</trkpt>
<trkpt lat="-26.5960782" lon="152.7273587">
<ele>85.002</ele>
<time>2017-02-01T01:08:39.172Z</time>
</trkpt>
<trkpt lat="-26.5958195" lon="152.7273893">
<ele>85.739</ele>
<time>2017-02-01T01:08:42.640Z</time>
</trkpt>
<trkpt lat="-26.5956097" lon="152.7274359">
<ele>86.943</ele>
<time>2017-02-01T01:08:45.726Z</time>
</trkpt>
<trkpt lat="-26.5954725" lon="152.7274578">
<ele>88.475</ele>
<time>2017-02-01T01:08:47.723Z</time>
</trkpt>
<trkpt lat="-26.5952664" lon="152.7274852">
<ele>90.018</ele>
<time>2017-02-01T01:08:50.627Z</time>
</trkpt>
<trkpt lat="-26.5951249" lon="152.7275084">
<ele>91.251</ele>
<time>2017-02-01T01:08:52.452Z</time>
</trkpt>
<trkpt lat="-26.5949868" lon="152.7275327">
<ele>92.059</ele>
<time>2017-02-01T01:08:54.053Z</time>
</trkpt>
<trkpt lat="-26.5947448" lon="152.7275655">
<ele>92.594</ele>
<time>2017-02-01T01:08:56.547Z</time>
</trkpt>
<trkpt lat="-26.5945496" lon="152.7275854">
<ele>93.020</ele>
<time>2017-02-01T01:08:58.394Z</time>
</trkpt>
<trkpt lat="-26.5943504" lon="152.7276092">
<ele>93.306</ele>
<time>2017-02-01T01:09:00.205Z</time>
</trkpt>
<trkpt lat="-26.5941269" lon="152.7276495">
<ele>93.299</ele>
<time>2017-02-01T01:09:02.217Z</time>
</trkpt>
<trkpt lat="-26.5938920" lon="152.7276837">
<ele>92.879</ele>
<time>2017-02-01T01:09:04.324Z</time>
</trkpt>
<trkpt lat="-26.5935568" lon="152.7277473">
<ele>91.839</ele>
<time>2017-02-01T01:09:07.434Z</time>
</trkpt>
<trkpt lat="-26.5932332" lon="152.7277988">
<ele>90.046</ele>
<time>2017-02-01T01:09:10.478Z</time>
</trkpt>
<trkpt lat="-26.5930322" lon="152.7278396">
<ele>87.963</ele>
<time>2017-02-01T01:09:12.298Z</time>
</trkpt>
<trkpt lat="-26.5928034" lon="152.7278729">
<ele>86.419</ele>
<time>2017-02-01T01:09:14.295Z</time>
</trkpt>
<trkpt lat="-26.5925631" lon="152.7279205">
<ele>85.731</ele>
<time>2017-02-01T01:09:16.394Z</time>
</trkpt>
<trkpt lat="-26.5923265" lon="152.7279594">
<ele>85.664</ele>
<time>2017-02-01T01:09:18.458Z</time>
</trkpt>
<trkpt lat="-26.5919988" lon="152.7280345">
<ele>86.046</ele>
<time>2017-02-01T01:09:21.376Z</time>
</trkpt>
<trkpt lat="-26.5917740" lon="152.7280803">
<ele>86.860</ele>
<time>2017-02-01T01:09:23.373Z</time>
</trkpt>
<trkpt lat="-26.5914424" lon="152.7281420">
<ele>87.827</ele>
<time>2017-02-01T01:09:26.318Z</time>
</trkpt>
<trkpt lat="-26.5912219" lon="152.7281833">
<ele>88.493</ele>
<time>2017-02-01T01:09:28.273Z</time>
</trkpt>
<trkpt lat="-26.5909911" lon="152.7282240">
<ele>88.740</ele>
<time>2017-02-01T01:09:30.315Z</time>
</trkpt>
<trkpt lat="-26.5906508" lon="152.7282848">
<ele>88.778</ele>
<time>2017-02-01T01:09:33.427Z</time>
</trkpt>
<trkpt lat="-26.5904274" lon="152.7283132">
<ele>88.949</ele>
<time>2017-02-01T01:09:35.590Z</time>
</trkpt>
<trkpt lat="-26.5901261" lon="152.7284171">
<ele>89.392</ele>
<time>2017-02-01T01:09:38.718Z</time>
</trkpt>
<trkpt lat="-26.5900009" lon="152.7285730">
<ele>89.807</ele>
<time>2017-02-01T01:09:40.425Z</time>
</trkpt>
<trkpt lat="-26.5899978" lon="152.7289479">
<ele>89.855</ele>
<time>2017-02-01T01:09:42.949Z</time>
</trkpt>
<trkpt lat="-26.5900219" lon="152.7292497">
<ele>89.510</ele>
<time>2017-02-01T01:09:44.800Z</time>
</trkpt>
<trkpt lat="-26.5900525" lon="152.7295806">
<ele>89.006</ele>
<time>2017-02-01T01:09:46.777Z</time>
</trkpt>
<trkpt lat="-26.5900370" lon="152.7300927">
<ele>88.646</ele>
<time>2017-02-01T01:09:49.801Z</time>
</trkpt>
<trkpt lat="-26.5898942" lon="152.7306022">
<ele>88.389</ele>
<time>2017-02-01T01:09:52.896Z</time>
</trkpt>
<trkpt lat="-26.5897485" lon="152.7309022">
<ele>88.056</ele>
<time>2017-02-01T01:09:54.874Z</time>
</trkpt>
<trkpt lat="-26.5894393" lon="152.7312920">
<ele>87.799</ele>
<time>2017-02-01T01:09:57.844Z</time>
</trkpt>
<trkpt lat="-26.5892198" lon="152.7315236">
<ele>87.796</ele>
<time>2017-02-01T01:09:59.661Z</time>
</trkpt>
<trkpt lat="-26.5889708" lon="152.7317730">
<ele>87.917</ele>
<time>2017-02-01T01:10:01.608Z</time>
</trkpt>
<trkpt lat="-26.5886023" lon="152.7321928">
<ele>88.283</ele>
<time>2017-02-01T01:10:04.561Z</time>
</trkpt>
<trkpt lat="-26.5883096" lon="152.7326994">
<ele>89.203</ele>
<time>2017-02-01T01:10:07.508Z</time>
</trkpt>
<trkpt lat="-26.5881255" lon="152.7332836">
<ele>90.388</ele>
<time>2017-02-01T01:10:10.494Z</time>
</trkpt>
<trkpt lat="-26.5880354" lon="152.7336944">
<ele>91.235</ele>
<time>2017-02-01T01:10:12.501Z</time>
</trkpt>
<trkpt lat="-26.5879501" lon="152.7341000">
<ele>91.626</ele>
<time>2017-02-01T01:10:14.461Z</time>
</trkpt>
<trkpt lat="-26.5878168" lon="152.7347274">
<ele>91.741</ele>
<time>2017-02-01T01:10:17.489Z</time>
</trkpt>
<trkpt lat="-26.5876964" lon="152.7353465">
<ele>91.642</ele>
<time>2017-02-01T01:10:20.414Z</time>
</trkpt>
<trkpt lat="-26.5876015" lon="152.7357824">
<ele>91.379</ele>
<time>2017-02-01T01:10:22.439Z</time>
</trkpt>
<trkpt lat="-26.5874745" lon="152.7364294">
<ele>91.118</ele>
<time>2017-02-01T01:10:25.416Z</time>
</trkpt>
<trkpt lat="-26.5873163" lon="152.7370714">
<ele>90.899</ele>
<time>2017-02-01T01:10:28.449Z</time>
</trkpt>
<trkpt lat="-26.5870924" lon="152.7376773">
<ele>90.557</ele>
<time>2017-02-01T01:10:31.488Z</time>
</trkpt>
<trkpt lat="-26.5867712" lon="152.7382236">
<ele>89.980</ele>
<time>2017-02-01T01:10:34.644Z</time>
</trkpt>
<trkpt lat="-26.5864195" lon="152.7386602">
<ele>89.309</ele>
<time>2017-02-01T01:10:37.634Z</time>
</trkpt>
<trkpt lat="-26.5861205" lon="152.7388835">
<ele>88.981</ele>
<time>2017-02-01T01:10:39.680Z</time>
</trkpt>
<trkpt lat="-26.5858334" lon="152.7391035">
<ele>89.583</ele>
<time>2017-02-01T01:10:41.615Z</time>
</trkpt>
<trkpt lat="-26.5855525" lon="152.7393504">
<ele>91.204</ele>
<time>2017-02-01T01:10:43.532Z</time>
</trkpt>
<trkpt lat="-26.5852736" lon="152.7396466">
<ele>93.024</ele>
<time>2017-02-01T01:10:45.527Z</time>
</trkpt>
<trkpt lat="-26.5849017" lon="152.7401625">
<ele>93.996</ele>
<time>2017-02-01T01:10:48.485Z</time>
</trkpt>
<trkpt lat="-26.5846657" lon="152.7405334">
<ele>93.947</ele>
<time>2017-02-01T01:10:50.484Z</time>
</trkpt>
<trkpt lat="-26.5844181" lon="152.7409104">
<ele>93.487</ele>
<time>2017-02-01T01:10:52.554Z</time>
</trkpt>
<trkpt lat="-26.5840963" lon="152.7414480">
<ele>93.107</ele>
<time>2017-02-01T01:10:55.432Z</time>
</trkpt>
<trkpt lat="-26.5837328" lon="152.7419989">
<ele>92.870</ele>
<time>2017-02-01T01:10:58.434Z</time>
</trkpt>
<trkpt lat="-26.5833960" lon="152.7425738">
<ele>92.755</ele>
<time>2017-02-01T01:11:01.391Z</time>
</trkpt>
<trkpt lat="-26.5832266" lon="152.7429965">
<ele>93.017</ele>
<time>2017-02-01T01:11:03.352Z</time>
</trkpt>
<trkpt lat="-26.5830783" lon="152.7434427">
<ele>93.788</ele>
<time>2017-02-01T01:11:05.355Z</time>
</trkpt>
<trkpt lat="-26.5829608" lon="152.7439076">
<ele>94.612</ele>
<time>2017-02-01T01:11:07.422Z</time>
</trkpt>
<trkpt lat="-26.5828003" lon="152.7445748">
<ele>95.058</ele>
<time>2017-02-01T01:11:10.465Z</time>
</trkpt>
<trkpt lat="-26.5826167" lon="152.7451967">
<ele>95.283</ele>
<time>2017-02-01T01:11:13.402Z</time>
</trkpt>
<trkpt lat="-26.5823480" lon="152.7457851">
<ele>95.606</ele>
<time>2017-02-01T01:11:16.342Z</time>
</trkpt>
<trkpt lat="-26.5821130" lon="152.7461679">
<ele>96.089</ele>
<time>2017-02-01T01:11:18.377Z</time>
</trkpt>
<trkpt lat="-26.5817227" lon="152.7466821">
<ele>96.516</ele>
<time>2017-02-01T01:11:21.426Z</time>
</trkpt>
<trkpt lat="-26.5814637" lon="152.7469981">
<ele>97.099</ele>
<time>2017-02-01T01:11:23.436Z</time>
</trkpt>
<trkpt lat="-26.5812085" lon="152.7472990">
<ele>98.415</ele>
<time>2017-02-01T01:11:25.343Z</time>
</trkpt>
<trkpt lat="-26.5809433" lon="152.7476091">
<ele>100.658</ele>
<time>2017-02-01T01:11:27.268Z</time>
</trkpt>
<trkpt lat="-26.5805197" lon="152.7480858">
<ele>103.720</ele>
<time>2017-02-01T01:11:30.329Z</time>
</trkpt>
<trkpt lat="-26.5800311" lon="152.7484629">
<ele>107.608</ele>
<time>2017-02-01T01:11:33.375Z</time>
</trkpt>
<trkpt lat="-26.5796617" lon="152.7486530">
<ele>112.159</ele>
<time>2017-02-01T01:11:35.399Z</time>
</trkpt>
<trkpt lat="-26.5790639" lon="152.7487966">
<ele>116.698</ele>
<time>2017-02-01T01:11:38.415Z</time>
</trkpt>
<trkpt lat="-26.5784591" lon="152.7487902">
<ele>120.647</ele>
<time>2017-02-01T01:11:41.421Z</time>
</trkpt>
<trkpt lat="-26.5780707" lon="152.7486926">
<ele>123.699</ele>
<time>2017-02-01T01:11:43.405Z</time>
</trkpt>
<trkpt lat="-26.5776905" lon="152.7485055">
<ele>125.256</ele>
<time>2017-02-01T01:11:45.431Z</time>
</trkpt>
<trkpt lat="-26.5773090" lon="152.7483169">
<ele>125.034</ele>
<time>2017-02-01T01:11:47.407Z</time>
</trkpt>
<trkpt lat="-26.5767264" lon="152.7479861">
<ele>123.279</ele>
<time>2017-02-01T01:11:50.419Z</time>
</trkpt>
<trkpt lat="-26.5760928" lon="152.7477041">
<ele>119.961</ele>
<time>2017-02-01T01:11:53.536Z</time>
</trkpt>
<trkpt lat="-26.5756928" lon="152.7475498">
<ele>115.050</ele>
<time>2017-02-01T01:11:55.478Z</time>
</trkpt>
<trkpt lat="-26.5750742" lon="152.7473856">
<ele>109.437</ele>
<time>2017-02-01T01:11:58.324Z</time>
</trkpt>
<trkpt lat="-26.5745997" lon="152.7474208">
<ele>104.277</ele>
<time>2017-02-01T01:12:00.360Z</time>
</trkpt>
<trkpt lat="-26.5738931" lon="152.7476137">
<ele>100.070</ele>
<time>2017-02-01T01:12:03.484Z</time>
</trkpt>
<trkpt lat="-26.5732433" lon="152.7479015">
<ele>96.960</ele>
<time>2017-02-01T01:12:06.604Z</time>
</trkpt>
<trkpt lat="-26.5728408" lon="152.7480911">
<ele>95.003</ele>
<time>2017-02-01T01:12:08.581Z</time>
</trkpt>
<trkpt lat="-26.5722114" lon="152.7483749">
<ele>93.998</ele>
<time>2017-02-01T01:12:11.613Z</time>
</trkpt>
<trkpt lat="-26.5715972" lon="152.7486510">
<ele>93.671</ele>
<time>2017-02-01T01:12:14.519Z</time>
</trkpt>
<trkpt lat="-26.5711761" lon="152.7488463">
<ele>93.648</ele>
<time>2017-02-01T01:12:16.465Z</time>
</trkpt>
<trkpt lat="-26.5707360" lon="152.7490523">
<ele>93.411</ele>
<time>2017-02-01T01:12:18.487Z</time>
</trkpt>
<trkpt lat="-26.5703006" lon="152.7492424">
<ele>92.717</ele>
<time>2017-02-01T01:12:20.488Z</time>
</trkpt>
<trkpt lat="-26.5696773" lon="152.7495690">
<ele>91.982</ele>
<time>2017-02-01T01:12:23.515Z</time>
</trkpt>
<trkpt lat="-26.5691603" lon="152.7500329">
<ele>91.743</ele>
<time>2017-02-01T01:12:26.528Z</time>
</trkpt>
<trkpt lat="-26.5688973" lon="152.7504357">
<ele>92.522</ele>
<time>2017-02-01T01:12:28.606Z</time>
</trkpt>
<trkpt lat="-26.5686860" lon="152.7510888">
<ele>94.280</ele>
<time>2017-02-01T01:12:31.561Z</time>
</trkpt>
<trkpt lat="-26.5686227" lon="152.7515602">
<ele>95.675</ele>
<time>2017-02-01T01:12:33.591Z</time>
</trkpt>
<trkpt lat="-26.5686042" lon="152.7520259">
<ele>95.443</ele>
<time>2017-02-01T01:12:35.550Z</time>
</trkpt>
<trkpt lat="-26.5685882" lon="152.7527516">
<ele>93.798</ele>
<time>2017-02-01T01:12:38.571Z</time>
</trkpt>
<trkpt lat="-26.5685829" lon="152.7534824">
<ele>91.830</ele>
<time>2017-02-01T01:12:41.635Z</time>
</trkpt>
<trkpt lat="-26.5685836" lon="152.7539518">
<ele>90.546</ele>
<time>2017-02-01T01:12:43.623Z</time>
</trkpt>
<trkpt lat="-26.5685752" lon="152.7544221">
<ele>90.452</ele>
<time>2017-02-01T01:12:45.627Z</time>
</trkpt>
<trkpt lat="-26.5685778" lon="152.7548887">
<ele>91.335</ele>
<time>2017-02-01T01:12:47.608Z</time>
</trkpt>
<trkpt lat="-26.5685943" lon="152.7555825">
<ele>92.366</ele>
<time>2017-02-01T01:12:50.557Z</time>
</trkpt>
<trkpt lat="-26.5686131" lon="152.7560408">
<ele>92.548</ele>
<time>2017-02-01T01:12:52.480Z</time>
</trkpt>
<trkpt lat="-26.5685904" lon="152.7565238">
<ele>91.401</ele>
<time>2017-02-01T01:12:54.465Z</time>
</trkpt>
<trkpt lat="-26.5685503" lon="152.7572586">
<ele>89.485</ele>
<time>2017-02-01T01:12:57.429Z</time>
</trkpt>
<trkpt lat="-26.5684963" lon="152.7580114">
<ele>87.923</ele>
<time>2017-02-01T01:13:00.387Z</time>
</trkpt>
<trkpt lat="-26.5684352" lon="152.7585256">
<ele>87.221</ele>
<time>2017-02-01T01:13:02.415Z</time>
</trkpt>
<trkpt lat="-26.5683670" lon="152.7592604">
<ele>87.342</ele>
<time>2017-02-01T01:13:05.405Z</time>
</trkpt>
<trkpt lat="-26.5683149" lon="152.7597370">
<ele>88.267</ele>
<time>2017-02-01T01:13:07.409Z</time>
</trkpt>
<trkpt lat="-26.5682694" lon="152.7604296">
<ele>89.645</ele>
<time>2017-02-01T01:13:10.281Z</time>
</trkpt>
<trkpt lat="-26.5682053" lon="152.7611574">
<ele>90.649</ele>
<time>2017-02-01T01:13:13.303Z</time>
</trkpt>
<trkpt lat="-26.5681218" lon="152.7618733">
<ele>90.895</ele>
<time>2017-02-01T01:13:16.373Z</time>
</trkpt>
<trkpt lat="-26.5680740" lon="152.7623125">
<ele>90.037</ele>
<time>2017-02-01T01:13:18.287Z</time>
</trkpt>
<trkpt lat="-26.5679892" lon="152.7630057">
<ele>87.897</ele>
<time>2017-02-01T01:13:21.290Z</time>
</trkpt>
<trkpt lat="-26.5679026" lon="152.7634584">
<ele>85.556</ele>
<time>2017-02-01T01:13:23.232Z</time>
</trkpt>
<trkpt lat="-26.5677681" lon="152.7639086">
<ele>84.174</ele>
<time>2017-02-01T01:13:25.164Z</time>
</trkpt>
<trkpt lat="-26.5675315" lon="152.7643417">
<ele>83.693</ele>
<time>2017-02-01T01:13:27.191Z</time>
</trkpt>
<trkpt lat="-26.5670833" lon="152.7649035">
<ele>83.679</ele>
<time>2017-02-01T01:13:30.202Z</time>
</trkpt>
<trkpt lat="-26.5667446" lon="152.7652222">
<ele>83.729</ele>
<time>2017-02-01T01:13:32.186Z</time>
</trkpt>
<trkpt lat="-26.5663831" lon="152.7655268">
<ele>83.621</ele>
<time>2017-02-01T01:13:34.197Z</time>
</trkpt>
<trkpt lat="-26.5658368" lon="152.7659666">
<ele>83.317</ele>
<time>2017-02-01T01:13:37.207Z</time>
</trkpt>
<trkpt lat="-26.5654488" lon="152.7662440">
<ele>82.798</ele>
<time>2017-02-01T01:13:39.317Z</time>
</trkpt>
<trkpt lat="-26.5648505" lon="152.7665462">
<ele>82.155</ele>
<time>2017-02-01T01:13:42.384Z</time>
</trkpt>
<trkpt lat="-26.5644472" lon="152.7667074">
<ele>81.417</ele>
<time>2017-02-01T01:13:44.431Z</time>
</trkpt>
<trkpt lat="-26.5640522" lon="152.7668553">
<ele>80.515</ele>
<time>2017-02-01T01:13:46.427Z</time>
</trkpt>
<trkpt lat="-26.5634577" lon="152.7670831">
<ele>79.695</ele>
<time>2017-02-01T01:13:49.399Z</time>
</trkpt>
<trkpt lat="-26.5628531" lon="152.7673413">
<ele>79.483</ele>
<time>2017-02-01T01:13:52.430Z</time>
</trkpt>
<trkpt lat="-26.5622600" lon="152.7676156">
<ele>80.145</ele>
<time>2017-02-01T01:13:55.386Z</time>
</trkpt>
<trkpt lat="-26.5618746" lon="152.7678441">
<ele>81.350</ele>
<time>2017-02-01T01:13:57.304Z</time>
</trkpt>
<trkpt lat="-26.5613094" lon="152.7683059">
<ele>82.535</ele>
<time>2017-02-01T01:14:00.264Z</time>
</trkpt>
<trkpt lat="-26.5609460" lon="152.7686738">
<ele>83.551</ele>
<time>2017-02-01T01:14:02.327Z</time>
</trkpt>
<trkpt lat="-26.5604212" lon="152.7692132">
<ele>84.378</ele>
<time>2017-02-01T01:14:05.406Z</time>
</trkpt>
<trkpt lat="-26.5600784" lon="152.7695457">
<ele>84.745</ele>
<time>2017-02-01T01:14:07.433Z</time>
</trkpt>
<trkpt lat="-26.5597580" lon="152.7698874">
<ele>84.586</ele>
<time>2017-02-01T01:14:09.489Z</time>
</trkpt>
<trkpt lat="-26.5592998" lon="152.7703537">
<ele>84.192</ele>
<time>2017-02-01T01:14:12.465Z</time>
</trkpt>
<trkpt lat="-26.5588426" lon="152.7708066">
<ele>84.088</ele>
<time>2017-02-01T01:14:15.467Z</time>
</trkpt>
<trkpt lat="-26.5585547" lon="152.7711041">
<ele>84.640</ele>
<time>2017-02-01T01:14:17.448Z</time>
</trkpt>
<trkpt lat="-26.5582765" lon="152.7713858">
<ele>85.522</ele>
<time>2017-02-01T01:14:19.357Z</time>
</trkpt>
<trkpt lat="-26.5578351" lon="152.7718338">
<ele>86.120</ele>
<time>2017-02-01T01:14:22.385Z</time>
</trkpt>
<trkpt lat="-26.5574169" lon="152.7722777">
<ele>86.703</ele>
<time>2017-02-01T01:14:25.337Z</time>
</trkpt>
<trkpt lat="-26.5569881" lon="152.7727131">
<ele>88.060</ele>
<time>2017-02-01T01:14:28.337Z</time>
</trkpt>
<trkpt lat="-26.5566992" lon="152.7729960">
<ele>90.445</ele>
<time>2017-02-01T01:14:30.351Z</time>
</trkpt>
<trkpt lat="-26.5562582" lon="152.7734364">
<ele>93.420</ele>
<time>2017-02-01T01:14:33.447Z</time>
</trkpt>
<trkpt lat="-26.5559730" lon="152.7737067">
<ele>96.895</ele>
<time>2017-02-01T01:14:35.389Z</time>
</trkpt>
<trkpt lat="-26.5555026" lon="152.7741259">
<ele>100.611</ele>
<time>2017-02-01T01:14:38.463Z</time>
</trkpt>
<trkpt lat="-26.5550174" lon="152.7745142">
<ele>103.437</ele>
<time>2017-02-01T01:14:41.493Z</time>
</trkpt>
<trkpt lat="-26.5546803" lon="152.7747422">
<ele>104.778</ele>
<time>2017-02-01T01:14:43.543Z</time>
</trkpt>
<trkpt lat="-26.5543603" lon="152.7749572">
<ele>105.240</ele>
<time>2017-02-01T01:14:45.516Z</time>
</trkpt>
<trkpt lat="-26.5538834" lon="152.7752818">
<ele>105.340</ele>
<time>2017-02-01T01:14:48.494Z</time>
</trkpt>
<trkpt lat="-26.5534140" lon="152.7756142">
<ele>104.991</ele>
<time>2017-02-01T01:14:51.433Z</time>
</trkpt>
<trkpt lat="-26.5530968" lon="152.7758190">
<ele>103.410</ele>
<time>2017-02-01T01:14:53.304Z</time>
</trkpt>
<trkpt lat="-26.5525368" lon="152.7760683">
<ele>100.441</ele>
<time>2017-02-01T01:14:56.304Z</time>
</trkpt>
<trkpt lat="-26.5519260" lon="152.7761853">
<ele>97.210</ele>
<time>2017-02-01T01:14:59.376Z</time>
</trkpt>
<trkpt lat="-26.5515286" lon="152.7761873">
<ele>94.251</ele>
<time>2017-02-01T01:15:01.386Z</time>
</trkpt>
<trkpt lat="-26.5509562" lon="152.7760594">
<ele>91.384</ele>
<time>2017-02-01T01:15:04.310Z</time>
</trkpt>
<trkpt lat="-26.5505726" lon="152.7759069">
<ele>89.162</ele>
<time>2017-02-01T01:15:06.290Z</time>
</trkpt>
<trkpt lat="-26.5501712" lon="152.7757685">
<ele>88.175</ele>
<time>2017-02-01T01:15:08.288Z</time>
</trkpt>
<trkpt lat="-26.5495480" lon="152.7756173">
<ele>88.160</ele>
<time>2017-02-01T01:15:11.268Z</time>
</trkpt>
<trkpt lat="-26.5491182" lon="152.7755716">
<ele>88.405</ele>
<time>2017-02-01T01:15:13.267Z</time>
</trkpt>
<trkpt lat="-26.5486830" lon="152.7755765">
<ele>88.416</ele>
<time>2017-02-01T01:15:15.277Z</time>
</trkpt>
<trkpt lat="-26.5482520" lon="152.7756083">
<ele>88.116</ele>
<time>2017-02-01T01:15:17.235Z</time>
</trkpt>
<trkpt lat="-26.5478046" lon="152.7756695">
<ele>87.684</ele>
<time>2017-02-01T01:15:19.237Z</time>
</trkpt>
<trkpt lat="-26.5471325" lon="152.7757879">
<ele>87.434</ele>
<time>2017-02-01T01:15:22.332Z</time>
</trkpt>
<trkpt lat="-26.5464836" lon="152.7758999">
<ele>87.512</ele>
<time>2017-02-01T01:15:25.508Z</time>
</trkpt>
<trkpt lat="-26.5461003" lon="152.7759316">
<ele>87.446</ele>
<time>2017-02-01T01:15:27.393Z</time>
</trkpt>
<trkpt lat="-26.5454855" lon="152.7759659">
<ele>86.866</ele>
<time>2017-02-01T01:15:30.280Z</time>
</trkpt>
<trkpt lat="-26.5448233" lon="152.7759595">
<ele>86.319</ele>
<time>2017-02-01T01:15:33.306Z</time>
</trkpt>
<trkpt lat="-26.5441631" lon="152.7759316">
<ele>86.413</ele>
<time>2017-02-01T01:15:36.332Z</time>
</trkpt>
<trkpt lat="-26.5437302" lon="152.7759258">
<ele>86.914</ele>
<time>2017-02-01T01:15:38.320Z</time>
</trkpt>
<trkpt lat="-26.5432939" lon="152.7759243">
<ele>87.307</ele>
<time>2017-02-01T01:15:40.320Z</time>
</trkpt>
<trkpt lat="-26.5426340" lon="152.7759057">
<ele>87.409</ele>
<time>2017-02-01T01:15:43.341Z</time>
</trkpt>
<trkpt lat="-26.5420005" lon="152.7758650">
<ele>87.454</ele>
<time>2017-02-01T01:15:46.217Z</time>
</trkpt>
<trkpt lat="-26.5415587" lon="152.7758616">
<ele>87.789</ele>
<time>2017-02-01T01:15:48.194Z</time>
</trkpt>
<trkpt lat="-26.5411060" lon="152.7758447">
<ele>88.588</ele>
<time>2017-02-01T01:15:50.188Z</time>
</trkpt>
<trkpt lat="-26.5406460" lon="152.7758352">
<ele>89.998</ele>
<time>2017-02-01T01:15:52.171Z</time>
</trkpt>
<trkpt lat="-26.5399385" lon="152.7758253">
<ele>92.041</ele>
<time>2017-02-01T01:15:55.183Z</time>
</trkpt>
<trkpt lat="-26.5392065" lon="152.7758367">
<ele>94.168</ele>
<time>2017-02-01T01:15:58.332Z</time>
</trkpt>
<trkpt lat="-26.5387946" lon="152.7758341">
<ele>96.032</ele>
<time>2017-02-01T01:16:00.174Z</time>
</trkpt>
<trkpt lat="-26.5381323" lon="152.7758582">
<ele>97.822</ele>
<time>2017-02-01T01:16:03.150Z</time>
</trkpt>
<trkpt lat="-26.5376815" lon="152.7759368">
<ele>99.772</ele>
<time>2017-02-01T01:16:05.179Z</time>
</trkpt>
<trkpt lat="-26.5370278" lon="152.7761179">
<ele>102.040</ele>
<time>2017-02-01T01:16:08.143Z</time>
</trkpt>
<trkpt lat="-26.5363794" lon="152.7763915">
<ele>104.609</ele>
<time>2017-02-01T01:16:11.159Z</time>
</trkpt>
<trkpt lat="-26.5359706" lon="152.7766241">
<ele>107.551</ele>
<time>2017-02-01T01:16:13.157Z</time>
</trkpt>
<trkpt lat="-26.5353615" lon="152.7769913">
<ele>110.814</ele>
<time>2017-02-01T01:16:16.232Z</time>
</trkpt>
<trkpt lat="-26.5349849" lon="152.7772455">
<ele>113.934</ele>
<time>2017-02-01T01:16:18.285Z</time>
</trkpt>
<trkpt lat="-26.5344833" lon="152.7776469">
<ele>116.615</ele>
<time>2017-02-01T01:16:21.229Z</time>
</trkpt>
<trkpt lat="-26.5341775" lon="152.7779578">
<ele>118.889</ele>
<time>2017-02-01T01:16:23.186Z</time>
</trkpt>
<trkpt lat="-26.5337372" lon="152.7784837">
<ele>120.756</ele>
<time>2017-02-01T01:16:26.182Z</time>
</trkpt>
<trkpt lat="-26.5334712" lon="152.7788736">
<ele>122.464</ele>
<time>2017-02-01T01:16:28.204Z</time>
</trkpt>
<trkpt lat="-26.5332410" lon="152.7792875">
<ele>124.064</ele>
<time>2017-02-01T01:16:30.240Z</time>
</trkpt>
<trkpt lat="-26.5330306" lon="152.7797007">
<ele>124.888</ele>
<time>2017-02-01T01:16:32.246Z</time>
</trkpt>
<trkpt lat="-26.5328192" lon="152.7800994">
<ele>124.374</ele>
<time>2017-02-01T01:16:34.183Z</time>
</trkpt>
<trkpt lat="-26.5324430" lon="152.7807043">
<ele>122.815</ele>
<time>2017-02-01T01:16:37.283Z</time>
</trkpt>
<trkpt lat="-26.5320181" lon="152.7812302">
<ele>120.849</ele>
<time>2017-02-01T01:16:40.335Z</time>
</trkpt>
<trkpt lat="-26.5315297" lon="152.7816211">
<ele>118.853</ele>
<time>2017-02-01T01:16:43.254Z</time>
</trkpt>
<trkpt lat="-26.5311509" lon="152.7818074">
<ele>117.000</ele>
<time>2017-02-01T01:16:45.260Z</time>
</trkpt>
<trkpt lat="-26.5307607" lon="152.7819650">
<ele>115.628</ele>
<time>2017-02-01T01:16:47.256Z</time>
</trkpt>
<trkpt lat="-26.5301437" lon="152.7821140">
<ele>114.675</ele>
<time>2017-02-01T01:16:50.226Z</time>
</trkpt>
<trkpt lat="-26.5297124" lon="152.7822269">
<ele>113.645</ele>
<time>2017-02-01T01:16:52.251Z</time>
</trkpt>
<trkpt lat="-26.5292894" lon="152.7823502">
<ele>112.471</ele>
<time>2017-02-01T01:16:54.209Z</time>
</trkpt>
<trkpt lat="-26.5288650" lon="152.7825141">
<ele>111.202</ele>
<time>2017-02-01T01:16:56.164Z</time>
</trkpt>
<trkpt lat="-26.5282385" lon="152.7828338">
<ele>110.003</ele>
<time>2017-02-01T01:16:59.140Z</time>
</trkpt>
<trkpt lat="-26.5278338" lon="152.7830632">
<ele>109.302</ele>
<time>2017-02-01T01:17:01.179Z</time>
</trkpt>
<trkpt lat="-26.5272708" lon="152.7834266">
<ele>109.195</ele>
<time>2017-02-01T01:17:04.177Z</time>
</trkpt>
<trkpt lat="-26.5268914" lon="152.7836527">
<ele>109.477</ele>
<time>2017-02-01T01:17:06.156Z</time>
</trkpt>
<trkpt lat="-26.5263169" lon="152.7840245">
<ele>109.908</ele>
<time>2017-02-01T01:17:09.164Z</time>
</trkpt>
<trkpt lat="-26.5259266" lon="152.7842819">
<ele>110.423</ele>
<time>2017-02-01T01:17:11.154Z</time>
</trkpt>
<trkpt lat="-26.5255275" lon="152.7845240">
<ele>111.203</ele>
<time>2017-02-01T01:17:13.090Z</time>
</trkpt>
<trkpt lat="-26.5249234" lon="152.7849388">
<ele>112.123</ele>
<time>2017-02-01T01:17:16.026Z</time>
</trkpt>
<trkpt lat="-26.5243120" lon="152.7854113">
<ele>112.707</ele>
<time>2017-02-01T01:17:18.987Z</time>
</trkpt>
<trkpt lat="-26.5238924" lon="152.7857615">
<ele>112.548</ele>
<time>2017-02-01T01:17:21.011Z</time>
</trkpt>
<trkpt lat="-26.5234773" lon="152.7861023">
<ele>111.252</ele>
<time>2017-02-01T01:17:23.019Z</time>
</trkpt>
<trkpt lat="-26.5228585" lon="152.7866098">
<ele>108.646</ele>
<time>2017-02-01T01:17:26.057Z</time>
</trkpt>
<trkpt lat="-26.5224605" lon="152.7869275">
<ele>105.097</ele>
<time>2017-02-01T01:17:28.062Z</time>
</trkpt>
<trkpt lat="-26.5220728" lon="152.7872474">
<ele>101.492</ele>
<time>2017-02-01T01:17:30.116Z</time>
</trkpt>
<trkpt lat="-26.5215332" lon="152.7877074">
<ele>98.842</ele>
<time>2017-02-01T01:17:33.064Z</time>
</trkpt>
<trkpt lat="-26.5211443" lon="152.7879965">
<ele>97.389</ele>
<time>2017-02-01T01:17:35.135Z</time>
</trkpt>
<trkpt lat="-26.5205197" lon="152.7882984">
<ele>96.612</ele>
<time>2017-02-01T01:17:38.192Z</time>
</trkpt>
<trkpt lat="-26.5200923" lon="152.7884298">
<ele>96.009</ele>
<time>2017-02-01T01:17:40.199Z</time>
</trkpt>
<trkpt lat="-26.5194363" lon="152.7885036">
<ele>95.450</ele>
<time>2017-02-01T01:17:43.140Z</time>
</trkpt>
<trkpt lat="-26.5189899" lon="152.7885470">
<ele>94.816</ele>
<time>2017-02-01T01:17:45.068Z</time>
</trkpt>
<trkpt lat="-26.5182804" lon="152.7886194">
<ele>93.957</ele>
<time>2017-02-01T01:17:48.106Z</time>
</trkpt>
<trkpt lat="-26.5178210" lon="152.7887197">
<ele>92.949</ele>
<time>2017-02-01T01:17:50.097Z</time>
</trkpt>
<trkpt lat="-26.5173804" lon="152.7888884">
<ele>91.942</ele>
<time>2017-02-01T01:17:52.074Z</time>
</trkpt>
<trkpt lat="-26.5169450" lon="152.7890901">
<ele>90.698</ele>
<time>2017-02-01T01:17:54.109Z</time>
</trkpt>
<trkpt lat="-26.5163645" lon="152.7894890">
<ele>89.211</ele>
<time>2017-02-01T01:17:57.120Z</time>
</trkpt>
<trkpt lat="-26.5160282" lon="152.7898022">
<ele>87.979</ele>
<time>2017-02-01T01:17:59.118Z</time>
</trkpt>
<trkpt lat="-26.5155829" lon="152.7903014">
<ele>87.331</ele>
<time>2017-02-01T01:18:01.975Z</time>
</trkpt>
<trkpt lat="-26.5151151" lon="152.7908418">
<ele>86.908</ele>
<time>2017-02-01T01:18:04.953Z</time>
</trkpt>
<trkpt lat="-26.5148025" lon="152.7912183">
<ele>86.315</ele>
<time>2017-02-01T01:18:06.935Z</time>
</trkpt>
<trkpt lat="-26.5143827" lon="152.7918265">
<ele>85.643</ele>
<time>2017-02-01T01:18:09.886Z</time>
</trkpt>
<trkpt lat="-26.5141358" lon="152.7922629">
<ele>85.250</ele>
<time>2017-02-01T01:18:11.859Z</time>
</trkpt>
<trkpt lat="-26.5139203" lon="152.7927301">
<ele>85.266</ele>
<time>2017-02-01T01:18:13.879Z</time>
</trkpt>
<trkpt lat="-26.5136790" lon="152.7934535">
<ele>85.772</ele>
<time>2017-02-01T01:18:16.890Z</time>
</trkpt>
<trkpt lat="-26.5135316" lon="152.7941882">
<ele>86.616</ele>
<time>2017-02-01T01:18:19.829Z</time>
</trkpt>
<trkpt lat="-26.5134534" lon="152.7949630">
<ele>87.312</ele>
<time>2017-02-01T01:18:22.777Z</time>
</trkpt>
<trkpt lat="-26.5134667" lon="152.7957865">
<ele>87.522</ele>
<time>2017-02-01T01:18:25.834Z</time>
</trkpt>
<trkpt lat="-26.5134918" lon="152.7963184">
<ele>87.341</ele>
<time>2017-02-01T01:18:27.840Z</time>
</trkpt>
<trkpt lat="-26.5135173" lon="152.7968468">
<ele>87.019</ele>
<time>2017-02-01T01:18:29.833Z</time>
</trkpt>
<trkpt lat="-26.5135589" lon="152.7973735">
<ele>86.639</ele>
<time>2017-02-01T01:18:31.803Z</time>
</trkpt>
<trkpt lat="-26.5135780" lon="152.7979112">
<ele>86.005</ele>
<time>2017-02-01T01:18:33.800Z</time>
</trkpt>
<trkpt lat="-26.5135561" lon="152.7987269">
<ele>85.166</ele>
<time>2017-02-01T01:18:36.844Z</time>
</trkpt>
<trkpt lat="-26.5134907" lon="152.7992436">
<ele>84.512</ele>
<time>2017-02-01T01:18:38.804Z</time>
</trkpt>
<trkpt lat="-26.5133085" lon="152.8000210">
<ele>84.085</ele>
<time>2017-02-01T01:18:41.816Z</time>
</trkpt>
<trkpt lat="-26.5131541" lon="152.8005246">
<ele>83.479</ele>
<time>2017-02-01T01:18:43.816Z</time>
</trkpt>
<trkpt lat="-26.5129819" lon="152.8010219">
<ele>82.677</ele>
<time>2017-02-01T01:18:45.826Z</time>
</trkpt>
<trkpt lat="-26.5127685" lon="152.8017713">
<ele>82.082</ele>
<time>2017-02-01T01:18:48.766Z</time>
</trkpt>
<trkpt lat="-26.5126175" lon="152.8025656">
<ele>81.896</ele>
<time>2017-02-01T01:18:51.754Z</time>
</trkpt>
<trkpt lat="-26.5125783" lon="152.8033850">
<ele>81.937</ele>
<time>2017-02-01T01:18:54.730Z</time>
</trkpt>
<trkpt lat="-26.5125756" lon="152.8039434">
<ele>82.012</ele>
<time>2017-02-01T01:18:56.749Z</time>
</trkpt>
<trkpt lat="-26.5125784" lon="152.8044895">
<ele>82.286</ele>
<time>2017-02-01T01:18:58.734Z</time>
</trkpt>
<trkpt lat="-26.5125793" lon="152.8050473">
<ele>83.215</ele>
<time>2017-02-01T01:19:00.775Z</time>
</trkpt>
<trkpt lat="-26.5126031" lon="152.8058471">
<ele>84.875</ele>
<time>2017-02-01T01:19:03.745Z</time>
</trkpt>
<trkpt lat="-26.5126053" lon="152.8063540">
<ele>86.596</ele>
<time>2017-02-01T01:19:05.693Z</time>
</trkpt>
<trkpt lat="-26.5125533" lon="152.8068536">
<ele>87.503</ele>
<time>2017-02-01T01:19:07.686Z</time>
</trkpt>
<trkpt lat="-26.5124494" lon="152.8073413">
<ele>87.336</ele>
<time>2017-02-01T01:19:09.719Z</time>
</trkpt>
<trkpt lat="-26.5123004" lon="152.8077823">
<ele>86.195</ele>
<time>2017-02-01T01:19:11.632Z</time>
</trkpt>
<trkpt lat="-26.5119984" lon="152.8084301">
<ele>84.109</ele>
<time>2017-02-01T01:19:14.602Z</time>
</trkpt>
<trkpt lat="-26.5116981" lon="152.8090902">
<ele>81.525</ele>
<time>2017-02-01T01:19:17.660Z</time>
</trkpt>
<trkpt lat="-26.5115491" lon="152.8095356">
<ele>78.967</ele>
<time>2017-02-01T01:19:19.668Z</time>
</trkpt>
<trkpt lat="-26.5114502" lon="152.8099870">
<ele>76.717</ele>
<time>2017-02-01T01:19:21.595Z</time>
</trkpt>
<trkpt lat="-26.5114248" lon="152.8107237">
<ele>75.243</ele>
<time>2017-02-01T01:19:24.594Z</time>
</trkpt>
<trkpt lat="-26.5114593" lon="152.8112200">
<ele>74.898</ele>
<time>2017-02-01T01:19:26.591Z</time>
</trkpt>
<trkpt lat="-26.5115278" lon="152.8117133">
<ele>75.338</ele>
<time>2017-02-01T01:19:28.591Z</time>
</trkpt>
<trkpt lat="-26.5116088" lon="152.8122072">
<ele>75.918</ele>
<time>2017-02-01T01:19:30.585Z</time>
</trkpt>
<trkpt lat="-26.5117302" lon="152.8129459">
<ele>76.283</ele>
<time>2017-02-01T01:19:33.533Z</time>
</trkpt>
<trkpt lat="-26.5118421" lon="152.8137038">
<ele>76.900</ele>
<time>2017-02-01T01:19:36.509Z</time>
</trkpt>
<trkpt lat="-26.5119473" lon="152.8144701">
<ele>78.380</ele>
<time>2017-02-01T01:19:39.494Z</time>
</trkpt>
<trkpt lat="-26.5120535" lon="152.8152345">
<ele>80.389</ele>
<time>2017-02-01T01:19:42.442Z</time>
</trkpt>
<trkpt lat="-26.5121130" lon="152.8157710">
<ele>81.993</ele>
<time>2017-02-01T01:19:44.464Z</time>
</trkpt>
<trkpt lat="-26.5121236" lon="152.8165915">
<ele>82.749</ele>
<time>2017-02-01T01:19:47.523Z</time>
</trkpt>
<trkpt lat="-26.5120726" lon="152.8171232">
<ele>82.693</ele>
<time>2017-02-01T01:19:49.531Z</time>
</trkpt>
<trkpt lat="-26.5119863" lon="152.8176446">
<ele>82.081</ele>
<time>2017-02-01T01:19:51.555Z</time>
</trkpt>
<trkpt lat="-26.5118214" lon="152.8183997">
<ele>81.384</ele>
<time>2017-02-01T01:19:54.634Z</time>
</trkpt>
<trkpt lat="-26.5116529" lon="152.8190913">
<ele>81.328</ele>
<time>2017-02-01T01:19:57.718Z</time>
</trkpt>
<trkpt lat="-26.5115180" lon="152.8197002">
<ele>82.371</ele>
<time>2017-02-01T01:20:00.601Z</time>
</trkpt>
<trkpt lat="-26.5114247" lon="152.8201121">
<ele>84.210</ele>
<time>2017-02-01T01:20:02.581Z</time>
</trkpt>
<trkpt lat="-26.5113114" lon="152.8207487">
<ele>86.420</ele>
<time>2017-02-01T01:20:05.568Z</time>
</trkpt>
<trkpt lat="-26.5112614" lon="152.8214063">
<ele>88.863</ele>
<time>2017-02-01T01:20:08.537Z</time>
</trkpt>
<trkpt lat="-26.5112698" lon="152.8220792">
<ele>91.484</ele>
<time>2017-02-01T01:20:11.530Z</time>
</trkpt>
<trkpt lat="-26.5113360" lon="152.8225318">
<ele>94.525</ele>
<time>2017-02-01T01:20:13.562Z</time>
</trkpt>
<trkpt lat="-26.5114750" lon="152.8231993">
<ele>97.638</ele>
<time>2017-02-01T01:20:16.597Z</time>
</trkpt>
<trkpt lat="-26.5116170" lon="152.8238530">
<ele>99.495</ele>
<time>2017-02-01T01:20:19.587Z</time>
</trkpt>
<trkpt lat="-26.5117151" lon="152.8242846">
<ele>99.296</ele>
<time>2017-02-01T01:20:21.560Z</time>
</trkpt>
<trkpt lat="-26.5118666" lon="152.8249368">
<ele>97.760</ele>
<time>2017-02-01T01:20:24.518Z</time>
</trkpt>
<trkpt lat="-26.5119627" lon="152.8253786">
<ele>95.714</ele>
<time>2017-02-01T01:20:26.495Z</time>
</trkpt>
<trkpt lat="-26.5120594" lon="152.8258376">
<ele>93.556</ele>
<time>2017-02-01T01:20:28.565Z</time>
</trkpt>
<trkpt lat="-26.5122039" lon="152.8264706">
<ele>92.109</ele>
<time>2017-02-01T01:20:31.476Z</time>
</trkpt>
<trkpt lat="-26.5123415" lon="152.8271010">
<ele>91.906</ele>
<time>2017-02-01T01:20:34.392Z</time>
</trkpt>
<trkpt lat="-26.5124294" lon="152.8275474">
<ele>92.360</ele>
<time>2017-02-01T01:20:36.420Z</time>
</trkpt>
<trkpt lat="-26.5125276" lon="152.8279969">
<ele>92.852</ele>
<time>2017-02-01T01:20:38.451Z</time>
</trkpt>
<trkpt lat="-26.5126697" lon="152.8286638">
<ele>93.290</ele>
<time>2017-02-01T01:20:41.439Z</time>
</trkpt>
<trkpt lat="-26.5128253" lon="152.8293346">
<ele>93.750</ele>
<time>2017-02-01T01:20:44.440Z</time>
</trkpt>
<trkpt lat="-26.5128973" lon="152.8297958">
<ele>93.655</ele>
<time>2017-02-01T01:20:46.465Z</time>
</trkpt>
<trkpt lat="-26.5129259" lon="152.8304841">
<ele>92.403</ele>
<time>2017-02-01T01:20:49.459Z</time>
</trkpt>
<trkpt lat="-26.5128763" lon="152.8309364">
<ele>90.657</ele>
<time>2017-02-01T01:20:51.456Z</time>
</trkpt>
<trkpt lat="-26.5127697" lon="152.8313728">
<ele>89.615</ele>
<time>2017-02-01T01:20:53.442Z</time>
</trkpt>
<trkpt lat="-26.5125244" lon="152.8320032">
<ele>89.798</ele>
<time>2017-02-01T01:20:56.449Z</time>
</trkpt>
<trkpt lat="-26.5123313" lon="152.8324359">
<ele>90.866</ele>
<time>2017-02-01T01:20:58.520Z</time>
</trkpt>
<trkpt lat="-26.5121480" lon="152.8328671">
<ele>91.986</ele>
<time>2017-02-01T01:21:00.529Z</time>
</trkpt>
<trkpt lat="-26.5119724" lon="152.8332989">
<ele>92.894</ele>
<time>2017-02-01T01:21:02.505Z</time>
</trkpt>
<trkpt lat="-26.5117231" lon="152.8339506">
<ele>93.838</ele>
<time>2017-02-01T01:21:05.456Z</time>
</trkpt>
<trkpt lat="-26.5115564" lon="152.8343937">
<ele>94.950</ele>
<time>2017-02-01T01:21:07.464Z</time>
</trkpt>
<trkpt lat="-26.5113148" lon="152.8350607">
<ele>96.289</ele>
<time>2017-02-01T01:21:10.496Z</time>
</trkpt>
<trkpt lat="-26.5111901" lon="152.8355006">
<ele>97.916</ele>
<time>2017-02-01T01:21:12.498Z</time>
</trkpt>
<trkpt lat="-26.5110479" lon="152.8361419">
<ele>99.580</ele>
<time>2017-02-01T01:21:15.410Z</time>
</trkpt>
<trkpt lat="-26.5109922" lon="152.8365781">
<ele>100.778</ele>
<time>2017-02-01T01:21:17.392Z</time>
</trkpt>
<trkpt lat="-26.5110044" lon="152.8370080">
<ele>101.556</ele>
<time>2017-02-01T01:21:19.338Z</time>
</trkpt>
<trkpt lat="-26.5110513" lon="152.8376698">
<ele>102.371</ele>
<time>2017-02-01T01:21:22.315Z</time>
</trkpt>
<trkpt lat="-26.5111019" lon="152.8381189">
<ele>102.764</ele>
<time>2017-02-01T01:21:24.305Z</time>
</trkpt>
<trkpt lat="-26.5111778" lon="152.8385734">
<ele>102.052</ele>
<time>2017-02-01T01:21:26.323Z</time>
</trkpt>
<trkpt lat="-26.5113476" lon="152.8392251">
<ele>100.474</ele>
<time>2017-02-01T01:21:29.294Z</time>
</trkpt>
<trkpt lat="-26.5115611" lon="152.8398597">
<ele>98.844</ele>
<time>2017-02-01T01:21:32.308Z</time>
</trkpt>
<trkpt lat="-26.5117507" lon="152.8404792">
<ele>97.832</ele>
<time>2017-02-01T01:21:35.284Z</time>
</trkpt>
<trkpt lat="-26.5119371" lon="152.8410969">
<ele>97.502</ele>
<time>2017-02-01T01:21:38.259Z</time>
</trkpt>
<trkpt lat="-26.5120423" lon="152.8417479">
<ele>97.479</ele>
<time>2017-02-01T01:21:41.233Z</time>
</trkpt>
<trkpt lat="-26.5120715" lon="152.8421975">
<ele>98.047</ele>
<time>2017-02-01T01:21:43.238Z</time>
</trkpt>
<trkpt lat="-26.5120397" lon="152.8428758">
<ele>99.907</ele>
<time>2017-02-01T01:21:46.235Z</time>
</trkpt>
<trkpt lat="-26.5119898" lon="152.8433265">
<ele>102.520</ele>
<time>2017-02-01T01:21:48.206Z</time>
</trkpt>
<trkpt lat="-26.5117065" lon="152.8439984">
<ele>104.428</ele>
<time>2017-02-01T01:21:51.391Z</time>
</trkpt>
<trkpt lat="-26.5113740" lon="152.8446212">
<ele>104.885</ele>
<time>2017-02-01T01:21:54.458Z</time>
</trkpt>
<trkpt lat="-26.5110777" lon="152.8450151">
<ele>104.131</ele>
<time>2017-02-01T01:21:56.630Z</time>
</trkpt>
<trkpt lat="-26.5107898" lon="152.8453480">
<ele>102.833</ele>
<time>2017-02-01T01:21:58.573Z</time>
</trkpt>
<trkpt lat="-26.5102912" lon="152.8458023">
<ele>101.381</ele>
<time>2017-02-01T01:22:01.553Z</time>
</trkpt>
<trkpt lat="-26.5099474" lon="152.8460846">
<ele>99.768</ele>
<time>2017-02-01T01:22:03.499Z</time>
</trkpt>
<trkpt lat="-26.5094131" lon="152.8465321">
<ele>98.137</ele>
<time>2017-02-01T01:22:06.553Z</time>
</trkpt>
<trkpt lat="-26.5090704" lon="152.8468218">
<ele>96.803</ele>
<time>2017-02-01T01:22:08.549Z</time>
</trkpt>
<trkpt lat="-26.5087247" lon="152.8471179">
<ele>95.992</ele>
<time>2017-02-01T01:22:10.596Z</time>
</trkpt>
<trkpt lat="-26.5082197" lon="152.8475313">
<ele>95.523</ele>
<time>2017-02-01T01:22:13.563Z</time>
</trkpt>
<trkpt lat="-26.5078795" lon="152.8478195">
<ele>95.088</ele>
<time>2017-02-01T01:22:15.631Z</time>
</trkpt>
<trkpt lat="-26.5075584" lon="152.8480921">
<ele>94.867</ele>
<time>2017-02-01T01:22:17.614Z</time>
</trkpt>
<trkpt lat="-26.5070746" lon="152.8484980">
<ele>95.151</ele>
<time>2017-02-01T01:22:20.589Z</time>
</trkpt>
<trkpt lat="-26.5067681" lon="152.8487865">
<ele>96.098</ele>
<time>2017-02-01T01:22:22.517Z</time>
</trkpt>
<trkpt lat="-26.5063208" lon="152.8492693">
<ele>97.667</ele>
<time>2017-02-01T01:22:25.445Z</time>
</trkpt>
<trkpt lat="-26.5060653" lon="152.8496531">
<ele>99.291</ele>
<time>2017-02-01T01:22:27.436Z</time>
</trkpt>
<trkpt lat="-26.5056923" lon="152.8502573">
<ele>100.342</ele>
<time>2017-02-01T01:22:30.542Z</time>
</trkpt>
<trkpt lat="-26.5054663" lon="152.8506284">
<ele>100.642</ele>
<time>2017-02-01T01:22:32.504Z</time>
</trkpt>
<trkpt lat="-26.5052352" lon="152.8509986">
<ele>100.380</ele>
<time>2017-02-01T01:22:34.445Z</time>
</trkpt>
<trkpt lat="-26.5048737" lon="152.8515948">
<ele>100.090</ele>
<time>2017-02-01T01:22:37.483Z</time>
</trkpt>
<trkpt lat="-26.5046204" lon="152.8519953">
<ele>100.496</ele>
<time>2017-02-01T01:22:39.531Z</time>
</trkpt>
<trkpt lat="-26.5042783" lon="152.8525854">
<ele>101.762</ele>
<time>2017-02-01T01:22:42.481Z</time>
</trkpt>
<trkpt lat="-26.5039068" lon="152.8531684">
<ele>103.143</ele>
<time>2017-02-01T01:22:45.492Z</time>
</trkpt>
<trkpt lat="-26.5036715" lon="152.8535605">
<ele>103.916</ele>
<time>2017-02-01T01:22:47.464Z</time>
</trkpt>
<trkpt lat="-26.5034221" lon="152.8539609">
<ele>104.264</ele>
<time>2017-02-01T01:22:49.477Z</time>
</trkpt>
<trkpt lat="-26.5030643" lon="152.8545449">
<ele>104.609</ele>
<time>2017-02-01T01:22:52.354Z</time>
</trkpt>
<trkpt lat="-26.5028023" lon="152.8549738">
<ele>104.941</ele>
<time>2017-02-01T01:22:54.427Z</time>
</trkpt>
<trkpt lat="-26.5025759" lon="152.8553906">
<ele>105.090</ele>
<time>2017-02-01T01:22:56.380Z</time>
</trkpt>
<trkpt lat="-26.5023610" lon="152.8558239">
<ele>104.913</ele>
<time>2017-02-01T01:22:58.396Z</time>
</trkpt>
<trkpt lat="-26.5021616" lon="152.8562433">
<ele>104.232</ele>
<time>2017-02-01T01:23:00.383Z</time>
</trkpt>
<trkpt lat="-26.5018595" lon="152.8568592">
<ele>103.118</ele>
<time>2017-02-01T01:23:03.377Z</time>
</trkpt>
<trkpt lat="-26.5016547" lon="152.8572663">
<ele>101.775</ele>
<time>2017-02-01T01:23:05.318Z</time>
</trkpt>
<trkpt lat="-26.5013331" lon="152.8579379">
<ele>100.496</ele>
<time>2017-02-01T01:23:08.358Z</time>
</trkpt>
<trkpt lat="-26.5010991" lon="152.8583925">
<ele>100.486</ele>
<time>2017-02-01T01:23:10.374Z</time>
</trkpt>
<trkpt lat="-26.5008796" lon="152.8588466">
<ele>102.315</ele>
<time>2017-02-01T01:23:12.337Z</time>
</trkpt>
<trkpt lat="-26.5005358" lon="152.8595482">
<ele>104.445</ele>
<time>2017-02-01T01:23:15.371Z</time>
</trkpt>
<trkpt lat="-26.5003164" lon="152.8600022">
<ele>105.442</ele>
<time>2017-02-01T01:23:17.364Z</time>
</trkpt>
<trkpt lat="-26.4999948" lon="152.8606733">
<ele>105.542</ele>
<time>2017-02-01T01:23:20.406Z</time>
</trkpt>
<trkpt lat="-26.4997047" lon="152.8612916">
<ele>105.279</ele>
<time>2017-02-01T01:23:23.353Z</time>
</trkpt>
<trkpt lat="-26.4993879" lon="152.8619057">
<ele>104.797</ele>
<time>2017-02-01T01:23:26.453Z</time>
</trkpt>
<trkpt lat="-26.4990824" lon="152.8624806">
<ele>104.162</ele>
<time>2017-02-01T01:23:29.431Z</time>
</trkpt>
<trkpt lat="-26.4987712" lon="152.8630267">
<ele>103.663</ele>
<time>2017-02-01T01:23:32.350Z</time>
</trkpt>
<trkpt lat="-26.4984434" lon="152.8635848">
<ele>103.487</ele>
<time>2017-02-01T01:23:35.345Z</time>
</trkpt>
<trkpt lat="-26.4982249" lon="152.8639669">
<ele>103.689</ele>
<time>2017-02-01T01:23:37.364Z</time>
</trkpt>
<trkpt lat="-26.4980010" lon="152.8643382">
<ele>104.310</ele>
<time>2017-02-01T01:23:39.337Z</time>
</trkpt>
<trkpt lat="-26.4976475" lon="152.8649194">
<ele>105.344</ele>
<time>2017-02-01T01:23:42.421Z</time>
</trkpt>
<trkpt lat="-26.4974272" lon="152.8652987">
<ele>106.870</ele>
<time>2017-02-01T01:23:44.402Z</time>
</trkpt>
<trkpt lat="-26.4971978" lon="152.8656806">
<ele>108.830</ele>
<time>2017-02-01T01:23:46.393Z</time>
</trkpt>
<trkpt lat="-26.4968576" lon="152.8662668">
<ele>110.652</ele>
<time>2017-02-01T01:23:49.384Z</time>
</trkpt>
<trkpt lat="-26.4966086" lon="152.8666396">
<ele>111.862</ele>
<time>2017-02-01T01:23:51.337Z</time>
</trkpt>
<trkpt lat="-26.4961342" lon="152.8671540">
<ele>112.683</ele>
<time>2017-02-01T01:23:54.402Z</time>
</trkpt>
<trkpt lat="-26.4957822" lon="152.8674349">
<ele>113.406</ele>
<time>2017-02-01T01:23:56.402Z</time>
</trkpt>
<trkpt lat="-26.4951974" lon="152.8677490">
<ele>113.847</ele>
<time>2017-02-01T01:23:59.414Z</time>
</trkpt>
<trkpt lat="-26.4947863" lon="152.8678855">
<ele>113.802</ele>
<time>2017-02-01T01:24:01.394Z</time>
</trkpt>
<trkpt lat="-26.4941532" lon="152.8680658">
<ele>113.422</ele>
<time>2017-02-01T01:24:04.384Z</time>
</trkpt>
<trkpt lat="-26.4935095" lon="152.8682513">
<ele>113.052</ele>
<time>2017-02-01T01:24:07.412Z</time>
</trkpt>
<trkpt lat="-26.4928844" lon="152.8684410">
<ele>112.947</ele>
<time>2017-02-01T01:24:10.371Z</time>
</trkpt>
<trkpt lat="-26.4924501" lon="152.8685543">
<ele>113.212</ele>
<time>2017-02-01T01:24:12.426Z</time>
</trkpt>
<trkpt lat="-26.4920360" lon="152.8686041">
<ele>113.773</ele>
<time>2017-02-01T01:24:14.375Z</time>
</trkpt>
<trkpt lat="-26.4913981" lon="152.8686455">
<ele>114.329</ele>
<time>2017-02-01T01:24:17.406Z</time>
</trkpt>
<trkpt lat="-26.4909838" lon="152.8686545">
<ele>114.694</ele>
<time>2017-02-01T01:24:19.407Z</time>
</trkpt>
<trkpt lat="-26.4903723" lon="152.8686448">
<ele>115.213</ele>
<time>2017-02-01T01:24:22.370Z</time>
</trkpt>
<trkpt lat="-26.4899525" lon="152.8686605">
<ele>116.167</ele>
<time>2017-02-01T01:24:24.387Z</time>
</trkpt>
<trkpt lat="-26.4895316" lon="152.8686683">
<ele>117.207</ele>
<time>2017-02-01T01:24:26.380Z</time>
</trkpt>
<trkpt lat="-26.4888867" lon="152.8686822">
<ele>117.901</ele>
<time>2017-02-01T01:24:29.407Z</time>
</trkpt>
<trkpt lat="-26.4884611" lon="152.8686802">
<ele>118.202</ele>
<time>2017-02-01T01:24:31.348Z</time>
</trkpt>
<trkpt lat="-26.4877810" lon="152.8687019">
<ele>118.235</ele>
<time>2017-02-01T01:24:34.363Z</time>
</trkpt>
<trkpt lat="-26.4873055" lon="152.8687032">
<ele>118.321</ele>
<time>2017-02-01T01:24:36.422Z</time>
</trkpt>
<trkpt lat="-26.4868514" lon="152.8687240">
<ele>118.682</ele>
<time>2017-02-01T01:24:38.414Z</time>
</trkpt>
<trkpt lat="-26.4864013" lon="152.8687325">
<ele>119.138</ele>
<time>2017-02-01T01:24:40.426Z</time>
</trkpt>
<trkpt lat="-26.4859631" lon="152.8687752">
<ele>119.412</ele>
<time>2017-02-01T01:24:42.432Z</time>
</trkpt>
<trkpt lat="-26.4855364" lon="152.8688660">
<ele>119.504</ele>
<time>2017-02-01T01:24:44.497Z</time>
</trkpt>
<trkpt lat="-26.4849627" lon="152.8690834">
<ele>119.728</ele>
<time>2017-02-01T01:24:47.506Z</time>
</trkpt>
<trkpt lat="-26.4844518" lon="152.8693939">
<ele>120.487</ele>
<time>2017-02-01T01:24:50.495Z</time>
</trkpt>
<trkpt lat="-26.4839874" lon="152.8697913">
<ele>122.125</ele>
<time>2017-02-01T01:24:53.457Z</time>
</trkpt>
<trkpt lat="-26.4835758" lon="152.8703077">
<ele>124.938</ele>
<time>2017-02-01T01:24:56.495Z</time>
</trkpt>
<trkpt lat="-26.4832701" lon="152.8708903">
<ele>129.038</ele>
<time>2017-02-01T01:24:59.434Z</time>
</trkpt>
<trkpt lat="-26.4831099" lon="152.8713109">
<ele>133.882</ele>
<time>2017-02-01T01:25:01.451Z</time>
</trkpt>
<trkpt lat="-26.4829364" lon="152.8717094">
<ele>138.346</ele>
<time>2017-02-01T01:25:03.448Z</time>
</trkpt>
<trkpt lat="-26.4827163" lon="152.8720731">
<ele>141.522</ele>
<time>2017-02-01T01:25:05.427Z</time>
</trkpt>
<trkpt lat="-26.4824461" lon="152.8724295">
<ele>143.264</ele>
<time>2017-02-01T01:25:07.509Z</time>
</trkpt>
<trkpt lat="-26.4821823" lon="152.8727675">
<ele>144.297</ele>
<time>2017-02-01T01:25:09.561Z</time>
</trkpt>
<trkpt lat="-26.4818077" lon="152.8732364">
<ele>145.357</ele>
<time>2017-02-01T01:25:12.506Z</time>
</trkpt>
<trkpt lat="-26.4813734" lon="152.8736217">
<ele>145.925</ele>
<time>2017-02-01T01:25:15.410Z</time>
</trkpt>
<trkpt lat="-26.4810073" lon="152.8738205">
<ele>145.056</ele>
<time>2017-02-01T01:25:17.469Z</time>
</trkpt>
<trkpt lat="-26.4804633" lon="152.8740997">
<ele>142.908</ele>
<time>2017-02-01T01:25:20.437Z</time>
</trkpt>
<trkpt lat="-26.4801192" lon="152.8743508">
<ele>140.138</ele>
<time>2017-02-01T01:25:22.458Z</time>
</trkpt>
<trkpt lat="-26.4797324" lon="152.8748532">
<ele>137.273</ele>
<time>2017-02-01T01:25:25.431Z</time>
</trkpt>
<trkpt lat="-26.4795466" lon="152.8752387">
<ele>134.478</ele>
<time>2017-02-01T01:25:27.442Z</time>
</trkpt>
<trkpt lat="-26.4794429" lon="152.8756416">
<ele>131.512</ele>
<time>2017-02-01T01:25:29.357Z</time>
</trkpt>
<trkpt lat="-26.4793748" lon="152.8760736">
<ele>128.568</ele>
<time>2017-02-01T01:25:31.316Z</time>
</trkpt>
<trkpt lat="-26.4794026" lon="152.8765308">
<ele>126.358</ele>
<time>2017-02-01T01:25:33.331Z</time>
</trkpt>
<trkpt lat="-26.4795634" lon="152.8771849">
<ele>124.964</ele>
<time>2017-02-01T01:25:36.343Z</time>
</trkpt>
<trkpt lat="-26.4797098" lon="152.8775800">
<ele>123.901</ele>
<time>2017-02-01T01:25:38.338Z</time>
</trkpt>
<trkpt lat="-26.4799083" lon="152.8781494">
<ele>122.972</ele>
<time>2017-02-01T01:25:41.291Z</time>
</trkpt>
<trkpt lat="-26.4799538" lon="152.8787423">
<ele>122.347</ele>
<time>2017-02-01T01:25:44.264Z</time>
</trkpt>
<trkpt lat="-26.4798726" lon="152.8793206">
<ele>121.812</ele>
<time>2017-02-01T01:25:47.208Z</time>
</trkpt>
<trkpt lat="-26.4798095" lon="152.8797225">
<ele>120.441</ele>
<time>2017-02-01T01:25:49.236Z</time>
</trkpt>
<trkpt lat="-26.4796110" lon="152.8802810">
<ele>117.859</ele>
<time>2017-02-01T01:25:52.240Z</time>
</trkpt>
<trkpt lat="-26.4793521" lon="152.8806054">
<ele>114.647</ele>
<time>2017-02-01T01:25:54.388Z</time>
</trkpt>
<trkpt lat="-26.4789593" lon="152.8810897">
<ele>111.014</ele>
<time>2017-02-01T01:25:57.494Z</time>
</trkpt>
<trkpt lat="-26.4786209" lon="152.8816227">
<ele>106.935</ele>
<time>2017-02-01T01:26:00.445Z</time>
</trkpt>
<trkpt lat="-26.4783997" lon="152.8819925">
<ele>103.153</ele>
<time>2017-02-01T01:26:02.359Z</time>
</trkpt>
<trkpt lat="-26.4780844" lon="152.8826256">
<ele>100.015</ele>
<time>2017-02-01T01:26:05.398Z</time>
</trkpt>
<trkpt lat="-26.4779209" lon="152.8830897">
<ele>96.820</ele>
<time>2017-02-01T01:26:07.440Z</time>
</trkpt>
<trkpt lat="-26.4777863" lon="152.8837690">
<ele>93.108</ele>
<time>2017-02-01T01:26:10.319Z</time>
</trkpt>
<trkpt lat="-26.4776961" lon="152.8842158">
<ele>89.051</ele>
<time>2017-02-01T01:26:12.288Z</time>
</trkpt>
<trkpt lat="-26.4776785" lon="152.8846663">
<ele>85.052</ele>
<time>2017-02-01T01:26:14.315Z</time>
</trkpt>
<trkpt lat="-26.4777097" lon="152.8852926">
<ele>81.535</ele>
<time>2017-02-01T01:26:17.226Z</time>
</trkpt>
<trkpt lat="-26.4776277" lon="152.8859395">
<ele>78.585</ele>
<time>2017-02-01T01:26:20.332Z</time>
</trkpt>
<trkpt lat="-26.4774631" lon="152.8863163">
<ele>75.994</ele>
<time>2017-02-01T01:26:22.390Z</time>
</trkpt>
<trkpt lat="-26.4771757" lon="152.8868070">
<ele>73.793</ele>
<time>2017-02-01T01:26:25.312Z</time>
</trkpt>
<trkpt lat="-26.4768293" lon="152.8871016">
<ele>72.096</ele>
<time>2017-02-01T01:26:27.670Z</time>
</trkpt>
<trkpt lat="-26.4762775" lon="152.8873791">
<ele>70.693</ele>
<time>2017-02-01T01:26:30.870Z</time>
</trkpt>
<trkpt lat="-26.4759028" lon="152.8875040">
<ele>69.146</ele>
<time>2017-02-01T01:26:32.910Z</time>
</trkpt>
<trkpt lat="-26.4754108" lon="152.8878129">
<ele>67.460</ele>
<time>2017-02-01T01:26:35.818Z</time>
</trkpt>
<trkpt lat="-26.4751168" lon="152.8881070">
<ele>66.160</ele>
<time>2017-02-01T01:26:37.742Z</time>
</trkpt>
<trkpt lat="-26.4748368" lon="152.8884508">
<ele>65.487</ele>
<time>2017-02-01T01:26:39.699Z</time>
</trkpt>
<trkpt lat="-26.4745593" lon="152.8888114">
<ele>65.041</ele>
<time>2017-02-01T01:26:41.756Z</time>
</trkpt>
<trkpt lat="-26.4742104" lon="152.8893307">
<ele>64.520</ele>
<time>2017-02-01T01:26:44.624Z</time>
</trkpt>
<trkpt lat="-26.4740474" lon="152.8897431">
<ele>63.829</ele>
<time>2017-02-01T01:26:46.573Z</time>
</trkpt>
<trkpt lat="-26.4739413" lon="152.8904175">
<ele>63.012</ele>
<time>2017-02-01T01:26:49.475Z</time>
</trkpt>
<trkpt lat="-26.4738589" lon="152.8908790">
<ele>62.552</ele>
<time>2017-02-01T01:26:51.432Z</time>
</trkpt>
<trkpt lat="-26.4737598" lon="152.8913378">
<ele>62.761</ele>
<time>2017-02-01T01:26:53.361Z</time>
</trkpt>
<trkpt lat="-26.4735596" lon="152.8920516">
<ele>62.845</ele>
<time>2017-02-01T01:26:56.397Z</time>
</trkpt>
<trkpt lat="-26.4733583" lon="152.8927410">
<ele>61.876</ele>
<time>2017-02-01T01:26:59.379Z</time>
</trkpt>
<trkpt lat="-26.4731628" lon="152.8934227">
<ele>59.563</ele>
<time>2017-02-01T01:27:02.409Z</time>
</trkpt>
<trkpt lat="-26.4730332" lon="152.8938492">
<ele>56.204</ele>
<time>2017-02-01T01:27:04.386Z</time>
</trkpt>
<trkpt lat="-26.4729132" lon="152.8942636">
<ele>52.978</ele>
<time>2017-02-01T01:27:06.346Z</time>
</trkpt>
<trkpt lat="-26.4727339" lon="152.8948883">
<ele>51.101</ele>
<time>2017-02-01T01:27:09.324Z</time>
</trkpt>
<trkpt lat="-26.4725466" lon="152.8955055">
<ele>50.503</ele>
<time>2017-02-01T01:27:12.285Z</time>
</trkpt>
<trkpt lat="-26.4723947" lon="152.8959145">
<ele>50.489</ele>
<time>2017-02-01T01:27:14.283Z</time>
</trkpt>
<trkpt lat="-26.4722276" lon="152.8963208">
<ele>50.496</ele>
<time>2017-02-01T01:27:16.291Z</time>
</trkpt>
<trkpt lat="-26.4720527" lon="152.8967048">
<ele>50.283</ele>
<time>2017-02-01T01:27:18.203Z</time>
</trkpt>
<trkpt lat="-26.4718432" lon="152.8971143">
<ele>49.738</ele>
<time>2017-02-01T01:27:20.252Z</time>
</trkpt>
<trkpt lat="-26.4715129" lon="152.8977213">
<ele>48.896</ele>
<time>2017-02-01T01:27:23.292Z</time>
</trkpt>
<trkpt lat="-26.4712792" lon="152.8981213">
<ele>48.041</ele>
<time>2017-02-01T01:27:25.324Z</time>
</trkpt>
<trkpt lat="-26.4710338" lon="152.8985123">
<ele>47.443</ele>
<time>2017-02-01T01:27:27.302Z</time>
</trkpt>
<trkpt lat="-26.4706542" lon="152.8991154">
<ele>47.310</ele>
<time>2017-02-01T01:27:30.230Z</time>
</trkpt>
<trkpt lat="-26.4703715" lon="152.8995681">
<ele>47.723</ele>
<time>2017-02-01T01:27:32.303Z</time>
</trkpt>
<trkpt lat="-26.4699524" lon="152.9002229">
<ele>48.317</ele>
<time>2017-02-01T01:27:35.290Z</time>
</trkpt>
<trkpt lat="-26.4696682" lon="152.9006616">
<ele>48.694</ele>
<time>2017-02-01T01:27:37.287Z</time>
</trkpt>
<trkpt lat="-26.4692506" lon="152.9013293">
<ele>48.771</ele>
<time>2017-02-01T01:27:40.277Z</time>
</trkpt>
<trkpt lat="-26.4688216" lon="152.9020043">
<ele>48.563</ele>
<time>2017-02-01T01:27:43.299Z</time>
</trkpt>
<trkpt lat="-26.4685430" lon="152.9024378">
<ele>48.009</ele>
<time>2017-02-01T01:27:45.255Z</time>
</trkpt>
<trkpt lat="-26.4681614" lon="152.9031061">
<ele>46.507</ele>
<time>2017-02-01T01:27:48.183Z</time>
</trkpt>
<trkpt lat="-26.4679343" lon="152.9035832">
<ele>43.968</ele>
<time>2017-02-01T01:27:50.201Z</time>
</trkpt>
<trkpt lat="-26.4677584" lon="152.9040709">
<ele>41.306</ele>
<time>2017-02-01T01:27:52.190Z</time>
</trkpt>
<trkpt lat="-26.4676137" lon="152.9045638">
<ele>39.215</ele>
<time>2017-02-01T01:27:54.163Z</time>
</trkpt>
<trkpt lat="-26.4674931" lon="152.9050854">
<ele>37.962</ele>
<time>2017-02-01T01:27:56.219Z</time>
</trkpt>
<trkpt lat="-26.4674147" lon="152.9058562">
<ele>37.722</ele>
<time>2017-02-01T01:27:59.196Z</time>
</trkpt>
<trkpt lat="-26.4674181" lon="152.9063726">
<ele>38.038</ele>
<time>2017-02-01T01:28:01.175Z</time>
</trkpt>
<trkpt lat="-26.4674551" lon="152.9068833">
<ele>38.419</ele>
<time>2017-02-01T01:28:03.108Z</time>
</trkpt>
<trkpt lat="-26.4674985" lon="152.9074106">
<ele>38.758</ele>
<time>2017-02-01T01:28:05.076Z</time>
</trkpt>
<trkpt lat="-26.4675733" lon="152.9082137">
<ele>39.247</ele>
<time>2017-02-01T01:28:08.072Z</time>
</trkpt>
<trkpt lat="-26.4676475" lon="152.9090072">
<ele>39.957</ele>
<time>2017-02-01T01:28:11.085Z</time>
</trkpt>
<trkpt lat="-26.4676674" lon="152.9095164">
<ele>40.302</ele>
<time>2017-02-01T01:28:13.090Z</time>
</trkpt>
<trkpt lat="-26.4676128" lon="152.9102567">
<ele>39.714</ele>
<time>2017-02-01T01:28:16.093Z</time>
</trkpt>
<trkpt lat="-26.4675299" lon="152.9107358">
<ele>38.629</ele>
<time>2017-02-01T01:28:18.090Z</time>
</trkpt>
<trkpt lat="-26.4674564" lon="152.9114689">
<ele>38.012</ele>
<time>2017-02-01T01:28:21.108Z</time>
</trkpt>
<trkpt lat="-26.4674578" lon="152.9119416">
<ele>38.266</ele>
<time>2017-02-01T01:28:23.063Z</time>
</trkpt>
<trkpt lat="-26.4675089" lon="152.9124080">
<ele>38.946</ele>
<time>2017-02-01T01:28:24.999Z</time>
</trkpt>
<trkpt lat="-26.4676166" lon="152.9128863">
<ele>39.111</ele>
<time>2017-02-01T01:28:26.968Z</time>
</trkpt>
<trkpt lat="-26.4678477" lon="152.9136354">
<ele>38.277</ele>
<time>2017-02-01T01:28:30.054Z</time>
</trkpt>
<trkpt lat="-26.4680095" lon="152.9143803">
<ele>37.021</ele>
<time>2017-02-01T01:28:33.041Z</time>
</trkpt>
<trkpt lat="-26.4680319" lon="152.9151353">
<ele>36.395</ele>
<time>2017-02-01T01:28:36.018Z</time>
</trkpt>
<trkpt lat="-26.4680037" lon="152.9159005">
<ele>36.743</ele>
<time>2017-02-01T01:28:39.010Z</time>
</trkpt>
<trkpt lat="-26.4679878" lon="152.9164235">
<ele>37.524</ele>
<time>2017-02-01T01:28:41.049Z</time>
</trkpt>
<trkpt lat="-26.4679627" lon="152.9171659">
<ele>37.990</ele>
<time>2017-02-01T01:28:43.967Z</time>
</trkpt>
<trkpt lat="-26.4679415" lon="152.9176829">
<ele>37.246</ele>
<time>2017-02-01T01:28:45.982Z</time>
</trkpt>
<trkpt lat="-26.4679204" lon="152.9182081">
<ele>35.130</ele>
<time>2017-02-01T01:28:47.994Z</time>
</trkpt>
<trkpt lat="-26.4678933" lon="152.9189987">
<ele>32.993</ele>
<time>2017-02-01T01:28:50.996Z</time>
</trkpt>
<trkpt lat="-26.4678710" lon="152.9195285">
<ele>32.027</ele>
<time>2017-02-01T01:28:53.023Z</time>
</trkpt>
<trkpt lat="-26.4678744" lon="152.9202703">
<ele>32.033</ele>
<time>2017-02-01T01:28:55.918Z</time>
</trkpt>
<trkpt lat="-26.4679345" lon="152.9207675">
<ele>32.374</ele>
<time>2017-02-01T01:28:57.909Z</time>
</trkpt>
<trkpt lat="-26.4680642" lon="152.9212411">
<ele>32.619</ele>
<time>2017-02-01T01:28:59.862Z</time>
</trkpt>
<trkpt lat="-26.4682420" lon="152.9217129">
<ele>32.782</ele>
<time>2017-02-01T01:29:01.867Z</time>
</trkpt>
<trkpt lat="-26.4685547" lon="152.9223989">
<ele>32.986</ele>
<time>2017-02-01T01:29:04.895Z</time>
</trkpt>
<trkpt lat="-26.4686930" lon="152.9228768">
<ele>33.157</ele>
<time>2017-02-01T01:29:06.891Z</time>
</trkpt>
<trkpt lat="-26.4687790" lon="152.9233678">
<ele>32.923</ele>
<time>2017-02-01T01:29:08.874Z</time>
</trkpt>
<trkpt lat="-26.4687772" lon="152.9241410">
<ele>32.144</ele>
<time>2017-02-01T01:29:11.904Z</time>
</trkpt>
<trkpt lat="-26.4686946" lon="152.9246644">
<ele>30.904</ele>
<time>2017-02-01T01:29:13.956Z</time>
</trkpt>
<trkpt lat="-26.4685566" lon="152.9251568">
<ele>29.294</ele>
<time>2017-02-01T01:29:15.972Z</time>
</trkpt>
<trkpt lat="-26.4682517" lon="152.9258291">
<ele>27.287</ele>
<time>2017-02-01T01:29:19.000Z</time>
</trkpt>
<trkpt lat="-26.4679352" lon="152.9264501">
<ele>25.192</ele>
<time>2017-02-01T01:29:21.961Z</time>
</trkpt>
<trkpt lat="-26.4677809" lon="152.9268801">
<ele>23.889</ele>
<time>2017-02-01T01:29:23.889Z</time>
</trkpt>
<trkpt lat="-26.4675976" lon="152.9275802">
<ele>23.925</ele>
<time>2017-02-01T01:29:26.876Z</time>
</trkpt>
<trkpt lat="-26.4675177" lon="152.9280783">
<ele>24.707</ele>
<time>2017-02-01T01:29:28.893Z</time>
</trkpt>
<trkpt lat="-26.4674687" lon="152.9285906">
<ele>25.456</ele>
<time>2017-02-01T01:29:30.901Z</time>
</trkpt>
<trkpt lat="-26.4673792" lon="152.9291072">
<ele>25.829</ele>
<time>2017-02-01T01:29:32.929Z</time>
</trkpt>
<trkpt lat="-26.4671703" lon="152.9298360">
<ele>25.849</ele>
<time>2017-02-01T01:29:35.907Z</time>
</trkpt>
<trkpt lat="-26.4668944" lon="152.9305213">
<ele>25.705</ele>
<time>2017-02-01T01:29:38.909Z</time>
</trkpt>
<trkpt lat="-26.4667278" lon="152.9309634">
<ele>25.569</ele>
<time>2017-02-01T01:29:40.900Z</time>
</trkpt>
<trkpt lat="-26.4666041" lon="152.9313944">
<ele>25.492</ele>
<time>2017-02-01T01:29:42.875Z</time>
</trkpt>
<trkpt lat="-26.4665154" lon="152.9320367">
<ele>25.165</ele>
<time>2017-02-01T01:29:45.839Z</time>
</trkpt>
<trkpt lat="-26.4665257" lon="152.9324568">
<ele>23.991</ele>
<time>2017-02-01T01:29:47.858Z</time>
</trkpt>
<trkpt lat="-26.4665538" lon="152.9328262">
<ele>21.792</ele>
<time>2017-02-01T01:29:49.754Z</time>
</trkpt>
<trkpt lat="-26.4665923" lon="152.9331754">
<ele>19.184</ele>
<time>2017-02-01T01:29:51.712Z</time>
</trkpt>
<trkpt lat="-26.4666750" lon="152.9334771">
<ele>17.086</ele>
<time>2017-02-01T01:29:53.636Z</time>
</trkpt>
<trkpt lat="-26.4667851" lon="152.9337577">
<ele>15.844</ele>
<time>2017-02-01T01:29:55.701Z</time>
</trkpt>
<trkpt lat="-26.4668695" lon="152.9341216">
<ele>15.084</ele>
<time>2017-02-01T01:29:58.495Z</time>
</trkpt>
<trkpt lat="-26.4667950" lon="152.9344607">
<ele>14.232</ele>
<time>2017-02-01T01:30:01.345Z</time>
</trkpt>
<trkpt lat="-26.4666329" lon="152.9346601">
<ele>13.186</ele>
<time>2017-02-01T01:30:03.487Z</time>
</trkpt>
<trkpt lat="-26.4663228" lon="152.9348824">
<ele>12.721</ele>
<time>2017-02-01T01:30:06.496Z</time>
</trkpt>
<trkpt lat="-26.4659339" lon="152.9349363">
<ele>13.741</ele>
<time>2017-02-01T01:30:09.463Z</time>
</trkpt>
<trkpt lat="-26.4656503" lon="152.9348479">
<ele>15.757</ele>
<time>2017-02-01T01:30:11.550Z</time>
</trkpt>
<trkpt lat="-26.4654017" lon="152.9346467">
<ele>17.557</ele>
<time>2017-02-01T01:30:13.555Z</time>
</trkpt>
<trkpt lat="-26.4651147" lon="152.9344007">
<ele>18.663</ele>
<time>2017-02-01T01:30:15.612Z</time>
</trkpt>
<trkpt lat="-26.4647571" lon="152.9340902">
<ele>19.517</ele>
<time>2017-02-01T01:30:17.789Z</time>
</trkpt>
<trkpt lat="-26.4641877" lon="152.9336419">
<ele>20.896</ele>
<time>2017-02-01T01:30:20.819Z</time>
</trkpt>
<trkpt lat="-26.4635386" lon="152.9331869">
<ele>23.119</ele>
<time>2017-02-01T01:30:23.936Z</time>
</trkpt>
<trkpt lat="-26.4628322" lon="152.9328058">
<ele>25.645</ele>
<time>2017-02-01T01:30:27.040Z</time>
</trkpt>
<trkpt lat="-26.4623799" lon="152.9326042">
<ele>27.645</ele>
<time>2017-02-01T01:30:29.030Z</time>
</trkpt>
<trkpt lat="-26.4619455" lon="152.9324117">
<ele>28.191</ele>
<time>2017-02-01T01:30:30.975Z</time>
</trkpt>
<trkpt lat="-26.4612503" lon="152.9321741">
<ele>27.163</ele>
<time>2017-02-01T01:30:33.973Z</time>
</trkpt>
<trkpt lat="-26.4607756" lon="152.9320187">
<ele>25.701</ele>
<time>2017-02-01T01:30:35.957Z</time>
</trkpt>
<trkpt lat="-26.4602718" lon="152.9318690">
<ele>24.812</ele>
<time>2017-02-01T01:30:37.947Z</time>
</trkpt>
<trkpt lat="-26.4594444" lon="152.9316990">
<ele>24.658</ele>
<time>2017-02-01T01:30:41.017Z</time>
</trkpt>
<trkpt lat="-26.4588828" lon="152.9316140">
<ele>25.360</ele>
<time>2017-02-01T01:30:43.050Z</time>
</trkpt>
<trkpt lat="-26.4583352" lon="152.9315508">
<ele>26.831</ele>
<time>2017-02-01T01:30:45.039Z</time>
</trkpt>
<trkpt lat="-26.4577921" lon="152.9314841">
<ele>28.374</ele>
<time>2017-02-01T01:30:47.015Z</time>
</trkpt>
<trkpt lat="-26.4569760" lon="152.9313704">
<ele>29.283</ele>
<time>2017-02-01T01:30:49.989Z</time>
</trkpt>
<trkpt lat="-26.4561587" lon="152.9312798">
<ele>29.417</ele>
<time>2017-02-01T01:30:52.963Z</time>
</trkpt>
<trkpt lat="-26.4553323" lon="152.9311680">
<ele>29.307</ele>
<time>2017-02-01T01:30:55.996Z</time>
</trkpt>
<trkpt lat="-26.4545393" lon="152.9310440">
<ele>29.292</ele>
<time>2017-02-01T01:30:58.969Z</time>
</trkpt>
<trkpt lat="-26.4540162" lon="152.9309779">
<ele>28.981</ele>
<time>2017-02-01T01:31:00.949Z</time>
</trkpt>
<trkpt lat="-26.4532215" lon="152.9308752">
<ele>28.282</ele>
<time>2017-02-01T01:31:03.957Z</time>
</trkpt>
<trkpt lat="-26.4526879" lon="152.9308108">
<ele>27.693</ele>
<time>2017-02-01T01:31:05.980Z</time>
</trkpt>
<trkpt lat="-26.4521603" lon="152.9307535">
<ele>27.420</ele>
<time>2017-02-01T01:31:07.969Z</time>
</trkpt>
<trkpt lat="-26.4513469" lon="152.9306560">
<ele>27.431</ele>
<time>2017-02-01T01:31:11.021Z</time>
</trkpt>
<trkpt lat="-26.4505482" lon="152.9305632">
<ele>27.967</ele>
<time>2017-02-01T01:31:14.018Z</time>
</trkpt>
<trkpt lat="-26.4497512" lon="152.9304638">
<ele>29.119</ele>
<time>2017-02-01T01:31:17.017Z</time>
</trkpt>
<trkpt lat="-26.4492263" lon="152.9303658">
<ele>30.441</ele>
<time>2017-02-01T01:31:18.997Z</time>
</trkpt>
<trkpt lat="-26.4484193" lon="152.9301941">
<ele>32.053</ele>
<time>2017-02-01T01:31:22.035Z</time>
</trkpt>
<trkpt lat="-26.4478932" lon="152.9300403">
<ele>34.315</ele>
<time>2017-02-01T01:31:24.042Z</time>
</trkpt>
<trkpt lat="-26.4471245" lon="152.9297552">
<ele>36.516</ele>
<time>2017-02-01T01:31:27.032Z</time>
</trkpt>
<trkpt lat="-26.4463725" lon="152.9293974">
<ele>38.143</ele>
<time>2017-02-01T01:31:30.039Z</time>
</trkpt>
<trkpt lat="-26.4458926" lon="152.9291421">
<ele>39.424</ele>
<time>2017-02-01T01:31:31.996Z</time>
</trkpt>
<trkpt lat="-26.4451830" lon="152.9287078">
<ele>40.675</ele>
<time>2017-02-01T01:31:34.986Z</time>
</trkpt>
<trkpt lat="-26.4445115" lon="152.9282109">
<ele>42.338</ele>
<time>2017-02-01T01:31:37.967Z</time>
</trkpt>
<trkpt lat="-26.4440838" lon="152.9278487">
<ele>44.833</ele>
<time>2017-02-01T01:31:39.958Z</time>
</trkpt>
<trkpt lat="-26.4436732" lon="152.9274663">
<ele>48.173</ele>
<time>2017-02-01T01:31:41.940Z</time>
</trkpt>
<trkpt lat="-26.4430452" lon="152.9268914">
<ele>51.953</ele>
<time>2017-02-01T01:31:44.970Z</time>
</trkpt>
<trkpt lat="-26.4426801" lon="152.9264992">
<ele>55.944</ele>
<time>2017-02-01T01:31:46.939Z</time>
</trkpt>
<trkpt lat="-26.4421777" lon="152.9259256">
<ele>59.988</ele>
<time>2017-02-01T01:31:49.858Z</time>
</trkpt>
<trkpt lat="-26.4418599" lon="152.9255541">
<ele>63.421</ele>
<time>2017-02-01T01:31:51.828Z</time>
</trkpt>
<trkpt lat="-26.4415603" lon="152.9251858">
<ele>66.068</ele>
<time>2017-02-01T01:31:53.801Z</time>
</trkpt>
<trkpt lat="-26.4411369" lon="152.9246387">
<ele>68.313</ele>
<time>2017-02-01T01:31:56.743Z</time>
</trkpt>
<trkpt lat="-26.4408632" lon="152.9242717">
<ele>70.494</ele>
<time>2017-02-01T01:31:58.738Z</time>
</trkpt>
<trkpt lat="-26.4405985" lon="152.9239152">
<ele>72.861</ele>
<time>2017-02-01T01:32:00.717Z</time>
</trkpt>
<trkpt lat="-26.4402119" lon="152.9233949">
<ele>75.457</ele>
<time>2017-02-01T01:32:03.691Z</time>
</trkpt>
<trkpt lat="-26.4399684" lon="152.9230725">
<ele>78.229</ele>
<time>2017-02-01T01:32:05.631Z</time>
</trkpt>
<trkpt lat="-26.4397240" lon="152.9227533">
<ele>81.030</ele>
<time>2017-02-01T01:32:07.630Z</time>
</trkpt>
<trkpt lat="-26.4393875" lon="152.9223016">
<ele>83.438</ele>
<time>2017-02-01T01:32:10.535Z</time>
</trkpt>
<trkpt lat="-26.4390644" lon="152.9218580">
<ele>85.400</ele>
<time>2017-02-01T01:32:13.471Z</time>
</trkpt>
<trkpt lat="-26.4388320" lon="152.9215509">
<ele>87.225</ele>
<time>2017-02-01T01:32:15.510Z</time>
</trkpt>
<trkpt lat="-26.4384928" lon="152.9210827">
<ele>89.220</ele>
<time>2017-02-01T01:32:18.516Z</time>
</trkpt>
<trkpt lat="-26.4382664" lon="152.9207789">
<ele>91.351</ele>
<time>2017-02-01T01:32:20.500Z</time>
</trkpt>
<trkpt lat="-26.4379370" lon="152.9203245">
<ele>93.284</ele>
<time>2017-02-01T01:32:23.477Z</time>
</trkpt>
<trkpt lat="-26.4376068" lon="152.9198682">
<ele>94.927</ele>
<time>2017-02-01T01:32:26.485Z</time>
</trkpt>
<trkpt lat="-26.4373915" lon="152.9195705">
<ele>96.344</ele>
<time>2017-02-01T01:32:28.459Z</time>
</trkpt>
<trkpt lat="-26.4370767" lon="152.9191311">
<ele>97.476</ele>
<time>2017-02-01T01:32:31.409Z</time>
</trkpt>
<trkpt lat="-26.4368702" lon="152.9188471">
<ele>98.326</ele>
<time>2017-02-01T01:32:33.377Z</time>
</trkpt>
<trkpt lat="-26.4365532" lon="152.9184200">
<ele>98.947</ele>
<time>2017-02-01T01:32:36.380Z</time>
</trkpt>
<trkpt lat="-26.4363475" lon="152.9181169">
<ele>99.396</ele>
<time>2017-02-01T01:32:38.440Z</time>
</trkpt>
<trkpt lat="-26.4360652" lon="152.9176993">
<ele>99.927</ele>
<time>2017-02-01T01:32:41.402Z</time>
</trkpt>
<trkpt lat="-26.4358871" lon="152.9174610">
<ele>100.579</ele>
<time>2017-02-01T01:32:43.341Z</time>
</trkpt>
<trkpt lat="-26.4357233" lon="152.9172484">
<ele>101.012</ele>
<time>2017-02-01T01:32:45.301Z</time>
</trkpt>
<trkpt lat="-26.4355526" lon="152.9169931">
<ele>100.964</ele>
<time>2017-02-01T01:32:47.976Z</time>
</trkpt>
<trkpt lat="-26.4355371" lon="152.9168702">
<ele>100.612</ele>
<time>2017-02-01T01:32:49.472Z</time>
</trkpt>
<trkpt lat="-26.4356016" lon="152.9167657">
<ele>100.257</ele>
<time>2017-02-01T01:32:51.385Z</time>
</trkpt>
<trkpt lat="-26.4355869" lon="152.9165856">
<ele>100.066</ele>
<time>2017-02-01T01:32:54.421Z</time>
</trkpt>
<trkpt lat="-26.4354749" lon="152.9164321">
<ele>100.207</ele>
<time>2017-02-01T01:32:56.982Z</time>
</trkpt>
<trkpt lat="-26.4352589" lon="152.9161362">
<ele>101.046</ele>
<time>2017-02-01T01:33:00.283Z</time>
</trkpt>
<trkpt lat="-26.4351180" lon="152.9159211">
<ele>102.800</ele>
<time>2017-02-01T01:33:02.292Z</time>
</trkpt>
<trkpt lat="-26.4348764" lon="152.9156110">
<ele>105.045</ele>
<time>2017-02-01T01:33:05.276Z</time>
</trkpt>
<trkpt lat="-26.4347123" lon="152.9153913">
<ele>107.231</ele>
<time>2017-02-01T01:33:07.273Z</time>
</trkpt>
<trkpt lat="-26.4345451" lon="152.9151627">
<ele>109.126</ele>
<time>2017-02-01T01:33:09.268Z</time>
</trkpt>
<trkpt lat="-26.4342891" lon="152.9148110">
<ele>110.491</ele>
<time>2017-02-01T01:33:12.290Z</time>
</trkpt>
<trkpt lat="-26.4340364" lon="152.9144686">
<ele>111.136</ele>
<time>2017-02-01T01:33:15.245Z</time>
</trkpt>
<trkpt lat="-26.4337702" lon="152.9141168">
<ele>110.950</ele>
<time>2017-02-01T01:33:18.331Z</time>
</trkpt>
<trkpt lat="-26.4335259" lon="152.9137835">
<ele>109.883</ele>
<time>2017-02-01T01:33:21.277Z</time>
</trkpt>
<trkpt lat="-26.4333522" lon="152.9134081">
<ele>108.173</ele>
<time>2017-02-01T01:33:24.270Z</time>
</trkpt>
<trkpt lat="-26.4332605" lon="152.9131824">
<ele>106.110</ele>
<time>2017-02-01T01:33:26.194Z</time>
</trkpt>
<trkpt lat="-26.4331539" lon="152.9130242">
<ele>103.697</ele>
<time>2017-02-01T01:33:28.000Z</time>
</trkpt>
<trkpt lat="-26.4330411" lon="152.9128845">
<ele>101.067</ele>
<time>2017-02-01T01:33:30.395Z</time>
</trkpt>
<trkpt lat="-26.4328712" lon="152.9128654">
<ele>98.869</ele>
<time>2017-02-01T01:33:33.336Z</time>
</trkpt>
<trkpt lat="-26.4327476" lon="152.9129868">
<ele>97.838</ele>
<time>2017-02-01T01:33:35.863Z</time>
</trkpt>
<trkpt lat="-26.4325914" lon="152.9131404">
<ele>98.058</ele>
<time>2017-02-01T01:33:38.182Z</time>
</trkpt>
<trkpt lat="-26.4323205" lon="152.9133717">
<ele>99.035</ele>
<time>2017-02-01T01:33:41.410Z</time>
</trkpt>
<trkpt lat="-26.4320366" lon="152.9136177">
<ele>100.109</ele>
<time>2017-02-01T01:33:44.662Z</time>
</trkpt>
<trkpt lat="-26.4318055" lon="152.9138495">
<ele>100.879</ele>
<time>2017-02-01T01:33:47.535Z</time>
</trkpt>
<trkpt lat="-26.4316254" lon="152.9139720">
<ele>101.306</ele>
<time>2017-02-01T01:33:49.518Z</time>
</trkpt>
<trkpt lat="-26.4314112" lon="152.9140630">
<ele>101.695</ele>
<time>2017-02-01T01:33:51.575Z</time>
</trkpt>
<trkpt lat="-26.4310533" lon="152.9141401">
<ele>102.425</ele>
<time>2017-02-01T01:33:54.625Z</time>
</trkpt>
<trkpt lat="-26.4307916" lon="152.9141160">
<ele>103.359</ele>
<time>2017-02-01T01:33:56.642Z</time>
</trkpt>
<trkpt lat="-26.4305164" lon="152.9140292">
<ele>103.886</ele>
<time>2017-02-01T01:33:58.664Z</time>
</trkpt>
<trkpt lat="-26.4300930" lon="152.9138225">
<ele>103.803</ele>
<time>2017-02-01T01:34:01.751Z</time>
</trkpt>
<trkpt lat="-26.4296927" lon="152.9135845">
<ele>103.458</ele>
<time>2017-02-01T01:34:04.718Z</time>
</trkpt>
<trkpt lat="-26.4294273" lon="152.9134198">
<ele>102.987</ele>
<time>2017-02-01T01:34:06.719Z</time>
</trkpt>
<trkpt lat="-26.4291753" lon="152.9132656">
<ele>102.305</ele>
<time>2017-02-01T01:34:08.655Z</time>
</trkpt>
<trkpt lat="-26.4289242" lon="152.9131083">
<ele>101.667</ele>
<time>2017-02-01T01:34:10.632Z</time>
</trkpt>
<trkpt lat="-26.4286617" lon="152.9129528">
<ele>101.370</ele>
<time>2017-02-01T01:34:12.657Z</time>
</trkpt>
<trkpt lat="-26.4282642" lon="152.9126998">
<ele>101.406</ele>
<time>2017-02-01T01:34:15.707Z</time>
</trkpt>
<trkpt lat="-26.4278540" lon="152.9124736">
<ele>101.691</ele>
<time>2017-02-01T01:34:18.714Z</time>
</trkpt>
<trkpt lat="-26.4274321" lon="152.9122992">
<ele>102.076</ele>
<time>2017-02-01T01:34:21.670Z</time>
</trkpt>
<trkpt lat="-26.4269947" lon="152.9121461">
<ele>102.484</ele>
<time>2017-02-01T01:34:24.658Z</time>
</trkpt>
<trkpt lat="-26.4266931" lon="152.9120554">
<ele>102.914</ele>
<time>2017-02-01T01:34:26.652Z</time>
</trkpt>
<trkpt lat="-26.4263792" lon="152.9119911">
<ele>103.242</ele>
<time>2017-02-01T01:34:28.645Z</time>
</trkpt>
<trkpt lat="-26.4260564" lon="152.9119393">
<ele>103.230</ele>
<time>2017-02-01T01:34:30.648Z</time>
</trkpt>
<trkpt lat="-26.4257195" lon="152.9119224">
<ele>102.888</ele>
<time>2017-02-01T01:34:32.716Z</time>
</trkpt>
<trkpt lat="-26.4252429" lon="152.9119058">
<ele>102.506</ele>
<time>2017-02-01T01:34:35.683Z</time>
</trkpt>
<trkpt lat="-26.4249360" lon="152.9119053">
<ele>102.327</ele>
<time>2017-02-01T01:34:37.640Z</time>
</trkpt>
<trkpt lat="-26.4246295" lon="152.9119105">
<ele>102.452</ele>
<time>2017-02-01T01:34:39.644Z</time>
</trkpt>
<trkpt lat="-26.4243366" lon="152.9119027">
<ele>102.894</ele>
<time>2017-02-01T01:34:41.598Z</time>
</trkpt>
<trkpt lat="-26.4240355" lon="152.9118780">
<ele>103.408</ele>
<time>2017-02-01T01:34:43.622Z</time>
</trkpt>
<trkpt lat="-26.4237360" lon="152.9118298">
<ele>103.647</ele>
<time>2017-02-01T01:34:45.645Z</time>
</trkpt>
<trkpt lat="-26.4234418" lon="152.9117511">
<ele>103.531</ele>
<time>2017-02-01T01:34:47.681Z</time>
</trkpt>
<trkpt lat="-26.4230282" lon="152.9116159">
<ele>103.159</ele>
<time>2017-02-01T01:34:50.658Z</time>
</trkpt>
<trkpt lat="-26.4226276" lon="152.9114776">
<ele>102.680</ele>
<time>2017-02-01T01:34:53.658Z</time>
</trkpt>
<trkpt lat="-26.4223643" lon="152.9113920">
<ele>102.298</ele>
<time>2017-02-01T01:34:55.672Z</time>
</trkpt>
<trkpt lat="-26.4219902" lon="152.9112497">
<ele>102.465</ele>
<time>2017-02-01T01:34:58.631Z</time>
</trkpt>
<trkpt lat="-26.4217442" lon="152.9111362">
<ele>103.712</ele>
<time>2017-02-01T01:35:00.671Z</time>
</trkpt>
<trkpt lat="-26.4214005" lon="152.9109345">
<ele>105.678</ele>
<time>2017-02-01T01:35:03.682Z</time>
</trkpt>
<trkpt lat="-26.4210657" lon="152.9106965">
<ele>107.181</ele>
<time>2017-02-01T01:35:06.765Z</time>
</trkpt>
<trkpt lat="-26.4208530" lon="152.9105401">
<ele>107.674</ele>
<time>2017-02-01T01:35:08.876Z</time>
</trkpt>
<trkpt lat="-26.4205785" lon="152.9103889">
<ele>107.049</ele>
<time>2017-02-01T01:35:11.793Z</time>
</trkpt>
<trkpt lat="-26.4204328" lon="152.9103270">
<ele>105.350</ele>
<time>2017-02-01T01:35:13.708Z</time>
</trkpt>
<trkpt lat="-26.4202511" lon="152.9102888">
<ele>103.378</ele>
<time>2017-02-01T01:35:16.659Z</time>
</trkpt>
<trkpt lat="-26.4201577" lon="152.9102923">
<ele>102.022</ele>
<time>2017-02-01T01:35:19.000Z</time>
</trkpt>
<trkpt lat="-26.4201577" lon="152.9102923">
<ele>101.451</ele>
<time>2017-02-01T01:35:22.000Z</time>
</trkpt>
<trkpt lat="-26.4201577" lon="152.9102923">
<ele>101.385</ele>
<time>2017-02-01T01:35:22.659Z</time>
</trkpt>
<trkpt lat="-26.4199943" lon="152.9101908">
<ele>101.501</ele>
<time>2017-02-01T01:35:27.529Z</time>
</trkpt>
<trkpt lat="-26.4198333" lon="152.9101059">
<ele>101.711</ele>
<time>2017-02-01T01:35:30.503Z</time>
</trkpt>
<trkpt lat="-26.4196715" lon="152.9100420">
<ele>102.075</ele>
<time>2017-02-01T01:35:33.472Z</time>
</trkpt>
<trkpt lat="-26.4195329" lon="152.9099888">
<ele>102.602</ele>
<time>2017-02-01T01:35:36.416Z</time>
</trkpt>
<trkpt lat="-26.4194278" lon="152.9099604">
<ele>103.271</ele>
<time>2017-02-01T01:35:38.964Z</time>
</trkpt>
<trkpt lat="-26.4193159" lon="152.9099302">
<ele>103.949</ele>
<time>2017-02-01T01:35:41.733Z</time>
</trkpt>
<trkpt lat="-26.4192258" lon="152.9098940">
<ele>104.454</ele>
<time>2017-02-01T01:35:43.695Z</time>
</trkpt>
<trkpt lat="-26.4190823" lon="152.9098174">
<ele>104.736</ele>
<time>2017-02-01T01:35:46.630Z</time>
</trkpt>
<trkpt lat="-26.4189116" lon="152.9097573">
<ele>104.957</ele>
<time>2017-02-01T01:35:49.729Z</time>
</trkpt>
<trkpt lat="-26.4187455" lon="152.9097682">
<ele>105.205</ele>
<time>2017-02-01T01:35:52.619Z</time>
</trkpt>
<trkpt lat="-26.4186434" lon="152.9097936">
<ele>105.374</ele>
<time>2017-02-01T01:35:54.439Z</time>
</trkpt>
<trkpt lat="-26.4185523" lon="152.9098929">
<ele>105.383</ele>
<time>2017-02-01T01:35:56.613Z</time>
</trkpt>
<trkpt lat="-26.4184259" lon="152.9100208">
<ele>105.297</ele>
<time>2017-02-01T01:35:59.576Z</time>
</trkpt>
<trkpt lat="-26.4182623" lon="152.9100920">
<ele>105.109</ele>
<time>2017-02-01T01:36:02.623Z</time>
</trkpt>
<trkpt lat="-26.4181537" lon="152.9101287">
<ele>104.778</ele>
<time>2017-02-01T01:36:04.491Z</time>
</trkpt>
<trkpt lat="-26.4180291" lon="152.9101821">
<ele>104.394</ele>
<time>2017-02-01T01:36:06.585Z</time>
</trkpt>
<trkpt lat="-26.4178491" lon="152.9102561">
<ele>104.068</ele>
<time>2017-02-01T01:36:09.481Z</time>
</trkpt>
<trkpt lat="-26.4177224" lon="152.9103189">
<ele>103.831</ele>
<time>2017-02-01T01:36:11.518Z</time>
</trkpt>
<trkpt lat="-26.4176027" lon="152.9103468">
<ele>103.610</ele>
<time>2017-02-01T01:36:13.306Z</time>
</trkpt>
<trkpt lat="-26.4173973" lon="152.9103833">
<ele>103.333</ele>
<time>2017-02-01T01:36:16.415Z</time>
</trkpt>
<trkpt lat="-26.4172862" lon="152.9104349">
<ele>103.031</ele>
<time>2017-02-01T01:36:18.408Z</time>
</trkpt>
<trkpt lat="-26.4171707" lon="152.9104575">
<ele>102.772</ele>
<time>2017-02-01T01:36:21.000Z</time>
</trkpt>
<trkpt lat="-26.4171707" lon="152.9104575">
<ele>102.603</ele>
<time>2017-02-01T01:36:24.000Z</time>
</trkpt>
<trkpt lat="-26.4171707" lon="152.9104575">
<ele>102.536</ele>
<time>2017-02-01T01:36:27.143Z</time>
</trkpt>
<trkpt lat="-26.4170221" lon="152.9104091">
<ele>102.507</ele>
<time>2017-02-01T01:36:34.342Z</time>
</trkpt>
<trkpt lat="-26.4169201" lon="152.9103888">
<ele>102.412</ele>
<time>2017-02-01T01:36:37.973Z</time>
</trkpt>
<trkpt lat="-26.4168175" lon="152.9103730">
<ele>102.142</ele>
<time>2017-02-01T01:36:43.973Z</time>
</trkpt>
<trkpt lat="-26.4167296" lon="152.9103468">
<ele>101.757</ele>
<time>2017-02-01T01:36:50.000Z</time>
</trkpt>
<trkpt lat="-26.4167296" lon="152.9103468">
<ele>101.462</ele>
<time>2017-02-01T01:36:51.000Z</time>
</trkpt>
<trkpt lat="-26.4167296" lon="152.9103468">
<ele>101.344</ele>
<time>2017-02-01T01:39:48.814Z</time>
</trkpt>
<trkpt lat="-26.4165438" lon="152.9103322">
<ele>101.372</ele>
<time>2017-02-01T01:39:54.807Z</time>
</trkpt>
<trkpt lat="-26.4164296" lon="152.9102940">
<ele>101.995</ele>
<time>2017-02-01T01:39:56.746Z</time>
</trkpt>
<trkpt lat="-26.4162281" lon="152.9102381">
<ele>103.427</ele>
<time>2017-02-01T01:39:59.986Z</time>
</trkpt>
<trkpt lat="-26.4161045" lon="152.9102023">
<ele>104.709</ele>
<time>2017-02-01T01:40:02.730Z</time>
</trkpt>
<trkpt lat="-26.4160116" lon="152.9101421">
<ele>104.985</ele>
<time>2017-02-01T01:40:05.518Z</time>
</trkpt>
<trkpt lat="-26.4160174" lon="152.9100020">
<ele>104.423</ele>
<time>2017-02-01T01:40:08.444Z</time>
</trkpt>
<trkpt lat="-26.4160324" lon="152.9098778">
<ele>103.508</ele>
<time>2017-02-01T01:40:10.729Z</time>
</trkpt>
<trkpt lat="-26.4160516" lon="152.9097097">
<ele>102.762</ele>
<time>2017-02-01T01:40:14.238Z</time>
</trkpt>
<trkpt lat="-26.4161007" lon="152.9096195">
<ele>102.358</ele>
<time>2017-02-01T01:40:17.197Z</time>
</trkpt>
<trkpt lat="-26.4161963" lon="152.9095544">
<ele>102.006</ele>
<time>2017-02-01T01:40:21.011Z</time>
</trkpt>
<trkpt lat="-26.4163041" lon="152.9095641">
<ele>101.470</ele>
<time>2017-02-01T01:40:24.319Z</time>
</trkpt>
<trkpt lat="-26.4164250" lon="152.9095875">
<ele>100.852</ele>
<time>2017-02-01T01:40:27.630Z</time>
</trkpt>
<trkpt lat="-26.4165184" lon="152.9096024">
<ele>100.407</ele>
<time>2017-02-01T01:40:30.147Z</time>
</trkpt>
<trkpt lat="-26.4166230" lon="152.9096555">
<ele>100.194</ele>
<time>2017-02-01T01:40:32.881Z</time>
</trkpt>
<trkpt lat="-26.4167253" lon="152.9096913">
<ele>100.077</ele>
<time>2017-02-01T01:40:34.928Z</time>
</trkpt>
<trkpt lat="-26.4168341" lon="152.9097200">
<ele>100.001</ele>
<time>2017-02-01T01:40:36.892Z</time>
</trkpt>
<trkpt lat="-26.4169491" lon="152.9097422">
<ele>99.984</ele>
<time>2017-02-01T01:40:39.054Z</time>
</trkpt>
<trkpt lat="-26.4170861" lon="152.9097711">
<ele>100.053</ele>
<time>2017-02-01T01:40:42.516Z</time>
</trkpt>
<trkpt lat="-26.4171843" lon="152.9097896">
<ele>100.238</ele>
<time>2017-02-01T01:40:46.000Z</time>
</trkpt>
<trkpt lat="-26.4171843" lon="152.9097896">
<ele>100.478</ele>
<time>2017-02-01T01:40:52.000Z</time>
</trkpt>
<trkpt lat="-26.4171843" lon="152.9097896">
<ele>100.603</ele>
<time>2017-02-01T01:40:52.100Z</time>
</trkpt>
<trkpt lat="-26.4173213" lon="152.9099579">
<ele>100.552</ele>
<time>2017-02-01T01:40:59.000Z</time>
</trkpt>
<trkpt lat="-26.4173213" lon="152.9099579">
<ele>100.446</ele>
<time>2017-02-01T01:41:04.000Z</time>
</trkpt>
</trkseg>
</trk>
<extensions>
<fpdata xmlns="http://www.motionx.com/GPX-Extensions/1/1" sfv="10" origin="MotionXGPSFull 24.1 Build 5049R64">
<bin enc="base64">
RgIAAAACAAAAIF1WlUAk1kEBAAAAxoXlSGEk1kEAAE4WNCXCQA8OAAAao/4Ayst0v+CL
MkAM25YbkhxZQAAAAAARAAAATWFybm8gMXN0IEZlYiAxNwAUAAAAMSBGZWIgMjAxNyAg
NzozMiBhbQAAAAAA+YXlSGEk1kEtJUlQYSTWQZvljgCtM2iAABGcQCwAAAABAAAAlBMA
5gUfY0ADHOy9sVs7wMrLdL/gizJAAAAAAAAAFEAAAAAAAAAgQAAAAAAAYKhAAAAAAAAA
AAAAAAAAhetRuB51ckC8YM62HIlZQAEAAAAyAPV+Qa5ovwEAAAABAAAAAv76L+bEwD/z
GhBKtVrGvwEAAAAAAAAAAwAAAPztWNg2I0xAAAAAAAAAAAABAAAAFQAAAE1hcm5vXzFz
dF9GZWJfMTcuZ3B4AAEAAACMnkpQYSTWQQoAAAABAAAAEQAAAE1hcm5vIDFzdCBGZWIg
MTcAAAAAAAwAAAAAAAAAAAAAAKgBAAA1AAAsTyTWQQAAAAAAAAAAAAAAAAAAAAD/JUS8
AgAAAAAAAAAAAAAAAQAAACcAAAAyNC4xIEJ1aWxkIDUwNDlSNjQsIE1YQUUgOC4xIGIu
IDYyNlI2NAAAAAAAzWkAAAEAAAABEwAAAFUCkVgahZFYBGNfVpVAJNZBY19WlUAk1kEA
AAAAACIjPwAAAAACRl1WlUAk1kG+ogXhQCTWQQAAAF7R63JAAAAAAAJ9ssbiQCTWQdo2
CelAJNZBAABAdXJ8dEAAAAAAAjEkTP1AJNZBIbDGIEEk1kEAAEBxFVt9QAAAAAACenHJ
MEEk1kFl4MlZQSTWQQAAAJaYzYNAAAAAAAIUl4dkQSTWQac+xnlBJNZBAABgiG11hkAA
AAAAAu5ES4dBJNZBCmqGs0Ek1kEAAOAr0vyLQAAAAAAC3UGHukEk1kHzqsvZQSTWQQAA
oE5f5Y9AAAAAAAISoIzhQSTWQVdBR+1BJNZBAACgu1mukEAAAAAAAiy4ifBBJNZB7Q2H
ukIk1kEAALAXL06dQAAAAAAClE/I2UYk1kEqkMY7SyTWQQAARMiE27hAAAAAAAKpa0lB
SyTWQQmph11LJNZBAADEvX1MuUAAAAAAAkLPRzpMJNZBTtWH1k4k1kEAAPrqvt7BQAAA
AAACDp+J104k1kGsGgrmTiTWQQAANuK/+8FAAAAAAAK9HAjoTiTWQf7SyOxOJNZBAAC4
TkEFwkAAAAAAAi0iShpPJNZBaK4GKU8k1kEAAC5nuiLCQAAAAAAC8wTLKk8k1kGD3Acs
TyTWQQAAThY0JcJAAAAAAAPR6qZFYSTWQdHqpkVhJNZBAABOFjQlwkAAAAAAA0rOoEZh
JNZBSs6gRmEk1kEAAE4WNCXCQAAAAAAAAAAA
</bin>
</fpdata>
</extensions>
</gpx>